<?xml version="1.0" encoding="UTF-8" standalone="no" ?>
<gpx xmlns="http://www.topografix.com/GPX/1/1" xmlns:xsi="http://www.w3.org/2001/XMLSchema-instance" xsi:schemaLocation="http://www.topografix.com/GPX/1/1 http://www.topografix.com/GPX/1/1/gpx.xsd" version="1.1" creator="VisuGPX - https://www.visugpx.com">
  <metadata>
    <name>Le Thillot et ses alentours</name>
  </metadata>
  <trk>
    <name><![CDATA[Le Thillot et ses alentours_1]]></name>
    <trkseg>
      <trkpt lat="47.87523" lon="6.76246">
        <ele>498</ele>
        <time>2026-08-15T07:11:31.000Z</time>
      </trkpt>
      <trkpt lat="47.87523" lon="6.76246">
        <ele>498</ele>
        <time>2026-08-15T07:11:32.000Z</time>
      </trkpt>
      <trkpt lat="47.8753" lon="6.76251">
        <ele>498</ele>
        <time>2026-08-15T07:12:27.000Z</time>
      </trkpt>
      <trkpt lat="47.87532" lon="6.76257">
        <ele>497.8</ele>
        <time>2026-08-15T07:12:29.000Z</time>
      </trkpt>
      <trkpt lat="47.87529" lon="6.76278">
        <ele>497.8</ele>
        <time>2026-08-15T07:12:34.000Z</time>
      </trkpt>
      <trkpt lat="47.87529" lon="6.76297">
        <ele>498</ele>
        <time>2026-08-15T07:12:38.000Z</time>
      </trkpt>
      <trkpt lat="47.87529" lon="6.76302">
        <ele>498</ele>
        <time>2026-08-15T07:12:39.000Z</time>
      </trkpt>
      <trkpt lat="47.87528" lon="6.76313">
        <ele>497.8</ele>
        <time>2026-08-15T07:12:41.000Z</time>
      </trkpt>
      <trkpt lat="47.87519" lon="6.76329">
        <ele>498</ele>
        <time>2026-08-15T07:12:45.000Z</time>
      </trkpt>
      <trkpt lat="47.87516" lon="6.76328">
        <ele>498</ele>
        <time>2026-08-15T07:12:46.000Z</time>
      </trkpt>
      <trkpt lat="47.87509" lon="6.76325">
        <ele>498.2</ele>
        <time>2026-08-15T07:12:48.000Z</time>
      </trkpt>
      <trkpt lat="47.87506" lon="6.76325">
        <ele>498.2</ele>
        <time>2026-08-15T07:12:49.000Z</time>
      </trkpt>
      <trkpt lat="47.87503" lon="6.76326">
        <ele>498.2</ele>
        <time>2026-08-15T07:12:50.000Z</time>
      </trkpt>
      <trkpt lat="47.875" lon="6.76334">
        <ele>498.4</ele>
        <time>2026-08-15T07:12:52.000Z</time>
      </trkpt>
      <trkpt lat="47.87497" lon="6.76356">
        <ele>498</ele>
        <time>2026-08-15T07:12:56.000Z</time>
      </trkpt>
      <trkpt lat="47.87496" lon="6.76389">
        <ele>497.8</ele>
        <time>2026-08-15T07:13:01.000Z</time>
      </trkpt>
      <trkpt lat="47.87495" lon="6.76416">
        <ele>497.8</ele>
        <time>2026-08-15T07:13:05.000Z</time>
      </trkpt>
      <trkpt lat="47.87495" lon="6.76445">
        <ele>498</ele>
        <time>2026-08-15T07:13:09.000Z</time>
      </trkpt>
      <trkpt lat="47.87496" lon="6.76472">
        <ele>497.8</ele>
        <time>2026-08-15T07:13:13.000Z</time>
      </trkpt>
      <trkpt lat="47.87497" lon="6.76502">
        <ele>498</ele>
        <time>2026-08-15T07:13:17.000Z</time>
      </trkpt>
      <trkpt lat="47.87499" lon="6.76515">
        <ele>498</ele>
        <time>2026-08-15T07:13:19.000Z</time>
      </trkpt>
      <trkpt lat="47.87499" lon="6.76521">
        <ele>498.2</ele>
        <time>2026-08-15T07:13:20.000Z</time>
      </trkpt>
      <trkpt lat="47.87499" lon="6.7653">
        <ele>498.4</ele>
        <time>2026-08-15T07:13:22.000Z</time>
      </trkpt>
      <trkpt lat="47.875" lon="6.76538">
        <ele>498.4</ele>
        <time>2026-08-15T07:13:24.000Z</time>
      </trkpt>
      <trkpt lat="47.87493" lon="6.76551">
        <ele>498.6</ele>
        <time>2026-08-15T07:13:28.000Z</time>
      </trkpt>
      <trkpt lat="47.87485" lon="6.76563">
        <ele>498.8</ele>
        <time>2026-08-15T07:13:32.000Z</time>
      </trkpt>
      <trkpt lat="47.87483" lon="6.76582">
        <ele>499</ele>
        <time>2026-08-15T07:13:36.000Z</time>
      </trkpt>
      <trkpt lat="47.87482" lon="6.76594">
        <ele>499</ele>
        <time>2026-08-15T07:13:38.000Z</time>
      </trkpt>
      <trkpt lat="47.87475" lon="6.76621">
        <ele>499.4</ele>
        <time>2026-08-15T07:13:43.000Z</time>
      </trkpt>
      <trkpt lat="47.87468" lon="6.76637">
        <ele>499.6</ele>
        <time>2026-08-15T07:13:46.000Z</time>
      </trkpt>
      <trkpt lat="47.87456" lon="6.76662">
        <ele>498.4</ele>
        <time>2026-08-15T07:13:50.000Z</time>
      </trkpt>
      <trkpt lat="47.87452" lon="6.76669">
        <ele>498</ele>
        <time>2026-08-15T07:13:51.000Z</time>
      </trkpt>
      <trkpt lat="47.87438" lon="6.76689">
        <ele>497</ele>
        <time>2026-08-15T07:13:54.000Z</time>
      </trkpt>
      <trkpt lat="47.87433" lon="6.76695">
        <ele>496.8</ele>
        <time>2026-08-15T07:13:55.000Z</time>
      </trkpt>
      <trkpt lat="47.87428" lon="6.76702">
        <ele>496.6</ele>
        <time>2026-08-15T07:13:56.000Z</time>
      </trkpt>
      <trkpt lat="47.87416" lon="6.76721">
        <ele>496.6</ele>
        <time>2026-08-15T07:13:59.000Z</time>
      </trkpt>
      <trkpt lat="47.87407" lon="6.76742">
        <ele>496.8</ele>
        <time>2026-08-15T07:14:02.000Z</time>
      </trkpt>
      <trkpt lat="47.87399" lon="6.76761">
        <ele>497.8</ele>
        <time>2026-08-15T07:14:05.000Z</time>
      </trkpt>
      <trkpt lat="47.87393" lon="6.76779">
        <ele>499</ele>
        <time>2026-08-15T07:14:08.000Z</time>
      </trkpt>
      <trkpt lat="47.87391" lon="6.76784">
        <ele>499.4</ele>
        <time>2026-08-15T07:14:09.000Z</time>
      </trkpt>
      <trkpt lat="47.87387" lon="6.76796">
        <ele>500.4</ele>
        <time>2026-08-15T07:14:11.000Z</time>
      </trkpt>
      <trkpt lat="47.87382" lon="6.76811">
        <ele>501.6</ele>
        <time>2026-08-15T07:14:14.000Z</time>
      </trkpt>
      <trkpt lat="47.87378" lon="6.76827">
        <ele>502.8</ele>
        <time>2026-08-15T07:14:17.000Z</time>
      </trkpt>
      <trkpt lat="47.87376" lon="6.76832">
        <ele>503</ele>
        <time>2026-08-15T07:14:18.000Z</time>
      </trkpt>
      <trkpt lat="47.87374" lon="6.76841">
        <ele>503.8</ele>
        <time>2026-08-15T07:14:20.000Z</time>
      </trkpt>
      <trkpt lat="47.87371" lon="6.76851">
        <ele>504.6</ele>
        <time>2026-08-15T07:14:22.000Z</time>
      </trkpt>
      <trkpt lat="47.8737" lon="6.76856">
        <ele>505.2</ele>
        <time>2026-08-15T07:14:23.000Z</time>
      </trkpt>
      <trkpt lat="47.87368" lon="6.76871">
        <ele>506.4</ele>
        <time>2026-08-15T07:14:26.000Z</time>
      </trkpt>
      <trkpt lat="47.87367" lon="6.76876">
        <ele>506.8</ele>
        <time>2026-08-15T07:14:27.000Z</time>
      </trkpt>
      <trkpt lat="47.87366" lon="6.76885">
        <ele>507.4</ele>
        <time>2026-08-15T07:14:29.000Z</time>
      </trkpt>
      <trkpt lat="47.87365" lon="6.7689">
        <ele>508</ele>
        <time>2026-08-15T07:14:30.000Z</time>
      </trkpt>
      <trkpt lat="47.87364" lon="6.76898">
        <ele>508.6</ele>
        <time>2026-08-15T07:14:32.000Z</time>
      </trkpt>
      <trkpt lat="47.87363" lon="6.76902">
        <ele>509</ele>
        <time>2026-08-15T07:14:33.000Z</time>
      </trkpt>
      <trkpt lat="47.87361" lon="6.76906">
        <ele>509.2</ele>
        <time>2026-08-15T07:14:34.000Z</time>
      </trkpt>
      <trkpt lat="47.87359" lon="6.76909">
        <ele>509.6</ele>
        <time>2026-08-15T07:14:35.000Z</time>
      </trkpt>
      <trkpt lat="47.87349" lon="6.76921">
        <ele>510.8</ele>
        <time>2026-08-15T07:14:39.000Z</time>
      </trkpt>
      <trkpt lat="47.87344" lon="6.76925">
        <ele>511.4</ele>
        <time>2026-08-15T07:14:41.000Z</time>
      </trkpt>
      <trkpt lat="47.87338" lon="6.76929">
        <ele>512</ele>
        <time>2026-08-15T07:14:43.000Z</time>
      </trkpt>
      <trkpt lat="47.87326" lon="6.76934">
        <ele>513.2</ele>
        <time>2026-08-15T07:14:47.000Z</time>
      </trkpt>
      <trkpt lat="47.87323" lon="6.76934">
        <ele>513.6</ele>
        <time>2026-08-15T07:14:48.000Z</time>
      </trkpt>
      <trkpt lat="47.87317" lon="6.76935">
        <ele>514.4</ele>
        <time>2026-08-15T07:14:50.000Z</time>
      </trkpt>
      <trkpt lat="47.87307" lon="6.76933">
        <ele>515.8</ele>
        <time>2026-08-15T07:14:53.000Z</time>
      </trkpt>
      <trkpt lat="47.87301" lon="6.76928">
        <ele>516.6</ele>
        <time>2026-08-15T07:14:55.000Z</time>
      </trkpt>
      <trkpt lat="47.87299" lon="6.76925">
        <ele>517</ele>
        <time>2026-08-15T07:14:56.000Z</time>
      </trkpt>
      <trkpt lat="47.8729" lon="6.76909">
        <ele>518</ele>
        <time>2026-08-15T07:15:00.000Z</time>
      </trkpt>
      <trkpt lat="47.87285" lon="6.76897">
        <ele>519</ele>
        <time>2026-08-15T07:15:03.000Z</time>
      </trkpt>
      <trkpt lat="47.87278" lon="6.76888">
        <ele>520.2</ele>
        <time>2026-08-15T07:15:06.000Z</time>
      </trkpt>
      <trkpt lat="47.87272" lon="6.76882">
        <ele>521</ele>
        <time>2026-08-15T07:15:08.000Z</time>
      </trkpt>
      <trkpt lat="47.87267" lon="6.76877">
        <ele>521.4</ele>
        <time>2026-08-15T07:15:10.000Z</time>
      </trkpt>
      <trkpt lat="47.8725" lon="6.76866">
        <ele>523.4</ele>
        <time>2026-08-15T07:15:16.000Z</time>
      </trkpt>
      <trkpt lat="47.87247" lon="6.76864">
        <ele>523.8</ele>
        <time>2026-08-15T07:15:17.000Z</time>
      </trkpt>
      <trkpt lat="47.87244" lon="6.76863">
        <ele>524.2</ele>
        <time>2026-08-15T07:15:18.000Z</time>
      </trkpt>
      <trkpt lat="47.87234" lon="6.76855">
        <ele>525.2</ele>
        <time>2026-08-15T07:15:22.000Z</time>
      </trkpt>
      <trkpt lat="47.87226" lon="6.76851">
        <ele>526.2</ele>
        <time>2026-08-15T07:15:25.000Z</time>
      </trkpt>
      <trkpt lat="47.87224" lon="6.76849">
        <ele>526.6</ele>
        <time>2026-08-15T07:15:26.000Z</time>
      </trkpt>
      <trkpt lat="47.87215" lon="6.76843">
        <ele>527.6</ele>
        <time>2026-08-15T07:15:30.000Z</time>
      </trkpt>
      <trkpt lat="47.87205" lon="6.76835">
        <ele>528.8</ele>
        <time>2026-08-15T07:15:34.000Z</time>
      </trkpt>
      <trkpt lat="47.87199" lon="6.76831">
        <ele>529.4</ele>
        <time>2026-08-15T07:15:36.000Z</time>
      </trkpt>
      <trkpt lat="47.87194" lon="6.76828">
        <ele>530</ele>
        <time>2026-08-15T07:15:38.000Z</time>
      </trkpt>
      <trkpt lat="47.87181" lon="6.76822">
        <ele>531</ele>
        <time>2026-08-15T07:15:43.000Z</time>
      </trkpt>
      <trkpt lat="47.87178" lon="6.76821">
        <ele>531.4</ele>
        <time>2026-08-15T07:15:44.000Z</time>
      </trkpt>
      <trkpt lat="47.87166" lon="6.76817">
        <ele>532.2</ele>
        <time>2026-08-15T07:15:48.000Z</time>
      </trkpt>
      <trkpt lat="47.87155" lon="6.76814">
        <ele>533.2</ele>
        <time>2026-08-15T07:15:52.000Z</time>
      </trkpt>
      <trkpt lat="47.87153" lon="6.76813">
        <ele>533.4</ele>
        <time>2026-08-15T07:15:53.000Z</time>
      </trkpt>
      <trkpt lat="47.87141" lon="6.76811">
        <ele>534.6</ele>
        <time>2026-08-15T07:15:57.000Z</time>
      </trkpt>
      <trkpt lat="47.87135" lon="6.76811">
        <ele>535</ele>
        <time>2026-08-15T07:15:59.000Z</time>
      </trkpt>
      <trkpt lat="47.87126" lon="6.76814">
        <ele>535.8</ele>
        <time>2026-08-15T07:16:02.000Z</time>
      </trkpt>
      <trkpt lat="47.87119" lon="6.76822">
        <ele>536.8</ele>
        <time>2026-08-15T07:16:05.000Z</time>
      </trkpt>
      <trkpt lat="47.87118" lon="6.76826">
        <ele>537.2</ele>
        <time>2026-08-15T07:16:06.000Z</time>
      </trkpt>
      <trkpt lat="47.87115" lon="6.76839">
        <ele>538.2</ele>
        <time>2026-08-15T07:16:09.000Z</time>
      </trkpt>
      <trkpt lat="47.87115" lon="6.76843">
        <ele>538.6</ele>
        <time>2026-08-15T07:16:10.000Z</time>
      </trkpt>
      <trkpt lat="47.87115" lon="6.76851">
        <ele>539.4</ele>
        <time>2026-08-15T07:16:12.000Z</time>
      </trkpt>
      <trkpt lat="47.87119" lon="6.76868">
        <ele>540.6</ele>
        <time>2026-08-15T07:16:16.000Z</time>
      </trkpt>
      <trkpt lat="47.87119" lon="6.76873">
        <ele>540.8</ele>
        <time>2026-08-15T07:16:17.000Z</time>
      </trkpt>
      <trkpt lat="47.87122" lon="6.76885">
        <ele>541.8</ele>
        <time>2026-08-15T07:16:20.000Z</time>
      </trkpt>
      <trkpt lat="47.87126" lon="6.76902">
        <ele>542.8</ele>
        <time>2026-08-15T07:16:24.000Z</time>
      </trkpt>
      <trkpt lat="47.87129" lon="6.7692">
        <ele>544.2</ele>
        <time>2026-08-15T07:16:28.000Z</time>
      </trkpt>
      <trkpt lat="47.87129" lon="6.76934">
        <ele>545.2</ele>
        <time>2026-08-15T07:16:31.000Z</time>
      </trkpt>
      <trkpt lat="47.87126" lon="6.76946">
        <ele>546.4</ele>
        <time>2026-08-15T07:16:34.000Z</time>
      </trkpt>
      <trkpt lat="47.87118" lon="6.76953">
        <ele>547.8</ele>
        <time>2026-08-15T07:16:37.000Z</time>
      </trkpt>
      <trkpt lat="47.87115" lon="6.76954">
        <ele>548.2</ele>
        <time>2026-08-15T07:16:38.000Z</time>
      </trkpt>
      <trkpt lat="47.87106" lon="6.76955">
        <ele>549</ele>
        <time>2026-08-15T07:16:41.000Z</time>
      </trkpt>
      <trkpt lat="47.87097" lon="6.76953">
        <ele>549.8</ele>
        <time>2026-08-15T07:16:44.000Z</time>
      </trkpt>
      <trkpt lat="47.87094" lon="6.76953">
        <ele>550.2</ele>
        <time>2026-08-15T07:16:45.000Z</time>
      </trkpt>
      <trkpt lat="47.87085" lon="6.7695">
        <ele>551.2</ele>
        <time>2026-08-15T07:16:48.000Z</time>
      </trkpt>
      <trkpt lat="47.87073" lon="6.76948">
        <ele>552.4</ele>
        <time>2026-08-15T07:16:52.000Z</time>
      </trkpt>
      <trkpt lat="47.8707" lon="6.76947">
        <ele>552.6</ele>
        <time>2026-08-15T07:16:53.000Z</time>
      </trkpt>
      <trkpt lat="47.87061" lon="6.76945">
        <ele>553.6</ele>
        <time>2026-08-15T07:16:56.000Z</time>
      </trkpt>
      <trkpt lat="47.87049" lon="6.76946">
        <ele>554.8</ele>
        <time>2026-08-15T07:17:00.000Z</time>
      </trkpt>
      <trkpt lat="47.87039" lon="6.7695">
        <ele>555.4</ele>
        <time>2026-08-15T07:17:03.000Z</time>
      </trkpt>
      <trkpt lat="47.87032" lon="6.76953">
        <ele>555.8</ele>
        <time>2026-08-15T07:17:05.000Z</time>
      </trkpt>
      <trkpt lat="47.87019" lon="6.76958">
        <ele>557</ele>
        <time>2026-08-15T07:17:09.000Z</time>
      </trkpt>
      <trkpt lat="47.8701" lon="6.76961">
        <ele>558</ele>
        <time>2026-08-15T07:17:12.000Z</time>
      </trkpt>
      <trkpt lat="47.87007" lon="6.76962">
        <ele>558.2</ele>
        <time>2026-08-15T07:17:13.000Z</time>
      </trkpt>
      <trkpt lat="47.86994" lon="6.76965">
        <ele>559.4</ele>
        <time>2026-08-15T07:17:17.000Z</time>
      </trkpt>
      <trkpt lat="47.86978" lon="6.76968">
        <ele>560.2</ele>
        <time>2026-08-15T07:17:22.000Z</time>
      </trkpt>
      <trkpt lat="47.86971" lon="6.76969">
        <ele>560.4</ele>
        <time>2026-08-15T07:17:24.000Z</time>
      </trkpt>
      <trkpt lat="47.86951" lon="6.76972">
        <ele>561</ele>
        <time>2026-08-15T07:17:29.000Z</time>
      </trkpt>
      <trkpt lat="47.86944" lon="6.76978">
        <ele>561.2</ele>
        <time>2026-08-15T07:17:31.000Z</time>
      </trkpt>
      <trkpt lat="47.86941" lon="6.76981">
        <ele>561.6</ele>
        <time>2026-08-15T07:17:32.000Z</time>
      </trkpt>
      <trkpt lat="47.86935" lon="6.76988">
        <ele>562</ele>
        <time>2026-08-15T07:17:34.000Z</time>
      </trkpt>
      <trkpt lat="47.86927" lon="6.76998">
        <ele>562.6</ele>
        <time>2026-08-15T07:17:37.000Z</time>
      </trkpt>
      <trkpt lat="47.86914" lon="6.77011">
        <ele>563.4</ele>
        <time>2026-08-15T07:17:41.000Z</time>
      </trkpt>
      <trkpt lat="47.86908" lon="6.77018">
        <ele>563.8</ele>
        <time>2026-08-15T07:17:43.000Z</time>
      </trkpt>
      <trkpt lat="47.86898" lon="6.77028">
        <ele>564.2</ele>
        <time>2026-08-15T07:17:46.000Z</time>
      </trkpt>
      <trkpt lat="47.86887" lon="6.77036">
        <ele>564.8</ele>
        <time>2026-08-15T07:17:49.000Z</time>
      </trkpt>
      <trkpt lat="47.86884" lon="6.77038">
        <ele>565</ele>
        <time>2026-08-15T07:17:50.000Z</time>
      </trkpt>
      <trkpt lat="47.86866" lon="6.77049">
        <ele>565.8</ele>
        <time>2026-08-15T07:17:55.000Z</time>
      </trkpt>
      <trkpt lat="47.86859" lon="6.77055">
        <ele>566.2</ele>
        <time>2026-08-15T07:17:57.000Z</time>
      </trkpt>
      <trkpt lat="47.86855" lon="6.77059">
        <ele>566.2</ele>
        <time>2026-08-15T07:17:58.000Z</time>
      </trkpt>
      <trkpt lat="47.86839" lon="6.77079">
        <ele>566.6</ele>
        <time>2026-08-15T07:18:03.000Z</time>
      </trkpt>
      <trkpt lat="47.86829" lon="6.77092">
        <ele>566.8</ele>
        <time>2026-08-15T07:18:06.000Z</time>
      </trkpt>
      <trkpt lat="47.86816" lon="6.77114">
        <ele>566.8</ele>
        <time>2026-08-15T07:18:10.000Z</time>
      </trkpt>
      <trkpt lat="47.86809" lon="6.77132">
        <ele>566.6</ele>
        <time>2026-08-15T07:18:13.000Z</time>
      </trkpt>
      <trkpt lat="47.86804" lon="6.77144">
        <ele>566.6</ele>
        <time>2026-08-15T07:18:15.000Z</time>
      </trkpt>
      <trkpt lat="47.86794" lon="6.7717">
        <ele>566.6</ele>
        <time>2026-08-15T07:18:19.000Z</time>
      </trkpt>
      <trkpt lat="47.86785" lon="6.77189">
        <ele>566.8</ele>
        <time>2026-08-15T07:18:22.000Z</time>
      </trkpt>
      <trkpt lat="47.86782" lon="6.77195">
        <ele>567</ele>
        <time>2026-08-15T07:18:23.000Z</time>
      </trkpt>
      <trkpt lat="47.8677" lon="6.77219">
        <ele>567.6</ele>
        <time>2026-08-15T07:18:27.000Z</time>
      </trkpt>
      <trkpt lat="47.86768" lon="6.77226">
        <ele>567.8</ele>
        <time>2026-08-15T07:18:28.000Z</time>
      </trkpt>
      <trkpt lat="47.86766" lon="6.77233">
        <ele>568.2</ele>
        <time>2026-08-15T07:18:29.000Z</time>
      </trkpt>
      <trkpt lat="47.86756" lon="6.77256">
        <ele>569.4</ele>
        <time>2026-08-15T07:18:33.000Z</time>
      </trkpt>
      <trkpt lat="47.86747" lon="6.77279">
        <ele>570.6</ele>
        <time>2026-08-15T07:18:37.000Z</time>
      </trkpt>
      <trkpt lat="47.86738" lon="6.77301">
        <ele>571.8</ele>
        <time>2026-08-15T07:18:41.000Z</time>
      </trkpt>
      <trkpt lat="47.86731" lon="6.77323">
        <ele>573</ele>
        <time>2026-08-15T07:18:45.000Z</time>
      </trkpt>
      <trkpt lat="47.86727" lon="6.77333">
        <ele>573.8</ele>
        <time>2026-08-15T07:18:47.000Z</time>
      </trkpt>
      <trkpt lat="47.86724" lon="6.77338">
        <ele>574.2</ele>
        <time>2026-08-15T07:18:48.000Z</time>
      </trkpt>
      <trkpt lat="47.86718" lon="6.77349">
        <ele>575.4</ele>
        <time>2026-08-15T07:18:51.000Z</time>
      </trkpt>
      <trkpt lat="47.86709" lon="6.77362">
        <ele>576.2</ele>
        <time>2026-08-15T07:18:54.000Z</time>
      </trkpt>
      <trkpt lat="47.86704" lon="6.77372">
        <ele>576.4</ele>
        <time>2026-08-15T07:18:56.000Z</time>
      </trkpt>
      <trkpt lat="47.86701" lon="6.77377">
        <ele>576.4</ele>
        <time>2026-08-15T07:18:57.000Z</time>
      </trkpt>
      <trkpt lat="47.8669" lon="6.77399">
        <ele>577</ele>
        <time>2026-08-15T07:19:01.000Z</time>
      </trkpt>
      <trkpt lat="47.8668" lon="6.7742">
        <ele>577.6</ele>
        <time>2026-08-15T07:19:05.000Z</time>
      </trkpt>
      <trkpt lat="47.86674" lon="6.7743">
        <ele>577.8</ele>
        <time>2026-08-15T07:19:07.000Z</time>
      </trkpt>
      <trkpt lat="47.86669" lon="6.7744">
        <ele>578.4</ele>
        <time>2026-08-15T07:19:09.000Z</time>
      </trkpt>
      <trkpt lat="47.86666" lon="6.77445">
        <ele>578.8</ele>
        <time>2026-08-15T07:19:10.000Z</time>
      </trkpt>
      <trkpt lat="47.86659" lon="6.77458">
        <ele>580</ele>
        <time>2026-08-15T07:19:13.000Z</time>
      </trkpt>
      <trkpt lat="47.86652" lon="6.77471">
        <ele>581</ele>
        <time>2026-08-15T07:19:16.000Z</time>
      </trkpt>
      <trkpt lat="47.86649" lon="6.77475">
        <ele>581.4</ele>
        <time>2026-08-15T07:19:17.000Z</time>
      </trkpt>
      <trkpt lat="47.86643" lon="6.77489">
        <ele>582.2</ele>
        <time>2026-08-15T07:19:20.000Z</time>
      </trkpt>
      <trkpt lat="47.86638" lon="6.77498">
        <ele>582.6</ele>
        <time>2026-08-15T07:19:22.000Z</time>
      </trkpt>
      <trkpt lat="47.86632" lon="6.77512">
        <ele>583.2</ele>
        <time>2026-08-15T07:19:25.000Z</time>
      </trkpt>
      <trkpt lat="47.8662" lon="6.77537">
        <ele>584</ele>
        <time>2026-08-15T07:19:30.000Z</time>
      </trkpt>
      <trkpt lat="47.86617" lon="6.77541">
        <ele>584.2</ele>
        <time>2026-08-15T07:19:31.000Z</time>
      </trkpt>
      <trkpt lat="47.86611" lon="6.77548">
        <ele>584.4</ele>
        <time>2026-08-15T07:19:33.000Z</time>
      </trkpt>
      <trkpt lat="47.86609" lon="6.77551">
        <ele>584.4</ele>
        <time>2026-08-15T07:19:34.000Z</time>
      </trkpt>
      <trkpt lat="47.86603" lon="6.77557">
        <ele>584.8</ele>
        <time>2026-08-15T07:19:37.000Z</time>
      </trkpt>
      <trkpt lat="47.86602" lon="6.77558">
        <ele>584.8</ele>
        <time>2026-08-15T07:19:38.000Z</time>
      </trkpt>
      <trkpt lat="47.86596" lon="6.77562">
        <ele>584.8</ele>
        <time>2026-08-15T07:19:42.000Z</time>
      </trkpt>
      <trkpt lat="47.86596" lon="6.77562">
        <ele>584.8</ele>
        <time>2026-08-15T07:19:43.000Z</time>
      </trkpt>
      <trkpt lat="47.86597" lon="6.77562">
        <ele>584.6</ele>
        <time>2026-08-15T07:19:47.000Z</time>
      </trkpt>
      <trkpt lat="47.86584" lon="6.77573">
        <ele>584.2</ele>
        <time>2026-08-15T07:21:00.000Z</time>
      </trkpt>
      <trkpt lat="47.86581" lon="6.77576">
        <ele>584</ele>
        <time>2026-08-15T07:21:01.000Z</time>
      </trkpt>
      <trkpt lat="47.8657" lon="6.7759">
        <ele>583.2</ele>
        <time>2026-08-15T07:21:04.000Z</time>
      </trkpt>
      <trkpt lat="47.86559" lon="6.77608">
        <ele>582.6</ele>
        <time>2026-08-15T07:21:07.000Z</time>
      </trkpt>
      <trkpt lat="47.8655" lon="6.77627">
        <ele>582.2</ele>
        <time>2026-08-15T07:21:10.000Z</time>
      </trkpt>
      <trkpt lat="47.8654" lon="6.77652">
        <ele>582.4</ele>
        <time>2026-08-15T07:21:14.000Z</time>
      </trkpt>
      <trkpt lat="47.86537" lon="6.77658">
        <ele>582.6</ele>
        <time>2026-08-15T07:21:15.000Z</time>
      </trkpt>
      <trkpt lat="47.86529" lon="6.77682">
        <ele>583</ele>
        <time>2026-08-15T07:21:19.000Z</time>
      </trkpt>
      <trkpt lat="47.86525" lon="6.77694">
        <ele>583.2</ele>
        <time>2026-08-15T07:21:21.000Z</time>
      </trkpt>
      <trkpt lat="47.86519" lon="6.77713">
        <ele>583.6</ele>
        <time>2026-08-15T07:21:24.000Z</time>
      </trkpt>
      <trkpt lat="47.86511" lon="6.77737">
        <ele>584.2</ele>
        <time>2026-08-15T07:21:28.000Z</time>
      </trkpt>
      <trkpt lat="47.8651" lon="6.77743">
        <ele>584.6</ele>
        <time>2026-08-15T07:21:29.000Z</time>
      </trkpt>
      <trkpt lat="47.86504" lon="6.77761">
        <ele>585.4</ele>
        <time>2026-08-15T07:21:32.000Z</time>
      </trkpt>
      <trkpt lat="47.86502" lon="6.77767">
        <ele>585.4</ele>
        <time>2026-08-15T07:21:33.000Z</time>
      </trkpt>
      <trkpt lat="47.865" lon="6.77773">
        <ele>585.6</ele>
        <time>2026-08-15T07:21:34.000Z</time>
      </trkpt>
      <trkpt lat="47.86493" lon="6.77803">
        <ele>586.6</ele>
        <time>2026-08-15T07:21:39.000Z</time>
      </trkpt>
      <trkpt lat="47.8649" lon="6.77815">
        <ele>586.8</ele>
        <time>2026-08-15T07:21:41.000Z</time>
      </trkpt>
      <trkpt lat="47.86483" lon="6.7784">
        <ele>588</ele>
        <time>2026-08-15T07:21:45.000Z</time>
      </trkpt>
      <trkpt lat="47.86479" lon="6.77856">
        <ele>589.4</ele>
        <time>2026-08-15T07:21:48.000Z</time>
      </trkpt>
      <trkpt lat="47.86477" lon="6.77866">
        <ele>590.4</ele>
        <time>2026-08-15T07:21:50.000Z</time>
      </trkpt>
      <trkpt lat="47.86474" lon="6.77879">
        <ele>591.8</ele>
        <time>2026-08-15T07:21:53.000Z</time>
      </trkpt>
      <trkpt lat="47.86473" lon="6.77888">
        <ele>592.6</ele>
        <time>2026-08-15T07:21:55.000Z</time>
      </trkpt>
      <trkpt lat="47.86472" lon="6.77892">
        <ele>593</ele>
        <time>2026-08-15T07:21:56.000Z</time>
      </trkpt>
      <trkpt lat="47.86471" lon="6.77897">
        <ele>593.2</ele>
        <time>2026-08-15T07:21:57.000Z</time>
      </trkpt>
      <trkpt lat="47.8647" lon="6.77901">
        <ele>593.4</ele>
        <time>2026-08-15T07:21:58.000Z</time>
      </trkpt>
      <trkpt lat="47.86468" lon="6.77911">
        <ele>593.8</ele>
        <time>2026-08-15T07:22:00.000Z</time>
      </trkpt>
      <trkpt lat="47.86467" lon="6.77916">
        <ele>594</ele>
        <time>2026-08-15T07:22:01.000Z</time>
      </trkpt>
      <trkpt lat="47.86462" lon="6.77929">
        <ele>595</ele>
        <time>2026-08-15T07:22:04.000Z</time>
      </trkpt>
      <trkpt lat="47.86458" lon="6.77936">
        <ele>596</ele>
        <time>2026-08-15T07:22:06.000Z</time>
      </trkpt>
      <trkpt lat="47.86456" lon="6.77939">
        <ele>596.2</ele>
        <time>2026-08-15T07:22:07.000Z</time>
      </trkpt>
      <trkpt lat="47.86449" lon="6.77948">
        <ele>597.2</ele>
        <time>2026-08-15T07:22:10.000Z</time>
      </trkpt>
      <trkpt lat="47.86443" lon="6.77958">
        <ele>598.4</ele>
        <time>2026-08-15T07:22:13.000Z</time>
      </trkpt>
      <trkpt lat="47.8644" lon="6.77964">
        <ele>599</ele>
        <time>2026-08-15T07:22:15.000Z</time>
      </trkpt>
      <trkpt lat="47.86438" lon="6.77967">
        <ele>599.4</ele>
        <time>2026-08-15T07:22:16.000Z</time>
      </trkpt>
      <trkpt lat="47.86433" lon="6.77975">
        <ele>600.6</ele>
        <time>2026-08-15T07:22:19.000Z</time>
      </trkpt>
      <trkpt lat="47.86428" lon="6.77986">
        <ele>601.8</ele>
        <time>2026-08-15T07:22:22.000Z</time>
      </trkpt>
      <trkpt lat="47.86426" lon="6.77989">
        <ele>602.2</ele>
        <time>2026-08-15T07:22:23.000Z</time>
      </trkpt>
      <trkpt lat="47.86422" lon="6.77998">
        <ele>603</ele>
        <time>2026-08-15T07:22:25.000Z</time>
      </trkpt>
      <trkpt lat="47.86416" lon="6.78008">
        <ele>604.4</ele>
        <time>2026-08-15T07:22:28.000Z</time>
      </trkpt>
      <trkpt lat="47.86409" lon="6.78019">
        <ele>605.8</ele>
        <time>2026-08-15T07:22:31.000Z</time>
      </trkpt>
      <trkpt lat="47.86402" lon="6.78028">
        <ele>607.2</ele>
        <time>2026-08-15T07:22:34.000Z</time>
      </trkpt>
      <trkpt lat="47.86395" lon="6.78039">
        <ele>608.6</ele>
        <time>2026-08-15T07:22:37.000Z</time>
      </trkpt>
      <trkpt lat="47.86389" lon="6.7805">
        <ele>609.6</ele>
        <time>2026-08-15T07:22:40.000Z</time>
      </trkpt>
      <trkpt lat="47.86386" lon="6.78054">
        <ele>610</ele>
        <time>2026-08-15T07:22:41.000Z</time>
      </trkpt>
      <trkpt lat="47.86382" lon="6.78062">
        <ele>610.8</ele>
        <time>2026-08-15T07:22:43.000Z</time>
      </trkpt>
      <trkpt lat="47.86376" lon="6.78074">
        <ele>612</ele>
        <time>2026-08-15T07:22:46.000Z</time>
      </trkpt>
      <trkpt lat="47.86368" lon="6.78089">
        <ele>613</ele>
        <time>2026-08-15T07:22:50.000Z</time>
      </trkpt>
      <trkpt lat="47.86367" lon="6.78093">
        <ele>613.2</ele>
        <time>2026-08-15T07:22:51.000Z</time>
      </trkpt>
      <trkpt lat="47.86362" lon="6.78105">
        <ele>614</ele>
        <time>2026-08-15T07:22:54.000Z</time>
      </trkpt>
      <trkpt lat="47.86356" lon="6.78122">
        <ele>615.4</ele>
        <time>2026-08-15T07:22:58.000Z</time>
      </trkpt>
      <trkpt lat="47.86349" lon="6.78139">
        <ele>616.4</ele>
        <time>2026-08-15T07:23:02.000Z</time>
      </trkpt>
      <trkpt lat="47.86348" lon="6.78143">
        <ele>616.8</ele>
        <time>2026-08-15T07:23:03.000Z</time>
      </trkpt>
      <trkpt lat="47.86343" lon="6.78154">
        <ele>617.6</ele>
        <time>2026-08-15T07:23:06.000Z</time>
      </trkpt>
      <trkpt lat="47.86335" lon="6.78173">
        <ele>618.8</ele>
        <time>2026-08-15T07:23:11.000Z</time>
      </trkpt>
      <trkpt lat="47.86331" lon="6.7818">
        <ele>619.4</ele>
        <time>2026-08-15T07:23:13.000Z</time>
      </trkpt>
      <trkpt lat="47.86327" lon="6.78187">
        <ele>620.2</ele>
        <time>2026-08-15T07:23:15.000Z</time>
      </trkpt>
      <trkpt lat="47.86319" lon="6.78199">
        <ele>621.4</ele>
        <time>2026-08-15T07:23:19.000Z</time>
      </trkpt>
      <trkpt lat="47.86318" lon="6.78202">
        <ele>621.6</ele>
        <time>2026-08-15T07:23:20.000Z</time>
      </trkpt>
      <trkpt lat="47.86314" lon="6.78208">
        <ele>622.6</ele>
        <time>2026-08-15T07:23:22.000Z</time>
      </trkpt>
      <trkpt lat="47.8631" lon="6.78218">
        <ele>623.6</ele>
        <time>2026-08-15T07:23:25.000Z</time>
      </trkpt>
      <trkpt lat="47.86306" lon="6.78229">
        <ele>624.4</ele>
        <time>2026-08-15T07:23:28.000Z</time>
      </trkpt>
      <trkpt lat="47.86304" lon="6.78233">
        <ele>624.6</ele>
        <time>2026-08-15T07:23:29.000Z</time>
      </trkpt>
      <trkpt lat="47.86297" lon="6.78254">
        <ele>625.6</ele>
        <time>2026-08-15T07:23:34.000Z</time>
      </trkpt>
      <trkpt lat="47.86292" lon="6.78266">
        <ele>626.4</ele>
        <time>2026-08-15T07:23:37.000Z</time>
      </trkpt>
      <trkpt lat="47.86289" lon="6.78274">
        <ele>626.8</ele>
        <time>2026-08-15T07:23:39.000Z</time>
      </trkpt>
      <trkpt lat="47.86283" lon="6.78289">
        <ele>628</ele>
        <time>2026-08-15T07:23:43.000Z</time>
      </trkpt>
      <trkpt lat="47.86278" lon="6.78306">
        <ele>629</ele>
        <time>2026-08-15T07:23:47.000Z</time>
      </trkpt>
      <trkpt lat="47.86277" lon="6.78311">
        <ele>629.2</ele>
        <time>2026-08-15T07:23:48.000Z</time>
      </trkpt>
      <trkpt lat="47.86275" lon="6.78339">
        <ele>630</ele>
        <time>2026-08-15T07:23:53.000Z</time>
      </trkpt>
      <trkpt lat="47.86275" lon="6.78344">
        <ele>630.2</ele>
        <time>2026-08-15T07:23:54.000Z</time>
      </trkpt>
      <trkpt lat="47.86268" lon="6.78372">
        <ele>630.8</ele>
        <time>2026-08-15T07:23:59.000Z</time>
      </trkpt>
      <trkpt lat="47.86266" lon="6.78376">
        <ele>631</ele>
        <time>2026-08-15T07:24:00.000Z</time>
      </trkpt>
      <trkpt lat="47.86261" lon="6.78385">
        <ele>631.2</ele>
        <time>2026-08-15T07:24:02.000Z</time>
      </trkpt>
      <trkpt lat="47.86248" lon="6.78406">
        <ele>632</ele>
        <time>2026-08-15T07:24:07.000Z</time>
      </trkpt>
      <trkpt lat="47.86243" lon="6.78412">
        <ele>632.4</ele>
        <time>2026-08-15T07:24:09.000Z</time>
      </trkpt>
      <trkpt lat="47.86235" lon="6.78429">
        <ele>633.2</ele>
        <time>2026-08-15T07:24:13.000Z</time>
      </trkpt>
      <trkpt lat="47.86231" lon="6.78438">
        <ele>633.6</ele>
        <time>2026-08-15T07:24:15.000Z</time>
      </trkpt>
      <trkpt lat="47.86221" lon="6.78455">
        <ele>634.8</ele>
        <time>2026-08-15T07:24:19.000Z</time>
      </trkpt>
      <trkpt lat="47.86213" lon="6.78465">
        <ele>636.6</ele>
        <time>2026-08-15T07:24:22.000Z</time>
      </trkpt>
      <trkpt lat="47.86211" lon="6.78472">
        <ele>638.2</ele>
        <time>2026-08-15T07:24:24.000Z</time>
      </trkpt>
      <trkpt lat="47.86209" lon="6.7848">
        <ele>639.4</ele>
        <time>2026-08-15T07:24:26.000Z</time>
      </trkpt>
      <trkpt lat="47.86207" lon="6.78487">
        <ele>640.6</ele>
        <time>2026-08-15T07:24:28.000Z</time>
      </trkpt>
      <trkpt lat="47.86205" lon="6.78494">
        <ele>641.8</ele>
        <time>2026-08-15T07:24:30.000Z</time>
      </trkpt>
      <trkpt lat="47.86204" lon="6.78497">
        <ele>642.2</ele>
        <time>2026-08-15T07:24:31.000Z</time>
      </trkpt>
      <trkpt lat="47.86202" lon="6.78501">
        <ele>642.8</ele>
        <time>2026-08-15T07:24:32.000Z</time>
      </trkpt>
      <trkpt lat="47.86198" lon="6.7851">
        <ele>644</ele>
        <time>2026-08-15T07:24:35.000Z</time>
      </trkpt>
      <trkpt lat="47.86196" lon="6.78516">
        <ele>644.8</ele>
        <time>2026-08-15T07:24:37.000Z</time>
      </trkpt>
      <trkpt lat="47.86193" lon="6.78521">
        <ele>645.2</ele>
        <time>2026-08-15T07:24:39.000Z</time>
      </trkpt>
      <trkpt lat="47.86186" lon="6.78532">
        <ele>646.2</ele>
        <time>2026-08-15T07:24:43.000Z</time>
      </trkpt>
      <trkpt lat="47.86184" lon="6.78534">
        <ele>646.6</ele>
        <time>2026-08-15T07:24:44.000Z</time>
      </trkpt>
      <trkpt lat="47.86182" lon="6.78536">
        <ele>647</ele>
        <time>2026-08-15T07:24:45.000Z</time>
      </trkpt>
      <trkpt lat="47.86181" lon="6.78538">
        <ele>647.2</ele>
        <time>2026-08-15T07:24:46.000Z</time>
      </trkpt>
      <trkpt lat="47.86179" lon="6.78541">
        <ele>647.6</ele>
        <time>2026-08-15T07:24:47.000Z</time>
      </trkpt>
      <trkpt lat="47.86176" lon="6.7855">
        <ele>648.8</ele>
        <time>2026-08-15T07:24:50.000Z</time>
      </trkpt>
      <trkpt lat="47.86172" lon="6.78558">
        <ele>650.2</ele>
        <time>2026-08-15T07:24:53.000Z</time>
      </trkpt>
      <trkpt lat="47.86169" lon="6.78567">
        <ele>651.2</ele>
        <time>2026-08-15T07:24:56.000Z</time>
      </trkpt>
      <trkpt lat="47.86168" lon="6.7857">
        <ele>651.4</ele>
        <time>2026-08-15T07:24:57.000Z</time>
      </trkpt>
      <trkpt lat="47.86163" lon="6.78581">
        <ele>652.2</ele>
        <time>2026-08-15T07:25:01.000Z</time>
      </trkpt>
      <trkpt lat="47.86159" lon="6.7859">
        <ele>652.8</ele>
        <time>2026-08-15T07:25:04.000Z</time>
      </trkpt>
      <trkpt lat="47.86155" lon="6.78596">
        <ele>653.4</ele>
        <time>2026-08-15T07:25:06.000Z</time>
      </trkpt>
      <trkpt lat="47.86144" lon="6.78612">
        <ele>654</ele>
        <time>2026-08-15T07:25:11.000Z</time>
      </trkpt>
      <trkpt lat="47.86136" lon="6.78623">
        <ele>654.4</ele>
        <time>2026-08-15T07:25:14.000Z</time>
      </trkpt>
      <trkpt lat="47.86131" lon="6.78628">
        <ele>655.2</ele>
        <time>2026-08-15T07:25:16.000Z</time>
      </trkpt>
      <trkpt lat="47.86129" lon="6.7863">
        <ele>655.8</ele>
        <time>2026-08-15T07:25:17.000Z</time>
      </trkpt>
      <trkpt lat="47.86122" lon="6.78632">
        <ele>656.8</ele>
        <time>2026-08-15T07:25:20.000Z</time>
      </trkpt>
      <trkpt lat="47.86114" lon="6.78633">
        <ele>657.2</ele>
        <time>2026-08-15T07:25:23.000Z</time>
      </trkpt>
      <trkpt lat="47.86095" lon="6.78633">
        <ele>657.8</ele>
        <time>2026-08-15T07:25:29.000Z</time>
      </trkpt>
      <trkpt lat="47.86092" lon="6.78632">
        <ele>658</ele>
        <time>2026-08-15T07:25:30.000Z</time>
      </trkpt>
      <trkpt lat="47.86079" lon="6.78625">
        <ele>658.8</ele>
        <time>2026-08-15T07:25:35.000Z</time>
      </trkpt>
      <trkpt lat="47.86069" lon="6.78621">
        <ele>659.2</ele>
        <time>2026-08-15T07:25:38.000Z</time>
      </trkpt>
      <trkpt lat="47.86061" lon="6.7862">
        <ele>660.6</ele>
        <time>2026-08-15T07:25:41.000Z</time>
      </trkpt>
      <trkpt lat="47.86059" lon="6.7862">
        <ele>661.4</ele>
        <time>2026-08-15T07:25:42.000Z</time>
      </trkpt>
      <trkpt lat="47.86056" lon="6.7862">
        <ele>661.8</ele>
        <time>2026-08-15T07:25:43.000Z</time>
      </trkpt>
      <trkpt lat="47.86046" lon="6.78626">
        <ele>662.6</ele>
        <time>2026-08-15T07:25:48.000Z</time>
      </trkpt>
      <trkpt lat="47.86034" lon="6.78632">
        <ele>662.8</ele>
        <time>2026-08-15T07:25:53.000Z</time>
      </trkpt>
      <trkpt lat="47.86029" lon="6.78632">
        <ele>663.2</ele>
        <time>2026-08-15T07:25:55.000Z</time>
      </trkpt>
      <trkpt lat="47.86024" lon="6.78631">
        <ele>663.6</ele>
        <time>2026-08-15T07:25:57.000Z</time>
      </trkpt>
      <trkpt lat="47.86019" lon="6.78628">
        <ele>664</ele>
        <time>2026-08-15T07:25:59.000Z</time>
      </trkpt>
      <trkpt lat="47.86012" lon="6.78621">
        <ele>664.4</ele>
        <time>2026-08-15T07:26:02.000Z</time>
      </trkpt>
      <trkpt lat="47.86007" lon="6.78612">
        <ele>665.2</ele>
        <time>2026-08-15T07:26:05.000Z</time>
      </trkpt>
      <trkpt lat="47.86002" lon="6.78606">
        <ele>666</ele>
        <time>2026-08-15T07:26:08.000Z</time>
      </trkpt>
      <trkpt lat="47.85998" lon="6.78603">
        <ele>666.2</ele>
        <time>2026-08-15T07:26:10.000Z</time>
      </trkpt>
      <trkpt lat="47.85993" lon="6.78601">
        <ele>666.6</ele>
        <time>2026-08-15T07:26:13.000Z</time>
      </trkpt>
      <trkpt lat="47.85989" lon="6.786">
        <ele>667.4</ele>
        <time>2026-08-15T07:26:16.000Z</time>
      </trkpt>
      <trkpt lat="47.85982" lon="6.78598">
        <ele>668.6</ele>
        <time>2026-08-15T07:26:20.000Z</time>
      </trkpt>
      <trkpt lat="47.85968" lon="6.78598">
        <ele>669.6</ele>
        <time>2026-08-15T07:26:26.000Z</time>
      </trkpt>
      <trkpt lat="47.85966" lon="6.78598">
        <ele>669.8</ele>
        <time>2026-08-15T07:26:27.000Z</time>
      </trkpt>
      <trkpt lat="47.8596" lon="6.78594">
        <ele>670.8</ele>
        <time>2026-08-15T07:26:31.000Z</time>
      </trkpt>
      <trkpt lat="47.85958" lon="6.78593">
        <ele>671</ele>
        <time>2026-08-15T07:26:32.000Z</time>
      </trkpt>
      <trkpt lat="47.85952" lon="6.78589">
        <ele>671.8</ele>
        <time>2026-08-15T07:26:35.000Z</time>
      </trkpt>
      <trkpt lat="47.85947" lon="6.78579">
        <ele>672.4</ele>
        <time>2026-08-15T07:26:39.000Z</time>
      </trkpt>
      <trkpt lat="47.85946" lon="6.78574">
        <ele>672.8</ele>
        <time>2026-08-15T07:26:41.000Z</time>
      </trkpt>
      <trkpt lat="47.85943" lon="6.7856">
        <ele>673.6</ele>
        <time>2026-08-15T07:26:46.000Z</time>
      </trkpt>
      <trkpt lat="47.85942" lon="6.78554">
        <ele>673.8</ele>
        <time>2026-08-15T07:26:48.000Z</time>
      </trkpt>
      <trkpt lat="47.85942" lon="6.7855">
        <ele>674</ele>
        <time>2026-08-15T07:26:52.000Z</time>
      </trkpt>
      <trkpt lat="47.85942" lon="6.78546">
        <ele>674.4</ele>
        <time>2026-08-15T07:27:00.000Z</time>
      </trkpt>
      <trkpt lat="47.85942" lon="6.78545">
        <ele>674.4</ele>
        <time>2026-08-15T07:27:01.000Z</time>
      </trkpt>
      <trkpt lat="47.8594" lon="6.78529">
        <ele>675</ele>
        <time>2026-08-15T07:27:11.000Z</time>
      </trkpt>
      <trkpt lat="47.8594" lon="6.78528">
        <ele>675.2</ele>
        <time>2026-08-15T07:27:12.000Z</time>
      </trkpt>
      <trkpt lat="47.8594" lon="6.78527">
        <ele>675.2</ele>
        <time>2026-08-15T07:27:14.000Z</time>
      </trkpt>
      <trkpt lat="47.85938" lon="6.78508">
        <ele>675.8</ele>
        <time>2026-08-15T07:27:27.000Z</time>
      </trkpt>
      <trkpt lat="47.85926" lon="6.78484">
        <ele>674.8</ele>
        <time>2026-08-15T07:27:33.000Z</time>
      </trkpt>
      <trkpt lat="47.85913" lon="6.78466">
        <ele>674.2</ele>
        <time>2026-08-15T07:27:38.000Z</time>
      </trkpt>
      <trkpt lat="47.85912" lon="6.78461">
        <ele>673.8</ele>
        <time>2026-08-15T07:27:39.000Z</time>
      </trkpt>
      <trkpt lat="47.85911" lon="6.78448">
        <ele>673.2</ele>
        <time>2026-08-15T07:27:42.000Z</time>
      </trkpt>
      <trkpt lat="47.85912" lon="6.78446">
        <ele>673.2</ele>
        <time>2026-08-15T07:27:43.000Z</time>
      </trkpt>
      <trkpt lat="47.8592" lon="6.78444">
        <ele>673.4</ele>
        <time>2026-08-15T07:27:45.000Z</time>
      </trkpt>
      <trkpt lat="47.8594" lon="6.78442">
        <ele>673.4</ele>
        <time>2026-08-15T07:27:51.000Z</time>
      </trkpt>
      <trkpt lat="47.85943" lon="6.78442">
        <ele>673.6</ele>
        <time>2026-08-15T07:27:52.000Z</time>
      </trkpt>
      <trkpt lat="47.85965" lon="6.78433">
        <ele>673.4</ele>
        <time>2026-08-15T07:27:58.000Z</time>
      </trkpt>
      <trkpt lat="47.85968" lon="6.78429">
        <ele>673.4</ele>
        <time>2026-08-15T07:27:59.000Z</time>
      </trkpt>
      <trkpt lat="47.85976" lon="6.78409">
        <ele>673.2</ele>
        <time>2026-08-15T07:28:03.000Z</time>
      </trkpt>
      <trkpt lat="47.85986" lon="6.78382">
        <ele>673.2</ele>
        <time>2026-08-15T07:28:08.000Z</time>
      </trkpt>
      <trkpt lat="47.85988" lon="6.78377">
        <ele>673.2</ele>
        <time>2026-08-15T07:28:09.000Z</time>
      </trkpt>
      <trkpt lat="47.85997" lon="6.78348">
        <ele>673.4</ele>
        <time>2026-08-15T07:28:14.000Z</time>
      </trkpt>
      <trkpt lat="47.85997" lon="6.78342">
        <ele>673.8</ele>
        <time>2026-08-15T07:28:15.000Z</time>
      </trkpt>
      <trkpt lat="47.85994" lon="6.7832">
        <ele>674.8</ele>
        <time>2026-08-15T07:28:19.000Z</time>
      </trkpt>
      <trkpt lat="47.85993" lon="6.78317">
        <ele>675.2</ele>
        <time>2026-08-15T07:28:20.000Z</time>
      </trkpt>
      <trkpt lat="47.85992" lon="6.7831">
        <ele>676</ele>
        <time>2026-08-15T07:28:22.000Z</time>
      </trkpt>
      <trkpt lat="47.85987" lon="6.78298">
        <ele>677</ele>
        <time>2026-08-15T07:28:25.000Z</time>
      </trkpt>
      <trkpt lat="47.85983" lon="6.78285">
        <ele>678.2</ele>
        <time>2026-08-15T07:28:28.000Z</time>
      </trkpt>
      <trkpt lat="47.85981" lon="6.78272">
        <ele>679</ele>
        <time>2026-08-15T07:28:31.000Z</time>
      </trkpt>
      <trkpt lat="47.8598" lon="6.78269">
        <ele>679.4</ele>
        <time>2026-08-15T07:28:32.000Z</time>
      </trkpt>
      <trkpt lat="47.85977" lon="6.78262">
        <ele>680.4</ele>
        <time>2026-08-15T07:28:34.000Z</time>
      </trkpt>
      <trkpt lat="47.85973" lon="6.78258">
        <ele>681.4</ele>
        <time>2026-08-15T07:28:36.000Z</time>
      </trkpt>
      <trkpt lat="47.85971" lon="6.78259">
        <ele>681.8</ele>
        <time>2026-08-15T07:28:37.000Z</time>
      </trkpt>
      <trkpt lat="47.85963" lon="6.78264">
        <ele>683</ele>
        <time>2026-08-15T07:28:40.000Z</time>
      </trkpt>
      <trkpt lat="47.85958" lon="6.78269">
        <ele>684.2</ele>
        <time>2026-08-15T07:28:43.000Z</time>
      </trkpt>
      <trkpt lat="47.85954" lon="6.78275">
        <ele>685.6</ele>
        <time>2026-08-15T07:28:46.000Z</time>
      </trkpt>
      <trkpt lat="47.85949" lon="6.78281">
        <ele>687</ele>
        <time>2026-08-15T07:28:49.000Z</time>
      </trkpt>
      <trkpt lat="47.85941" lon="6.78288">
        <ele>688.2</ele>
        <time>2026-08-15T07:28:53.000Z</time>
      </trkpt>
      <trkpt lat="47.85939" lon="6.78289">
        <ele>688.6</ele>
        <time>2026-08-15T07:28:54.000Z</time>
      </trkpt>
      <trkpt lat="47.85935" lon="6.78294">
        <ele>689.2</ele>
        <time>2026-08-15T07:28:56.000Z</time>
      </trkpt>
      <trkpt lat="47.85928" lon="6.78298">
        <ele>690.6</ele>
        <time>2026-08-15T07:28:59.000Z</time>
      </trkpt>
      <trkpt lat="47.85922" lon="6.78302">
        <ele>691.4</ele>
        <time>2026-08-15T07:29:01.000Z</time>
      </trkpt>
      <trkpt lat="47.8592" lon="6.78303">
        <ele>691.8</ele>
        <time>2026-08-15T07:29:02.000Z</time>
      </trkpt>
      <trkpt lat="47.85914" lon="6.78308">
        <ele>693</ele>
        <time>2026-08-15T07:29:05.000Z</time>
      </trkpt>
      <trkpt lat="47.85909" lon="6.78312">
        <ele>694.2</ele>
        <time>2026-08-15T07:29:08.000Z</time>
      </trkpt>
      <trkpt lat="47.85905" lon="6.78316">
        <ele>695.6</ele>
        <time>2026-08-15T07:29:11.000Z</time>
      </trkpt>
      <trkpt lat="47.85899" lon="6.78321">
        <ele>696.6</ele>
        <time>2026-08-15T07:29:14.000Z</time>
      </trkpt>
      <trkpt lat="47.85895" lon="6.78324">
        <ele>697.2</ele>
        <time>2026-08-15T07:29:16.000Z</time>
      </trkpt>
      <trkpt lat="47.85893" lon="6.78325">
        <ele>697.4</ele>
        <time>2026-08-15T07:29:17.000Z</time>
      </trkpt>
      <trkpt lat="47.85891" lon="6.78326">
        <ele>697.8</ele>
        <time>2026-08-15T07:29:18.000Z</time>
      </trkpt>
      <trkpt lat="47.85883" lon="6.78331">
        <ele>698.8</ele>
        <time>2026-08-15T07:29:22.000Z</time>
      </trkpt>
      <trkpt lat="47.85876" lon="6.78338">
        <ele>699.8</ele>
        <time>2026-08-15T07:29:26.000Z</time>
      </trkpt>
      <trkpt lat="47.85871" lon="6.7834">
        <ele>700.6</ele>
        <time>2026-08-15T07:29:29.000Z</time>
      </trkpt>
      <trkpt lat="47.85868" lon="6.78342">
        <ele>701</ele>
        <time>2026-08-15T07:29:31.000Z</time>
      </trkpt>
      <trkpt lat="47.8586" lon="6.78346">
        <ele>701.6</ele>
        <time>2026-08-15T07:29:35.000Z</time>
      </trkpt>
      <trkpt lat="47.85851" lon="6.78348">
        <ele>702</ele>
        <time>2026-08-15T07:29:39.000Z</time>
      </trkpt>
      <trkpt lat="47.85846" lon="6.78349">
        <ele>702.2</ele>
        <time>2026-08-15T07:29:41.000Z</time>
      </trkpt>
      <trkpt lat="47.85834" lon="6.78348">
        <ele>703</ele>
        <time>2026-08-15T07:29:46.000Z</time>
      </trkpt>
      <trkpt lat="47.85829" lon="6.78348">
        <ele>703.2</ele>
        <time>2026-08-15T07:29:48.000Z</time>
      </trkpt>
      <trkpt lat="47.85821" lon="6.78348">
        <ele>703.6</ele>
        <time>2026-08-15T07:29:51.000Z</time>
      </trkpt>
      <trkpt lat="47.85818" lon="6.78348">
        <ele>703.8</ele>
        <time>2026-08-15T07:29:52.000Z</time>
      </trkpt>
      <trkpt lat="47.85814" lon="6.78348">
        <ele>704.2</ele>
        <time>2026-08-15T07:29:54.000Z</time>
      </trkpt>
      <trkpt lat="47.85807" lon="6.78348">
        <ele>704.8</ele>
        <time>2026-08-15T07:29:57.000Z</time>
      </trkpt>
      <trkpt lat="47.85802" lon="6.78348">
        <ele>705.4</ele>
        <time>2026-08-15T07:29:59.000Z</time>
      </trkpt>
      <trkpt lat="47.85794" lon="6.78347">
        <ele>706.6</ele>
        <time>2026-08-15T07:30:03.000Z</time>
      </trkpt>
      <trkpt lat="47.85791" lon="6.78346">
        <ele>706.8</ele>
        <time>2026-08-15T07:30:05.000Z</time>
      </trkpt>
      <trkpt lat="47.85788" lon="6.78344">
        <ele>707.2</ele>
        <time>2026-08-15T07:30:07.000Z</time>
      </trkpt>
      <trkpt lat="47.85786" lon="6.78343">
        <ele>707.4</ele>
        <time>2026-08-15T07:30:08.000Z</time>
      </trkpt>
      <trkpt lat="47.85784" lon="6.78343">
        <ele>707.6</ele>
        <time>2026-08-15T07:30:09.000Z</time>
      </trkpt>
      <trkpt lat="47.8578" lon="6.78344">
        <ele>708.2</ele>
        <time>2026-08-15T07:30:11.000Z</time>
      </trkpt>
      <trkpt lat="47.85772" lon="6.78346">
        <ele>708.8</ele>
        <time>2026-08-15T07:30:15.000Z</time>
      </trkpt>
      <trkpt lat="47.85773" lon="6.78345">
        <ele>709</ele>
        <time>2026-08-15T07:30:16.000Z</time>
      </trkpt>
      <trkpt lat="47.85772" lon="6.78346">
        <ele>709.6</ele>
        <time>2026-08-15T07:30:21.000Z</time>
      </trkpt>
      <trkpt lat="47.8577" lon="6.78353">
        <ele>711.6</ele>
        <time>2026-08-15T07:32:22.000Z</time>
      </trkpt>
      <trkpt lat="47.85769" lon="6.78354">
        <ele>711.8</ele>
        <time>2026-08-15T07:32:23.000Z</time>
      </trkpt>
      <trkpt lat="47.85768" lon="6.78354">
        <ele>711.8</ele>
        <time>2026-08-15T07:32:27.000Z</time>
      </trkpt>
      <trkpt lat="47.85752" lon="6.7836">
        <ele>712.6</ele>
        <time>2026-08-15T07:32:46.000Z</time>
      </trkpt>
      <trkpt lat="47.8575" lon="6.78361">
        <ele>712.8</ele>
        <time>2026-08-15T07:32:47.000Z</time>
      </trkpt>
      <trkpt lat="47.85749" lon="6.78362">
        <ele>713</ele>
        <time>2026-08-15T07:32:48.000Z</time>
      </trkpt>
      <trkpt lat="47.85743" lon="6.78369">
        <ele>713.8</ele>
        <time>2026-08-15T07:32:52.000Z</time>
      </trkpt>
      <trkpt lat="47.85741" lon="6.78373">
        <ele>714.4</ele>
        <time>2026-08-15T07:32:54.000Z</time>
      </trkpt>
      <trkpt lat="47.85738" lon="6.78375">
        <ele>715</ele>
        <time>2026-08-15T07:32:56.000Z</time>
      </trkpt>
      <trkpt lat="47.85733" lon="6.7838">
        <ele>715.4</ele>
        <time>2026-08-15T07:33:00.000Z</time>
      </trkpt>
      <trkpt lat="47.85731" lon="6.78382">
        <ele>716</ele>
        <time>2026-08-15T07:33:03.000Z</time>
      </trkpt>
      <trkpt lat="47.85731" lon="6.78382">
        <ele>716.4</ele>
        <time>2026-08-15T07:33:06.000Z</time>
      </trkpt>
      <trkpt lat="47.85731" lon="6.78383">
        <ele>716.4</ele>
        <time>2026-08-15T07:33:07.000Z</time>
      </trkpt>
      <trkpt lat="47.85724" lon="6.78393">
        <ele>717.6</ele>
        <time>2026-08-15T07:33:15.000Z</time>
      </trkpt>
      <trkpt lat="47.85721" lon="6.78398">
        <ele>718.2</ele>
        <time>2026-08-15T07:33:19.000Z</time>
      </trkpt>
      <trkpt lat="47.8572" lon="6.78403">
        <ele>718.6</ele>
        <time>2026-08-15T07:33:21.000Z</time>
      </trkpt>
      <trkpt lat="47.85719" lon="6.78405">
        <ele>718.8</ele>
        <time>2026-08-15T07:33:23.000Z</time>
      </trkpt>
      <trkpt lat="47.8572" lon="6.78408">
        <ele>718.8</ele>
        <time>2026-08-15T07:33:25.000Z</time>
      </trkpt>
      <trkpt lat="47.85719" lon="6.78411">
        <ele>719</ele>
        <time>2026-08-15T07:33:30.000Z</time>
      </trkpt>
      <trkpt lat="47.8572" lon="6.78441">
        <ele>722.4</ele>
        <time>2026-08-15T07:34:00.000Z</time>
      </trkpt>
      <trkpt lat="47.85725" lon="6.78464">
        <ele>723.4</ele>
        <time>2026-08-15T07:34:07.000Z</time>
      </trkpt>
      <trkpt lat="47.8573" lon="6.78487">
        <ele>724.6</ele>
        <time>2026-08-15T07:34:14.000Z</time>
      </trkpt>
      <trkpt lat="47.85733" lon="6.78502">
        <ele>725.8</ele>
        <time>2026-08-15T07:34:18.000Z</time>
      </trkpt>
      <trkpt lat="47.85732" lon="6.78508">
        <ele>726.2</ele>
        <time>2026-08-15T07:34:20.000Z</time>
      </trkpt>
      <trkpt lat="47.85732" lon="6.7852">
        <ele>726.8</ele>
        <time>2026-08-15T07:34:24.000Z</time>
      </trkpt>
      <trkpt lat="47.85732" lon="6.78529">
        <ele>727.6</ele>
        <time>2026-08-15T07:34:27.000Z</time>
      </trkpt>
      <trkpt lat="47.85731" lon="6.78535">
        <ele>728</ele>
        <time>2026-08-15T07:34:29.000Z</time>
      </trkpt>
      <trkpt lat="47.85728" lon="6.78546">
        <ele>729</ele>
        <time>2026-08-15T07:34:33.000Z</time>
      </trkpt>
      <trkpt lat="47.85726" lon="6.78554">
        <ele>730</ele>
        <time>2026-08-15T07:34:36.000Z</time>
      </trkpt>
      <trkpt lat="47.85723" lon="6.78563">
        <ele>731.4</ele>
        <time>2026-08-15T07:34:40.000Z</time>
      </trkpt>
      <trkpt lat="47.85723" lon="6.78565">
        <ele>731.8</ele>
        <time>2026-08-15T07:34:41.000Z</time>
      </trkpt>
      <trkpt lat="47.85721" lon="6.7857">
        <ele>732.4</ele>
        <time>2026-08-15T07:34:43.000Z</time>
      </trkpt>
      <trkpt lat="47.85717" lon="6.78578">
        <ele>733.6</ele>
        <time>2026-08-15T07:34:47.000Z</time>
      </trkpt>
      <trkpt lat="47.85716" lon="6.78589">
        <ele>734.8</ele>
        <time>2026-08-15T07:34:51.000Z</time>
      </trkpt>
      <trkpt lat="47.85714" lon="6.78594">
        <ele>735.4</ele>
        <time>2026-08-15T07:34:53.000Z</time>
      </trkpt>
      <trkpt lat="47.85712" lon="6.78595">
        <ele>735.8</ele>
        <time>2026-08-15T07:34:54.000Z</time>
      </trkpt>
      <trkpt lat="47.85706" lon="6.78598">
        <ele>737</ele>
        <time>2026-08-15T07:34:57.000Z</time>
      </trkpt>
      <trkpt lat="47.85704" lon="6.78598">
        <ele>737.4</ele>
        <time>2026-08-15T07:34:58.000Z</time>
      </trkpt>
      <trkpt lat="47.857" lon="6.78599">
        <ele>738.2</ele>
        <time>2026-08-15T07:35:00.000Z</time>
      </trkpt>
      <trkpt lat="47.85696" lon="6.78603">
        <ele>739.6</ele>
        <time>2026-08-15T07:35:03.000Z</time>
      </trkpt>
      <trkpt lat="47.85695" lon="6.78606">
        <ele>740</ele>
        <time>2026-08-15T07:35:04.000Z</time>
      </trkpt>
      <trkpt lat="47.85693" lon="6.78611">
        <ele>740.8</ele>
        <time>2026-08-15T07:35:06.000Z</time>
      </trkpt>
      <trkpt lat="47.85692" lon="6.7862">
        <ele>742.2</ele>
        <time>2026-08-15T07:35:09.000Z</time>
      </trkpt>
      <trkpt lat="47.85691" lon="6.78622">
        <ele>742.6</ele>
        <time>2026-08-15T07:35:10.000Z</time>
      </trkpt>
      <trkpt lat="47.85691" lon="6.78626">
        <ele>743.4</ele>
        <time>2026-08-15T07:35:12.000Z</time>
      </trkpt>
      <trkpt lat="47.85691" lon="6.78635">
        <ele>744.4</ele>
        <time>2026-08-15T07:35:15.000Z</time>
      </trkpt>
      <trkpt lat="47.85691" lon="6.78641">
        <ele>745</ele>
        <time>2026-08-15T07:35:17.000Z</time>
      </trkpt>
      <trkpt lat="47.85692" lon="6.78647">
        <ele>745.8</ele>
        <time>2026-08-15T07:35:19.000Z</time>
      </trkpt>
      <trkpt lat="47.85692" lon="6.78654">
        <ele>746.8</ele>
        <time>2026-08-15T07:35:22.000Z</time>
      </trkpt>
      <trkpt lat="47.85691" lon="6.78662">
        <ele>747.8</ele>
        <time>2026-08-15T07:35:25.000Z</time>
      </trkpt>
      <trkpt lat="47.85691" lon="6.78664">
        <ele>748.2</ele>
        <time>2026-08-15T07:35:26.000Z</time>
      </trkpt>
      <trkpt lat="47.85691" lon="6.78672">
        <ele>749</ele>
        <time>2026-08-15T07:35:29.000Z</time>
      </trkpt>
      <trkpt lat="47.8569" lon="6.7868">
        <ele>750.2</ele>
        <time>2026-08-15T07:35:32.000Z</time>
      </trkpt>
      <trkpt lat="47.85689" lon="6.78683">
        <ele>750.8</ele>
        <time>2026-08-15T07:35:34.000Z</time>
      </trkpt>
      <trkpt lat="47.85689" lon="6.78685">
        <ele>751.2</ele>
        <time>2026-08-15T07:35:35.000Z</time>
      </trkpt>
      <trkpt lat="47.85688" lon="6.78692">
        <ele>752.2</ele>
        <time>2026-08-15T07:35:38.000Z</time>
      </trkpt>
      <trkpt lat="47.85687" lon="6.78701">
        <ele>753.2</ele>
        <time>2026-08-15T07:35:42.000Z</time>
      </trkpt>
      <trkpt lat="47.85686" lon="6.78705">
        <ele>753.4</ele>
        <time>2026-08-15T07:35:43.000Z</time>
      </trkpt>
      <trkpt lat="47.85684" lon="6.78719">
        <ele>754.8</ele>
        <time>2026-08-15T07:35:48.000Z</time>
      </trkpt>
      <trkpt lat="47.85683" lon="6.78724">
        <ele>755.6</ele>
        <time>2026-08-15T07:35:50.000Z</time>
      </trkpt>
      <trkpt lat="47.85683" lon="6.78726">
        <ele>755.8</ele>
        <time>2026-08-15T07:35:51.000Z</time>
      </trkpt>
      <trkpt lat="47.85682" lon="6.78735">
        <ele>756.8</ele>
        <time>2026-08-15T07:35:55.000Z</time>
      </trkpt>
      <trkpt lat="47.85681" lon="6.78736">
        <ele>757.2</ele>
        <time>2026-08-15T07:35:56.000Z</time>
      </trkpt>
      <trkpt lat="47.85679" lon="6.78743">
        <ele>758.2</ele>
        <time>2026-08-15T07:35:59.000Z</time>
      </trkpt>
      <trkpt lat="47.85678" lon="6.78749">
        <ele>759</ele>
        <time>2026-08-15T07:36:02.000Z</time>
      </trkpt>
      <trkpt lat="47.85676" lon="6.78752">
        <ele>759.4</ele>
        <time>2026-08-15T07:36:03.000Z</time>
      </trkpt>
      <trkpt lat="47.85672" lon="6.78758">
        <ele>760.4</ele>
        <time>2026-08-15T07:36:07.000Z</time>
      </trkpt>
      <trkpt lat="47.85671" lon="6.7876">
        <ele>760.8</ele>
        <time>2026-08-15T07:36:08.000Z</time>
      </trkpt>
      <trkpt lat="47.85667" lon="6.78764">
        <ele>761.8</ele>
        <time>2026-08-15T07:36:11.000Z</time>
      </trkpt>
      <trkpt lat="47.85662" lon="6.78769">
        <ele>762.8</ele>
        <time>2026-08-15T07:36:15.000Z</time>
      </trkpt>
      <trkpt lat="47.85658" lon="6.78772">
        <ele>763.2</ele>
        <time>2026-08-15T07:36:17.000Z</time>
      </trkpt>
      <trkpt lat="47.85647" lon="6.78776">
        <ele>763.8</ele>
        <time>2026-08-15T07:36:22.000Z</time>
      </trkpt>
      <trkpt lat="47.85638" lon="6.78777">
        <ele>764.6</ele>
        <time>2026-08-15T07:36:26.000Z</time>
      </trkpt>
      <trkpt lat="47.85633" lon="6.78775">
        <ele>765</ele>
        <time>2026-08-15T07:36:28.000Z</time>
      </trkpt>
      <trkpt lat="47.85627" lon="6.78773">
        <ele>766.4</ele>
        <time>2026-08-15T07:36:31.000Z</time>
      </trkpt>
      <trkpt lat="47.85622" lon="6.78773">
        <ele>767.4</ele>
        <time>2026-08-15T07:36:33.000Z</time>
      </trkpt>
      <trkpt lat="47.85616" lon="6.7877">
        <ele>768.8</ele>
        <time>2026-08-15T07:36:36.000Z</time>
      </trkpt>
      <trkpt lat="47.85613" lon="6.78763">
        <ele>769.8</ele>
        <time>2026-08-15T07:36:39.000Z</time>
      </trkpt>
      <trkpt lat="47.85607" lon="6.78749">
        <ele>771.2</ele>
        <time>2026-08-15T07:36:44.000Z</time>
      </trkpt>
      <trkpt lat="47.85604" lon="6.78744">
        <ele>772.4</ele>
        <time>2026-08-15T07:36:46.000Z</time>
      </trkpt>
      <trkpt lat="47.85602" lon="6.78737">
        <ele>773.6</ele>
        <time>2026-08-15T07:36:49.000Z</time>
      </trkpt>
      <trkpt lat="47.85599" lon="6.7873">
        <ele>774.6</ele>
        <time>2026-08-15T07:36:52.000Z</time>
      </trkpt>
      <trkpt lat="47.85595" lon="6.78723">
        <ele>775.6</ele>
        <time>2026-08-15T07:36:55.000Z</time>
      </trkpt>
      <trkpt lat="47.85591" lon="6.78723">
        <ele>776.8</ele>
        <time>2026-08-15T07:36:58.000Z</time>
      </trkpt>
      <trkpt lat="47.8559" lon="6.78724">
        <ele>777</ele>
        <time>2026-08-15T07:36:59.000Z</time>
      </trkpt>
      <trkpt lat="47.85586" lon="6.7873">
        <ele>778</ele>
        <time>2026-08-15T07:37:02.000Z</time>
      </trkpt>
      <trkpt lat="47.85585" lon="6.78732">
        <ele>778.2</ele>
        <time>2026-08-15T07:37:03.000Z</time>
      </trkpt>
      <trkpt lat="47.85578" lon="6.78736">
        <ele>778.8</ele>
        <time>2026-08-15T07:37:07.000Z</time>
      </trkpt>
      <trkpt lat="47.85577" lon="6.78737">
        <ele>779</ele>
        <time>2026-08-15T07:37:08.000Z</time>
      </trkpt>
      <trkpt lat="47.85575" lon="6.78739">
        <ele>779</ele>
        <time>2026-08-15T07:37:09.000Z</time>
      </trkpt>
      <trkpt lat="47.8556" lon="6.7875">
        <ele>779</ele>
        <time>2026-08-15T07:37:15.000Z</time>
      </trkpt>
      <trkpt lat="47.8554" lon="6.78756">
        <ele>779</ele>
        <time>2026-08-15T07:37:21.000Z</time>
      </trkpt>
      <trkpt lat="47.85537" lon="6.78755">
        <ele>779</ele>
        <time>2026-08-15T07:37:22.000Z</time>
      </trkpt>
      <trkpt lat="47.85518" lon="6.7875">
        <ele>778.6</ele>
        <time>2026-08-15T07:37:27.000Z</time>
      </trkpt>
      <trkpt lat="47.85514" lon="6.78749">
        <ele>778.6</ele>
        <time>2026-08-15T07:37:28.000Z</time>
      </trkpt>
      <trkpt lat="47.85493" lon="6.78744">
        <ele>778</ele>
        <time>2026-08-15T07:37:33.000Z</time>
      </trkpt>
      <trkpt lat="47.85488" lon="6.78742">
        <ele>777.6</ele>
        <time>2026-08-15T07:37:34.000Z</time>
      </trkpt>
      <trkpt lat="47.85469" lon="6.78738">
        <ele>776.4</ele>
        <time>2026-08-15T07:37:38.000Z</time>
      </trkpt>
      <trkpt lat="47.85456" lon="6.78733">
        <ele>776.8</ele>
        <time>2026-08-15T07:37:41.000Z</time>
      </trkpt>
      <trkpt lat="47.85441" lon="6.78721">
        <ele>777.6</ele>
        <time>2026-08-15T07:37:45.000Z</time>
      </trkpt>
      <trkpt lat="47.85433" lon="6.78713">
        <ele>777.4</ele>
        <time>2026-08-15T07:37:47.000Z</time>
      </trkpt>
      <trkpt lat="47.85417" lon="6.78699">
        <ele>777.2</ele>
        <time>2026-08-15T07:37:51.000Z</time>
      </trkpt>
      <trkpt lat="47.85399" lon="6.78688">
        <ele>776.8</ele>
        <time>2026-08-15T07:37:55.000Z</time>
      </trkpt>
      <trkpt lat="47.85394" lon="6.78688">
        <ele>776.8</ele>
        <time>2026-08-15T07:37:56.000Z</time>
      </trkpt>
      <trkpt lat="47.85384" lon="6.78688">
        <ele>777.2</ele>
        <time>2026-08-15T07:37:58.000Z</time>
      </trkpt>
      <trkpt lat="47.85375" lon="6.7869">
        <ele>777.2</ele>
        <time>2026-08-15T07:38:00.000Z</time>
      </trkpt>
      <trkpt lat="47.85356" lon="6.78686">
        <ele>777.2</ele>
        <time>2026-08-15T07:38:04.000Z</time>
      </trkpt>
      <trkpt lat="47.85341" lon="6.78682">
        <ele>776.8</ele>
        <time>2026-08-15T07:38:07.000Z</time>
      </trkpt>
      <trkpt lat="47.85322" lon="6.78683">
        <ele>776.6</ele>
        <time>2026-08-15T07:38:11.000Z</time>
      </trkpt>
      <trkpt lat="47.85312" lon="6.78687">
        <ele>776.6</ele>
        <time>2026-08-15T07:38:13.000Z</time>
      </trkpt>
      <trkpt lat="47.85299" lon="6.78694">
        <ele>776.8</ele>
        <time>2026-08-15T07:38:16.000Z</time>
      </trkpt>
      <trkpt lat="47.85292" lon="6.78703">
        <ele>776.8</ele>
        <time>2026-08-15T07:38:18.000Z</time>
      </trkpt>
      <trkpt lat="47.85283" lon="6.78726">
        <ele>776</ele>
        <time>2026-08-15T07:38:22.000Z</time>
      </trkpt>
      <trkpt lat="47.85279" lon="6.78737">
        <ele>775.4</ele>
        <time>2026-08-15T07:38:24.000Z</time>
      </trkpt>
      <trkpt lat="47.85274" lon="6.78745">
        <ele>774.4</ele>
        <time>2026-08-15T07:38:26.000Z</time>
      </trkpt>
      <trkpt lat="47.85269" lon="6.78748">
        <ele>774</ele>
        <time>2026-08-15T07:38:27.000Z</time>
      </trkpt>
      <trkpt lat="47.85259" lon="6.78755">
        <ele>772.6</ele>
        <time>2026-08-15T07:38:29.000Z</time>
      </trkpt>
      <trkpt lat="47.85247" lon="6.78759">
        <ele>771.2</ele>
        <time>2026-08-15T07:38:31.000Z</time>
      </trkpt>
      <trkpt lat="47.8523" lon="6.78763">
        <ele>770</ele>
        <time>2026-08-15T07:38:34.000Z</time>
      </trkpt>
      <trkpt lat="47.85209" lon="6.78767">
        <ele>769.6</ele>
        <time>2026-08-15T07:38:38.000Z</time>
      </trkpt>
      <trkpt lat="47.85189" lon="6.78774">
        <ele>769</ele>
        <time>2026-08-15T07:38:42.000Z</time>
      </trkpt>
      <trkpt lat="47.85184" lon="6.78777">
        <ele>769</ele>
        <time>2026-08-15T07:38:43.000Z</time>
      </trkpt>
      <trkpt lat="47.85179" lon="6.7878">
        <ele>768.8</ele>
        <time>2026-08-15T07:38:44.000Z</time>
      </trkpt>
      <trkpt lat="47.85173" lon="6.78784">
        <ele>768.4</ele>
        <time>2026-08-15T07:38:45.000Z</time>
      </trkpt>
      <trkpt lat="47.85168" lon="6.7879">
        <ele>767.8</ele>
        <time>2026-08-15T07:38:46.000Z</time>
      </trkpt>
      <trkpt lat="47.85157" lon="6.78801">
        <ele>767</ele>
        <time>2026-08-15T07:38:48.000Z</time>
      </trkpt>
      <trkpt lat="47.85151" lon="6.78805">
        <ele>766.6</ele>
        <time>2026-08-15T07:38:49.000Z</time>
      </trkpt>
      <trkpt lat="47.85135" lon="6.78814">
        <ele>766.2</ele>
        <time>2026-08-15T07:38:52.000Z</time>
      </trkpt>
      <trkpt lat="47.8513" lon="6.78816">
        <ele>766.2</ele>
        <time>2026-08-15T07:38:53.000Z</time>
      </trkpt>
      <trkpt lat="47.85123" lon="6.78818">
        <ele>766.6</ele>
        <time>2026-08-15T07:38:55.000Z</time>
      </trkpt>
      <trkpt lat="47.85116" lon="6.78819">
        <ele>767</ele>
        <time>2026-08-15T07:38:57.000Z</time>
      </trkpt>
      <trkpt lat="47.85113" lon="6.7882">
        <ele>767.6</ele>
        <time>2026-08-15T07:38:58.000Z</time>
      </trkpt>
      <trkpt lat="47.85109" lon="6.7882">
        <ele>767.8</ele>
        <time>2026-08-15T07:38:59.000Z</time>
      </trkpt>
      <trkpt lat="47.85096" lon="6.78824">
        <ele>768.4</ele>
        <time>2026-08-15T07:39:03.000Z</time>
      </trkpt>
      <trkpt lat="47.85085" lon="6.7883">
        <ele>768.6</ele>
        <time>2026-08-15T07:39:06.000Z</time>
      </trkpt>
      <trkpt lat="47.85071" lon="6.78841">
        <ele>769</ele>
        <time>2026-08-15T07:39:10.000Z</time>
      </trkpt>
      <trkpt lat="47.85061" lon="6.78848">
        <ele>769.6</ele>
        <time>2026-08-15T07:39:13.000Z</time>
      </trkpt>
      <trkpt lat="47.85041" lon="6.78856">
        <ele>769.4</ele>
        <time>2026-08-15T07:39:18.000Z</time>
      </trkpt>
      <trkpt lat="47.85036" lon="6.78858">
        <ele>769.4</ele>
        <time>2026-08-15T07:39:19.000Z</time>
      </trkpt>
      <trkpt lat="47.85019" lon="6.78866">
        <ele>769.6</ele>
        <time>2026-08-15T07:39:23.000Z</time>
      </trkpt>
      <trkpt lat="47.85003" lon="6.78874">
        <ele>769.8</ele>
        <time>2026-08-15T07:39:27.000Z</time>
      </trkpt>
      <trkpt lat="47.84986" lon="6.78884">
        <ele>769.8</ele>
        <time>2026-08-15T07:39:31.000Z</time>
      </trkpt>
      <trkpt lat="47.84974" lon="6.78897">
        <ele>770</ele>
        <time>2026-08-15T07:39:34.000Z</time>
      </trkpt>
      <trkpt lat="47.84959" lon="6.78919">
        <ele>771.2</ele>
        <time>2026-08-15T07:39:39.000Z</time>
      </trkpt>
      <trkpt lat="47.84944" lon="6.78939">
        <ele>771.8</ele>
        <time>2026-08-15T07:39:44.000Z</time>
      </trkpt>
      <trkpt lat="47.84937" lon="6.78955">
        <ele>772.2</ele>
        <time>2026-08-15T07:39:47.000Z</time>
      </trkpt>
      <trkpt lat="47.84933" lon="6.78968">
        <ele>772.2</ele>
        <time>2026-08-15T07:39:49.000Z</time>
      </trkpt>
      <trkpt lat="47.84929" lon="6.78994">
        <ele>772.2</ele>
        <time>2026-08-15T07:39:53.000Z</time>
      </trkpt>
      <trkpt lat="47.84932" lon="6.79007">
        <ele>772.2</ele>
        <time>2026-08-15T07:39:55.000Z</time>
      </trkpt>
      <trkpt lat="47.84938" lon="6.79027">
        <ele>771.8</ele>
        <time>2026-08-15T07:39:58.000Z</time>
      </trkpt>
      <trkpt lat="47.84943" lon="6.7904">
        <ele>771</ele>
        <time>2026-08-15T07:40:00.000Z</time>
      </trkpt>
      <trkpt lat="47.84946" lon="6.79047">
        <ele>770.6</ele>
        <time>2026-08-15T07:40:01.000Z</time>
      </trkpt>
      <trkpt lat="47.84956" lon="6.7907">
        <ele>769.8</ele>
        <time>2026-08-15T07:40:04.000Z</time>
      </trkpt>
      <trkpt lat="47.84967" lon="6.791">
        <ele>769.6</ele>
        <time>2026-08-15T07:40:08.000Z</time>
      </trkpt>
      <trkpt lat="47.84968" lon="6.79107">
        <ele>769.8</ele>
        <time>2026-08-15T07:40:09.000Z</time>
      </trkpt>
      <trkpt lat="47.84974" lon="6.7913">
        <ele>770.8</ele>
        <time>2026-08-15T07:40:13.000Z</time>
      </trkpt>
      <trkpt lat="47.84976" lon="6.79136">
        <ele>771</ele>
        <time>2026-08-15T07:40:14.000Z</time>
      </trkpt>
      <trkpt lat="47.84983" lon="6.79165">
        <ele>771.2</ele>
        <time>2026-08-15T07:40:19.000Z</time>
      </trkpt>
      <trkpt lat="47.84986" lon="6.79186">
        <ele>771.2</ele>
        <time>2026-08-15T07:40:22.000Z</time>
      </trkpt>
      <trkpt lat="47.84985" lon="6.79193">
        <ele>771</ele>
        <time>2026-08-15T07:40:23.000Z</time>
      </trkpt>
      <trkpt lat="47.84984" lon="6.792">
        <ele>770.8</ele>
        <time>2026-08-15T07:40:24.000Z</time>
      </trkpt>
      <trkpt lat="47.84979" lon="6.79219">
        <ele>769.8</ele>
        <time>2026-08-15T07:40:27.000Z</time>
      </trkpt>
      <trkpt lat="47.84976" lon="6.79224">
        <ele>769.4</ele>
        <time>2026-08-15T07:40:28.000Z</time>
      </trkpt>
      <trkpt lat="47.84968" lon="6.79234">
        <ele>769</ele>
        <time>2026-08-15T07:40:30.000Z</time>
      </trkpt>
      <trkpt lat="47.84964" lon="6.79239">
        <ele>768.6</ele>
        <time>2026-08-15T07:40:31.000Z</time>
      </trkpt>
      <trkpt lat="47.8496" lon="6.79244">
        <ele>768.4</ele>
        <time>2026-08-15T07:40:32.000Z</time>
      </trkpt>
      <trkpt lat="47.84952" lon="6.7925">
        <ele>768</ele>
        <time>2026-08-15T07:40:34.000Z</time>
      </trkpt>
      <trkpt lat="47.84947" lon="6.79252">
        <ele>767.6</ele>
        <time>2026-08-15T07:40:35.000Z</time>
      </trkpt>
      <trkpt lat="47.84942" lon="6.79254">
        <ele>767</ele>
        <time>2026-08-15T07:40:36.000Z</time>
      </trkpt>
      <trkpt lat="47.84937" lon="6.79256">
        <ele>766.4</ele>
        <time>2026-08-15T07:40:37.000Z</time>
      </trkpt>
      <trkpt lat="47.84925" lon="6.79258">
        <ele>765.2</ele>
        <time>2026-08-15T07:40:39.000Z</time>
      </trkpt>
      <trkpt lat="47.84919" lon="6.79258">
        <ele>764.6</ele>
        <time>2026-08-15T07:40:40.000Z</time>
      </trkpt>
      <trkpt lat="47.84913" lon="6.79259">
        <ele>764</ele>
        <time>2026-08-15T07:40:41.000Z</time>
      </trkpt>
      <trkpt lat="47.84896" lon="6.79257">
        <ele>762.6</ele>
        <time>2026-08-15T07:40:44.000Z</time>
      </trkpt>
      <trkpt lat="47.8488" lon="6.79258">
        <ele>761.8</ele>
        <time>2026-08-15T07:40:47.000Z</time>
      </trkpt>
      <trkpt lat="47.84875" lon="6.79264">
        <ele>761.6</ele>
        <time>2026-08-15T07:40:48.000Z</time>
      </trkpt>
      <trkpt lat="47.84871" lon="6.79278">
        <ele>761</ele>
        <time>2026-08-15T07:40:50.000Z</time>
      </trkpt>
      <trkpt lat="47.84874" lon="6.79292">
        <ele>760.4</ele>
        <time>2026-08-15T07:40:52.000Z</time>
      </trkpt>
      <trkpt lat="47.84876" lon="6.79299">
        <ele>760</ele>
        <time>2026-08-15T07:40:53.000Z</time>
      </trkpt>
      <trkpt lat="47.8488" lon="6.79314">
        <ele>759.2</ele>
        <time>2026-08-15T07:40:55.000Z</time>
      </trkpt>
      <trkpt lat="47.84882" lon="6.7933">
        <ele>758.2</ele>
        <time>2026-08-15T07:40:57.000Z</time>
      </trkpt>
      <trkpt lat="47.84882" lon="6.79346">
        <ele>756.8</ele>
        <time>2026-08-15T07:40:59.000Z</time>
      </trkpt>
      <trkpt lat="47.84882" lon="6.79355">
        <ele>756.4</ele>
        <time>2026-08-15T07:41:00.000Z</time>
      </trkpt>
      <trkpt lat="47.84883" lon="6.79371">
        <ele>755.4</ele>
        <time>2026-08-15T07:41:02.000Z</time>
      </trkpt>
      <trkpt lat="47.84884" lon="6.79388">
        <ele>754.4</ele>
        <time>2026-08-15T07:41:04.000Z</time>
      </trkpt>
      <trkpt lat="47.84888" lon="6.79404">
        <ele>753</ele>
        <time>2026-08-15T07:41:06.000Z</time>
      </trkpt>
      <trkpt lat="47.8489" lon="6.79413">
        <ele>752.4</ele>
        <time>2026-08-15T07:41:07.000Z</time>
      </trkpt>
      <trkpt lat="47.84893" lon="6.79421">
        <ele>751.6</ele>
        <time>2026-08-15T07:41:08.000Z</time>
      </trkpt>
      <trkpt lat="47.84901" lon="6.79438">
        <ele>750.6</ele>
        <time>2026-08-15T07:41:10.000Z</time>
      </trkpt>
      <trkpt lat="47.84909" lon="6.79453">
        <ele>750</ele>
        <time>2026-08-15T07:41:12.000Z</time>
      </trkpt>
      <trkpt lat="47.84912" lon="6.79461">
        <ele>749.6</ele>
        <time>2026-08-15T07:41:13.000Z</time>
      </trkpt>
      <trkpt lat="47.84921" lon="6.79476">
        <ele>748.4</ele>
        <time>2026-08-15T07:41:15.000Z</time>
      </trkpt>
      <trkpt lat="47.84934" lon="6.79498">
        <ele>747.6</ele>
        <time>2026-08-15T07:41:18.000Z</time>
      </trkpt>
      <trkpt lat="47.84938" lon="6.79505">
        <ele>747.6</ele>
        <time>2026-08-15T07:41:19.000Z</time>
      </trkpt>
      <trkpt lat="47.84941" lon="6.79513">
        <ele>747.4</ele>
        <time>2026-08-15T07:41:20.000Z</time>
      </trkpt>
      <trkpt lat="47.84947" lon="6.79532">
        <ele>747.2</ele>
        <time>2026-08-15T07:41:23.000Z</time>
      </trkpt>
      <trkpt lat="47.84952" lon="6.79545">
        <ele>747.6</ele>
        <time>2026-08-15T07:41:27.000Z</time>
      </trkpt>
      <trkpt lat="47.84952" lon="6.79547">
        <ele>747.6</ele>
        <time>2026-08-15T07:41:28.000Z</time>
      </trkpt>
      <trkpt lat="47.84956" lon="6.79562">
        <ele>747.2</ele>
        <time>2026-08-15T07:41:34.000Z</time>
      </trkpt>
      <trkpt lat="47.84959" lon="6.79571">
        <ele>746.8</ele>
        <time>2026-08-15T07:41:36.000Z</time>
      </trkpt>
      <trkpt lat="47.84962" lon="6.79581">
        <ele>746.2</ele>
        <time>2026-08-15T07:41:38.000Z</time>
      </trkpt>
      <trkpt lat="47.84964" lon="6.79587">
        <ele>745.6</ele>
        <time>2026-08-15T07:41:39.000Z</time>
      </trkpt>
      <trkpt lat="47.84966" lon="6.79592">
        <ele>745</ele>
        <time>2026-08-15T07:41:40.000Z</time>
      </trkpt>
      <trkpt lat="47.84972" lon="6.79604">
        <ele>743.6</ele>
        <time>2026-08-15T07:41:42.000Z</time>
      </trkpt>
      <trkpt lat="47.84976" lon="6.7961">
        <ele>742.8</ele>
        <time>2026-08-15T07:41:43.000Z</time>
      </trkpt>
      <trkpt lat="47.8498" lon="6.79616">
        <ele>742.2</ele>
        <time>2026-08-15T07:41:44.000Z</time>
      </trkpt>
      <trkpt lat="47.84991" lon="6.79634">
        <ele>741</ele>
        <time>2026-08-15T07:41:47.000Z</time>
      </trkpt>
      <trkpt lat="47.84998" lon="6.79648">
        <ele>740.2</ele>
        <time>2026-08-15T07:41:50.000Z</time>
      </trkpt>
      <trkpt lat="47.85002" lon="6.79657">
        <ele>739.8</ele>
        <time>2026-08-15T07:41:52.000Z</time>
      </trkpt>
      <trkpt lat="47.85013" lon="6.79669">
        <ele>738.6</ele>
        <time>2026-08-15T07:41:56.000Z</time>
      </trkpt>
      <trkpt lat="47.85026" lon="6.7968">
        <ele>737.6</ele>
        <time>2026-08-15T07:42:00.000Z</time>
      </trkpt>
      <trkpt lat="47.85037" lon="6.79688">
        <ele>737.2</ele>
        <time>2026-08-15T07:42:03.000Z</time>
      </trkpt>
      <trkpt lat="47.8505" lon="6.79699">
        <ele>736.6</ele>
        <time>2026-08-15T07:42:07.000Z</time>
      </trkpt>
      <trkpt lat="47.85052" lon="6.79702">
        <ele>736.6</ele>
        <time>2026-08-15T07:42:08.000Z</time>
      </trkpt>
      <trkpt lat="47.85064" lon="6.7971">
        <ele>736</ele>
        <time>2026-08-15T07:42:13.000Z</time>
      </trkpt>
      <trkpt lat="47.85069" lon="6.79712">
        <ele>735.6</ele>
        <time>2026-08-15T07:42:15.000Z</time>
      </trkpt>
      <trkpt lat="47.85071" lon="6.79713">
        <ele>735.4</ele>
        <time>2026-08-15T07:42:16.000Z</time>
      </trkpt>
      <trkpt lat="47.85083" lon="6.79714">
        <ele>734.2</ele>
        <time>2026-08-15T07:42:22.000Z</time>
      </trkpt>
      <trkpt lat="47.85087" lon="6.79719">
        <ele>734</ele>
        <time>2026-08-15T07:42:26.000Z</time>
      </trkpt>
      <trkpt lat="47.85086" lon="6.79721">
        <ele>734.2</ele>
        <time>2026-08-15T07:42:27.000Z</time>
      </trkpt>
      <trkpt lat="47.85084" lon="6.79723">
        <ele>734.6</ele>
        <time>2026-08-15T07:42:30.000Z</time>
      </trkpt>
      <trkpt lat="47.85082" lon="6.79724">
        <ele>735</ele>
        <time>2026-08-15T07:42:32.000Z</time>
      </trkpt>
      <trkpt lat="47.85081" lon="6.79728">
        <ele>735.2</ele>
        <time>2026-08-15T07:42:34.000Z</time>
      </trkpt>
      <trkpt lat="47.85083" lon="6.79731">
        <ele>735.4</ele>
        <time>2026-08-15T07:42:35.000Z</time>
      </trkpt>
      <trkpt lat="47.85084" lon="6.79733">
        <ele>735.4</ele>
        <time>2026-08-15T07:42:36.000Z</time>
      </trkpt>
      <trkpt lat="47.85084" lon="6.79738">
        <ele>735.4</ele>
        <time>2026-08-15T07:42:39.000Z</time>
      </trkpt>
      <trkpt lat="47.85082" lon="6.79741">
        <ele>735.2</ele>
        <time>2026-08-15T07:42:41.000Z</time>
      </trkpt>
      <trkpt lat="47.85081" lon="6.79743">
        <ele>735</ele>
        <time>2026-08-15T07:42:42.000Z</time>
      </trkpt>
      <trkpt lat="47.85078" lon="6.79745">
        <ele>734.4</ele>
        <time>2026-08-15T07:42:44.000Z</time>
      </trkpt>
      <trkpt lat="47.85078" lon="6.79746">
        <ele>734</ele>
        <time>2026-08-15T07:42:45.000Z</time>
      </trkpt>
      <trkpt lat="47.85077" lon="6.79749">
        <ele>733.8</ele>
        <time>2026-08-15T07:42:46.000Z</time>
      </trkpt>
      <trkpt lat="47.85077" lon="6.79752">
        <ele>733.2</ele>
        <time>2026-08-15T07:42:47.000Z</time>
      </trkpt>
      <trkpt lat="47.85077" lon="6.79755">
        <ele>732.8</ele>
        <time>2026-08-15T07:42:48.000Z</time>
      </trkpt>
      <trkpt lat="47.85078" lon="6.79762">
        <ele>731.6</ele>
        <time>2026-08-15T07:42:51.000Z</time>
      </trkpt>
      <trkpt lat="47.85078" lon="6.79767">
        <ele>730.6</ele>
        <time>2026-08-15T07:42:53.000Z</time>
      </trkpt>
      <trkpt lat="47.85079" lon="6.7977">
        <ele>730</ele>
        <time>2026-08-15T07:42:54.000Z</time>
      </trkpt>
      <trkpt lat="47.85081" lon="6.79775">
        <ele>728.4</ele>
        <time>2026-08-15T07:42:56.000Z</time>
      </trkpt>
      <trkpt lat="47.85084" lon="6.79782">
        <ele>727.2</ele>
        <time>2026-08-15T07:42:58.000Z</time>
      </trkpt>
      <trkpt lat="47.85083" lon="6.79783">
        <ele>726.8</ele>
        <time>2026-08-15T07:42:59.000Z</time>
      </trkpt>
      <trkpt lat="47.85081" lon="6.79784">
        <ele>726.8</ele>
        <time>2026-08-15T07:43:00.000Z</time>
      </trkpt>
      <trkpt lat="47.85078" lon="6.79789">
        <ele>726.6</ele>
        <time>2026-08-15T07:43:04.000Z</time>
      </trkpt>
      <trkpt lat="47.85066" lon="6.79803">
        <ele>726.4</ele>
        <time>2026-08-15T07:43:13.000Z</time>
      </trkpt>
      <trkpt lat="47.85052" lon="6.79817">
        <ele>726.6</ele>
        <time>2026-08-15T07:43:20.000Z</time>
      </trkpt>
      <trkpt lat="47.85052" lon="6.7982">
        <ele>726.6</ele>
        <time>2026-08-15T07:43:22.000Z</time>
      </trkpt>
      <trkpt lat="47.85054" lon="6.79823">
        <ele>726.6</ele>
        <time>2026-08-15T07:43:24.000Z</time>
      </trkpt>
      <trkpt lat="47.85057" lon="6.79829">
        <ele>726.2</ele>
        <time>2026-08-15T07:43:29.000Z</time>
      </trkpt>
      <trkpt lat="47.85057" lon="6.79833">
        <ele>725.6</ele>
        <time>2026-08-15T07:43:31.000Z</time>
      </trkpt>
      <trkpt lat="47.85058" lon="6.79836">
        <ele>725</ele>
        <time>2026-08-15T07:43:33.000Z</time>
      </trkpt>
      <trkpt lat="47.8506" lon="6.79841">
        <ele>724</ele>
        <time>2026-08-15T07:43:36.000Z</time>
      </trkpt>
      <trkpt lat="47.8506" lon="6.79844">
        <ele>723.6</ele>
        <time>2026-08-15T07:43:37.000Z</time>
      </trkpt>
      <trkpt lat="47.85059" lon="6.79846">
        <ele>723.2</ele>
        <time>2026-08-15T07:43:38.000Z</time>
      </trkpt>
      <trkpt lat="47.85057" lon="6.7985">
        <ele>722.2</ele>
        <time>2026-08-15T07:43:40.000Z</time>
      </trkpt>
      <trkpt lat="47.85054" lon="6.79855">
        <ele>721</ele>
        <time>2026-08-15T07:43:44.000Z</time>
      </trkpt>
      <trkpt lat="47.85051" lon="6.79858">
        <ele>720</ele>
        <time>2026-08-15T07:43:49.000Z</time>
      </trkpt>
      <trkpt lat="47.85051" lon="6.79859">
        <ele>720</ele>
        <time>2026-08-15T07:43:50.000Z</time>
      </trkpt>
      <trkpt lat="47.85051" lon="6.7986">
        <ele>719.2</ele>
        <time>2026-08-15T07:43:55.000Z</time>
      </trkpt>
      <trkpt lat="47.85045" lon="6.79907">
        <ele>710</ele>
        <time>2026-08-15T07:45:15.000Z</time>
      </trkpt>
      <trkpt lat="47.85043" lon="6.79914">
        <ele>709</ele>
        <time>2026-08-15T07:45:17.000Z</time>
      </trkpt>
      <trkpt lat="47.85042" lon="6.79916">
        <ele>708.6</ele>
        <time>2026-08-15T07:45:18.000Z</time>
      </trkpt>
      <trkpt lat="47.85039" lon="6.79923">
        <ele>707.2</ele>
        <time>2026-08-15T07:45:21.000Z</time>
      </trkpt>
      <trkpt lat="47.85038" lon="6.79925">
        <ele>706.8</ele>
        <time>2026-08-15T07:45:22.000Z</time>
      </trkpt>
      <trkpt lat="47.85035" lon="6.79928">
        <ele>706.2</ele>
        <time>2026-08-15T07:45:24.000Z</time>
      </trkpt>
      <trkpt lat="47.85032" lon="6.79934">
        <ele>705</ele>
        <time>2026-08-15T07:45:27.000Z</time>
      </trkpt>
      <trkpt lat="47.85031" lon="6.79937">
        <ele>704.4</ele>
        <time>2026-08-15T07:45:28.000Z</time>
      </trkpt>
      <trkpt lat="47.8503" lon="6.7994">
        <ele>704</ele>
        <time>2026-08-15T07:45:29.000Z</time>
      </trkpt>
      <trkpt lat="47.85029" lon="6.79946">
        <ele>702.8</ele>
        <time>2026-08-15T07:45:31.000Z</time>
      </trkpt>
      <trkpt lat="47.85028" lon="6.79954">
        <ele>701.4</ele>
        <time>2026-08-15T07:45:33.000Z</time>
      </trkpt>
      <trkpt lat="47.85027" lon="6.79958">
        <ele>700.8</ele>
        <time>2026-08-15T07:45:34.000Z</time>
      </trkpt>
      <trkpt lat="47.85026" lon="6.79963">
        <ele>700</ele>
        <time>2026-08-15T07:45:35.000Z</time>
      </trkpt>
      <trkpt lat="47.85025" lon="6.79972">
        <ele>698.6</ele>
        <time>2026-08-15T07:45:37.000Z</time>
      </trkpt>
      <trkpt lat="47.85024" lon="6.79982">
        <ele>697.4</ele>
        <time>2026-08-15T07:45:39.000Z</time>
      </trkpt>
      <trkpt lat="47.85021" lon="6.79992">
        <ele>696</ele>
        <time>2026-08-15T07:45:41.000Z</time>
      </trkpt>
      <trkpt lat="47.85019" lon="6.79998">
        <ele>695.4</ele>
        <time>2026-08-15T07:45:42.000Z</time>
      </trkpt>
      <trkpt lat="47.85016" lon="6.80008">
        <ele>693.8</ele>
        <time>2026-08-15T07:45:44.000Z</time>
      </trkpt>
      <trkpt lat="47.8501" lon="6.80023">
        <ele>692.6</ele>
        <time>2026-08-15T07:45:47.000Z</time>
      </trkpt>
      <trkpt lat="47.85007" lon="6.80033">
        <ele>691.6</ele>
        <time>2026-08-15T07:45:49.000Z</time>
      </trkpt>
      <trkpt lat="47.85004" lon="6.80043">
        <ele>690.4</ele>
        <time>2026-08-15T07:45:51.000Z</time>
      </trkpt>
      <trkpt lat="47.85002" lon="6.80052">
        <ele>689.2</ele>
        <time>2026-08-15T07:45:53.000Z</time>
      </trkpt>
      <trkpt lat="47.85001" lon="6.80057">
        <ele>688.8</ele>
        <time>2026-08-15T07:45:54.000Z</time>
      </trkpt>
      <trkpt lat="47.84999" lon="6.80062">
        <ele>688.2</ele>
        <time>2026-08-15T07:45:55.000Z</time>
      </trkpt>
      <trkpt lat="47.84995" lon="6.80073">
        <ele>687</ele>
        <time>2026-08-15T07:45:58.000Z</time>
      </trkpt>
      <trkpt lat="47.84994" lon="6.8008">
        <ele>686.4</ele>
        <time>2026-08-15T07:46:00.000Z</time>
      </trkpt>
      <trkpt lat="47.84995" lon="6.80083">
        <ele>686</ele>
        <time>2026-08-15T07:46:05.000Z</time>
      </trkpt>
      <trkpt lat="47.84994" lon="6.80083">
        <ele>686</ele>
        <time>2026-08-15T07:46:07.000Z</time>
      </trkpt>
      <trkpt lat="47.84988" lon="6.80106">
        <ele>684.2</ele>
        <time>2026-08-15T07:46:39.000Z</time>
      </trkpt>
      <trkpt lat="47.84986" lon="6.80113">
        <ele>683.2</ele>
        <time>2026-08-15T07:46:41.000Z</time>
      </trkpt>
      <trkpt lat="47.84983" lon="6.80116">
        <ele>682.6</ele>
        <time>2026-08-15T07:46:42.000Z</time>
      </trkpt>
      <trkpt lat="47.84979" lon="6.80122">
        <ele>681.4</ele>
        <time>2026-08-15T07:46:44.000Z</time>
      </trkpt>
      <trkpt lat="47.84977" lon="6.80127">
        <ele>680.8</ele>
        <time>2026-08-15T07:46:45.000Z</time>
      </trkpt>
      <trkpt lat="47.84976" lon="6.80132">
        <ele>680.2</ele>
        <time>2026-08-15T07:46:46.000Z</time>
      </trkpt>
      <trkpt lat="47.84975" lon="6.80143">
        <ele>679.2</ele>
        <time>2026-08-15T07:46:48.000Z</time>
      </trkpt>
      <trkpt lat="47.84974" lon="6.80153">
        <ele>678.2</ele>
        <time>2026-08-15T07:46:50.000Z</time>
      </trkpt>
      <trkpt lat="47.84973" lon="6.80157">
        <ele>677.6</ele>
        <time>2026-08-15T07:46:51.000Z</time>
      </trkpt>
      <trkpt lat="47.84971" lon="6.80164">
        <ele>676.6</ele>
        <time>2026-08-15T07:46:53.000Z</time>
      </trkpt>
      <trkpt lat="47.84969" lon="6.80171">
        <ele>675.6</ele>
        <time>2026-08-15T07:46:55.000Z</time>
      </trkpt>
      <trkpt lat="47.84968" lon="6.80174">
        <ele>674.6</ele>
        <time>2026-08-15T07:46:56.000Z</time>
      </trkpt>
      <trkpt lat="47.84967" lon="6.80177">
        <ele>673.6</ele>
        <time>2026-08-15T07:46:57.000Z</time>
      </trkpt>
      <trkpt lat="47.84967" lon="6.80181">
        <ele>672.6</ele>
        <time>2026-08-15T07:46:58.000Z</time>
      </trkpt>
      <trkpt lat="47.84967" lon="6.80186">
        <ele>671.6</ele>
        <time>2026-08-15T07:46:59.000Z</time>
      </trkpt>
      <trkpt lat="47.84967" lon="6.80191">
        <ele>670.8</ele>
        <time>2026-08-15T07:47:00.000Z</time>
      </trkpt>
      <trkpt lat="47.84966" lon="6.80196">
        <ele>669.8</ele>
        <time>2026-08-15T07:47:01.000Z</time>
      </trkpt>
      <trkpt lat="47.84966" lon="6.80207">
        <ele>667.8</ele>
        <time>2026-08-15T07:47:03.000Z</time>
      </trkpt>
      <trkpt lat="47.84966" lon="6.80213">
        <ele>666.8</ele>
        <time>2026-08-15T07:47:04.000Z</time>
      </trkpt>
      <trkpt lat="47.84967" lon="6.80218">
        <ele>665.8</ele>
        <time>2026-08-15T07:47:05.000Z</time>
      </trkpt>
      <trkpt lat="47.84968" lon="6.80223">
        <ele>665</ele>
        <time>2026-08-15T07:47:06.000Z</time>
      </trkpt>
      <trkpt lat="47.84972" lon="6.80231">
        <ele>663.4</ele>
        <time>2026-08-15T07:47:08.000Z</time>
      </trkpt>
      <trkpt lat="47.84974" lon="6.80236">
        <ele>662.6</ele>
        <time>2026-08-15T07:47:10.000Z</time>
      </trkpt>
      <trkpt lat="47.84974" lon="6.80237">
        <ele>662.2</ele>
        <time>2026-08-15T07:47:11.000Z</time>
      </trkpt>
      <trkpt lat="47.84976" lon="6.8024">
        <ele>661.6</ele>
        <time>2026-08-15T07:47:15.000Z</time>
      </trkpt>
      <trkpt lat="47.84977" lon="6.80242">
        <ele>661.2</ele>
        <time>2026-08-15T07:47:18.000Z</time>
      </trkpt>
      <trkpt lat="47.84987" lon="6.80256">
        <ele>656.6</ele>
        <time>2026-08-15T07:47:32.000Z</time>
      </trkpt>
      <trkpt lat="47.84985" lon="6.80257">
        <ele>656.2</ele>
        <time>2026-08-15T07:47:33.000Z</time>
      </trkpt>
      <trkpt lat="47.84981" lon="6.80261">
        <ele>655.4</ele>
        <time>2026-08-15T07:47:35.000Z</time>
      </trkpt>
      <trkpt lat="47.84976" lon="6.80264">
        <ele>653.8</ele>
        <time>2026-08-15T07:47:38.000Z</time>
      </trkpt>
      <trkpt lat="47.84972" lon="6.80266">
        <ele>652.6</ele>
        <time>2026-08-15T07:47:40.000Z</time>
      </trkpt>
      <trkpt lat="47.84969" lon="6.8027">
        <ele>651.4</ele>
        <time>2026-08-15T07:47:42.000Z</time>
      </trkpt>
      <trkpt lat="47.8497" lon="6.80272">
        <ele>650.8</ele>
        <time>2026-08-15T07:47:43.000Z</time>
      </trkpt>
      <trkpt lat="47.84971" lon="6.80275">
        <ele>650.2</ele>
        <time>2026-08-15T07:47:44.000Z</time>
      </trkpt>
      <trkpt lat="47.84973" lon="6.80283">
        <ele>648.8</ele>
        <time>2026-08-15T07:47:46.000Z</time>
      </trkpt>
      <trkpt lat="47.84977" lon="6.80294">
        <ele>647.2</ele>
        <time>2026-08-15T07:47:48.000Z</time>
      </trkpt>
      <trkpt lat="47.8498" lon="6.80305">
        <ele>646.2</ele>
        <time>2026-08-15T07:47:50.000Z</time>
      </trkpt>
      <trkpt lat="47.84986" lon="6.80318">
        <ele>644.8</ele>
        <time>2026-08-15T07:47:53.000Z</time>
      </trkpt>
      <trkpt lat="47.84989" lon="6.80321">
        <ele>644.4</ele>
        <time>2026-08-15T07:47:54.000Z</time>
      </trkpt>
      <trkpt lat="47.84993" lon="6.80329">
        <ele>643.4</ele>
        <time>2026-08-15T07:47:56.000Z</time>
      </trkpt>
      <trkpt lat="47.85" lon="6.80333">
        <ele>642</ele>
        <time>2026-08-15T07:47:58.000Z</time>
      </trkpt>
      <trkpt lat="47.85007" lon="6.80336">
        <ele>640.6</ele>
        <time>2026-08-15T07:48:00.000Z</time>
      </trkpt>
      <trkpt lat="47.85014" lon="6.80338">
        <ele>639.2</ele>
        <time>2026-08-15T07:48:02.000Z</time>
      </trkpt>
      <trkpt lat="47.85019" lon="6.8034">
        <ele>637.8</ele>
        <time>2026-08-15T07:48:04.000Z</time>
      </trkpt>
      <trkpt lat="47.85023" lon="6.80341">
        <ele>637.2</ele>
        <time>2026-08-15T07:48:05.000Z</time>
      </trkpt>
      <trkpt lat="47.85026" lon="6.80342">
        <ele>636.6</ele>
        <time>2026-08-15T07:48:06.000Z</time>
      </trkpt>
      <trkpt lat="47.85032" lon="6.80345">
        <ele>635</ele>
        <time>2026-08-15T07:48:08.000Z</time>
      </trkpt>
      <trkpt lat="47.85037" lon="6.80346">
        <ele>633.8</ele>
        <time>2026-08-15T07:48:10.000Z</time>
      </trkpt>
      <trkpt lat="47.85038" lon="6.80349">
        <ele>633.2</ele>
        <time>2026-08-15T07:48:11.000Z</time>
      </trkpt>
      <trkpt lat="47.85035" lon="6.80352">
        <ele>632.6</ele>
        <time>2026-08-15T07:48:13.000Z</time>
      </trkpt>
      <trkpt lat="47.85032" lon="6.80356">
        <ele>632</ele>
        <time>2026-08-15T07:48:15.000Z</time>
      </trkpt>
      <trkpt lat="47.85029" lon="6.80361">
        <ele>631.4</ele>
        <time>2026-08-15T07:48:17.000Z</time>
      </trkpt>
      <trkpt lat="47.85026" lon="6.80367">
        <ele>630.4</ele>
        <time>2026-08-15T07:48:19.000Z</time>
      </trkpt>
      <trkpt lat="47.85022" lon="6.80375">
        <ele>629</ele>
        <time>2026-08-15T07:48:21.000Z</time>
      </trkpt>
      <trkpt lat="47.8502" lon="6.80378">
        <ele>628.2</ele>
        <time>2026-08-15T07:48:22.000Z</time>
      </trkpt>
      <trkpt lat="47.85018" lon="6.80382">
        <ele>627.4</ele>
        <time>2026-08-15T07:48:23.000Z</time>
      </trkpt>
      <trkpt lat="47.85014" lon="6.80388">
        <ele>626</ele>
        <time>2026-08-15T07:48:25.000Z</time>
      </trkpt>
      <trkpt lat="47.85011" lon="6.80391">
        <ele>624.6</ele>
        <time>2026-08-15T07:48:27.000Z</time>
      </trkpt>
      <trkpt lat="47.85011" lon="6.80393">
        <ele>624.2</ele>
        <time>2026-08-15T07:48:28.000Z</time>
      </trkpt>
      <trkpt lat="47.85011" lon="6.80395">
        <ele>623.6</ele>
        <time>2026-08-15T07:48:29.000Z</time>
      </trkpt>
      <trkpt lat="47.8501" lon="6.804">
        <ele>622.4</ele>
        <time>2026-08-15T07:48:31.000Z</time>
      </trkpt>
      <trkpt lat="47.85008" lon="6.80405">
        <ele>620.8</ele>
        <time>2026-08-15T07:48:33.000Z</time>
      </trkpt>
      <trkpt lat="47.85007" lon="6.80408">
        <ele>620</ele>
        <time>2026-08-15T07:48:34.000Z</time>
      </trkpt>
      <trkpt lat="47.85007" lon="6.80411">
        <ele>619.2</ele>
        <time>2026-08-15T07:48:35.000Z</time>
      </trkpt>
      <trkpt lat="47.85005" lon="6.80412">
        <ele>618</ele>
        <time>2026-08-15T07:48:38.000Z</time>
      </trkpt>
      <trkpt lat="47.85005" lon="6.80412">
        <ele>618</ele>
        <time>2026-08-15T07:48:39.000Z</time>
      </trkpt>
      <trkpt lat="47.85004" lon="6.80415">
        <ele>617.6</ele>
        <time>2026-08-15T07:48:43.000Z</time>
      </trkpt>
      <trkpt lat="47.85003" lon="6.80432">
        <ele>614.6</ele>
        <time>2026-08-15T07:49:16.000Z</time>
      </trkpt>
      <trkpt lat="47.85003" lon="6.80432">
        <ele>614.6</ele>
        <time>2026-08-15T07:49:17.000Z</time>
      </trkpt>
      <trkpt lat="47.85004" lon="6.80429">
        <ele>614.8</ele>
        <time>2026-08-15T07:49:20.000Z</time>
      </trkpt>
      <trkpt lat="47.85006" lon="6.8042">
        <ele>615.8</ele>
        <time>2026-08-15T07:49:25.000Z</time>
      </trkpt>
      <trkpt lat="47.85005" lon="6.80422">
        <ele>616.2</ele>
        <time>2026-08-15T07:49:29.000Z</time>
      </trkpt>
      <trkpt lat="47.85012" lon="6.80436">
        <ele>613.8</ele>
        <time>2026-08-15T07:49:55.000Z</time>
      </trkpt>
      <trkpt lat="47.85014" lon="6.80438">
        <ele>613.4</ele>
        <time>2026-08-15T07:49:56.000Z</time>
      </trkpt>
      <trkpt lat="47.85023" lon="6.80446">
        <ele>612.6</ele>
        <time>2026-08-15T07:49:59.000Z</time>
      </trkpt>
      <trkpt lat="47.85028" lon="6.80449">
        <ele>612</ele>
        <time>2026-08-15T07:50:00.000Z</time>
      </trkpt>
      <trkpt lat="47.85037" lon="6.80453">
        <ele>611</ele>
        <time>2026-08-15T07:50:02.000Z</time>
      </trkpt>
      <trkpt lat="47.85045" lon="6.80456">
        <ele>610.4</ele>
        <time>2026-08-15T07:50:04.000Z</time>
      </trkpt>
      <trkpt lat="47.85051" lon="6.80454">
        <ele>610</ele>
        <time>2026-08-15T07:50:08.000Z</time>
      </trkpt>
      <trkpt lat="47.85051" lon="6.80454">
        <ele>610</ele>
        <time>2026-08-15T07:50:09.000Z</time>
      </trkpt>
      <trkpt lat="47.85051" lon="6.80454">
        <ele>610</ele>
        <time>2026-08-15T07:50:10.000Z</time>
      </trkpt>
      <trkpt lat="47.85051" lon="6.80454">
        <ele>610</ele>
        <time>2026-08-15T07:50:11.000Z</time>
      </trkpt>
      <trkpt lat="47.85051" lon="6.80454">
        <ele>609.8</ele>
        <time>2026-08-15T07:50:12.000Z</time>
      </trkpt>
      <trkpt lat="47.85051" lon="6.80454">
        <ele>609.8</ele>
        <time>2026-08-15T07:50:13.000Z</time>
      </trkpt>
      <trkpt lat="47.85047" lon="6.80457">
        <ele>609.4</ele>
        <time>2026-08-15T07:50:33.000Z</time>
      </trkpt>
      <trkpt lat="47.85046" lon="6.80456">
        <ele>609.4</ele>
        <time>2026-08-15T07:50:34.000Z</time>
      </trkpt>
      <trkpt lat="47.85033" lon="6.80455">
        <ele>610.2</ele>
        <time>2026-08-15T07:50:45.000Z</time>
      </trkpt>
      <trkpt lat="47.85029" lon="6.80456">
        <ele>610.4</ele>
        <time>2026-08-15T07:50:52.000Z</time>
      </trkpt>
      <trkpt lat="47.8503" lon="6.80456">
        <ele>610.6</ele>
        <time>2026-08-15T07:50:55.000Z</time>
      </trkpt>
      <trkpt lat="47.85033" lon="6.80471">
        <ele>609</ele>
        <time>2026-08-15T07:51:35.000Z</time>
      </trkpt>
      <trkpt lat="47.85033" lon="6.80472">
        <ele>609</ele>
        <time>2026-08-15T07:51:37.000Z</time>
      </trkpt>
      <trkpt lat="47.85033" lon="6.80473">
        <ele>608.8</ele>
        <time>2026-08-15T07:51:38.000Z</time>
      </trkpt>
      <trkpt lat="47.85033" lon="6.80476">
        <ele>608.4</ele>
        <time>2026-08-15T07:51:40.000Z</time>
      </trkpt>
      <trkpt lat="47.85028" lon="6.80483">
        <ele>606.8</ele>
        <time>2026-08-15T07:51:45.000Z</time>
      </trkpt>
      <trkpt lat="47.85025" lon="6.8049">
        <ele>605.8</ele>
        <time>2026-08-15T07:51:47.000Z</time>
      </trkpt>
      <trkpt lat="47.85023" lon="6.80493">
        <ele>605.4</ele>
        <time>2026-08-15T07:51:48.000Z</time>
      </trkpt>
      <trkpt lat="47.85018" lon="6.805">
        <ele>604.2</ele>
        <time>2026-08-15T07:51:51.000Z</time>
      </trkpt>
      <trkpt lat="47.85016" lon="6.80501">
        <ele>603.8</ele>
        <time>2026-08-15T07:51:52.000Z</time>
      </trkpt>
      <trkpt lat="47.85012" lon="6.80503">
        <ele>603</ele>
        <time>2026-08-15T07:51:54.000Z</time>
      </trkpt>
      <trkpt lat="47.85008" lon="6.80505">
        <ele>602</ele>
        <time>2026-08-15T07:51:58.000Z</time>
      </trkpt>
      <trkpt lat="47.85009" lon="6.80504">
        <ele>602.2</ele>
        <time>2026-08-15T07:52:01.000Z</time>
      </trkpt>
      <trkpt lat="47.84994" lon="6.80505">
        <ele>600.4</ele>
        <time>2026-08-15T07:52:56.000Z</time>
      </trkpt>
      <trkpt lat="47.84993" lon="6.80507">
        <ele>600.6</ele>
        <time>2026-08-15T07:52:57.000Z</time>
      </trkpt>
      <trkpt lat="47.84993" lon="6.80507">
        <ele>600.6</ele>
        <time>2026-08-15T07:52:58.000Z</time>
      </trkpt>
      <trkpt lat="47.84993" lon="6.80509">
        <ele>600.2</ele>
        <time>2026-08-15T07:53:01.000Z</time>
      </trkpt>
      <trkpt lat="47.84996" lon="6.80532">
        <ele>596.6</ele>
        <time>2026-08-15T07:53:12.000Z</time>
      </trkpt>
      <trkpt lat="47.84995" lon="6.80535">
        <ele>596</ele>
        <time>2026-08-15T07:53:13.000Z</time>
      </trkpt>
      <trkpt lat="47.84994" lon="6.80539">
        <ele>595.4</ele>
        <time>2026-08-15T07:53:14.000Z</time>
      </trkpt>
      <trkpt lat="47.8499" lon="6.80557">
        <ele>594.4</ele>
        <time>2026-08-15T07:53:18.000Z</time>
      </trkpt>
      <trkpt lat="47.84987" lon="6.80565">
        <ele>593.2</ele>
        <time>2026-08-15T07:53:21.000Z</time>
      </trkpt>
      <trkpt lat="47.84985" lon="6.80571">
        <ele>592</ele>
        <time>2026-08-15T07:53:23.000Z</time>
      </trkpt>
      <trkpt lat="47.84983" lon="6.80574">
        <ele>591.4</ele>
        <time>2026-08-15T07:53:24.000Z</time>
      </trkpt>
      <trkpt lat="47.84982" lon="6.80576">
        <ele>590.8</ele>
        <time>2026-08-15T07:53:25.000Z</time>
      </trkpt>
      <trkpt lat="47.84978" lon="6.80582">
        <ele>589.8</ele>
        <time>2026-08-15T07:53:27.000Z</time>
      </trkpt>
      <trkpt lat="47.84975" lon="6.80585">
        <ele>588.6</ele>
        <time>2026-08-15T07:53:29.000Z</time>
      </trkpt>
      <trkpt lat="47.8497" lon="6.80592">
        <ele>586.8</ele>
        <time>2026-08-15T07:53:31.000Z</time>
      </trkpt>
      <trkpt lat="47.84967" lon="6.80598">
        <ele>584.8</ele>
        <time>2026-08-15T07:53:33.000Z</time>
      </trkpt>
      <trkpt lat="47.84965" lon="6.80602">
        <ele>583.8</ele>
        <time>2026-08-15T07:53:34.000Z</time>
      </trkpt>
      <trkpt lat="47.84964" lon="6.80611">
        <ele>581.8</ele>
        <time>2026-08-15T07:53:36.000Z</time>
      </trkpt>
      <trkpt lat="47.84963" lon="6.80616">
        <ele>580.8</ele>
        <time>2026-08-15T07:53:37.000Z</time>
      </trkpt>
      <trkpt lat="47.84962" lon="6.80622">
        <ele>580</ele>
        <time>2026-08-15T07:53:38.000Z</time>
      </trkpt>
      <trkpt lat="47.8496" lon="6.80631">
        <ele>578.4</ele>
        <time>2026-08-15T07:53:40.000Z</time>
      </trkpt>
      <trkpt lat="47.84958" lon="6.8064">
        <ele>577.2</ele>
        <time>2026-08-15T07:53:42.000Z</time>
      </trkpt>
      <trkpt lat="47.84958" lon="6.80646">
        <ele>576.6</ele>
        <time>2026-08-15T07:53:43.000Z</time>
      </trkpt>
      <trkpt lat="47.84958" lon="6.80652">
        <ele>576</ele>
        <time>2026-08-15T07:53:44.000Z</time>
      </trkpt>
      <trkpt lat="47.84959" lon="6.80666">
        <ele>575</ele>
        <time>2026-08-15T07:53:46.000Z</time>
      </trkpt>
      <trkpt lat="47.8496" lon="6.80678">
        <ele>574</ele>
        <time>2026-08-15T07:53:48.000Z</time>
      </trkpt>
      <trkpt lat="47.84962" lon="6.80698">
        <ele>572.6</ele>
        <time>2026-08-15T07:53:51.000Z</time>
      </trkpt>
      <trkpt lat="47.84964" lon="6.80717">
        <ele>571.4</ele>
        <time>2026-08-15T07:53:54.000Z</time>
      </trkpt>
      <trkpt lat="47.84964" lon="6.80724">
        <ele>571</ele>
        <time>2026-08-15T07:53:55.000Z</time>
      </trkpt>
      <trkpt lat="47.84964" lon="6.8074">
        <ele>570.2</ele>
        <time>2026-08-15T07:53:57.000Z</time>
      </trkpt>
      <trkpt lat="47.84965" lon="6.80755">
        <ele>569.6</ele>
        <time>2026-08-15T07:53:59.000Z</time>
      </trkpt>
      <trkpt lat="47.84966" lon="6.8077">
        <ele>569.2</ele>
        <time>2026-08-15T07:54:01.000Z</time>
      </trkpt>
      <trkpt lat="47.84967" lon="6.80777">
        <ele>569</ele>
        <time>2026-08-15T07:54:02.000Z</time>
      </trkpt>
      <trkpt lat="47.84968" lon="6.80789">
        <ele>568.8</ele>
        <time>2026-08-15T07:54:04.000Z</time>
      </trkpt>
      <trkpt lat="47.84969" lon="6.80799">
        <ele>568.4</ele>
        <time>2026-08-15T07:54:06.000Z</time>
      </trkpt>
      <trkpt lat="47.84969" lon="6.80803">
        <ele>568.4</ele>
        <time>2026-08-15T07:54:07.000Z</time>
      </trkpt>
      <trkpt lat="47.8497" lon="6.80812">
        <ele>568</ele>
        <time>2026-08-15T07:54:09.000Z</time>
      </trkpt>
      <trkpt lat="47.84972" lon="6.80826">
        <ele>567.4</ele>
        <time>2026-08-15T07:54:12.000Z</time>
      </trkpt>
      <trkpt lat="47.84972" lon="6.80838">
        <ele>566.8</ele>
        <time>2026-08-15T07:54:15.000Z</time>
      </trkpt>
      <trkpt lat="47.84974" lon="6.80852">
        <ele>566.4</ele>
        <time>2026-08-15T07:54:18.000Z</time>
      </trkpt>
      <trkpt lat="47.84975" lon="6.80864">
        <ele>565.8</ele>
        <time>2026-08-15T07:54:20.000Z</time>
      </trkpt>
      <trkpt lat="47.84976" lon="6.8087">
        <ele>565.4</ele>
        <time>2026-08-15T07:54:21.000Z</time>
      </trkpt>
      <trkpt lat="47.84979" lon="6.80883">
        <ele>564.6</ele>
        <time>2026-08-15T07:54:23.000Z</time>
      </trkpt>
      <trkpt lat="47.84985" lon="6.80904">
        <ele>564</ele>
        <time>2026-08-15T07:54:26.000Z</time>
      </trkpt>
      <trkpt lat="47.84987" lon="6.80911">
        <ele>564</ele>
        <time>2026-08-15T07:54:27.000Z</time>
      </trkpt>
      <trkpt lat="47.84997" lon="6.80936">
        <ele>563.8</ele>
        <time>2026-08-15T07:54:31.000Z</time>
      </trkpt>
      <trkpt lat="47.85002" lon="6.80948">
        <ele>563.8</ele>
        <time>2026-08-15T07:54:33.000Z</time>
      </trkpt>
      <trkpt lat="47.85004" lon="6.80955">
        <ele>563.6</ele>
        <time>2026-08-15T07:54:34.000Z</time>
      </trkpt>
      <trkpt lat="47.85009" lon="6.80982">
        <ele>564.2</ele>
        <time>2026-08-15T07:54:38.000Z</time>
      </trkpt>
      <trkpt lat="47.85013" lon="6.81012">
        <ele>564.6</ele>
        <time>2026-08-15T07:54:43.000Z</time>
      </trkpt>
      <trkpt lat="47.85016" lon="6.81029">
        <ele>565.2</ele>
        <time>2026-08-15T07:54:46.000Z</time>
      </trkpt>
      <trkpt lat="47.85017" lon="6.81035">
        <ele>565.4</ele>
        <time>2026-08-15T07:54:47.000Z</time>
      </trkpt>
      <trkpt lat="47.85018" lon="6.8104">
        <ele>565.6</ele>
        <time>2026-08-15T07:54:48.000Z</time>
      </trkpt>
      <trkpt lat="47.85018" lon="6.81045">
        <ele>565.8</ele>
        <time>2026-08-15T07:54:49.000Z</time>
      </trkpt>
      <trkpt lat="47.85022" lon="6.81065">
        <ele>566.6</ele>
        <time>2026-08-15T07:54:53.000Z</time>
      </trkpt>
      <trkpt lat="47.85027" lon="6.81071">
        <ele>567</ele>
        <time>2026-08-15T07:54:55.000Z</time>
      </trkpt>
      <trkpt lat="47.85033" lon="6.81077">
        <ele>567.2</ele>
        <time>2026-08-15T07:54:57.000Z</time>
      </trkpt>
      <trkpt lat="47.85048" lon="6.81097">
        <ele>566.6</ele>
        <time>2026-08-15T07:55:02.000Z</time>
      </trkpt>
      <trkpt lat="47.85063" lon="6.81114">
        <ele>566.2</ele>
        <time>2026-08-15T07:55:06.000Z</time>
      </trkpt>
      <trkpt lat="47.85067" lon="6.81119">
        <ele>566</ele>
        <time>2026-08-15T07:55:07.000Z</time>
      </trkpt>
      <trkpt lat="47.85075" lon="6.81129">
        <ele>565.6</ele>
        <time>2026-08-15T07:55:09.000Z</time>
      </trkpt>
      <trkpt lat="47.85089" lon="6.81145">
        <ele>565</ele>
        <time>2026-08-15T07:55:12.000Z</time>
      </trkpt>
      <trkpt lat="47.85105" lon="6.81161">
        <ele>564.4</ele>
        <time>2026-08-15T07:55:15.000Z</time>
      </trkpt>
      <trkpt lat="47.85116" lon="6.81172">
        <ele>563.8</ele>
        <time>2026-08-15T07:55:17.000Z</time>
      </trkpt>
      <trkpt lat="47.85133" lon="6.8119">
        <ele>563</ele>
        <time>2026-08-15T07:55:20.000Z</time>
      </trkpt>
      <trkpt lat="47.85144" lon="6.81202">
        <ele>562.4</ele>
        <time>2026-08-15T07:55:22.000Z</time>
      </trkpt>
      <trkpt lat="47.85154" lon="6.81216">
        <ele>561.8</ele>
        <time>2026-08-15T07:55:24.000Z</time>
      </trkpt>
      <trkpt lat="47.8516" lon="6.81223">
        <ele>561.4</ele>
        <time>2026-08-15T07:55:25.000Z</time>
      </trkpt>
      <trkpt lat="47.85177" lon="6.81246">
        <ele>560.4</ele>
        <time>2026-08-15T07:55:28.000Z</time>
      </trkpt>
      <trkpt lat="47.85194" lon="6.8127">
        <ele>559.2</ele>
        <time>2026-08-15T07:55:31.000Z</time>
      </trkpt>
      <trkpt lat="47.85199" lon="6.81278">
        <ele>559</ele>
        <time>2026-08-15T07:55:32.000Z</time>
      </trkpt>
      <trkpt lat="47.85214" lon="6.81295">
        <ele>559.2</ele>
        <time>2026-08-15T07:55:35.000Z</time>
      </trkpt>
      <trkpt lat="47.85219" lon="6.81301">
        <ele>559.6</ele>
        <time>2026-08-15T07:55:36.000Z</time>
      </trkpt>
      <trkpt lat="47.85235" lon="6.81328">
        <ele>560.2</ele>
        <time>2026-08-15T07:55:40.000Z</time>
      </trkpt>
      <trkpt lat="47.85237" lon="6.81337">
        <ele>560.2</ele>
        <time>2026-08-15T07:55:41.000Z</time>
      </trkpt>
      <trkpt lat="47.85243" lon="6.81364">
        <ele>560.2</ele>
        <time>2026-08-15T07:55:44.000Z</time>
      </trkpt>
      <trkpt lat="47.85246" lon="6.81382">
        <ele>560.4</ele>
        <time>2026-08-15T07:55:46.000Z</time>
      </trkpt>
      <trkpt lat="47.85252" lon="6.81413">
        <ele>561.2</ele>
        <time>2026-08-15T07:55:50.000Z</time>
      </trkpt>
      <trkpt lat="47.85254" lon="6.8142">
        <ele>561.4</ele>
        <time>2026-08-15T07:55:51.000Z</time>
      </trkpt>
      <trkpt lat="47.85257" lon="6.81427">
        <ele>561.8</ele>
        <time>2026-08-15T07:55:52.000Z</time>
      </trkpt>
      <trkpt lat="47.85268" lon="6.81444">
        <ele>562.6</ele>
        <time>2026-08-15T07:55:55.000Z</time>
      </trkpt>
      <trkpt lat="47.85275" lon="6.81456">
        <ele>562.8</ele>
        <time>2026-08-15T07:55:57.000Z</time>
      </trkpt>
      <trkpt lat="47.8528" lon="6.81461">
        <ele>562.8</ele>
        <time>2026-08-15T07:55:58.000Z</time>
      </trkpt>
      <trkpt lat="47.85292" lon="6.8148">
        <ele>562.4</ele>
        <time>2026-08-15T07:56:01.000Z</time>
      </trkpt>
      <trkpt lat="47.85306" lon="6.815">
        <ele>562</ele>
        <time>2026-08-15T07:56:04.000Z</time>
      </trkpt>
      <trkpt lat="47.85315" lon="6.81513">
        <ele>561.4</ele>
        <time>2026-08-15T07:56:06.000Z</time>
      </trkpt>
      <trkpt lat="47.85331" lon="6.81534">
        <ele>560.4</ele>
        <time>2026-08-15T07:56:09.000Z</time>
      </trkpt>
      <trkpt lat="47.85344" lon="6.81558">
        <ele>559.6</ele>
        <time>2026-08-15T07:56:12.000Z</time>
      </trkpt>
      <trkpt lat="47.85347" lon="6.81567">
        <ele>559.4</ele>
        <time>2026-08-15T07:56:13.000Z</time>
      </trkpt>
      <trkpt lat="47.85352" lon="6.81586">
        <ele>559.2</ele>
        <time>2026-08-15T07:56:15.000Z</time>
      </trkpt>
      <trkpt lat="47.85354" lon="6.81606">
        <ele>559</ele>
        <time>2026-08-15T07:56:17.000Z</time>
      </trkpt>
      <trkpt lat="47.8536" lon="6.81635">
        <ele>558.2</ele>
        <time>2026-08-15T07:56:20.000Z</time>
      </trkpt>
      <trkpt lat="47.85364" lon="6.81643">
        <ele>557.8</ele>
        <time>2026-08-15T07:56:21.000Z</time>
      </trkpt>
      <trkpt lat="47.85369" lon="6.81651">
        <ele>557.6</ele>
        <time>2026-08-15T07:56:22.000Z</time>
      </trkpt>
      <trkpt lat="47.85378" lon="6.81665">
        <ele>556.8</ele>
        <time>2026-08-15T07:56:24.000Z</time>
      </trkpt>
      <trkpt lat="47.85386" lon="6.81679">
        <ele>556.4</ele>
        <time>2026-08-15T07:56:26.000Z</time>
      </trkpt>
      <trkpt lat="47.85389" lon="6.81688">
        <ele>556.2</ele>
        <time>2026-08-15T07:56:27.000Z</time>
      </trkpt>
      <trkpt lat="47.8539" lon="6.81696">
        <ele>556.2</ele>
        <time>2026-08-15T07:56:28.000Z</time>
      </trkpt>
      <trkpt lat="47.85395" lon="6.8173">
        <ele>556.8</ele>
        <time>2026-08-15T07:56:32.000Z</time>
      </trkpt>
      <trkpt lat="47.85402" lon="6.81755">
        <ele>557</ele>
        <time>2026-08-15T07:56:35.000Z</time>
      </trkpt>
      <trkpt lat="47.8541" lon="6.81779">
        <ele>557.2</ele>
        <time>2026-08-15T07:56:38.000Z</time>
      </trkpt>
      <trkpt lat="47.85421" lon="6.81808">
        <ele>557.2</ele>
        <time>2026-08-15T07:56:42.000Z</time>
      </trkpt>
      <trkpt lat="47.85428" lon="6.8182">
        <ele>557</ele>
        <time>2026-08-15T07:56:44.000Z</time>
      </trkpt>
      <trkpt lat="47.85432" lon="6.81826">
        <ele>556.8</ele>
        <time>2026-08-15T07:56:45.000Z</time>
      </trkpt>
      <trkpt lat="47.85445" lon="6.81845">
        <ele>556</ele>
        <time>2026-08-15T07:56:48.000Z</time>
      </trkpt>
      <trkpt lat="47.8545" lon="6.81851">
        <ele>555.8</ele>
        <time>2026-08-15T07:56:49.000Z</time>
      </trkpt>
      <trkpt lat="47.85454" lon="6.81858">
        <ele>555.6</ele>
        <time>2026-08-15T07:56:50.000Z</time>
      </trkpt>
      <trkpt lat="47.8547" lon="6.81877">
        <ele>555</ele>
        <time>2026-08-15T07:56:53.000Z</time>
      </trkpt>
      <trkpt lat="47.8548" lon="6.81889">
        <ele>554.8</ele>
        <time>2026-08-15T07:56:55.000Z</time>
      </trkpt>
      <trkpt lat="47.85494" lon="6.81906">
        <ele>554.8</ele>
        <time>2026-08-15T07:56:58.000Z</time>
      </trkpt>
      <trkpt lat="47.85511" lon="6.81928">
        <ele>555.8</ele>
        <time>2026-08-15T07:57:02.000Z</time>
      </trkpt>
      <trkpt lat="47.85516" lon="6.81933">
        <ele>556</ele>
        <time>2026-08-15T07:57:03.000Z</time>
      </trkpt>
      <trkpt lat="47.85528" lon="6.8195">
        <ele>556.4</ele>
        <time>2026-08-15T07:57:06.000Z</time>
      </trkpt>
      <trkpt lat="47.85545" lon="6.81972">
        <ele>557</ele>
        <time>2026-08-15T07:57:10.000Z</time>
      </trkpt>
      <trkpt lat="47.85563" lon="6.81993">
        <ele>557.2</ele>
        <time>2026-08-15T07:57:14.000Z</time>
      </trkpt>
      <trkpt lat="47.85568" lon="6.81999">
        <ele>557.4</ele>
        <time>2026-08-15T07:57:15.000Z</time>
      </trkpt>
      <trkpt lat="47.85586" lon="6.82023">
        <ele>557.8</ele>
        <time>2026-08-15T07:57:19.000Z</time>
      </trkpt>
      <trkpt lat="47.856" lon="6.8204">
        <ele>557.6</ele>
        <time>2026-08-15T07:57:22.000Z</time>
      </trkpt>
      <trkpt lat="47.85614" lon="6.82057">
        <ele>557.8</ele>
        <time>2026-08-15T07:57:25.000Z</time>
      </trkpt>
      <trkpt lat="47.85618" lon="6.82062">
        <ele>558</ele>
        <time>2026-08-15T07:57:26.000Z</time>
      </trkpt>
      <trkpt lat="47.85637" lon="6.82081">
        <ele>558.8</ele>
        <time>2026-08-15T07:57:30.000Z</time>
      </trkpt>
      <trkpt lat="47.85652" lon="6.82093">
        <ele>559</ele>
        <time>2026-08-15T07:57:33.000Z</time>
      </trkpt>
      <trkpt lat="47.85662" lon="6.82101">
        <ele>559</ele>
        <time>2026-08-15T07:57:35.000Z</time>
      </trkpt>
      <trkpt lat="47.8568" lon="6.82113">
        <ele>559.4</ele>
        <time>2026-08-15T07:57:39.000Z</time>
      </trkpt>
      <trkpt lat="47.85684" lon="6.82115">
        <ele>560</ele>
        <time>2026-08-15T07:57:40.000Z</time>
      </trkpt>
      <trkpt lat="47.85688" lon="6.82117">
        <ele>560</ele>
        <time>2026-08-15T07:57:41.000Z</time>
      </trkpt>
      <trkpt lat="47.85701" lon="6.82124">
        <ele>560.4</ele>
        <time>2026-08-15T07:57:44.000Z</time>
      </trkpt>
      <trkpt lat="47.85706" lon="6.82118">
        <ele>560</ele>
        <time>2026-08-15T07:57:46.000Z</time>
      </trkpt>
      <trkpt lat="47.85707" lon="6.82113">
        <ele>560.2</ele>
        <time>2026-08-15T07:57:47.000Z</time>
      </trkpt>
      <trkpt lat="47.85712" lon="6.82096">
        <ele>560.6</ele>
        <time>2026-08-15T07:57:51.000Z</time>
      </trkpt>
      <trkpt lat="47.85713" lon="6.82093">
        <ele>560.6</ele>
        <time>2026-08-15T07:57:52.000Z</time>
      </trkpt>
      <trkpt lat="47.85714" lon="6.82091">
        <ele>560.4</ele>
        <time>2026-08-15T07:57:56.000Z</time>
      </trkpt>
      <trkpt lat="47.85714" lon="6.8209">
        <ele>560.4</ele>
        <time>2026-08-15T07:57:58.000Z</time>
      </trkpt>
      <trkpt lat="47.85713" lon="6.8209">
        <ele>559</ele>
        <time>2026-08-15T08:01:33.000Z</time>
      </trkpt>
      <trkpt lat="47.85712" lon="6.8209">
        <ele>559</ele>
        <time>2026-08-15T08:01:34.000Z</time>
      </trkpt>
      <trkpt lat="47.85717" lon="6.82075">
        <ele>558.2</ele>
        <time>2026-08-15T08:02:02.000Z</time>
      </trkpt>
      <trkpt lat="47.85719" lon="6.82072">
        <ele>558</ele>
        <time>2026-08-15T08:02:03.000Z</time>
      </trkpt>
      <trkpt lat="47.85725" lon="6.82059">
        <ele>556.6</ele>
        <time>2026-08-15T08:02:06.000Z</time>
      </trkpt>
      <trkpt lat="47.85731" lon="6.82048">
        <ele>555.4</ele>
        <time>2026-08-15T08:02:08.000Z</time>
      </trkpt>
      <trkpt lat="47.85737" lon="6.82036">
        <ele>554.4</ele>
        <time>2026-08-15T08:02:10.000Z</time>
      </trkpt>
      <trkpt lat="47.85744" lon="6.82021">
        <ele>553.6</ele>
        <time>2026-08-15T08:02:13.000Z</time>
      </trkpt>
      <trkpt lat="47.85748" lon="6.82014">
        <ele>553.6</ele>
        <time>2026-08-15T08:02:15.000Z</time>
      </trkpt>
      <trkpt lat="47.8575" lon="6.82012">
        <ele>553.4</ele>
        <time>2026-08-15T08:02:16.000Z</time>
      </trkpt>
      <trkpt lat="47.85752" lon="6.82011">
        <ele>553.4</ele>
        <time>2026-08-15T08:02:17.000Z</time>
      </trkpt>
      <trkpt lat="47.85753" lon="6.8201">
        <ele>553.2</ele>
        <time>2026-08-15T08:02:18.000Z</time>
      </trkpt>
      <trkpt lat="47.85756" lon="6.82007">
        <ele>552.6</ele>
        <time>2026-08-15T08:02:20.000Z</time>
      </trkpt>
      <trkpt lat="47.85759" lon="6.82001">
        <ele>552</ele>
        <time>2026-08-15T08:02:22.000Z</time>
      </trkpt>
      <trkpt lat="47.85762" lon="6.81997">
        <ele>551.6</ele>
        <time>2026-08-15T08:02:24.000Z</time>
      </trkpt>
      <trkpt lat="47.85763" lon="6.81997">
        <ele>551.2</ele>
        <time>2026-08-15T08:02:28.000Z</time>
      </trkpt>
      <trkpt lat="47.85763" lon="6.81997">
        <ele>551.4</ele>
        <time>2026-08-15T08:02:30.000Z</time>
      </trkpt>
      <trkpt lat="47.85775" lon="6.81988">
        <ele>551</ele>
        <time>2026-08-15T08:02:51.000Z</time>
      </trkpt>
      <trkpt lat="47.85778" lon="6.81986">
        <ele>551</ele>
        <time>2026-08-15T08:02:54.000Z</time>
      </trkpt>
      <trkpt lat="47.85779" lon="6.81986">
        <ele>551</ele>
        <time>2026-08-15T08:02:55.000Z</time>
      </trkpt>
      <trkpt lat="47.8578" lon="6.81985">
        <ele>550.8</ele>
        <time>2026-08-15T08:02:57.000Z</time>
      </trkpt>
      <trkpt lat="47.85782" lon="6.81982">
        <ele>550.6</ele>
        <time>2026-08-15T08:02:59.000Z</time>
      </trkpt>
      <trkpt lat="47.85782" lon="6.8198">
        <ele>550.6</ele>
        <time>2026-08-15T08:03:02.000Z</time>
      </trkpt>
      <trkpt lat="47.85783" lon="6.81979">
        <ele>550.4</ele>
        <time>2026-08-15T08:03:03.000Z</time>
      </trkpt>
      <trkpt lat="47.85789" lon="6.81968">
        <ele>550.4</ele>
        <time>2026-08-15T08:03:08.000Z</time>
      </trkpt>
      <trkpt lat="47.85802" lon="6.81954">
        <ele>551.2</ele>
        <time>2026-08-15T08:03:14.000Z</time>
      </trkpt>
      <trkpt lat="47.85805" lon="6.81953">
        <ele>551.4</ele>
        <time>2026-08-15T08:03:15.000Z</time>
      </trkpt>
      <trkpt lat="47.85815" lon="6.81953">
        <ele>552.2</ele>
        <time>2026-08-15T08:03:18.000Z</time>
      </trkpt>
      <trkpt lat="47.85824" lon="6.8195">
        <ele>553.4</ele>
        <time>2026-08-15T08:03:21.000Z</time>
      </trkpt>
      <trkpt lat="47.85828" lon="6.81947">
        <ele>554.6</ele>
        <time>2026-08-15T08:03:23.000Z</time>
      </trkpt>
      <trkpt lat="47.85832" lon="6.81944">
        <ele>555.8</ele>
        <time>2026-08-15T08:03:25.000Z</time>
      </trkpt>
      <trkpt lat="47.85836" lon="6.8194">
        <ele>556.6</ele>
        <time>2026-08-15T08:03:27.000Z</time>
      </trkpt>
      <trkpt lat="47.85838" lon="6.81939">
        <ele>557.2</ele>
        <time>2026-08-15T08:03:28.000Z</time>
      </trkpt>
      <trkpt lat="47.8584" lon="6.81941">
        <ele>557.8</ele>
        <time>2026-08-15T08:03:29.000Z</time>
      </trkpt>
      <trkpt lat="47.85842" lon="6.81941">
        <ele>558.2</ele>
        <time>2026-08-15T08:03:30.000Z</time>
      </trkpt>
      <trkpt lat="47.85843" lon="6.81939">
        <ele>558.6</ele>
        <time>2026-08-15T08:03:31.000Z</time>
      </trkpt>
      <trkpt lat="47.85847" lon="6.81931">
        <ele>559.4</ele>
        <time>2026-08-15T08:03:34.000Z</time>
      </trkpt>
      <trkpt lat="47.8585" lon="6.81931">
        <ele>559.6</ele>
        <time>2026-08-15T08:03:35.000Z</time>
      </trkpt>
      <trkpt lat="47.85852" lon="6.81931">
        <ele>559.8</ele>
        <time>2026-08-15T08:03:36.000Z</time>
      </trkpt>
      <trkpt lat="47.85856" lon="6.81932">
        <ele>560.4</ele>
        <time>2026-08-15T08:03:38.000Z</time>
      </trkpt>
      <trkpt lat="47.85861" lon="6.8193">
        <ele>561.2</ele>
        <time>2026-08-15T08:03:40.000Z</time>
      </trkpt>
      <trkpt lat="47.85863" lon="6.81929">
        <ele>561.4</ele>
        <time>2026-08-15T08:03:41.000Z</time>
      </trkpt>
      <trkpt lat="47.85872" lon="6.81928">
        <ele>562.6</ele>
        <time>2026-08-15T08:03:45.000Z</time>
      </trkpt>
      <trkpt lat="47.85877" lon="6.81929">
        <ele>562.8</ele>
        <time>2026-08-15T08:03:47.000Z</time>
      </trkpt>
      <trkpt lat="47.85891" lon="6.81936">
        <ele>563.6</ele>
        <time>2026-08-15T08:03:52.000Z</time>
      </trkpt>
      <trkpt lat="47.85897" lon="6.81941">
        <ele>564</ele>
        <time>2026-08-15T08:03:54.000Z</time>
      </trkpt>
      <trkpt lat="47.85907" lon="6.81952">
        <ele>564.8</ele>
        <time>2026-08-15T08:03:58.000Z</time>
      </trkpt>
      <trkpt lat="47.85916" lon="6.81961">
        <ele>566.2</ele>
        <time>2026-08-15T08:04:02.000Z</time>
      </trkpt>
      <trkpt lat="47.85924" lon="6.8197">
        <ele>567.6</ele>
        <time>2026-08-15T08:04:06.000Z</time>
      </trkpt>
      <trkpt lat="47.85933" lon="6.81978">
        <ele>569</ele>
        <time>2026-08-15T08:04:10.000Z</time>
      </trkpt>
      <trkpt lat="47.85941" lon="6.81984">
        <ele>570.2</ele>
        <time>2026-08-15T08:04:14.000Z</time>
      </trkpt>
      <trkpt lat="47.85947" lon="6.81989">
        <ele>571.2</ele>
        <time>2026-08-15T08:04:17.000Z</time>
      </trkpt>
      <trkpt lat="47.85951" lon="6.81991">
        <ele>571.8</ele>
        <time>2026-08-15T08:04:19.000Z</time>
      </trkpt>
      <trkpt lat="47.85956" lon="6.81991">
        <ele>572.4</ele>
        <time>2026-08-15T08:04:21.000Z</time>
      </trkpt>
      <trkpt lat="47.85966" lon="6.81993">
        <ele>573.6</ele>
        <time>2026-08-15T08:04:25.000Z</time>
      </trkpt>
      <trkpt lat="47.85972" lon="6.81996">
        <ele>574.8</ele>
        <time>2026-08-15T08:04:28.000Z</time>
      </trkpt>
      <trkpt lat="47.85978" lon="6.82001">
        <ele>576</ele>
        <time>2026-08-15T08:04:31.000Z</time>
      </trkpt>
      <trkpt lat="47.85984" lon="6.82005">
        <ele>577</ele>
        <time>2026-08-15T08:04:34.000Z</time>
      </trkpt>
      <trkpt lat="47.85992" lon="6.8201">
        <ele>578.2</ele>
        <time>2026-08-15T08:04:38.000Z</time>
      </trkpt>
      <trkpt lat="47.85998" lon="6.82014">
        <ele>579.4</ele>
        <time>2026-08-15T08:04:41.000Z</time>
      </trkpt>
      <trkpt lat="47.86006" lon="6.82019">
        <ele>580.6</ele>
        <time>2026-08-15T08:04:45.000Z</time>
      </trkpt>
      <trkpt lat="47.8601" lon="6.82022">
        <ele>581.2</ele>
        <time>2026-08-15T08:04:47.000Z</time>
      </trkpt>
      <trkpt lat="47.86014" lon="6.82026">
        <ele>581.6</ele>
        <time>2026-08-15T08:04:49.000Z</time>
      </trkpt>
      <trkpt lat="47.86022" lon="6.82033">
        <ele>582.8</ele>
        <time>2026-08-15T08:04:53.000Z</time>
      </trkpt>
      <trkpt lat="47.86025" lon="6.82035">
        <ele>583.4</ele>
        <time>2026-08-15T08:04:55.000Z</time>
      </trkpt>
      <trkpt lat="47.86027" lon="6.82036">
        <ele>583.8</ele>
        <time>2026-08-15T08:04:56.000Z</time>
      </trkpt>
      <trkpt lat="47.86035" lon="6.82043">
        <ele>585</ele>
        <time>2026-08-15T08:05:01.000Z</time>
      </trkpt>
      <trkpt lat="47.86042" lon="6.82047">
        <ele>586.2</ele>
        <time>2026-08-15T08:05:05.000Z</time>
      </trkpt>
      <trkpt lat="47.86046" lon="6.82052">
        <ele>587</ele>
        <time>2026-08-15T08:05:08.000Z</time>
      </trkpt>
      <trkpt lat="47.86048" lon="6.82051">
        <ele>587.4</ele>
        <time>2026-08-15T08:05:09.000Z</time>
      </trkpt>
      <trkpt lat="47.86049" lon="6.82043">
        <ele>588.2</ele>
        <time>2026-08-15T08:05:12.000Z</time>
      </trkpt>
      <trkpt lat="47.86048" lon="6.82041">
        <ele>588.4</ele>
        <time>2026-08-15T08:05:13.000Z</time>
      </trkpt>
      <trkpt lat="47.86041" lon="6.82031">
        <ele>589.6</ele>
        <time>2026-08-15T08:05:17.000Z</time>
      </trkpt>
      <trkpt lat="47.86036" lon="6.8202">
        <ele>590.8</ele>
        <time>2026-08-15T08:05:21.000Z</time>
      </trkpt>
      <trkpt lat="47.86033" lon="6.82013">
        <ele>591.6</ele>
        <time>2026-08-15T08:05:24.000Z</time>
      </trkpt>
      <trkpt lat="47.86032" lon="6.8201">
        <ele>592</ele>
        <time>2026-08-15T08:05:25.000Z</time>
      </trkpt>
      <trkpt lat="47.86028" lon="6.82003">
        <ele>593.2</ele>
        <time>2026-08-15T08:05:28.000Z</time>
      </trkpt>
      <trkpt lat="47.86026" lon="6.81995">
        <ele>594.2</ele>
        <time>2026-08-15T08:05:31.000Z</time>
      </trkpt>
      <trkpt lat="47.86026" lon="6.81993">
        <ele>594.6</ele>
        <time>2026-08-15T08:05:32.000Z</time>
      </trkpt>
      <trkpt lat="47.86024" lon="6.81988">
        <ele>595.2</ele>
        <time>2026-08-15T08:05:34.000Z</time>
      </trkpt>
      <trkpt lat="47.8602" lon="6.8198">
        <ele>596.6</ele>
        <time>2026-08-15T08:05:38.000Z</time>
      </trkpt>
      <trkpt lat="47.86019" lon="6.81978">
        <ele>596.8</ele>
        <time>2026-08-15T08:05:39.000Z</time>
      </trkpt>
      <trkpt lat="47.86016" lon="6.81971">
        <ele>597.8</ele>
        <time>2026-08-15T08:05:42.000Z</time>
      </trkpt>
      <trkpt lat="47.86013" lon="6.81962">
        <ele>598.8</ele>
        <time>2026-08-15T08:05:46.000Z</time>
      </trkpt>
      <trkpt lat="47.86011" lon="6.8196">
        <ele>599.2</ele>
        <time>2026-08-15T08:05:51.000Z</time>
      </trkpt>
      <trkpt lat="47.86011" lon="6.81958">
        <ele>599.2</ele>
        <time>2026-08-15T08:05:53.000Z</time>
      </trkpt>
      <trkpt lat="47.86002" lon="6.81912">
        <ele>607.2</ele>
        <time>2026-08-15T08:06:54.000Z</time>
      </trkpt>
      <trkpt lat="47.86001" lon="6.8191">
        <ele>607.6</ele>
        <time>2026-08-15T08:06:55.000Z</time>
      </trkpt>
      <trkpt lat="47.86" lon="6.81908">
        <ele>608</ele>
        <time>2026-08-15T08:06:56.000Z</time>
      </trkpt>
      <trkpt lat="47.86" lon="6.81905">
        <ele>608.4</ele>
        <time>2026-08-15T08:06:57.000Z</time>
      </trkpt>
      <trkpt lat="47.85996" lon="6.81896">
        <ele>609.8</ele>
        <time>2026-08-15T08:07:00.000Z</time>
      </trkpt>
      <trkpt lat="47.85994" lon="6.81889">
        <ele>610.8</ele>
        <time>2026-08-15T08:07:02.000Z</time>
      </trkpt>
      <trkpt lat="47.85993" lon="6.81883">
        <ele>612</ele>
        <time>2026-08-15T08:07:04.000Z</time>
      </trkpt>
      <trkpt lat="47.85992" lon="6.8188">
        <ele>613</ele>
        <time>2026-08-15T08:07:07.000Z</time>
      </trkpt>
      <trkpt lat="47.85991" lon="6.81882">
        <ele>613</ele>
        <time>2026-08-15T08:07:12.000Z</time>
      </trkpt>
      <trkpt lat="47.85991" lon="6.81883">
        <ele>613</ele>
        <time>2026-08-15T08:07:13.000Z</time>
      </trkpt>
      <trkpt lat="47.85969" lon="6.8181">
        <ele>627.2</ele>
        <time>2026-08-15T08:10:25.000Z</time>
      </trkpt>
      <trkpt lat="47.85967" lon="6.81808">
        <ele>627.4</ele>
        <time>2026-08-15T08:10:26.000Z</time>
      </trkpt>
      <trkpt lat="47.8596" lon="6.81798">
        <ele>628.2</ele>
        <time>2026-08-15T08:10:30.000Z</time>
      </trkpt>
      <trkpt lat="47.85958" lon="6.81795">
        <ele>628.6</ele>
        <time>2026-08-15T08:10:32.000Z</time>
      </trkpt>
      <trkpt lat="47.85953" lon="6.81786">
        <ele>629.4</ele>
        <time>2026-08-15T08:10:36.000Z</time>
      </trkpt>
      <trkpt lat="47.85947" lon="6.81777">
        <ele>630</ele>
        <time>2026-08-15T08:10:40.000Z</time>
      </trkpt>
      <trkpt lat="47.85934" lon="6.81757">
        <ele>630.4</ele>
        <time>2026-08-15T08:10:47.000Z</time>
      </trkpt>
      <trkpt lat="47.85932" lon="6.81754">
        <ele>630.6</ele>
        <time>2026-08-15T08:10:48.000Z</time>
      </trkpt>
      <trkpt lat="47.85924" lon="6.81736">
        <ele>631.6</ele>
        <time>2026-08-15T08:10:53.000Z</time>
      </trkpt>
      <trkpt lat="47.85919" lon="6.81725">
        <ele>632</ele>
        <time>2026-08-15T08:10:56.000Z</time>
      </trkpt>
      <trkpt lat="47.85914" lon="6.81715">
        <ele>632.6</ele>
        <time>2026-08-15T08:10:59.000Z</time>
      </trkpt>
      <trkpt lat="47.8591" lon="6.81709">
        <ele>633.2</ele>
        <time>2026-08-15T08:11:01.000Z</time>
      </trkpt>
      <trkpt lat="47.85908" lon="6.81702">
        <ele>633.8</ele>
        <time>2026-08-15T08:11:03.000Z</time>
      </trkpt>
      <trkpt lat="47.85902" lon="6.81685">
        <ele>635</ele>
        <time>2026-08-15T08:11:08.000Z</time>
      </trkpt>
      <trkpt lat="47.85898" lon="6.8168">
        <ele>635.4</ele>
        <time>2026-08-15T08:11:10.000Z</time>
      </trkpt>
      <trkpt lat="47.85886" lon="6.81667">
        <ele>635.4</ele>
        <time>2026-08-15T08:11:14.000Z</time>
      </trkpt>
      <trkpt lat="47.85883" lon="6.81664">
        <ele>635.6</ele>
        <time>2026-08-15T08:11:15.000Z</time>
      </trkpt>
      <trkpt lat="47.8588" lon="6.81662">
        <ele>635.8</ele>
        <time>2026-08-15T08:11:16.000Z</time>
      </trkpt>
      <trkpt lat="47.85877" lon="6.8166">
        <ele>636</ele>
        <time>2026-08-15T08:11:17.000Z</time>
      </trkpt>
      <trkpt lat="47.85875" lon="6.81658">
        <ele>636.2</ele>
        <time>2026-08-15T08:11:18.000Z</time>
      </trkpt>
      <trkpt lat="47.8587" lon="6.81651">
        <ele>636.4</ele>
        <time>2026-08-15T08:11:20.000Z</time>
      </trkpt>
      <trkpt lat="47.85864" lon="6.81627">
        <ele>636.2</ele>
        <time>2026-08-15T08:11:25.000Z</time>
      </trkpt>
      <trkpt lat="47.85864" lon="6.81602">
        <ele>635</ele>
        <time>2026-08-15T08:11:31.000Z</time>
      </trkpt>
      <trkpt lat="47.85867" lon="6.81591">
        <ele>635.4</ele>
        <time>2026-08-15T08:11:37.000Z</time>
      </trkpt>
      <trkpt lat="47.85866" lon="6.81588">
        <ele>635.4</ele>
        <time>2026-08-15T08:11:41.000Z</time>
      </trkpt>
      <trkpt lat="47.85868" lon="6.81569">
        <ele>635.6</ele>
        <time>2026-08-15T08:11:56.000Z</time>
      </trkpt>
      <trkpt lat="47.85868" lon="6.81565">
        <ele>635.6</ele>
        <time>2026-08-15T08:11:57.000Z</time>
      </trkpt>
      <trkpt lat="47.85868" lon="6.81546">
        <ele>635.6</ele>
        <time>2026-08-15T08:12:02.000Z</time>
      </trkpt>
      <trkpt lat="47.85867" lon="6.81518">
        <ele>635.2</ele>
        <time>2026-08-15T08:12:09.000Z</time>
      </trkpt>
      <trkpt lat="47.85867" lon="6.81516">
        <ele>635.2</ele>
        <time>2026-08-15T08:12:10.000Z</time>
      </trkpt>
      <trkpt lat="47.85866" lon="6.81508">
        <ele>635</ele>
        <time>2026-08-15T08:12:15.000Z</time>
      </trkpt>
      <trkpt lat="47.85866" lon="6.81505">
        <ele>635.2</ele>
        <time>2026-08-15T08:12:19.000Z</time>
      </trkpt>
      <trkpt lat="47.8588" lon="6.81496">
        <ele>641.2</ele>
        <time>2026-08-15T08:13:25.000Z</time>
      </trkpt>
      <trkpt lat="47.8588" lon="6.81491">
        <ele>641.2</ele>
        <time>2026-08-15T08:13:26.000Z</time>
      </trkpt>
      <trkpt lat="47.85883" lon="6.81483">
        <ele>641.4</ele>
        <time>2026-08-15T08:13:30.000Z</time>
      </trkpt>
      <trkpt lat="47.85885" lon="6.81474">
        <ele>640</ele>
        <time>2026-08-15T08:13:35.000Z</time>
      </trkpt>
      <trkpt lat="47.85885" lon="6.8147">
        <ele>639.2</ele>
        <time>2026-08-15T08:13:37.000Z</time>
      </trkpt>
      <trkpt lat="47.85885" lon="6.81468">
        <ele>638.8</ele>
        <time>2026-08-15T08:13:38.000Z</time>
      </trkpt>
      <trkpt lat="47.85885" lon="6.81462">
        <ele>637.6</ele>
        <time>2026-08-15T08:13:41.000Z</time>
      </trkpt>
      <trkpt lat="47.85885" lon="6.81458">
        <ele>636.6</ele>
        <time>2026-08-15T08:13:43.000Z</time>
      </trkpt>
      <trkpt lat="47.85884" lon="6.81454">
        <ele>635.4</ele>
        <time>2026-08-15T08:13:45.000Z</time>
      </trkpt>
      <trkpt lat="47.85884" lon="6.81449">
        <ele>634</ele>
        <time>2026-08-15T08:13:48.000Z</time>
      </trkpt>
      <trkpt lat="47.85884" lon="6.81448">
        <ele>633.8</ele>
        <time>2026-08-15T08:13:49.000Z</time>
      </trkpt>
      <trkpt lat="47.85884" lon="6.81446">
        <ele>633.6</ele>
        <time>2026-08-15T08:13:50.000Z</time>
      </trkpt>
      <trkpt lat="47.85885" lon="6.81438">
        <ele>633</ele>
        <time>2026-08-15T08:13:53.000Z</time>
      </trkpt>
      <trkpt lat="47.85886" lon="6.81435">
        <ele>632.8</ele>
        <time>2026-08-15T08:13:54.000Z</time>
      </trkpt>
      <trkpt lat="47.8589" lon="6.8142">
        <ele>632.2</ele>
        <time>2026-08-15T08:14:00.000Z</time>
      </trkpt>
      <trkpt lat="47.85892" lon="6.81417">
        <ele>632</ele>
        <time>2026-08-15T08:14:01.000Z</time>
      </trkpt>
      <trkpt lat="47.85898" lon="6.81411">
        <ele>631.8</ele>
        <time>2026-08-15T08:14:05.000Z</time>
      </trkpt>
      <trkpt lat="47.85902" lon="6.81407">
        <ele>633</ele>
        <time>2026-08-15T08:14:09.000Z</time>
      </trkpt>
      <trkpt lat="47.85903" lon="6.81407">
        <ele>633.2</ele>
        <time>2026-08-15T08:14:11.000Z</time>
      </trkpt>
      <trkpt lat="47.85903" lon="6.81407">
        <ele>634</ele>
        <time>2026-08-15T08:14:17.000Z</time>
      </trkpt>
      <trkpt lat="47.8592" lon="6.81395">
        <ele>638.2</ele>
        <time>2026-08-15T08:14:44.000Z</time>
      </trkpt>
      <trkpt lat="47.85921" lon="6.81394">
        <ele>638.6</ele>
        <time>2026-08-15T08:14:45.000Z</time>
      </trkpt>
      <trkpt lat="47.85929" lon="6.81373">
        <ele>639</ele>
        <time>2026-08-15T08:14:52.000Z</time>
      </trkpt>
      <trkpt lat="47.85939" lon="6.8135">
        <ele>639.2</ele>
        <time>2026-08-15T08:14:59.000Z</time>
      </trkpt>
      <trkpt lat="47.85942" lon="6.81348">
        <ele>639.2</ele>
        <time>2026-08-15T08:15:00.000Z</time>
      </trkpt>
      <trkpt lat="47.8595" lon="6.81349">
        <ele>640.4</ele>
        <time>2026-08-15T08:15:04.000Z</time>
      </trkpt>
      <trkpt lat="47.85953" lon="6.81351">
        <ele>641.6</ele>
        <time>2026-08-15T08:15:06.000Z</time>
      </trkpt>
      <trkpt lat="47.85954" lon="6.81351">
        <ele>642.6</ele>
        <time>2026-08-15T08:15:09.000Z</time>
      </trkpt>
      <trkpt lat="47.85955" lon="6.81352">
        <ele>642.8</ele>
        <time>2026-08-15T08:15:12.000Z</time>
      </trkpt>
      <trkpt lat="47.85965" lon="6.81354">
        <ele>645.4</ele>
        <time>2026-08-15T08:15:22.000Z</time>
      </trkpt>
      <trkpt lat="47.85967" lon="6.81354">
        <ele>645.8</ele>
        <time>2026-08-15T08:15:23.000Z</time>
      </trkpt>
      <trkpt lat="47.85977" lon="6.81355">
        <ele>646</ele>
        <time>2026-08-15T08:15:28.000Z</time>
      </trkpt>
      <trkpt lat="47.85978" lon="6.81357">
        <ele>645.8</ele>
        <time>2026-08-15T08:15:29.000Z</time>
      </trkpt>
      <trkpt lat="47.85982" lon="6.8137">
        <ele>646</ele>
        <time>2026-08-15T08:15:34.000Z</time>
      </trkpt>
      <trkpt lat="47.85983" lon="6.81377">
        <ele>646.6</ele>
        <time>2026-08-15T08:15:37.000Z</time>
      </trkpt>
      <trkpt lat="47.85983" lon="6.81385">
        <ele>647.4</ele>
        <time>2026-08-15T08:15:41.000Z</time>
      </trkpt>
      <trkpt lat="47.85983" lon="6.81387">
        <ele>647.6</ele>
        <time>2026-08-15T08:15:43.000Z</time>
      </trkpt>
      <trkpt lat="47.85985" lon="6.81388">
        <ele>648</ele>
        <time>2026-08-15T08:15:46.000Z</time>
      </trkpt>
      <trkpt lat="47.85985" lon="6.81389">
        <ele>648</ele>
        <time>2026-08-15T08:15:50.000Z</time>
      </trkpt>
      <trkpt lat="47.85985" lon="6.81389">
        <ele>647.8</ele>
        <time>2026-08-15T08:15:54.000Z</time>
      </trkpt>
      <trkpt lat="47.85981" lon="6.814">
        <ele>648.8</ele>
        <time>2026-08-15T08:16:13.000Z</time>
      </trkpt>
      <trkpt lat="47.85979" lon="6.81403">
        <ele>649</ele>
        <time>2026-08-15T08:16:14.000Z</time>
      </trkpt>
      <trkpt lat="47.85975" lon="6.81412">
        <ele>649.8</ele>
        <time>2026-08-15T08:16:18.000Z</time>
      </trkpt>
      <trkpt lat="47.85971" lon="6.81414">
        <ele>650</ele>
        <time>2026-08-15T08:16:20.000Z</time>
      </trkpt>
      <trkpt lat="47.85964" lon="6.81416">
        <ele>650.8</ele>
        <time>2026-08-15T08:16:24.000Z</time>
      </trkpt>
      <trkpt lat="47.85962" lon="6.81415">
        <ele>650.8</ele>
        <time>2026-08-15T08:16:25.000Z</time>
      </trkpt>
      <trkpt lat="47.8596" lon="6.81413">
        <ele>651</ele>
        <time>2026-08-15T08:16:26.000Z</time>
      </trkpt>
      <trkpt lat="47.85959" lon="6.81412">
        <ele>651</ele>
        <time>2026-08-15T08:16:27.000Z</time>
      </trkpt>
      <trkpt lat="47.85951" lon="6.81404">
        <ele>649.6</ele>
        <time>2026-08-15T08:16:34.000Z</time>
      </trkpt>
      <trkpt lat="47.85949" lon="6.81404">
        <ele>649.2</ele>
        <time>2026-08-15T08:16:35.000Z</time>
      </trkpt>
      <trkpt lat="47.85939" lon="6.8141">
        <ele>649.2</ele>
        <time>2026-08-15T08:16:39.000Z</time>
      </trkpt>
      <trkpt lat="47.85931" lon="6.81424">
        <ele>650.8</ele>
        <time>2026-08-15T08:16:44.000Z</time>
      </trkpt>
      <trkpt lat="47.85929" lon="6.8143">
        <ele>652</ele>
        <time>2026-08-15T08:16:46.000Z</time>
      </trkpt>
      <trkpt lat="47.85929" lon="6.81438">
        <ele>653.2</ele>
        <time>2026-08-15T08:16:49.000Z</time>
      </trkpt>
      <trkpt lat="47.85929" lon="6.81445">
        <ele>653.8</ele>
        <time>2026-08-15T08:16:51.000Z</time>
      </trkpt>
      <trkpt lat="47.85929" lon="6.81457">
        <ele>654.4</ele>
        <time>2026-08-15T08:16:54.000Z</time>
      </trkpt>
      <trkpt lat="47.85927" lon="6.81466">
        <ele>654.8</ele>
        <time>2026-08-15T08:16:57.000Z</time>
      </trkpt>
      <trkpt lat="47.8592" lon="6.81488">
        <ele>654.2</ele>
        <time>2026-08-15T08:17:02.000Z</time>
      </trkpt>
      <trkpt lat="47.85913" lon="6.8151">
        <ele>654.4</ele>
        <time>2026-08-15T08:17:08.000Z</time>
      </trkpt>
      <trkpt lat="47.85917" lon="6.8151">
        <ele>655</ele>
        <time>2026-08-15T08:17:10.000Z</time>
      </trkpt>
      <trkpt lat="47.85921" lon="6.81511">
        <ele>655.6</ele>
        <time>2026-08-15T08:17:12.000Z</time>
      </trkpt>
      <trkpt lat="47.85928" lon="6.81525">
        <ele>656.8</ele>
        <time>2026-08-15T08:17:18.000Z</time>
      </trkpt>
      <trkpt lat="47.85937" lon="6.81532">
        <ele>658</ele>
        <time>2026-08-15T08:17:22.000Z</time>
      </trkpt>
      <trkpt lat="47.85938" lon="6.81531">
        <ele>658.4</ele>
        <time>2026-08-15T08:17:23.000Z</time>
      </trkpt>
      <trkpt lat="47.85938" lon="6.81528">
        <ele>658.8</ele>
        <time>2026-08-15T08:17:24.000Z</time>
      </trkpt>
      <trkpt lat="47.85938" lon="6.81525">
        <ele>659</ele>
        <time>2026-08-15T08:17:25.000Z</time>
      </trkpt>
      <trkpt lat="47.85937" lon="6.81521">
        <ele>659.4</ele>
        <time>2026-08-15T08:17:27.000Z</time>
      </trkpt>
      <trkpt lat="47.85939" lon="6.81505">
        <ele>660</ele>
        <time>2026-08-15T08:17:32.000Z</time>
      </trkpt>
      <trkpt lat="47.8594" lon="6.81501">
        <ele>660.4</ele>
        <time>2026-08-15T08:17:33.000Z</time>
      </trkpt>
      <trkpt lat="47.85943" lon="6.81492">
        <ele>662</ele>
        <time>2026-08-15T08:17:36.000Z</time>
      </trkpt>
      <trkpt lat="47.85944" lon="6.81491">
        <ele>662.8</ele>
        <time>2026-08-15T08:17:38.000Z</time>
      </trkpt>
      <trkpt lat="47.85944" lon="6.8149">
        <ele>663.2</ele>
        <time>2026-08-15T08:17:39.000Z</time>
      </trkpt>
      <trkpt lat="47.85945" lon="6.8149">
        <ele>663.8</ele>
        <time>2026-08-15T08:17:42.000Z</time>
      </trkpt>
      <trkpt lat="47.85946" lon="6.81494">
        <ele>664</ele>
        <time>2026-08-15T08:17:46.000Z</time>
      </trkpt>
      <trkpt lat="47.85957" lon="6.81471">
        <ele>666.2</ele>
        <time>2026-08-15T08:18:45.000Z</time>
      </trkpt>
      <trkpt lat="47.85961" lon="6.81479">
        <ele>666.6</ele>
        <time>2026-08-15T08:18:48.000Z</time>
      </trkpt>
      <trkpt lat="47.85962" lon="6.81482">
        <ele>666.8</ele>
        <time>2026-08-15T08:18:49.000Z</time>
      </trkpt>
      <trkpt lat="47.85962" lon="6.81488">
        <ele>667.6</ele>
        <time>2026-08-15T08:18:51.000Z</time>
      </trkpt>
      <trkpt lat="47.85963" lon="6.81495">
        <ele>668.8</ele>
        <time>2026-08-15T08:18:54.000Z</time>
      </trkpt>
      <trkpt lat="47.85965" lon="6.81501">
        <ele>670</ele>
        <time>2026-08-15T08:18:57.000Z</time>
      </trkpt>
      <trkpt lat="47.85967" lon="6.81506">
        <ele>670.6</ele>
        <time>2026-08-15T08:18:59.000Z</time>
      </trkpt>
      <trkpt lat="47.85969" lon="6.81511">
        <ele>671.4</ele>
        <time>2026-08-15T08:19:01.000Z</time>
      </trkpt>
      <trkpt lat="47.85975" lon="6.81519">
        <ele>672.8</ele>
        <time>2026-08-15T08:19:04.000Z</time>
      </trkpt>
      <trkpt lat="47.85976" lon="6.81521">
        <ele>673.2</ele>
        <time>2026-08-15T08:19:05.000Z</time>
      </trkpt>
      <trkpt lat="47.8598" lon="6.81529">
        <ele>674</ele>
        <time>2026-08-15T08:19:08.000Z</time>
      </trkpt>
      <trkpt lat="47.85986" lon="6.81543">
        <ele>673.8</ele>
        <time>2026-08-15T08:19:12.000Z</time>
      </trkpt>
      <trkpt lat="47.85992" lon="6.8156">
        <ele>675</ele>
        <time>2026-08-15T08:19:17.000Z</time>
      </trkpt>
      <trkpt lat="47.85994" lon="6.81564">
        <ele>675.8</ele>
        <time>2026-08-15T08:19:19.000Z</time>
      </trkpt>
      <trkpt lat="47.85994" lon="6.8157">
        <ele>676</ele>
        <time>2026-08-15T08:19:21.000Z</time>
      </trkpt>
      <trkpt lat="47.85996" lon="6.81577">
        <ele>676.2</ele>
        <time>2026-08-15T08:19:23.000Z</time>
      </trkpt>
      <trkpt lat="47.85997" lon="6.81579">
        <ele>676.2</ele>
        <time>2026-08-15T08:19:24.000Z</time>
      </trkpt>
      <trkpt lat="47.86009" lon="6.81593">
        <ele>677</ele>
        <time>2026-08-15T08:19:29.000Z</time>
      </trkpt>
      <trkpt lat="47.8602" lon="6.816">
        <ele>676.6</ele>
        <time>2026-08-15T08:19:36.000Z</time>
      </trkpt>
      <trkpt lat="47.86024" lon="6.81598">
        <ele>677</ele>
        <time>2026-08-15T08:19:42.000Z</time>
      </trkpt>
      <trkpt lat="47.86023" lon="6.81598">
        <ele>677.2</ele>
        <time>2026-08-15T08:19:43.000Z</time>
      </trkpt>
      <trkpt lat="47.86023" lon="6.81597">
        <ele>677.4</ele>
        <time>2026-08-15T08:19:44.000Z</time>
      </trkpt>
      <trkpt lat="47.86035" lon="6.81618">
        <ele>677.6</ele>
        <time>2026-08-15T08:24:14.000Z</time>
      </trkpt>
      <trkpt lat="47.86037" lon="6.81621">
        <ele>677.4</ele>
        <time>2026-08-15T08:24:15.000Z</time>
      </trkpt>
      <trkpt lat="47.86049" lon="6.81634">
        <ele>677.6</ele>
        <time>2026-08-15T08:24:19.000Z</time>
      </trkpt>
      <trkpt lat="47.86055" lon="6.8164">
        <ele>678</ele>
        <time>2026-08-15T08:24:21.000Z</time>
      </trkpt>
      <trkpt lat="47.86056" lon="6.81643">
        <ele>678.4</ele>
        <time>2026-08-15T08:24:22.000Z</time>
      </trkpt>
      <trkpt lat="47.86062" lon="6.81653">
        <ele>679.2</ele>
        <time>2026-08-15T08:24:26.000Z</time>
      </trkpt>
      <trkpt lat="47.86063" lon="6.81654">
        <ele>679.6</ele>
        <time>2026-08-15T08:24:27.000Z</time>
      </trkpt>
      <trkpt lat="47.86065" lon="6.81656">
        <ele>679.8</ele>
        <time>2026-08-15T08:24:28.000Z</time>
      </trkpt>
      <trkpt lat="47.86072" lon="6.81664">
        <ele>680.4</ele>
        <time>2026-08-15T08:24:32.000Z</time>
      </trkpt>
      <trkpt lat="47.86074" lon="6.81669">
        <ele>680.6</ele>
        <time>2026-08-15T08:24:34.000Z</time>
      </trkpt>
      <trkpt lat="47.86083" lon="6.81676">
        <ele>681.8</ele>
        <time>2026-08-15T08:24:39.000Z</time>
      </trkpt>
      <trkpt lat="47.86085" lon="6.81677">
        <ele>682.2</ele>
        <time>2026-08-15T08:24:40.000Z</time>
      </trkpt>
      <trkpt lat="47.86092" lon="6.81679">
        <ele>683</ele>
        <time>2026-08-15T08:24:43.000Z</time>
      </trkpt>
      <trkpt lat="47.86097" lon="6.81682">
        <ele>683.4</ele>
        <time>2026-08-15T08:24:45.000Z</time>
      </trkpt>
      <trkpt lat="47.86101" lon="6.81686">
        <ele>684</ele>
        <time>2026-08-15T08:24:47.000Z</time>
      </trkpt>
      <trkpt lat="47.8611" lon="6.81694">
        <ele>685.2</ele>
        <time>2026-08-15T08:24:51.000Z</time>
      </trkpt>
      <trkpt lat="47.86113" lon="6.81697">
        <ele>685.8</ele>
        <time>2026-08-15T08:24:53.000Z</time>
      </trkpt>
      <trkpt lat="47.86116" lon="6.81708">
        <ele>686</ele>
        <time>2026-08-15T08:24:59.000Z</time>
      </trkpt>
      <trkpt lat="47.86116" lon="6.81725">
        <ele>685.6</ele>
        <time>2026-08-15T08:25:06.000Z</time>
      </trkpt>
      <trkpt lat="47.86121" lon="6.81753">
        <ele>684.6</ele>
        <time>2026-08-15T08:25:13.000Z</time>
      </trkpt>
      <trkpt lat="47.86124" lon="6.81763">
        <ele>684.2</ele>
        <time>2026-08-15T08:25:15.000Z</time>
      </trkpt>
      <trkpt lat="47.8613" lon="6.81779">
        <ele>683.2</ele>
        <time>2026-08-15T08:25:19.000Z</time>
      </trkpt>
      <trkpt lat="47.86132" lon="6.81782">
        <ele>683</ele>
        <time>2026-08-15T08:25:20.000Z</time>
      </trkpt>
      <trkpt lat="47.86143" lon="6.818">
        <ele>682</ele>
        <time>2026-08-15T08:25:25.000Z</time>
      </trkpt>
      <trkpt lat="47.86149" lon="6.81808">
        <ele>681.6</ele>
        <time>2026-08-15T08:25:27.000Z</time>
      </trkpt>
      <trkpt lat="47.86163" lon="6.81828">
        <ele>680.8</ele>
        <time>2026-08-15T08:25:32.000Z</time>
      </trkpt>
      <trkpt lat="47.86166" lon="6.81831">
        <ele>680.6</ele>
        <time>2026-08-15T08:25:33.000Z</time>
      </trkpt>
      <trkpt lat="47.86176" lon="6.81842">
        <ele>679.4</ele>
        <time>2026-08-15T08:25:36.000Z</time>
      </trkpt>
      <trkpt lat="47.86191" lon="6.81862">
        <ele>678.8</ele>
        <time>2026-08-15T08:25:40.000Z</time>
      </trkpt>
      <trkpt lat="47.86203" lon="6.81878">
        <ele>678.8</ele>
        <time>2026-08-15T08:25:44.000Z</time>
      </trkpt>
      <trkpt lat="47.86209" lon="6.81885">
        <ele>678.4</ele>
        <time>2026-08-15T08:25:46.000Z</time>
      </trkpt>
      <trkpt lat="47.86213" lon="6.81888">
        <ele>678.2</ele>
        <time>2026-08-15T08:25:47.000Z</time>
      </trkpt>
      <trkpt lat="47.8622" lon="6.81892">
        <ele>678</ele>
        <time>2026-08-15T08:25:49.000Z</time>
      </trkpt>
      <trkpt lat="47.86231" lon="6.81893">
        <ele>677.4</ele>
        <time>2026-08-15T08:25:52.000Z</time>
      </trkpt>
      <trkpt lat="47.86242" lon="6.81889">
        <ele>676.8</ele>
        <time>2026-08-15T08:25:55.000Z</time>
      </trkpt>
      <trkpt lat="47.86248" lon="6.81884">
        <ele>676.8</ele>
        <time>2026-08-15T08:25:57.000Z</time>
      </trkpt>
      <trkpt lat="47.8626" lon="6.81865">
        <ele>676.8</ele>
        <time>2026-08-15T08:26:03.000Z</time>
      </trkpt>
      <trkpt lat="47.86265" lon="6.81859">
        <ele>676.2</ele>
        <time>2026-08-15T08:26:05.000Z</time>
      </trkpt>
      <trkpt lat="47.8627" lon="6.81852">
        <ele>675</ele>
        <time>2026-08-15T08:26:07.000Z</time>
      </trkpt>
      <trkpt lat="47.86276" lon="6.81843">
        <ele>673.8</ele>
        <time>2026-08-15T08:26:09.000Z</time>
      </trkpt>
      <trkpt lat="47.86283" lon="6.81832">
        <ele>672.4</ele>
        <time>2026-08-15T08:26:11.000Z</time>
      </trkpt>
      <trkpt lat="47.86291" lon="6.81824">
        <ele>671.6</ele>
        <time>2026-08-15T08:26:13.000Z</time>
      </trkpt>
      <trkpt lat="47.86295" lon="6.8182">
        <ele>671.2</ele>
        <time>2026-08-15T08:26:14.000Z</time>
      </trkpt>
      <trkpt lat="47.86311" lon="6.81809">
        <ele>671.4</ele>
        <time>2026-08-15T08:26:18.000Z</time>
      </trkpt>
      <trkpt lat="47.86316" lon="6.8181">
        <ele>671.4</ele>
        <time>2026-08-15T08:26:19.000Z</time>
      </trkpt>
      <trkpt lat="47.86319" lon="6.81811">
        <ele>671.2</ele>
        <time>2026-08-15T08:26:20.000Z</time>
      </trkpt>
      <trkpt lat="47.86326" lon="6.8182">
        <ele>670.6</ele>
        <time>2026-08-15T08:26:23.000Z</time>
      </trkpt>
      <trkpt lat="47.86328" lon="6.81841">
        <ele>670.8</ele>
        <time>2026-08-15T08:26:27.000Z</time>
      </trkpt>
      <trkpt lat="47.8633" lon="6.81869">
        <ele>671.2</ele>
        <time>2026-08-15T08:26:32.000Z</time>
      </trkpt>
      <trkpt lat="47.86333" lon="6.81879">
        <ele>671.6</ele>
        <time>2026-08-15T08:26:34.000Z</time>
      </trkpt>
      <trkpt lat="47.86341" lon="6.81898">
        <ele>672.4</ele>
        <time>2026-08-15T08:26:38.000Z</time>
      </trkpt>
      <trkpt lat="47.86346" lon="6.81905">
        <ele>673</ele>
        <time>2026-08-15T08:26:40.000Z</time>
      </trkpt>
      <trkpt lat="47.86352" lon="6.81911">
        <ele>673.6</ele>
        <time>2026-08-15T08:26:42.000Z</time>
      </trkpt>
      <trkpt lat="47.8636" lon="6.81915">
        <ele>674.6</ele>
        <time>2026-08-15T08:26:45.000Z</time>
      </trkpt>
      <trkpt lat="47.86363" lon="6.81916">
        <ele>675.2</ele>
        <time>2026-08-15T08:26:46.000Z</time>
      </trkpt>
      <trkpt lat="47.86366" lon="6.81917">
        <ele>675.8</ele>
        <time>2026-08-15T08:26:47.000Z</time>
      </trkpt>
      <trkpt lat="47.86371" lon="6.81918">
        <ele>676.8</ele>
        <time>2026-08-15T08:26:49.000Z</time>
      </trkpt>
      <trkpt lat="47.86377" lon="6.81917">
        <ele>678</ele>
        <time>2026-08-15T08:26:51.000Z</time>
      </trkpt>
      <trkpt lat="47.8638" lon="6.81915">
        <ele>678.4</ele>
        <time>2026-08-15T08:26:52.000Z</time>
      </trkpt>
      <trkpt lat="47.86386" lon="6.81913">
        <ele>679.4</ele>
        <time>2026-08-15T08:26:54.000Z</time>
      </trkpt>
      <trkpt lat="47.86392" lon="6.81912">
        <ele>680.6</ele>
        <time>2026-08-15T08:26:56.000Z</time>
      </trkpt>
      <trkpt lat="47.86398" lon="6.81912">
        <ele>681.8</ele>
        <time>2026-08-15T08:26:58.000Z</time>
      </trkpt>
      <trkpt lat="47.864" lon="6.81913">
        <ele>682.4</ele>
        <time>2026-08-15T08:26:59.000Z</time>
      </trkpt>
      <trkpt lat="47.86403" lon="6.81913">
        <ele>683</ele>
        <time>2026-08-15T08:27:00.000Z</time>
      </trkpt>
      <trkpt lat="47.86408" lon="6.81914">
        <ele>684.4</ele>
        <time>2026-08-15T08:27:02.000Z</time>
      </trkpt>
      <trkpt lat="47.86413" lon="6.81915">
        <ele>685.4</ele>
        <time>2026-08-15T08:27:04.000Z</time>
      </trkpt>
      <trkpt lat="47.86418" lon="6.81916">
        <ele>686.6</ele>
        <time>2026-08-15T08:27:06.000Z</time>
      </trkpt>
      <trkpt lat="47.86423" lon="6.81917">
        <ele>687.6</ele>
        <time>2026-08-15T08:27:08.000Z</time>
      </trkpt>
      <trkpt lat="47.86428" lon="6.81918">
        <ele>688.8</ele>
        <time>2026-08-15T08:27:10.000Z</time>
      </trkpt>
      <trkpt lat="47.86432" lon="6.81919">
        <ele>689.8</ele>
        <time>2026-08-15T08:27:12.000Z</time>
      </trkpt>
      <trkpt lat="47.86436" lon="6.8192">
        <ele>690.8</ele>
        <time>2026-08-15T08:27:14.000Z</time>
      </trkpt>
      <trkpt lat="47.86438" lon="6.8192">
        <ele>691</ele>
        <time>2026-08-15T08:27:15.000Z</time>
      </trkpt>
      <trkpt lat="47.86444" lon="6.8192">
        <ele>692.2</ele>
        <time>2026-08-15T08:27:18.000Z</time>
      </trkpt>
      <trkpt lat="47.86451" lon="6.81922">
        <ele>693.4</ele>
        <time>2026-08-15T08:27:21.000Z</time>
      </trkpt>
      <trkpt lat="47.86458" lon="6.81924">
        <ele>694.4</ele>
        <time>2026-08-15T08:27:24.000Z</time>
      </trkpt>
      <trkpt lat="47.86462" lon="6.81924">
        <ele>695.2</ele>
        <time>2026-08-15T08:27:26.000Z</time>
      </trkpt>
      <trkpt lat="47.86465" lon="6.81925">
        <ele>695.6</ele>
        <time>2026-08-15T08:27:27.000Z</time>
      </trkpt>
      <trkpt lat="47.86468" lon="6.81925">
        <ele>696</ele>
        <time>2026-08-15T08:27:28.000Z</time>
      </trkpt>
      <trkpt lat="47.8647" lon="6.81925">
        <ele>696.6</ele>
        <time>2026-08-15T08:27:29.000Z</time>
      </trkpt>
      <trkpt lat="47.86473" lon="6.81926">
        <ele>697</ele>
        <time>2026-08-15T08:27:30.000Z</time>
      </trkpt>
      <trkpt lat="47.86477" lon="6.81927">
        <ele>697.8</ele>
        <time>2026-08-15T08:27:32.000Z</time>
      </trkpt>
      <trkpt lat="47.86479" lon="6.81928">
        <ele>698.4</ele>
        <time>2026-08-15T08:27:33.000Z</time>
      </trkpt>
      <trkpt lat="47.86483" lon="6.81929">
        <ele>699.6</ele>
        <time>2026-08-15T08:27:35.000Z</time>
      </trkpt>
      <trkpt lat="47.86488" lon="6.81931">
        <ele>700.8</ele>
        <time>2026-08-15T08:27:37.000Z</time>
      </trkpt>
      <trkpt lat="47.86492" lon="6.81932">
        <ele>701.8</ele>
        <time>2026-08-15T08:27:39.000Z</time>
      </trkpt>
      <trkpt lat="47.86494" lon="6.81933">
        <ele>702.2</ele>
        <time>2026-08-15T08:27:40.000Z</time>
      </trkpt>
      <trkpt lat="47.86498" lon="6.81935">
        <ele>703.2</ele>
        <time>2026-08-15T08:27:42.000Z</time>
      </trkpt>
      <trkpt lat="47.86503" lon="6.81936">
        <ele>704.8</ele>
        <time>2026-08-15T08:27:45.000Z</time>
      </trkpt>
      <trkpt lat="47.86509" lon="6.81939">
        <ele>706</ele>
        <time>2026-08-15T08:27:48.000Z</time>
      </trkpt>
      <trkpt lat="47.86511" lon="6.8194">
        <ele>706.4</ele>
        <time>2026-08-15T08:27:49.000Z</time>
      </trkpt>
      <trkpt lat="47.86515" lon="6.81942">
        <ele>707.2</ele>
        <time>2026-08-15T08:27:51.000Z</time>
      </trkpt>
      <trkpt lat="47.8652" lon="6.81944">
        <ele>708.6</ele>
        <time>2026-08-15T08:27:54.000Z</time>
      </trkpt>
      <trkpt lat="47.86523" lon="6.81945">
        <ele>709</ele>
        <time>2026-08-15T08:27:55.000Z</time>
      </trkpt>
      <trkpt lat="47.86527" lon="6.81947">
        <ele>709.8</ele>
        <time>2026-08-15T08:27:57.000Z</time>
      </trkpt>
      <trkpt lat="47.86531" lon="6.81948">
        <ele>710.8</ele>
        <time>2026-08-15T08:27:59.000Z</time>
      </trkpt>
      <trkpt lat="47.86537" lon="6.81951">
        <ele>712.4</ele>
        <time>2026-08-15T08:28:02.000Z</time>
      </trkpt>
      <trkpt lat="47.86541" lon="6.81953">
        <ele>713.4</ele>
        <time>2026-08-15T08:28:04.000Z</time>
      </trkpt>
      <trkpt lat="47.86547" lon="6.81954">
        <ele>714.8</ele>
        <time>2026-08-15T08:28:07.000Z</time>
      </trkpt>
      <trkpt lat="47.86549" lon="6.81955">
        <ele>715.2</ele>
        <time>2026-08-15T08:28:08.000Z</time>
      </trkpt>
      <trkpt lat="47.86553" lon="6.81956">
        <ele>716</ele>
        <time>2026-08-15T08:28:10.000Z</time>
      </trkpt>
      <trkpt lat="47.86557" lon="6.81957">
        <ele>717</ele>
        <time>2026-08-15T08:28:12.000Z</time>
      </trkpt>
      <trkpt lat="47.86564" lon="6.81958">
        <ele>718.4</ele>
        <time>2026-08-15T08:28:15.000Z</time>
      </trkpt>
      <trkpt lat="47.86566" lon="6.81959">
        <ele>719</ele>
        <time>2026-08-15T08:28:16.000Z</time>
      </trkpt>
      <trkpt lat="47.8657" lon="6.81959">
        <ele>719.8</ele>
        <time>2026-08-15T08:28:18.000Z</time>
      </trkpt>
      <trkpt lat="47.86577" lon="6.81961">
        <ele>721</ele>
        <time>2026-08-15T08:28:21.000Z</time>
      </trkpt>
      <trkpt lat="47.86579" lon="6.81962">
        <ele>721.4</ele>
        <time>2026-08-15T08:28:22.000Z</time>
      </trkpt>
      <trkpt lat="47.86583" lon="6.81964">
        <ele>722.2</ele>
        <time>2026-08-15T08:28:24.000Z</time>
      </trkpt>
      <trkpt lat="47.86589" lon="6.81967">
        <ele>723.8</ele>
        <time>2026-08-15T08:28:27.000Z</time>
      </trkpt>
      <trkpt lat="47.86593" lon="6.81969">
        <ele>724.8</ele>
        <time>2026-08-15T08:28:29.000Z</time>
      </trkpt>
      <trkpt lat="47.86597" lon="6.81971">
        <ele>725.8</ele>
        <time>2026-08-15T08:28:31.000Z</time>
      </trkpt>
      <trkpt lat="47.86601" lon="6.81973">
        <ele>726.8</ele>
        <time>2026-08-15T08:28:33.000Z</time>
      </trkpt>
      <trkpt lat="47.86607" lon="6.81975">
        <ele>728.4</ele>
        <time>2026-08-15T08:28:36.000Z</time>
      </trkpt>
      <trkpt lat="47.86611" lon="6.81976">
        <ele>729.4</ele>
        <time>2026-08-15T08:28:38.000Z</time>
      </trkpt>
      <trkpt lat="47.86619" lon="6.81975">
        <ele>730.8</ele>
        <time>2026-08-15T08:28:41.000Z</time>
      </trkpt>
      <trkpt lat="47.86623" lon="6.81975">
        <ele>732</ele>
        <time>2026-08-15T08:28:44.000Z</time>
      </trkpt>
      <trkpt lat="47.86626" lon="6.81974">
        <ele>733.2</ele>
        <time>2026-08-15T08:28:46.000Z</time>
      </trkpt>
      <trkpt lat="47.86628" lon="6.81974">
        <ele>734.2</ele>
        <time>2026-08-15T08:28:49.000Z</time>
      </trkpt>
      <trkpt lat="47.86628" lon="6.81975">
        <ele>734.4</ele>
        <time>2026-08-15T08:28:50.000Z</time>
      </trkpt>
      <trkpt lat="47.86628" lon="6.81974">
        <ele>734.6</ele>
        <time>2026-08-15T08:28:52.000Z</time>
      </trkpt>
      <trkpt lat="47.86646" lon="6.81976">
        <ele>740</ele>
        <time>2026-08-15T08:30:58.000Z</time>
      </trkpt>
      <trkpt lat="47.86648" lon="6.81977">
        <ele>740.4</ele>
        <time>2026-08-15T08:30:59.000Z</time>
      </trkpt>
      <trkpt lat="47.86649" lon="6.81978">
        <ele>740.8</ele>
        <time>2026-08-15T08:31:00.000Z</time>
      </trkpt>
      <trkpt lat="47.8665" lon="6.81979">
        <ele>741.2</ele>
        <time>2026-08-15T08:31:01.000Z</time>
      </trkpt>
      <trkpt lat="47.86655" lon="6.8198">
        <ele>742.2</ele>
        <time>2026-08-15T08:31:04.000Z</time>
      </trkpt>
      <trkpt lat="47.86657" lon="6.8198">
        <ele>743</ele>
        <time>2026-08-15T08:31:06.000Z</time>
      </trkpt>
      <trkpt lat="47.86657" lon="6.8198">
        <ele>743.4</ele>
        <time>2026-08-15T08:31:08.000Z</time>
      </trkpt>
      <trkpt lat="47.86659" lon="6.8198">
        <ele>743.6</ele>
        <time>2026-08-15T08:31:10.000Z</time>
      </trkpt>
      <trkpt lat="47.8668" lon="6.81984">
        <ele>748.8</ele>
        <time>2026-08-15T08:34:28.000Z</time>
      </trkpt>
      <trkpt lat="47.86689" lon="6.81985">
        <ele>750.2</ele>
        <time>2026-08-15T08:34:32.000Z</time>
      </trkpt>
      <trkpt lat="47.86696" lon="6.81986">
        <ele>751.4</ele>
        <time>2026-08-15T08:34:36.000Z</time>
      </trkpt>
      <trkpt lat="47.86705" lon="6.81986">
        <ele>752.4</ele>
        <time>2026-08-15T08:34:40.000Z</time>
      </trkpt>
      <trkpt lat="47.8671" lon="6.81986">
        <ele>753.6</ele>
        <time>2026-08-15T08:34:43.000Z</time>
      </trkpt>
      <trkpt lat="47.86712" lon="6.81986">
        <ele>754</ele>
        <time>2026-08-15T08:34:44.000Z</time>
      </trkpt>
      <trkpt lat="47.86718" lon="6.81987">
        <ele>755</ele>
        <time>2026-08-15T08:34:47.000Z</time>
      </trkpt>
      <trkpt lat="47.86724" lon="6.81986">
        <ele>756.2</ele>
        <time>2026-08-15T08:34:50.000Z</time>
      </trkpt>
      <trkpt lat="47.86728" lon="6.81987">
        <ele>757</ele>
        <time>2026-08-15T08:34:52.000Z</time>
      </trkpt>
      <trkpt lat="47.8673" lon="6.81987">
        <ele>757.4</ele>
        <time>2026-08-15T08:34:53.000Z</time>
      </trkpt>
      <trkpt lat="47.86737" lon="6.81988">
        <ele>758.8</ele>
        <time>2026-08-15T08:34:57.000Z</time>
      </trkpt>
      <trkpt lat="47.86746" lon="6.81989">
        <ele>760</ele>
        <time>2026-08-15T08:35:01.000Z</time>
      </trkpt>
      <trkpt lat="47.86754" lon="6.8199">
        <ele>761</ele>
        <time>2026-08-15T08:35:05.000Z</time>
      </trkpt>
      <trkpt lat="47.86757" lon="6.81991">
        <ele>761.8</ele>
        <time>2026-08-15T08:35:07.000Z</time>
      </trkpt>
      <trkpt lat="47.86759" lon="6.81991">
        <ele>762.2</ele>
        <time>2026-08-15T08:35:08.000Z</time>
      </trkpt>
      <trkpt lat="47.86763" lon="6.81992">
        <ele>763</ele>
        <time>2026-08-15T08:35:10.000Z</time>
      </trkpt>
      <trkpt lat="47.86764" lon="6.81992">
        <ele>763.2</ele>
        <time>2026-08-15T08:35:11.000Z</time>
      </trkpt>
      <trkpt lat="47.86769" lon="6.81993">
        <ele>764.6</ele>
        <time>2026-08-15T08:35:14.000Z</time>
      </trkpt>
      <trkpt lat="47.86774" lon="6.81994">
        <ele>765.6</ele>
        <time>2026-08-15T08:35:17.000Z</time>
      </trkpt>
      <trkpt lat="47.86776" lon="6.81994">
        <ele>766</ele>
        <time>2026-08-15T08:35:18.000Z</time>
      </trkpt>
      <trkpt lat="47.86779" lon="6.81994">
        <ele>766.8</ele>
        <time>2026-08-15T08:35:20.000Z</time>
      </trkpt>
      <trkpt lat="47.86785" lon="6.81993">
        <ele>767.8</ele>
        <time>2026-08-15T08:35:23.000Z</time>
      </trkpt>
      <trkpt lat="47.8679" lon="6.81993">
        <ele>768.8</ele>
        <time>2026-08-15T08:35:26.000Z</time>
      </trkpt>
      <trkpt lat="47.86791" lon="6.81993">
        <ele>769.2</ele>
        <time>2026-08-15T08:35:27.000Z</time>
      </trkpt>
      <trkpt lat="47.86794" lon="6.81993">
        <ele>769.8</ele>
        <time>2026-08-15T08:35:29.000Z</time>
      </trkpt>
      <trkpt lat="47.86801" lon="6.81992">
        <ele>771.2</ele>
        <time>2026-08-15T08:35:33.000Z</time>
      </trkpt>
      <trkpt lat="47.86805" lon="6.8199">
        <ele>772</ele>
        <time>2026-08-15T08:35:35.000Z</time>
      </trkpt>
      <trkpt lat="47.86807" lon="6.8199">
        <ele>772.6</ele>
        <time>2026-08-15T08:35:36.000Z</time>
      </trkpt>
      <trkpt lat="47.86813" lon="6.81989">
        <ele>774</ele>
        <time>2026-08-15T08:35:39.000Z</time>
      </trkpt>
      <trkpt lat="47.86818" lon="6.81988">
        <ele>775</ele>
        <time>2026-08-15T08:35:42.000Z</time>
      </trkpt>
      <trkpt lat="47.8682" lon="6.81988">
        <ele>775.4</ele>
        <time>2026-08-15T08:35:43.000Z</time>
      </trkpt>
      <trkpt lat="47.86824" lon="6.81987">
        <ele>776.2</ele>
        <time>2026-08-15T08:35:46.000Z</time>
      </trkpt>
      <trkpt lat="47.86828" lon="6.81989">
        <ele>777.2</ele>
        <time>2026-08-15T08:35:49.000Z</time>
      </trkpt>
      <trkpt lat="47.86832" lon="6.8199">
        <ele>777.8</ele>
        <time>2026-08-15T08:35:51.000Z</time>
      </trkpt>
      <trkpt lat="47.86835" lon="6.8199">
        <ele>778.2</ele>
        <time>2026-08-15T08:35:53.000Z</time>
      </trkpt>
      <trkpt lat="47.86843" lon="6.81992">
        <ele>779.4</ele>
        <time>2026-08-15T08:35:57.000Z</time>
      </trkpt>
      <trkpt lat="47.86848" lon="6.81993">
        <ele>780.6</ele>
        <time>2026-08-15T08:36:00.000Z</time>
      </trkpt>
      <trkpt lat="47.86855" lon="6.81994">
        <ele>782</ele>
        <time>2026-08-15T08:36:04.000Z</time>
      </trkpt>
      <trkpt lat="47.86862" lon="6.81996">
        <ele>783</ele>
        <time>2026-08-15T08:36:08.000Z</time>
      </trkpt>
      <trkpt lat="47.86868" lon="6.81998">
        <ele>784.4</ele>
        <time>2026-08-15T08:36:12.000Z</time>
      </trkpt>
      <trkpt lat="47.86873" lon="6.82">
        <ele>785.4</ele>
        <time>2026-08-15T08:36:15.000Z</time>
      </trkpt>
      <trkpt lat="47.86878" lon="6.82002">
        <ele>786.4</ele>
        <time>2026-08-15T08:36:18.000Z</time>
      </trkpt>
      <trkpt lat="47.86885" lon="6.82005">
        <ele>787.8</ele>
        <time>2026-08-15T08:36:22.000Z</time>
      </trkpt>
      <trkpt lat="47.86889" lon="6.82007">
        <ele>788.6</ele>
        <time>2026-08-15T08:36:25.000Z</time>
      </trkpt>
      <trkpt lat="47.8689" lon="6.82007">
        <ele>789</ele>
        <time>2026-08-15T08:36:26.000Z</time>
      </trkpt>
      <trkpt lat="47.86895" lon="6.82009">
        <ele>790</ele>
        <time>2026-08-15T08:36:29.000Z</time>
      </trkpt>
      <trkpt lat="47.86902" lon="6.82011">
        <ele>791.2</ele>
        <time>2026-08-15T08:36:33.000Z</time>
      </trkpt>
      <trkpt lat="47.86904" lon="6.82011">
        <ele>791.4</ele>
        <time>2026-08-15T08:36:34.000Z</time>
      </trkpt>
      <trkpt lat="47.86911" lon="6.82012">
        <ele>792.4</ele>
        <time>2026-08-15T08:36:38.000Z</time>
      </trkpt>
      <trkpt lat="47.86916" lon="6.82011">
        <ele>793.6</ele>
        <time>2026-08-15T08:36:41.000Z</time>
      </trkpt>
      <trkpt lat="47.86917" lon="6.8201">
        <ele>794</ele>
        <time>2026-08-15T08:36:42.000Z</time>
      </trkpt>
      <trkpt lat="47.8692" lon="6.82011">
        <ele>794.8</ele>
        <time>2026-08-15T08:36:44.000Z</time>
      </trkpt>
      <trkpt lat="47.86927" lon="6.8201">
        <ele>796</ele>
        <time>2026-08-15T08:36:48.000Z</time>
      </trkpt>
      <trkpt lat="47.8693" lon="6.82009">
        <ele>796.6</ele>
        <time>2026-08-15T08:36:50.000Z</time>
      </trkpt>
      <trkpt lat="47.86933" lon="6.82009">
        <ele>797.2</ele>
        <time>2026-08-15T08:36:52.000Z</time>
      </trkpt>
      <trkpt lat="47.8694" lon="6.82008">
        <ele>798.2</ele>
        <time>2026-08-15T08:36:55.000Z</time>
      </trkpt>
      <trkpt lat="47.86942" lon="6.82008">
        <ele>798.4</ele>
        <time>2026-08-15T08:36:56.000Z</time>
      </trkpt>
      <trkpt lat="47.8695" lon="6.82007">
        <ele>799.8</ele>
        <time>2026-08-15T08:37:00.000Z</time>
      </trkpt>
      <trkpt lat="47.86958" lon="6.82007">
        <ele>801</ele>
        <time>2026-08-15T08:37:04.000Z</time>
      </trkpt>
      <trkpt lat="47.86968" lon="6.82007">
        <ele>802.2</ele>
        <time>2026-08-15T08:37:09.000Z</time>
      </trkpt>
      <trkpt lat="47.86974" lon="6.82006">
        <ele>803.2</ele>
        <time>2026-08-15T08:37:12.000Z</time>
      </trkpt>
      <trkpt lat="47.86977" lon="6.82006">
        <ele>803.4</ele>
        <time>2026-08-15T08:37:13.000Z</time>
      </trkpt>
      <trkpt lat="47.86987" lon="6.82006">
        <ele>804.6</ele>
        <time>2026-08-15T08:37:17.000Z</time>
      </trkpt>
      <trkpt lat="47.86993" lon="6.82007">
        <ele>805.8</ele>
        <time>2026-08-15T08:37:20.000Z</time>
      </trkpt>
      <trkpt lat="47.86995" lon="6.82006">
        <ele>806.4</ele>
        <time>2026-08-15T08:37:21.000Z</time>
      </trkpt>
      <trkpt lat="47.86999" lon="6.82006">
        <ele>807.2</ele>
        <time>2026-08-15T08:37:23.000Z</time>
      </trkpt>
      <trkpt lat="47.87005" lon="6.82008">
        <ele>808.4</ele>
        <time>2026-08-15T08:37:26.000Z</time>
      </trkpt>
      <trkpt lat="47.87007" lon="6.82007">
        <ele>809</ele>
        <time>2026-08-15T08:37:27.000Z</time>
      </trkpt>
      <trkpt lat="47.8701" lon="6.82007">
        <ele>809.4</ele>
        <time>2026-08-15T08:37:28.000Z</time>
      </trkpt>
      <trkpt lat="47.87012" lon="6.82006">
        <ele>809.8</ele>
        <time>2026-08-15T08:37:29.000Z</time>
      </trkpt>
      <trkpt lat="47.87021" lon="6.82005">
        <ele>810.8</ele>
        <time>2026-08-15T08:37:33.000Z</time>
      </trkpt>
      <trkpt lat="47.87028" lon="6.82004">
        <ele>812</ele>
        <time>2026-08-15T08:37:36.000Z</time>
      </trkpt>
      <trkpt lat="47.87033" lon="6.82005">
        <ele>812.8</ele>
        <time>2026-08-15T08:37:38.000Z</time>
      </trkpt>
      <trkpt lat="47.87035" lon="6.82005">
        <ele>813</ele>
        <time>2026-08-15T08:37:39.000Z</time>
      </trkpt>
      <trkpt lat="47.87041" lon="6.82006">
        <ele>814.4</ele>
        <time>2026-08-15T08:37:42.000Z</time>
      </trkpt>
      <trkpt lat="47.87046" lon="6.82008">
        <ele>815.8</ele>
        <time>2026-08-15T08:37:45.000Z</time>
      </trkpt>
      <trkpt lat="47.87053" lon="6.82011">
        <ele>817.2</ele>
        <time>2026-08-15T08:37:48.000Z</time>
      </trkpt>
      <trkpt lat="47.87057" lon="6.82012">
        <ele>818.2</ele>
        <time>2026-08-15T08:37:50.000Z</time>
      </trkpt>
      <trkpt lat="47.87058" lon="6.82012">
        <ele>818.8</ele>
        <time>2026-08-15T08:37:51.000Z</time>
      </trkpt>
      <trkpt lat="47.87061" lon="6.82012">
        <ele>819.4</ele>
        <time>2026-08-15T08:37:52.000Z</time>
      </trkpt>
      <trkpt lat="47.87065" lon="6.82012">
        <ele>820.6</ele>
        <time>2026-08-15T08:37:54.000Z</time>
      </trkpt>
      <trkpt lat="47.87068" lon="6.82011">
        <ele>821.6</ele>
        <time>2026-08-15T08:37:56.000Z</time>
      </trkpt>
      <trkpt lat="47.87071" lon="6.82009">
        <ele>822.6</ele>
        <time>2026-08-15T08:37:58.000Z</time>
      </trkpt>
      <trkpt lat="47.87071" lon="6.82007">
        <ele>823.2</ele>
        <time>2026-08-15T08:37:59.000Z</time>
      </trkpt>
      <trkpt lat="47.87075" lon="6.82007">
        <ele>824</ele>
        <time>2026-08-15T08:38:01.000Z</time>
      </trkpt>
      <trkpt lat="47.87076" lon="6.82007">
        <ele>824.4</ele>
        <time>2026-08-15T08:38:02.000Z</time>
      </trkpt>
      <trkpt lat="47.87079" lon="6.82008">
        <ele>824.8</ele>
        <time>2026-08-15T08:38:03.000Z</time>
      </trkpt>
      <trkpt lat="47.87083" lon="6.82009">
        <ele>825.6</ele>
        <time>2026-08-15T08:38:05.000Z</time>
      </trkpt>
      <trkpt lat="47.87088" lon="6.82012">
        <ele>826.6</ele>
        <time>2026-08-15T08:38:08.000Z</time>
      </trkpt>
      <trkpt lat="47.87092" lon="6.82015">
        <ele>827.2</ele>
        <time>2026-08-15T08:38:10.000Z</time>
      </trkpt>
      <trkpt lat="47.87096" lon="6.82018">
        <ele>827.8</ele>
        <time>2026-08-15T08:38:12.000Z</time>
      </trkpt>
      <trkpt lat="47.87103" lon="6.82021">
        <ele>829</ele>
        <time>2026-08-15T08:38:16.000Z</time>
      </trkpt>
      <trkpt lat="47.87109" lon="6.82022">
        <ele>829.8</ele>
        <time>2026-08-15T08:38:19.000Z</time>
      </trkpt>
      <trkpt lat="47.87113" lon="6.82023">
        <ele>830.4</ele>
        <time>2026-08-15T08:38:21.000Z</time>
      </trkpt>
      <trkpt lat="47.87123" lon="6.82026">
        <ele>831.4</ele>
        <time>2026-08-15T08:38:26.000Z</time>
      </trkpt>
      <trkpt lat="47.87124" lon="6.82027">
        <ele>831.8</ele>
        <time>2026-08-15T08:38:27.000Z</time>
      </trkpt>
      <trkpt lat="47.87128" lon="6.82033">
        <ele>832.6</ele>
        <time>2026-08-15T08:38:31.000Z</time>
      </trkpt>
      <trkpt lat="47.87132" lon="6.82039">
        <ele>833</ele>
        <time>2026-08-15T08:38:35.000Z</time>
      </trkpt>
      <trkpt lat="47.87132" lon="6.8204">
        <ele>833.4</ele>
        <time>2026-08-15T08:38:39.000Z</time>
      </trkpt>
      <trkpt lat="47.87133" lon="6.8204">
        <ele>833.4</ele>
        <time>2026-08-15T08:38:40.000Z</time>
      </trkpt>
      <trkpt lat="47.87133" lon="6.8204">
        <ele>833.4</ele>
        <time>2026-08-15T08:38:41.000Z</time>
      </trkpt>
      <trkpt lat="47.87139" lon="6.82051">
        <ele>834</ele>
        <time>2026-08-15T08:39:21.000Z</time>
      </trkpt>
      <trkpt lat="47.87142" lon="6.82056">
        <ele>834</ele>
        <time>2026-08-15T08:39:23.000Z</time>
      </trkpt>
      <trkpt lat="47.87148" lon="6.82065">
        <ele>834.4</ele>
        <time>2026-08-15T08:39:28.000Z</time>
      </trkpt>
      <trkpt lat="47.8715" lon="6.82069">
        <ele>834.6</ele>
        <time>2026-08-15T08:39:30.000Z</time>
      </trkpt>
      <trkpt lat="47.87151" lon="6.8207">
        <ele>834.6</ele>
        <time>2026-08-15T08:39:31.000Z</time>
      </trkpt>
      <trkpt lat="47.87152" lon="6.82071">
        <ele>834.6</ele>
        <time>2026-08-15T08:39:36.000Z</time>
      </trkpt>
      <trkpt lat="47.87152" lon="6.8207">
        <ele>834.6</ele>
        <time>2026-08-15T08:39:37.000Z</time>
      </trkpt>
      <trkpt lat="47.87154" lon="6.82073">
        <ele>837.2</ele>
        <time>2026-08-15T08:43:53.000Z</time>
      </trkpt>
      <trkpt lat="47.87154" lon="6.82073">
        <ele>837.2</ele>
        <time>2026-08-15T08:43:54.000Z</time>
      </trkpt>
      <trkpt lat="47.87154" lon="6.82073">
        <ele>837.2</ele>
        <time>2026-08-15T08:43:56.000Z</time>
      </trkpt>
      <trkpt lat="47.87161" lon="6.82083">
        <ele>838.6</ele>
        <time>2026-08-15T08:46:03.000Z</time>
      </trkpt>
      <trkpt lat="47.87163" lon="6.82085">
        <ele>838.6</ele>
        <time>2026-08-15T08:46:04.000Z</time>
      </trkpt>
      <trkpt lat="47.87164" lon="6.82086">
        <ele>838.8</ele>
        <time>2026-08-15T08:46:05.000Z</time>
      </trkpt>
      <trkpt lat="47.8717" lon="6.82086">
        <ele>839</ele>
        <time>2026-08-15T08:46:08.000Z</time>
      </trkpt>
      <trkpt lat="47.87178" lon="6.82086">
        <ele>839.2</ele>
        <time>2026-08-15T08:46:11.000Z</time>
      </trkpt>
      <trkpt lat="47.87188" lon="6.82086">
        <ele>839.8</ele>
        <time>2026-08-15T08:46:15.000Z</time>
      </trkpt>
      <trkpt lat="47.87194" lon="6.82083">
        <ele>840.6</ele>
        <time>2026-08-15T08:46:18.000Z</time>
      </trkpt>
      <trkpt lat="47.87196" lon="6.82082">
        <ele>840.8</ele>
        <time>2026-08-15T08:46:19.000Z</time>
      </trkpt>
      <trkpt lat="47.87199" lon="6.82081">
        <ele>841</ele>
        <time>2026-08-15T08:46:20.000Z</time>
      </trkpt>
      <trkpt lat="47.87211" lon="6.82075">
        <ele>841.4</ele>
        <time>2026-08-15T08:46:25.000Z</time>
      </trkpt>
      <trkpt lat="47.87216" lon="6.82073">
        <ele>842.2</ele>
        <time>2026-08-15T08:46:27.000Z</time>
      </trkpt>
      <trkpt lat="47.87222" lon="6.82069">
        <ele>843.6</ele>
        <time>2026-08-15T08:46:30.000Z</time>
      </trkpt>
      <trkpt lat="47.87228" lon="6.82067">
        <ele>844.8</ele>
        <time>2026-08-15T08:46:33.000Z</time>
      </trkpt>
      <trkpt lat="47.87232" lon="6.82064">
        <ele>845.6</ele>
        <time>2026-08-15T08:46:35.000Z</time>
      </trkpt>
      <trkpt lat="47.87233" lon="6.82063">
        <ele>845.8</ele>
        <time>2026-08-15T08:46:36.000Z</time>
      </trkpt>
      <trkpt lat="47.87238" lon="6.82062">
        <ele>846.4</ele>
        <time>2026-08-15T08:46:39.000Z</time>
      </trkpt>
      <trkpt lat="47.87243" lon="6.82061">
        <ele>846.4</ele>
        <time>2026-08-15T08:46:41.000Z</time>
      </trkpt>
      <trkpt lat="47.87253" lon="6.8206">
        <ele>846.4</ele>
        <time>2026-08-15T08:46:45.000Z</time>
      </trkpt>
      <trkpt lat="47.87273" lon="6.82058">
        <ele>846.6</ele>
        <time>2026-08-15T08:46:52.000Z</time>
      </trkpt>
      <trkpt lat="47.8728" lon="6.82059">
        <ele>846.4</ele>
        <time>2026-08-15T08:46:54.000Z</time>
      </trkpt>
      <trkpt lat="47.87301" lon="6.82064">
        <ele>846.2</ele>
        <time>2026-08-15T08:47:00.000Z</time>
      </trkpt>
      <trkpt lat="47.87307" lon="6.82065">
        <ele>846.8</ele>
        <time>2026-08-15T08:47:02.000Z</time>
      </trkpt>
      <trkpt lat="47.8731" lon="6.82066">
        <ele>847</ele>
        <time>2026-08-15T08:47:03.000Z</time>
      </trkpt>
      <trkpt lat="47.87327" lon="6.8207">
        <ele>848</ele>
        <time>2026-08-15T08:47:09.000Z</time>
      </trkpt>
      <trkpt lat="47.87332" lon="6.82073">
        <ele>848</ele>
        <time>2026-08-15T08:47:11.000Z</time>
      </trkpt>
      <trkpt lat="47.8735" lon="6.82082">
        <ele>847.8</ele>
        <time>2026-08-15T08:47:17.000Z</time>
      </trkpt>
      <trkpt lat="47.87357" lon="6.82084">
        <ele>847.6</ele>
        <time>2026-08-15T08:47:19.000Z</time>
      </trkpt>
      <trkpt lat="47.87374" lon="6.82096">
        <ele>847.6</ele>
        <time>2026-08-15T08:47:24.000Z</time>
      </trkpt>
      <trkpt lat="47.87382" lon="6.82108">
        <ele>847.2</ele>
        <time>2026-08-15T08:47:27.000Z</time>
      </trkpt>
      <trkpt lat="47.87396" lon="6.82128">
        <ele>847.4</ele>
        <time>2026-08-15T08:47:32.000Z</time>
      </trkpt>
      <trkpt lat="47.87399" lon="6.82136">
        <ele>847.6</ele>
        <time>2026-08-15T08:47:34.000Z</time>
      </trkpt>
      <trkpt lat="47.87411" lon="6.8215">
        <ele>847.2</ele>
        <time>2026-08-15T08:47:38.000Z</time>
      </trkpt>
      <trkpt lat="47.87414" lon="6.82154">
        <ele>846.8</ele>
        <time>2026-08-15T08:47:39.000Z</time>
      </trkpt>
      <trkpt lat="47.87418" lon="6.82158">
        <ele>846.4</ele>
        <time>2026-08-15T08:47:40.000Z</time>
      </trkpt>
      <trkpt lat="47.87432" lon="6.82176">
        <ele>846.2</ele>
        <time>2026-08-15T08:47:44.000Z</time>
      </trkpt>
      <trkpt lat="47.87441" lon="6.82182">
        <ele>847.2</ele>
        <time>2026-08-15T08:47:47.000Z</time>
      </trkpt>
      <trkpt lat="47.87446" lon="6.82184">
        <ele>848</ele>
        <time>2026-08-15T08:47:49.000Z</time>
      </trkpt>
      <trkpt lat="47.87452" lon="6.82178">
        <ele>849.2</ele>
        <time>2026-08-15T08:47:52.000Z</time>
      </trkpt>
      <trkpt lat="47.87454" lon="6.82169">
        <ele>850.2</ele>
        <time>2026-08-15T08:47:55.000Z</time>
      </trkpt>
      <trkpt lat="47.87456" lon="6.82163">
        <ele>850.4</ele>
        <time>2026-08-15T08:47:57.000Z</time>
      </trkpt>
      <trkpt lat="47.87467" lon="6.82149">
        <ele>849.4</ele>
        <time>2026-08-15T08:48:02.000Z</time>
      </trkpt>
      <trkpt lat="47.8747" lon="6.82151">
        <ele>849.4</ele>
        <time>2026-08-15T08:48:03.000Z</time>
      </trkpt>
      <trkpt lat="47.87476" lon="6.82154">
        <ele>849.2</ele>
        <time>2026-08-15T08:48:05.000Z</time>
      </trkpt>
      <trkpt lat="47.8748" lon="6.82157">
        <ele>849</ele>
        <time>2026-08-15T08:48:06.000Z</time>
      </trkpt>
      <trkpt lat="47.87483" lon="6.82161">
        <ele>848.8</ele>
        <time>2026-08-15T08:48:07.000Z</time>
      </trkpt>
      <trkpt lat="47.87488" lon="6.82171">
        <ele>848.4</ele>
        <time>2026-08-15T08:48:10.000Z</time>
      </trkpt>
      <trkpt lat="47.87498" lon="6.82179">
        <ele>848.8</ele>
        <time>2026-08-15T08:48:14.000Z</time>
      </trkpt>
      <trkpt lat="47.87504" lon="6.82189">
        <ele>849.6</ele>
        <time>2026-08-15T08:48:18.000Z</time>
      </trkpt>
      <trkpt lat="47.87513" lon="6.822">
        <ele>848</ele>
        <time>2026-08-15T08:48:21.000Z</time>
      </trkpt>
      <trkpt lat="47.87517" lon="6.82204">
        <ele>847.2</ele>
        <time>2026-08-15T08:48:22.000Z</time>
      </trkpt>
      <trkpt lat="47.87524" lon="6.82208">
        <ele>846.6</ele>
        <time>2026-08-15T08:48:23.000Z</time>
      </trkpt>
      <trkpt lat="47.87538" lon="6.82217">
        <ele>846.6</ele>
        <time>2026-08-15T08:48:26.000Z</time>
      </trkpt>
      <trkpt lat="47.87558" lon="6.82233">
        <ele>847</ele>
        <time>2026-08-15T08:48:31.000Z</time>
      </trkpt>
      <trkpt lat="47.87561" lon="6.82236">
        <ele>846.8</ele>
        <time>2026-08-15T08:48:32.000Z</time>
      </trkpt>
      <trkpt lat="47.87576" lon="6.8225">
        <ele>847.8</ele>
        <time>2026-08-15T08:48:36.000Z</time>
      </trkpt>
      <trkpt lat="47.87583" lon="6.82256">
        <ele>848.6</ele>
        <time>2026-08-15T08:48:38.000Z</time>
      </trkpt>
      <trkpt lat="47.87586" lon="6.8226">
        <ele>849</ele>
        <time>2026-08-15T08:48:39.000Z</time>
      </trkpt>
      <trkpt lat="47.87599" lon="6.82274">
        <ele>850.2</ele>
        <time>2026-08-15T08:48:43.000Z</time>
      </trkpt>
      <trkpt lat="47.87602" lon="6.82277">
        <ele>850.8</ele>
        <time>2026-08-15T08:48:44.000Z</time>
      </trkpt>
      <trkpt lat="47.87605" lon="6.82279">
        <ele>851.6</ele>
        <time>2026-08-15T08:48:45.000Z</time>
      </trkpt>
      <trkpt lat="47.8761" lon="6.82283">
        <ele>853</ele>
        <time>2026-08-15T08:48:47.000Z</time>
      </trkpt>
      <trkpt lat="47.87614" lon="6.82286">
        <ele>854.4</ele>
        <time>2026-08-15T08:48:49.000Z</time>
      </trkpt>
      <trkpt lat="47.87616" lon="6.82288">
        <ele>854.8</ele>
        <time>2026-08-15T08:48:50.000Z</time>
      </trkpt>
      <trkpt lat="47.87619" lon="6.82292">
        <ele>855.8</ele>
        <time>2026-08-15T08:48:52.000Z</time>
      </trkpt>
      <trkpt lat="47.87622" lon="6.82295">
        <ele>856.8</ele>
        <time>2026-08-15T08:48:54.000Z</time>
      </trkpt>
      <trkpt lat="47.87626" lon="6.82298">
        <ele>857.6</ele>
        <time>2026-08-15T08:48:56.000Z</time>
      </trkpt>
      <trkpt lat="47.87629" lon="6.823">
        <ele>858</ele>
        <time>2026-08-15T08:48:57.000Z</time>
      </trkpt>
      <trkpt lat="47.87633" lon="6.82304">
        <ele>858.8</ele>
        <time>2026-08-15T08:48:59.000Z</time>
      </trkpt>
      <trkpt lat="47.87635" lon="6.82307">
        <ele>859.2</ele>
        <time>2026-08-15T08:49:00.000Z</time>
      </trkpt>
      <trkpt lat="47.87642" lon="6.82313">
        <ele>860.2</ele>
        <time>2026-08-15T08:49:03.000Z</time>
      </trkpt>
      <trkpt lat="47.87648" lon="6.82321">
        <ele>861.4</ele>
        <time>2026-08-15T08:49:06.000Z</time>
      </trkpt>
      <trkpt lat="47.87655" lon="6.82329">
        <ele>862.6</ele>
        <time>2026-08-15T08:49:09.000Z</time>
      </trkpt>
      <trkpt lat="47.8766" lon="6.82334">
        <ele>863.8</ele>
        <time>2026-08-15T08:49:11.000Z</time>
      </trkpt>
      <trkpt lat="47.87665" lon="6.82335">
        <ele>864.8</ele>
        <time>2026-08-15T08:49:13.000Z</time>
      </trkpt>
      <trkpt lat="47.87666" lon="6.82336">
        <ele>865.4</ele>
        <time>2026-08-15T08:49:14.000Z</time>
      </trkpt>
      <trkpt lat="47.87667" lon="6.82338">
        <ele>865.8</ele>
        <time>2026-08-15T08:49:15.000Z</time>
      </trkpt>
      <trkpt lat="47.87668" lon="6.8234">
        <ele>866.2</ele>
        <time>2026-08-15T08:49:16.000Z</time>
      </trkpt>
      <trkpt lat="47.87672" lon="6.82345">
        <ele>866.8</ele>
        <time>2026-08-15T08:49:19.000Z</time>
      </trkpt>
      <trkpt lat="47.87675" lon="6.82352">
        <ele>867.2</ele>
        <time>2026-08-15T08:49:22.000Z</time>
      </trkpt>
      <trkpt lat="47.87679" lon="6.82365">
        <ele>867.4</ele>
        <time>2026-08-15T08:49:26.000Z</time>
      </trkpt>
      <trkpt lat="47.87684" lon="6.82378">
        <ele>868.2</ele>
        <time>2026-08-15T08:49:30.000Z</time>
      </trkpt>
      <trkpt lat="47.87687" lon="6.82388">
        <ele>868.6</ele>
        <time>2026-08-15T08:49:33.000Z</time>
      </trkpt>
      <trkpt lat="47.87698" lon="6.82411">
        <ele>869</ele>
        <time>2026-08-15T08:49:39.000Z</time>
      </trkpt>
      <trkpt lat="47.877" lon="6.82415">
        <ele>869</ele>
        <time>2026-08-15T08:49:40.000Z</time>
      </trkpt>
      <trkpt lat="47.87709" lon="6.82441">
        <ele>868</ele>
        <time>2026-08-15T08:49:45.000Z</time>
      </trkpt>
      <trkpt lat="47.87711" lon="6.82448">
        <ele>867.4</ele>
        <time>2026-08-15T08:49:46.000Z</time>
      </trkpt>
      <trkpt lat="47.87711" lon="6.82453">
        <ele>866.8</ele>
        <time>2026-08-15T08:49:47.000Z</time>
      </trkpt>
      <trkpt lat="47.87711" lon="6.82466">
        <ele>865.8</ele>
        <time>2026-08-15T08:49:49.000Z</time>
      </trkpt>
      <trkpt lat="47.87711" lon="6.82474">
        <ele>865.4</ele>
        <time>2026-08-15T08:49:50.000Z</time>
      </trkpt>
      <trkpt lat="47.87713" lon="6.8249">
        <ele>864.4</ele>
        <time>2026-08-15T08:49:52.000Z</time>
      </trkpt>
      <trkpt lat="47.87718" lon="6.82506">
        <ele>863.4</ele>
        <time>2026-08-15T08:49:54.000Z</time>
      </trkpt>
      <trkpt lat="47.8772" lon="6.82514">
        <ele>863</ele>
        <time>2026-08-15T08:49:55.000Z</time>
      </trkpt>
      <trkpt lat="47.87725" lon="6.8254">
        <ele>862.4</ele>
        <time>2026-08-15T08:49:58.000Z</time>
      </trkpt>
      <trkpt lat="47.87728" lon="6.82555">
        <ele>862.6</ele>
        <time>2026-08-15T08:50:00.000Z</time>
      </trkpt>
      <trkpt lat="47.87732" lon="6.82568">
        <ele>862.6</ele>
        <time>2026-08-15T08:50:03.000Z</time>
      </trkpt>
      <trkpt lat="47.87737" lon="6.82571">
        <ele>862.6</ele>
        <time>2026-08-15T08:50:04.000Z</time>
      </trkpt>
      <trkpt lat="47.87741" lon="6.82572">
        <ele>862.6</ele>
        <time>2026-08-15T08:50:05.000Z</time>
      </trkpt>
      <trkpt lat="47.87754" lon="6.82581">
        <ele>862.8</ele>
        <time>2026-08-15T08:50:08.000Z</time>
      </trkpt>
      <trkpt lat="47.87765" lon="6.82588">
        <ele>862.6</ele>
        <time>2026-08-15T08:50:11.000Z</time>
      </trkpt>
      <trkpt lat="47.87773" lon="6.82591">
        <ele>862</ele>
        <time>2026-08-15T08:50:13.000Z</time>
      </trkpt>
      <trkpt lat="47.87777" lon="6.82593">
        <ele>862</ele>
        <time>2026-08-15T08:50:14.000Z</time>
      </trkpt>
      <trkpt lat="47.8778" lon="6.82597">
        <ele>862</ele>
        <time>2026-08-15T08:50:15.000Z</time>
      </trkpt>
      <trkpt lat="47.87785" lon="6.82607">
        <ele>862.2</ele>
        <time>2026-08-15T08:50:17.000Z</time>
      </trkpt>
      <trkpt lat="47.87787" lon="6.82613">
        <ele>862.4</ele>
        <time>2026-08-15T08:50:18.000Z</time>
      </trkpt>
      <trkpt lat="47.8779" lon="6.82623">
        <ele>863</ele>
        <time>2026-08-15T08:50:20.000Z</time>
      </trkpt>
      <trkpt lat="47.87792" lon="6.82628">
        <ele>863.2</ele>
        <time>2026-08-15T08:50:21.000Z</time>
      </trkpt>
      <trkpt lat="47.87796" lon="6.82642">
        <ele>863.8</ele>
        <time>2026-08-15T08:50:24.000Z</time>
      </trkpt>
      <trkpt lat="47.87799" lon="6.82652">
        <ele>864.2</ele>
        <time>2026-08-15T08:50:26.000Z</time>
      </trkpt>
      <trkpt lat="47.87805" lon="6.82666">
        <ele>865.4</ele>
        <time>2026-08-15T08:50:30.000Z</time>
      </trkpt>
      <trkpt lat="47.8782" lon="6.82687">
        <ele>866.2</ele>
        <time>2026-08-15T08:50:37.000Z</time>
      </trkpt>
      <trkpt lat="47.87824" lon="6.82692">
        <ele>866.2</ele>
        <time>2026-08-15T08:50:39.000Z</time>
      </trkpt>
      <trkpt lat="47.87829" lon="6.82697">
        <ele>866.4</ele>
        <time>2026-08-15T08:50:41.000Z</time>
      </trkpt>
      <trkpt lat="47.87837" lon="6.82706">
        <ele>866.2</ele>
        <time>2026-08-15T08:50:44.000Z</time>
      </trkpt>
      <trkpt lat="47.87845" lon="6.82714">
        <ele>866</ele>
        <time>2026-08-15T08:50:48.000Z</time>
      </trkpt>
      <trkpt lat="47.87848" lon="6.82717">
        <ele>866</ele>
        <time>2026-08-15T08:50:49.000Z</time>
      </trkpt>
      <trkpt lat="47.87859" lon="6.82729">
        <ele>866</ele>
        <time>2026-08-15T08:50:53.000Z</time>
      </trkpt>
      <trkpt lat="47.87877" lon="6.82749">
        <ele>865.8</ele>
        <time>2026-08-15T08:50:58.000Z</time>
      </trkpt>
      <trkpt lat="47.87886" lon="6.82758">
        <ele>865.6</ele>
        <time>2026-08-15T08:51:01.000Z</time>
      </trkpt>
      <trkpt lat="47.87903" lon="6.82772">
        <ele>865.6</ele>
        <time>2026-08-15T08:51:07.000Z</time>
      </trkpt>
      <trkpt lat="47.8792" lon="6.82789">
        <ele>866.4</ele>
        <time>2026-08-15T08:51:14.000Z</time>
      </trkpt>
      <trkpt lat="47.87937" lon="6.82807">
        <ele>866</ele>
        <time>2026-08-15T08:51:21.000Z</time>
      </trkpt>
      <trkpt lat="47.87946" lon="6.82815">
        <ele>865.8</ele>
        <time>2026-08-15T08:51:24.000Z</time>
      </trkpt>
      <trkpt lat="47.87958" lon="6.82826">
        <ele>866</ele>
        <time>2026-08-15T08:51:28.000Z</time>
      </trkpt>
      <trkpt lat="47.87973" lon="6.82844">
        <ele>865.8</ele>
        <time>2026-08-15T08:51:33.000Z</time>
      </trkpt>
      <trkpt lat="47.87978" lon="6.82856">
        <ele>865.8</ele>
        <time>2026-08-15T08:51:35.000Z</time>
      </trkpt>
      <trkpt lat="47.8798" lon="6.82861">
        <ele>865.8</ele>
        <time>2026-08-15T08:51:36.000Z</time>
      </trkpt>
      <trkpt lat="47.87987" lon="6.82872">
        <ele>866</ele>
        <time>2026-08-15T08:51:38.000Z</time>
      </trkpt>
      <trkpt lat="47.87997" lon="6.82886">
        <ele>866.4</ele>
        <time>2026-08-15T08:51:41.000Z</time>
      </trkpt>
      <trkpt lat="47.88" lon="6.8289">
        <ele>866.4</ele>
        <time>2026-08-15T08:51:42.000Z</time>
      </trkpt>
      <trkpt lat="47.88016" lon="6.82909">
        <ele>866.4</ele>
        <time>2026-08-15T08:51:46.000Z</time>
      </trkpt>
      <trkpt lat="47.88026" lon="6.82925">
        <ele>867.2</ele>
        <time>2026-08-15T08:51:49.000Z</time>
      </trkpt>
      <trkpt lat="47.88032" lon="6.82934">
        <ele>867.8</ele>
        <time>2026-08-15T08:51:51.000Z</time>
      </trkpt>
      <trkpt lat="47.88043" lon="6.82958">
        <ele>868.4</ele>
        <time>2026-08-15T08:51:56.000Z</time>
      </trkpt>
      <trkpt lat="47.88045" lon="6.82962">
        <ele>868.4</ele>
        <time>2026-08-15T08:51:57.000Z</time>
      </trkpt>
      <trkpt lat="47.88057" lon="6.8298">
        <ele>868.8</ele>
        <time>2026-08-15T08:52:01.000Z</time>
      </trkpt>
      <trkpt lat="47.88061" lon="6.82984">
        <ele>868.8</ele>
        <time>2026-08-15T08:52:02.000Z</time>
      </trkpt>
      <trkpt lat="47.88065" lon="6.82987">
        <ele>869</ele>
        <time>2026-08-15T08:52:03.000Z</time>
      </trkpt>
      <trkpt lat="47.8808" lon="6.82997">
        <ele>869.8</ele>
        <time>2026-08-15T08:52:07.000Z</time>
      </trkpt>
      <trkpt lat="47.88083" lon="6.82999">
        <ele>870.4</ele>
        <time>2026-08-15T08:52:08.000Z</time>
      </trkpt>
      <trkpt lat="47.8809" lon="6.83002">
        <ele>871</ele>
        <time>2026-08-15T08:52:10.000Z</time>
      </trkpt>
      <trkpt lat="47.88099" lon="6.8301">
        <ele>871.8</ele>
        <time>2026-08-15T08:52:13.000Z</time>
      </trkpt>
      <trkpt lat="47.88102" lon="6.83013">
        <ele>872</ele>
        <time>2026-08-15T08:52:14.000Z</time>
      </trkpt>
      <trkpt lat="47.88105" lon="6.83016">
        <ele>872.2</ele>
        <time>2026-08-15T08:52:15.000Z</time>
      </trkpt>
      <trkpt lat="47.88116" lon="6.83025">
        <ele>872.8</ele>
        <time>2026-08-15T08:52:18.000Z</time>
      </trkpt>
      <trkpt lat="47.88119" lon="6.83029">
        <ele>873</ele>
        <time>2026-08-15T08:52:19.000Z</time>
      </trkpt>
      <trkpt lat="47.88125" lon="6.83036">
        <ele>873.4</ele>
        <time>2026-08-15T08:52:21.000Z</time>
      </trkpt>
      <trkpt lat="47.88141" lon="6.83057">
        <ele>874.4</ele>
        <time>2026-08-15T08:52:27.000Z</time>
      </trkpt>
      <trkpt lat="47.88153" lon="6.83074">
        <ele>875.4</ele>
        <time>2026-08-15T08:52:32.000Z</time>
      </trkpt>
      <trkpt lat="47.88165" lon="6.83084">
        <ele>876</ele>
        <time>2026-08-15T08:52:36.000Z</time>
      </trkpt>
      <trkpt lat="47.88176" lon="6.83095">
        <ele>876.6</ele>
        <time>2026-08-15T08:52:40.000Z</time>
      </trkpt>
      <trkpt lat="47.88185" lon="6.83103">
        <ele>877.4</ele>
        <time>2026-08-15T08:52:43.000Z</time>
      </trkpt>
      <trkpt lat="47.88191" lon="6.83109">
        <ele>877.6</ele>
        <time>2026-08-15T08:52:45.000Z</time>
      </trkpt>
      <trkpt lat="47.88207" lon="6.83122">
        <ele>878.2</ele>
        <time>2026-08-15T08:52:50.000Z</time>
      </trkpt>
      <trkpt lat="47.8821" lon="6.83124">
        <ele>878.4</ele>
        <time>2026-08-15T08:52:51.000Z</time>
      </trkpt>
      <trkpt lat="47.88216" lon="6.83127">
        <ele>878.8</ele>
        <time>2026-08-15T08:52:53.000Z</time>
      </trkpt>
      <trkpt lat="47.88229" lon="6.83135">
        <ele>879.2</ele>
        <time>2026-08-15T08:52:57.000Z</time>
      </trkpt>
      <trkpt lat="47.88244" lon="6.83151">
        <ele>880</ele>
        <time>2026-08-15T08:53:02.000Z</time>
      </trkpt>
      <trkpt lat="47.8825" lon="6.83158">
        <ele>880.2</ele>
        <time>2026-08-15T08:53:04.000Z</time>
      </trkpt>
      <trkpt lat="47.88266" lon="6.83177">
        <ele>881</ele>
        <time>2026-08-15T08:53:10.000Z</time>
      </trkpt>
      <trkpt lat="47.88269" lon="6.8318">
        <ele>881.2</ele>
        <time>2026-08-15T08:53:11.000Z</time>
      </trkpt>
      <trkpt lat="47.88287" lon="6.83198">
        <ele>880.6</ele>
        <time>2026-08-15T08:53:16.000Z</time>
      </trkpt>
      <trkpt lat="47.88291" lon="6.83203">
        <ele>880.6</ele>
        <time>2026-08-15T08:53:17.000Z</time>
      </trkpt>
      <trkpt lat="47.88304" lon="6.83221">
        <ele>880.4</ele>
        <time>2026-08-15T08:53:21.000Z</time>
      </trkpt>
      <trkpt lat="47.88311" lon="6.8323">
        <ele>880.4</ele>
        <time>2026-08-15T08:53:23.000Z</time>
      </trkpt>
      <trkpt lat="47.88327" lon="6.83245">
        <ele>880.2</ele>
        <time>2026-08-15T08:53:27.000Z</time>
      </trkpt>
      <trkpt lat="47.88344" lon="6.8326">
        <ele>880.2</ele>
        <time>2026-08-15T08:53:31.000Z</time>
      </trkpt>
      <trkpt lat="47.88358" lon="6.83279">
        <ele>880.2</ele>
        <time>2026-08-15T08:53:35.000Z</time>
      </trkpt>
      <trkpt lat="47.88365" lon="6.8329">
        <ele>880</ele>
        <time>2026-08-15T08:53:37.000Z</time>
      </trkpt>
      <trkpt lat="47.88375" lon="6.83306">
        <ele>879.8</ele>
        <time>2026-08-15T08:53:40.000Z</time>
      </trkpt>
      <trkpt lat="47.88387" lon="6.83328">
        <ele>879.8</ele>
        <time>2026-08-15T08:53:44.000Z</time>
      </trkpt>
      <trkpt lat="47.88395" lon="6.83356">
        <ele>879.4</ele>
        <time>2026-08-15T08:53:48.000Z</time>
      </trkpt>
      <trkpt lat="47.88399" lon="6.83369">
        <ele>879.4</ele>
        <time>2026-08-15T08:53:50.000Z</time>
      </trkpt>
      <trkpt lat="47.88402" lon="6.83375">
        <ele>879.2</ele>
        <time>2026-08-15T08:53:51.000Z</time>
      </trkpt>
      <trkpt lat="47.88408" lon="6.83383">
        <ele>879.4</ele>
        <time>2026-08-15T08:53:53.000Z</time>
      </trkpt>
      <trkpt lat="47.88415" lon="6.83389">
        <ele>879.4</ele>
        <time>2026-08-15T08:53:55.000Z</time>
      </trkpt>
      <trkpt lat="47.88434" lon="6.83401">
        <ele>879.4</ele>
        <time>2026-08-15T08:54:00.000Z</time>
      </trkpt>
      <trkpt lat="47.88438" lon="6.83404">
        <ele>879.4</ele>
        <time>2026-08-15T08:54:01.000Z</time>
      </trkpt>
      <trkpt lat="47.88456" lon="6.83419">
        <ele>879.2</ele>
        <time>2026-08-15T08:54:06.000Z</time>
      </trkpt>
      <trkpt lat="47.88464" lon="6.83424">
        <ele>878.8</ele>
        <time>2026-08-15T08:54:08.000Z</time>
      </trkpt>
      <trkpt lat="47.88468" lon="6.83426">
        <ele>878.8</ele>
        <time>2026-08-15T08:54:09.000Z</time>
      </trkpt>
      <trkpt lat="47.88485" lon="6.83433">
        <ele>877.4</ele>
        <time>2026-08-15T08:54:13.000Z</time>
      </trkpt>
      <trkpt lat="47.88501" lon="6.83438">
        <ele>876.4</ele>
        <time>2026-08-15T08:54:16.000Z</time>
      </trkpt>
      <trkpt lat="47.88507" lon="6.8344">
        <ele>876.2</ele>
        <time>2026-08-15T08:54:17.000Z</time>
      </trkpt>
      <trkpt lat="47.88523" lon="6.8345">
        <ele>874.8</ele>
        <time>2026-08-15T08:54:20.000Z</time>
      </trkpt>
      <trkpt lat="47.88533" lon="6.83457">
        <ele>874.2</ele>
        <time>2026-08-15T08:54:22.000Z</time>
      </trkpt>
      <trkpt lat="47.88543" lon="6.83464">
        <ele>873.6</ele>
        <time>2026-08-15T08:54:24.000Z</time>
      </trkpt>
      <trkpt lat="47.88559" lon="6.83475">
        <ele>872.6</ele>
        <time>2026-08-15T08:54:27.000Z</time>
      </trkpt>
      <trkpt lat="47.88564" lon="6.83478">
        <ele>872.2</ele>
        <time>2026-08-15T08:54:28.000Z</time>
      </trkpt>
      <trkpt lat="47.88574" lon="6.83486">
        <ele>871.6</ele>
        <time>2026-08-15T08:54:30.000Z</time>
      </trkpt>
      <trkpt lat="47.88579" lon="6.8349">
        <ele>871.4</ele>
        <time>2026-08-15T08:54:31.000Z</time>
      </trkpt>
      <trkpt lat="47.88598" lon="6.83506">
        <ele>871.2</ele>
        <time>2026-08-15T08:54:35.000Z</time>
      </trkpt>
      <trkpt lat="47.88615" lon="6.83522">
        <ele>871.6</ele>
        <time>2026-08-15T08:54:39.000Z</time>
      </trkpt>
      <trkpt lat="47.88629" lon="6.83537">
        <ele>872.4</ele>
        <time>2026-08-15T08:54:43.000Z</time>
      </trkpt>
      <trkpt lat="47.88635" lon="6.83545">
        <ele>873</ele>
        <time>2026-08-15T08:54:45.000Z</time>
      </trkpt>
      <trkpt lat="47.88642" lon="6.83551">
        <ele>873.6</ele>
        <time>2026-08-15T08:54:47.000Z</time>
      </trkpt>
      <trkpt lat="47.88654" lon="6.83559">
        <ele>874.2</ele>
        <time>2026-08-15T08:54:50.000Z</time>
      </trkpt>
      <trkpt lat="47.88659" lon="6.83559">
        <ele>874.4</ele>
        <time>2026-08-15T08:54:51.000Z</time>
      </trkpt>
      <trkpt lat="47.88663" lon="6.8356">
        <ele>874.6</ele>
        <time>2026-08-15T08:54:52.000Z</time>
      </trkpt>
      <trkpt lat="47.88678" lon="6.8356">
        <ele>876</ele>
        <time>2026-08-15T08:54:56.000Z</time>
      </trkpt>
      <trkpt lat="47.88682" lon="6.83559">
        <ele>876.4</ele>
        <time>2026-08-15T08:54:57.000Z</time>
      </trkpt>
      <trkpt lat="47.88688" lon="6.83552">
        <ele>876.8</ele>
        <time>2026-08-15T08:54:59.000Z</time>
      </trkpt>
      <trkpt lat="47.88692" lon="6.83548">
        <ele>877</ele>
        <time>2026-08-15T08:55:00.000Z</time>
      </trkpt>
      <trkpt lat="47.88696" lon="6.83544">
        <ele>877.2</ele>
        <time>2026-08-15T08:55:01.000Z</time>
      </trkpt>
      <trkpt lat="47.88699" lon="6.8354">
        <ele>877.2</ele>
        <time>2026-08-15T08:55:02.000Z</time>
      </trkpt>
      <trkpt lat="47.88702" lon="6.83534">
        <ele>877.4</ele>
        <time>2026-08-15T08:55:03.000Z</time>
      </trkpt>
      <trkpt lat="47.88704" lon="6.83529">
        <ele>877.4</ele>
        <time>2026-08-15T08:55:04.000Z</time>
      </trkpt>
      <trkpt lat="47.88708" lon="6.83519">
        <ele>877.8</ele>
        <time>2026-08-15T08:55:06.000Z</time>
      </trkpt>
      <trkpt lat="47.88712" lon="6.8351">
        <ele>878.2</ele>
        <time>2026-08-15T08:55:08.000Z</time>
      </trkpt>
      <trkpt lat="47.88723" lon="6.8349">
        <ele>878.6</ele>
        <time>2026-08-15T08:55:13.000Z</time>
      </trkpt>
      <trkpt lat="47.88727" lon="6.83482">
        <ele>879.2</ele>
        <time>2026-08-15T08:55:15.000Z</time>
      </trkpt>
      <trkpt lat="47.88728" lon="6.83478">
        <ele>879.2</ele>
        <time>2026-08-15T08:55:16.000Z</time>
      </trkpt>
      <trkpt lat="47.8874" lon="6.83456">
        <ele>880</ele>
        <time>2026-08-15T08:55:21.000Z</time>
      </trkpt>
      <trkpt lat="47.88742" lon="6.83452">
        <ele>880</ele>
        <time>2026-08-15T08:55:22.000Z</time>
      </trkpt>
      <trkpt lat="47.88754" lon="6.8343">
        <ele>880.2</ele>
        <time>2026-08-15T08:55:27.000Z</time>
      </trkpt>
      <trkpt lat="47.88762" lon="6.83414">
        <ele>879.8</ele>
        <time>2026-08-15T08:55:30.000Z</time>
      </trkpt>
      <trkpt lat="47.88774" lon="6.83392">
        <ele>879.4</ele>
        <time>2026-08-15T08:55:35.000Z</time>
      </trkpt>
      <trkpt lat="47.8878" lon="6.83383">
        <ele>879.2</ele>
        <time>2026-08-15T08:55:37.000Z</time>
      </trkpt>
      <trkpt lat="47.88789" lon="6.8337">
        <ele>878.8</ele>
        <time>2026-08-15T08:55:40.000Z</time>
      </trkpt>
      <trkpt lat="47.88799" lon="6.83361">
        <ele>878.6</ele>
        <time>2026-08-15T08:55:43.000Z</time>
      </trkpt>
      <trkpt lat="47.88808" lon="6.83354">
        <ele>878.6</ele>
        <time>2026-08-15T08:55:46.000Z</time>
      </trkpt>
      <trkpt lat="47.88818" lon="6.83353">
        <ele>878.4</ele>
        <time>2026-08-15T08:55:49.000Z</time>
      </trkpt>
      <trkpt lat="47.88821" lon="6.83354">
        <ele>878.2</ele>
        <time>2026-08-15T08:55:50.000Z</time>
      </trkpt>
      <trkpt lat="47.88836" lon="6.83364">
        <ele>877.6</ele>
        <time>2026-08-15T08:55:54.000Z</time>
      </trkpt>
      <trkpt lat="47.88842" lon="6.83372">
        <ele>877.2</ele>
        <time>2026-08-15T08:55:56.000Z</time>
      </trkpt>
      <trkpt lat="47.88854" lon="6.83393">
        <ele>876.8</ele>
        <time>2026-08-15T08:56:01.000Z</time>
      </trkpt>
      <trkpt lat="47.88865" lon="6.83419">
        <ele>876.6</ele>
        <time>2026-08-15T08:56:06.000Z</time>
      </trkpt>
      <trkpt lat="47.88869" lon="6.83431">
        <ele>876.4</ele>
        <time>2026-08-15T08:56:08.000Z</time>
      </trkpt>
      <trkpt lat="47.88871" lon="6.83437">
        <ele>876</ele>
        <time>2026-08-15T08:56:09.000Z</time>
      </trkpt>
      <trkpt lat="47.88882" lon="6.83468">
        <ele>875.8</ele>
        <time>2026-08-15T08:56:14.000Z</time>
      </trkpt>
      <trkpt lat="47.88889" lon="6.83498">
        <ele>875.2</ele>
        <time>2026-08-15T08:56:18.000Z</time>
      </trkpt>
      <trkpt lat="47.88892" lon="6.83513">
        <ele>875</ele>
        <time>2026-08-15T08:56:20.000Z</time>
      </trkpt>
      <trkpt lat="47.88894" lon="6.83521">
        <ele>875</ele>
        <time>2026-08-15T08:56:21.000Z</time>
      </trkpt>
      <trkpt lat="47.889" lon="6.83553">
        <ele>874.6</ele>
        <time>2026-08-15T08:56:25.000Z</time>
      </trkpt>
      <trkpt lat="47.88907" lon="6.83586">
        <ele>874.2</ele>
        <time>2026-08-15T08:56:29.000Z</time>
      </trkpt>
      <trkpt lat="47.88913" lon="6.83617">
        <ele>874.6</ele>
        <time>2026-08-15T08:56:33.000Z</time>
      </trkpt>
      <trkpt lat="47.88917" lon="6.83641">
        <ele>874.8</ele>
        <time>2026-08-15T08:56:36.000Z</time>
      </trkpt>
      <trkpt lat="47.8892" lon="6.83673">
        <ele>874.8</ele>
        <time>2026-08-15T08:56:40.000Z</time>
      </trkpt>
      <trkpt lat="47.88924" lon="6.83703">
        <ele>875</ele>
        <time>2026-08-15T08:56:44.000Z</time>
      </trkpt>
      <trkpt lat="47.88929" lon="6.83734">
        <ele>875.8</ele>
        <time>2026-08-15T08:56:48.000Z</time>
      </trkpt>
      <trkpt lat="47.88932" lon="6.8375">
        <ele>876.2</ele>
        <time>2026-08-15T08:56:50.000Z</time>
      </trkpt>
      <trkpt lat="47.88933" lon="6.83757">
        <ele>876.2</ele>
        <time>2026-08-15T08:56:51.000Z</time>
      </trkpt>
      <trkpt lat="47.88941" lon="6.83788">
        <ele>876.2</ele>
        <time>2026-08-15T08:56:55.000Z</time>
      </trkpt>
      <trkpt lat="47.88945" lon="6.83813">
        <ele>876.4</ele>
        <time>2026-08-15T08:56:58.000Z</time>
      </trkpt>
      <trkpt lat="47.88949" lon="6.83845">
        <ele>877.2</ele>
        <time>2026-08-15T08:57:02.000Z</time>
      </trkpt>
      <trkpt lat="47.8895" lon="6.83852">
        <ele>877.2</ele>
        <time>2026-08-15T08:57:03.000Z</time>
      </trkpt>
      <trkpt lat="47.88951" lon="6.8386">
        <ele>877.6</ele>
        <time>2026-08-15T08:57:04.000Z</time>
      </trkpt>
      <trkpt lat="47.88954" lon="6.8388">
        <ele>878.4</ele>
        <time>2026-08-15T08:57:07.000Z</time>
      </trkpt>
      <trkpt lat="47.8896" lon="6.83912">
        <ele>879.6</ele>
        <time>2026-08-15T08:57:12.000Z</time>
      </trkpt>
      <trkpt lat="47.88965" lon="6.8394">
        <ele>879.4</ele>
        <time>2026-08-15T08:57:16.000Z</time>
      </trkpt>
      <trkpt lat="47.88969" lon="6.83961">
        <ele>879.6</ele>
        <time>2026-08-15T08:57:19.000Z</time>
      </trkpt>
      <trkpt lat="47.88974" lon="6.83989">
        <ele>879.2</ele>
        <time>2026-08-15T08:57:23.000Z</time>
      </trkpt>
      <trkpt lat="47.88977" lon="6.84002">
        <ele>879</ele>
        <time>2026-08-15T08:57:25.000Z</time>
      </trkpt>
      <trkpt lat="47.88977" lon="6.84008">
        <ele>879</ele>
        <time>2026-08-15T08:57:26.000Z</time>
      </trkpt>
      <trkpt lat="47.88976" lon="6.84018">
        <ele>879.6</ele>
        <time>2026-08-15T08:57:29.000Z</time>
      </trkpt>
      <trkpt lat="47.88971" lon="6.84032">
        <ele>879.6</ele>
        <time>2026-08-15T08:57:35.000Z</time>
      </trkpt>
      <trkpt lat="47.88966" lon="6.84038">
        <ele>879.4</ele>
        <time>2026-08-15T08:57:39.000Z</time>
      </trkpt>
      <trkpt lat="47.88964" lon="6.84042">
        <ele>879.2</ele>
        <time>2026-08-15T08:57:41.000Z</time>
      </trkpt>
      <trkpt lat="47.88956" lon="6.8406">
        <ele>878.8</ele>
        <time>2026-08-15T08:57:48.000Z</time>
      </trkpt>
      <trkpt lat="47.88955" lon="6.84067">
        <ele>878.6</ele>
        <time>2026-08-15T08:57:50.000Z</time>
      </trkpt>
      <trkpt lat="47.88955" lon="6.8407">
        <ele>878.4</ele>
        <time>2026-08-15T08:57:51.000Z</time>
      </trkpt>
      <trkpt lat="47.88958" lon="6.84091">
        <ele>877.8</ele>
        <time>2026-08-15T08:57:56.000Z</time>
      </trkpt>
      <trkpt lat="47.88964" lon="6.84103">
        <ele>877.2</ele>
        <time>2026-08-15T08:58:00.000Z</time>
      </trkpt>
      <trkpt lat="47.88966" lon="6.84108">
        <ele>877</ele>
        <time>2026-08-15T08:58:02.000Z</time>
      </trkpt>
      <trkpt lat="47.88967" lon="6.84111">
        <ele>877</ele>
        <time>2026-08-15T08:58:06.000Z</time>
      </trkpt>
      <trkpt lat="47.88967" lon="6.84111">
        <ele>877</ele>
        <time>2026-08-15T08:58:10.000Z</time>
      </trkpt>
      <trkpt lat="47.8897" lon="6.84118">
        <ele>876.8</ele>
        <time>2026-08-15T08:58:19.000Z</time>
      </trkpt>
      <trkpt lat="47.8897" lon="6.84119">
        <ele>876.6</ele>
        <time>2026-08-15T08:58:21.000Z</time>
      </trkpt>
      <trkpt lat="47.8897" lon="6.84118">
        <ele>876.6</ele>
        <time>2026-08-15T08:58:23.000Z</time>
      </trkpt>
      <trkpt lat="47.88977" lon="6.84128">
        <ele>876.6</ele>
        <time>2026-08-15T09:02:20.000Z</time>
      </trkpt>
      <trkpt lat="47.88978" lon="6.84131">
        <ele>876.4</ele>
        <time>2026-08-15T09:02:21.000Z</time>
      </trkpt>
      <trkpt lat="47.8898" lon="6.84138">
        <ele>876.2</ele>
        <time>2026-08-15T09:02:23.000Z</time>
      </trkpt>
      <trkpt lat="47.88987" lon="6.84152">
        <ele>876</ele>
        <time>2026-08-15T09:02:27.000Z</time>
      </trkpt>
      <trkpt lat="47.88988" lon="6.84156">
        <ele>876</ele>
        <time>2026-08-15T09:02:28.000Z</time>
      </trkpt>
      <trkpt lat="47.88989" lon="6.84162">
        <ele>876</ele>
        <time>2026-08-15T09:02:30.000Z</time>
      </trkpt>
      <trkpt lat="47.88992" lon="6.84168">
        <ele>876</ele>
        <time>2026-08-15T09:02:33.000Z</time>
      </trkpt>
      <trkpt lat="47.88999" lon="6.8419">
        <ele>875.2</ele>
        <time>2026-08-15T09:02:39.000Z</time>
      </trkpt>
      <trkpt lat="47.89" lon="6.84194">
        <ele>875</ele>
        <time>2026-08-15T09:02:40.000Z</time>
      </trkpt>
      <trkpt lat="47.89007" lon="6.84215">
        <ele>874</ele>
        <time>2026-08-15T09:02:45.000Z</time>
      </trkpt>
      <trkpt lat="47.89011" lon="6.84224">
        <ele>873.8</ele>
        <time>2026-08-15T09:02:47.000Z</time>
      </trkpt>
      <trkpt lat="47.89022" lon="6.84251">
        <ele>873</ele>
        <time>2026-08-15T09:02:53.000Z</time>
      </trkpt>
      <trkpt lat="47.89023" lon="6.84255">
        <ele>872.8</ele>
        <time>2026-08-15T09:02:54.000Z</time>
      </trkpt>
      <trkpt lat="47.8903" lon="6.84278">
        <ele>871.8</ele>
        <time>2026-08-15T09:02:58.000Z</time>
      </trkpt>
      <trkpt lat="47.89031" lon="6.84285">
        <ele>871.6</ele>
        <time>2026-08-15T09:02:59.000Z</time>
      </trkpt>
      <trkpt lat="47.89034" lon="6.84298">
        <ele>871.2</ele>
        <time>2026-08-15T09:03:01.000Z</time>
      </trkpt>
      <trkpt lat="47.89039" lon="6.84326">
        <ele>870.4</ele>
        <time>2026-08-15T09:03:06.000Z</time>
      </trkpt>
      <trkpt lat="47.89041" lon="6.84336">
        <ele>870.2</ele>
        <time>2026-08-15T09:03:08.000Z</time>
      </trkpt>
      <trkpt lat="47.89046" lon="6.84364">
        <ele>870</ele>
        <time>2026-08-15T09:03:13.000Z</time>
      </trkpt>
      <trkpt lat="47.89049" lon="6.84377">
        <ele>869.6</ele>
        <time>2026-08-15T09:03:15.000Z</time>
      </trkpt>
      <trkpt lat="47.8905" lon="6.84383">
        <ele>869.4</ele>
        <time>2026-08-15T09:03:16.000Z</time>
      </trkpt>
      <trkpt lat="47.89055" lon="6.84409">
        <ele>869</ele>
        <time>2026-08-15T09:03:20.000Z</time>
      </trkpt>
      <trkpt lat="47.89059" lon="6.84437">
        <ele>868.2</ele>
        <time>2026-08-15T09:03:24.000Z</time>
      </trkpt>
      <trkpt lat="47.89063" lon="6.84464">
        <ele>867.2</ele>
        <time>2026-08-15T09:03:28.000Z</time>
      </trkpt>
      <trkpt lat="47.89064" lon="6.84471">
        <ele>867.2</ele>
        <time>2026-08-15T09:03:29.000Z</time>
      </trkpt>
      <trkpt lat="47.89068" lon="6.84499">
        <ele>866.8</ele>
        <time>2026-08-15T09:03:33.000Z</time>
      </trkpt>
      <trkpt lat="47.89072" lon="6.84525">
        <ele>866.4</ele>
        <time>2026-08-15T09:03:37.000Z</time>
      </trkpt>
      <trkpt lat="47.89075" lon="6.84551">
        <ele>866</ele>
        <time>2026-08-15T09:03:41.000Z</time>
      </trkpt>
      <trkpt lat="47.8908" lon="6.84576">
        <ele>864.8</ele>
        <time>2026-08-15T09:03:45.000Z</time>
      </trkpt>
      <trkpt lat="47.89084" lon="6.84602">
        <ele>863.8</ele>
        <time>2026-08-15T09:03:49.000Z</time>
      </trkpt>
      <trkpt lat="47.89087" lon="6.84627">
        <ele>862.6</ele>
        <time>2026-08-15T09:03:53.000Z</time>
      </trkpt>
      <trkpt lat="47.89088" lon="6.84641">
        <ele>861.6</ele>
        <time>2026-08-15T09:03:55.000Z</time>
      </trkpt>
      <trkpt lat="47.89089" lon="6.84647">
        <ele>861.4</ele>
        <time>2026-08-15T09:03:56.000Z</time>
      </trkpt>
      <trkpt lat="47.89092" lon="6.84668">
        <ele>860.2</ele>
        <time>2026-08-15T09:03:59.000Z</time>
      </trkpt>
      <trkpt lat="47.89096" lon="6.84696">
        <ele>859.6</ele>
        <time>2026-08-15T09:04:03.000Z</time>
      </trkpt>
      <trkpt lat="47.89097" lon="6.84704">
        <ele>859.6</ele>
        <time>2026-08-15T09:04:04.000Z</time>
      </trkpt>
      <trkpt lat="47.891" lon="6.84717">
        <ele>859.2</ele>
        <time>2026-08-15T09:04:06.000Z</time>
      </trkpt>
      <trkpt lat="47.89102" lon="6.84733">
        <ele>858.6</ele>
        <time>2026-08-15T09:04:09.000Z</time>
      </trkpt>
      <trkpt lat="47.89104" lon="6.84743">
        <ele>858</ele>
        <time>2026-08-15T09:04:11.000Z</time>
      </trkpt>
      <trkpt lat="47.89107" lon="6.84758">
        <ele>856.8</ele>
        <time>2026-08-15T09:04:14.000Z</time>
      </trkpt>
      <trkpt lat="47.89108" lon="6.84767">
        <ele>856.4</ele>
        <time>2026-08-15T09:04:16.000Z</time>
      </trkpt>
      <trkpt lat="47.89112" lon="6.84781">
        <ele>855.6</ele>
        <time>2026-08-15T09:04:20.000Z</time>
      </trkpt>
      <trkpt lat="47.89113" lon="6.84784">
        <ele>855.6</ele>
        <time>2026-08-15T09:04:21.000Z</time>
      </trkpt>
      <trkpt lat="47.89116" lon="6.84796">
        <ele>854.8</ele>
        <time>2026-08-15T09:04:27.000Z</time>
      </trkpt>
      <trkpt lat="47.89116" lon="6.84796">
        <ele>854.6</ele>
        <time>2026-08-15T09:04:28.000Z</time>
      </trkpt>
      <trkpt lat="47.89117" lon="6.84796">
        <ele>854.6</ele>
        <time>2026-08-15T09:04:31.000Z</time>
      </trkpt>
      <trkpt lat="47.89117" lon="6.84796">
        <ele>854.6</ele>
        <time>2026-08-15T09:04:33.000Z</time>
      </trkpt>
      <trkpt lat="47.89121" lon="6.84804">
        <ele>853.8</ele>
        <time>2026-08-15T09:05:23.000Z</time>
      </trkpt>
      <trkpt lat="47.89124" lon="6.84808">
        <ele>853.6</ele>
        <time>2026-08-15T09:05:25.000Z</time>
      </trkpt>
      <trkpt lat="47.89134" lon="6.84823">
        <ele>852.6</ele>
        <time>2026-08-15T09:05:30.000Z</time>
      </trkpt>
      <trkpt lat="47.89138" lon="6.84828">
        <ele>852</ele>
        <time>2026-08-15T09:05:32.000Z</time>
      </trkpt>
      <trkpt lat="47.89142" lon="6.84832">
        <ele>851.6</ele>
        <time>2026-08-15T09:05:34.000Z</time>
      </trkpt>
      <trkpt lat="47.89152" lon="6.84848">
        <ele>850.4</ele>
        <time>2026-08-15T09:05:39.000Z</time>
      </trkpt>
      <trkpt lat="47.89166" lon="6.84867">
        <ele>849.4</ele>
        <time>2026-08-15T09:05:44.000Z</time>
      </trkpt>
      <trkpt lat="47.89172" lon="6.84874">
        <ele>849</ele>
        <time>2026-08-15T09:05:46.000Z</time>
      </trkpt>
      <trkpt lat="47.89182" lon="6.84885">
        <ele>848.2</ele>
        <time>2026-08-15T09:05:49.000Z</time>
      </trkpt>
      <trkpt lat="47.89188" lon="6.8489">
        <ele>848</ele>
        <time>2026-08-15T09:05:51.000Z</time>
      </trkpt>
      <trkpt lat="47.89191" lon="6.84893">
        <ele>847.8</ele>
        <time>2026-08-15T09:05:52.000Z</time>
      </trkpt>
      <trkpt lat="47.89195" lon="6.84895">
        <ele>847.6</ele>
        <time>2026-08-15T09:05:53.000Z</time>
      </trkpt>
      <trkpt lat="47.89205" lon="6.849">
        <ele>847.2</ele>
        <time>2026-08-15T09:05:56.000Z</time>
      </trkpt>
      <trkpt lat="47.89218" lon="6.84907">
        <ele>846.2</ele>
        <time>2026-08-15T09:06:00.000Z</time>
      </trkpt>
      <trkpt lat="47.89221" lon="6.84908">
        <ele>846</ele>
        <time>2026-08-15T09:06:01.000Z</time>
      </trkpt>
      <trkpt lat="47.8923" lon="6.84915">
        <ele>844.8</ele>
        <time>2026-08-15T09:06:04.000Z</time>
      </trkpt>
      <trkpt lat="47.89236" lon="6.84922">
        <ele>844.2</ele>
        <time>2026-08-15T09:06:06.000Z</time>
      </trkpt>
      <trkpt lat="47.89243" lon="6.84929">
        <ele>843.8</ele>
        <time>2026-08-15T09:06:08.000Z</time>
      </trkpt>
      <trkpt lat="47.89259" lon="6.84947">
        <ele>842.6</ele>
        <time>2026-08-15T09:06:13.000Z</time>
      </trkpt>
      <trkpt lat="47.89262" lon="6.84951">
        <ele>842.2</ele>
        <time>2026-08-15T09:06:14.000Z</time>
      </trkpt>
      <trkpt lat="47.89272" lon="6.84961">
        <ele>841.4</ele>
        <time>2026-08-15T09:06:17.000Z</time>
      </trkpt>
      <trkpt lat="47.89282" lon="6.84971">
        <ele>840.8</ele>
        <time>2026-08-15T09:06:20.000Z</time>
      </trkpt>
      <trkpt lat="47.89293" lon="6.8498">
        <ele>840.2</ele>
        <time>2026-08-15T09:06:23.000Z</time>
      </trkpt>
      <trkpt lat="47.89301" lon="6.84986">
        <ele>839.6</ele>
        <time>2026-08-15T09:06:25.000Z</time>
      </trkpt>
      <trkpt lat="47.8931" lon="6.84991">
        <ele>839.2</ele>
        <time>2026-08-15T09:06:27.000Z</time>
      </trkpt>
      <trkpt lat="47.89319" lon="6.84995">
        <ele>838.8</ele>
        <time>2026-08-15T09:06:29.000Z</time>
      </trkpt>
      <trkpt lat="47.89331" lon="6.84999">
        <ele>838</ele>
        <time>2026-08-15T09:06:32.000Z</time>
      </trkpt>
      <trkpt lat="47.89346" lon="6.85005">
        <ele>837.4</ele>
        <time>2026-08-15T09:06:36.000Z</time>
      </trkpt>
      <trkpt lat="47.89354" lon="6.85007">
        <ele>837.2</ele>
        <time>2026-08-15T09:06:38.000Z</time>
      </trkpt>
      <trkpt lat="47.89358" lon="6.85008">
        <ele>837</ele>
        <time>2026-08-15T09:06:39.000Z</time>
      </trkpt>
      <trkpt lat="47.89373" lon="6.85011">
        <ele>835.8</ele>
        <time>2026-08-15T09:06:43.000Z</time>
      </trkpt>
      <trkpt lat="47.89387" lon="6.85009">
        <ele>834.8</ele>
        <time>2026-08-15T09:06:46.000Z</time>
      </trkpt>
      <trkpt lat="47.89396" lon="6.85009">
        <ele>834.4</ele>
        <time>2026-08-15T09:06:48.000Z</time>
      </trkpt>
      <trkpt lat="47.89401" lon="6.85009">
        <ele>834.2</ele>
        <time>2026-08-15T09:06:49.000Z</time>
      </trkpt>
      <trkpt lat="47.89412" lon="6.85009">
        <ele>833.6</ele>
        <time>2026-08-15T09:06:52.000Z</time>
      </trkpt>
      <trkpt lat="47.89418" lon="6.85009">
        <ele>833.4</ele>
        <time>2026-08-15T09:06:54.000Z</time>
      </trkpt>
      <trkpt lat="47.89429" lon="6.85011">
        <ele>832.6</ele>
        <time>2026-08-15T09:06:58.000Z</time>
      </trkpt>
      <trkpt lat="47.89438" lon="6.85014">
        <ele>831.8</ele>
        <time>2026-08-15T09:07:01.000Z</time>
      </trkpt>
      <trkpt lat="47.89442" lon="6.85016">
        <ele>831.4</ele>
        <time>2026-08-15T09:07:02.000Z</time>
      </trkpt>
      <trkpt lat="47.8946" lon="6.85024">
        <ele>830.4</ele>
        <time>2026-08-15T09:07:07.000Z</time>
      </trkpt>
      <trkpt lat="47.89468" lon="6.85027">
        <ele>830.4</ele>
        <time>2026-08-15T09:07:09.000Z</time>
      </trkpt>
      <trkpt lat="47.89472" lon="6.85027">
        <ele>830.4</ele>
        <time>2026-08-15T09:07:10.000Z</time>
      </trkpt>
      <trkpt lat="47.89491" lon="6.85027">
        <ele>830.6</ele>
        <time>2026-08-15T09:07:15.000Z</time>
      </trkpt>
      <trkpt lat="47.89498" lon="6.85027">
        <ele>830.8</ele>
        <time>2026-08-15T09:07:17.000Z</time>
      </trkpt>
      <trkpt lat="47.89508" lon="6.85026">
        <ele>831.6</ele>
        <time>2026-08-15T09:07:20.000Z</time>
      </trkpt>
      <trkpt lat="47.8952" lon="6.85026">
        <ele>832.8</ele>
        <time>2026-08-15T09:07:24.000Z</time>
      </trkpt>
      <trkpt lat="47.89523" lon="6.85027">
        <ele>833.2</ele>
        <time>2026-08-15T09:07:25.000Z</time>
      </trkpt>
      <trkpt lat="47.89534" lon="6.8503">
        <ele>834</ele>
        <time>2026-08-15T09:07:29.000Z</time>
      </trkpt>
      <trkpt lat="47.89544" lon="6.85035">
        <ele>834.2</ele>
        <time>2026-08-15T09:07:32.000Z</time>
      </trkpt>
      <trkpt lat="47.8956" lon="6.85046">
        <ele>834.2</ele>
        <time>2026-08-15T09:07:37.000Z</time>
      </trkpt>
      <trkpt lat="47.89566" lon="6.85052">
        <ele>834.2</ele>
        <time>2026-08-15T09:07:39.000Z</time>
      </trkpt>
      <trkpt lat="47.89583" lon="6.85066">
        <ele>833.4</ele>
        <time>2026-08-15T09:07:44.000Z</time>
      </trkpt>
      <trkpt lat="47.89586" lon="6.85069">
        <ele>833.4</ele>
        <time>2026-08-15T09:07:45.000Z</time>
      </trkpt>
      <trkpt lat="47.89597" lon="6.8508">
        <ele>832.8</ele>
        <time>2026-08-15T09:07:48.000Z</time>
      </trkpt>
      <trkpt lat="47.89609" lon="6.85097">
        <ele>832.4</ele>
        <time>2026-08-15T09:07:52.000Z</time>
      </trkpt>
      <trkpt lat="47.89622" lon="6.85121">
        <ele>832</ele>
        <time>2026-08-15T09:07:57.000Z</time>
      </trkpt>
      <trkpt lat="47.89627" lon="6.85137">
        <ele>831.8</ele>
        <time>2026-08-15T09:08:00.000Z</time>
      </trkpt>
      <trkpt lat="47.89629" lon="6.85143">
        <ele>831.6</ele>
        <time>2026-08-15T09:08:01.000Z</time>
      </trkpt>
      <trkpt lat="47.89637" lon="6.85166">
        <ele>831.4</ele>
        <time>2026-08-15T09:08:05.000Z</time>
      </trkpt>
      <trkpt lat="47.89643" lon="6.85183">
        <ele>832</ele>
        <time>2026-08-15T09:08:09.000Z</time>
      </trkpt>
      <trkpt lat="47.89645" lon="6.85189">
        <ele>832</ele>
        <time>2026-08-15T09:08:10.000Z</time>
      </trkpt>
      <trkpt lat="47.8965" lon="6.85218">
        <ele>832.4</ele>
        <time>2026-08-15T09:08:15.000Z</time>
      </trkpt>
      <trkpt lat="47.89652" lon="6.85224">
        <ele>832.6</ele>
        <time>2026-08-15T09:08:16.000Z</time>
      </trkpt>
      <trkpt lat="47.89653" lon="6.85229">
        <ele>832.8</ele>
        <time>2026-08-15T09:08:17.000Z</time>
      </trkpt>
      <trkpt lat="47.89659" lon="6.85256">
        <ele>833.6</ele>
        <time>2026-08-15T09:08:22.000Z</time>
      </trkpt>
      <trkpt lat="47.89665" lon="6.85276">
        <ele>833.6</ele>
        <time>2026-08-15T09:08:26.000Z</time>
      </trkpt>
      <trkpt lat="47.89666" lon="6.85281">
        <ele>833.8</ele>
        <time>2026-08-15T09:08:27.000Z</time>
      </trkpt>
      <trkpt lat="47.89672" lon="6.85302">
        <ele>835</ele>
        <time>2026-08-15T09:08:31.000Z</time>
      </trkpt>
      <trkpt lat="47.89678" lon="6.8532">
        <ele>835.6</ele>
        <time>2026-08-15T09:08:35.000Z</time>
      </trkpt>
      <trkpt lat="47.89681" lon="6.85331">
        <ele>836.2</ele>
        <time>2026-08-15T09:08:37.000Z</time>
      </trkpt>
      <trkpt lat="47.89687" lon="6.85355">
        <ele>837.2</ele>
        <time>2026-08-15T09:08:42.000Z</time>
      </trkpt>
      <trkpt lat="47.89688" lon="6.8536">
        <ele>837.4</ele>
        <time>2026-08-15T09:08:43.000Z</time>
      </trkpt>
      <trkpt lat="47.89694" lon="6.85377">
        <ele>838.6</ele>
        <time>2026-08-15T09:08:47.000Z</time>
      </trkpt>
      <trkpt lat="47.897" lon="6.85392">
        <ele>839.6</ele>
        <time>2026-08-15T09:08:51.000Z</time>
      </trkpt>
      <trkpt lat="47.89701" lon="6.85396">
        <ele>839.8</ele>
        <time>2026-08-15T09:08:52.000Z</time>
      </trkpt>
      <trkpt lat="47.89711" lon="6.85419">
        <ele>840.4</ele>
        <time>2026-08-15T09:08:57.000Z</time>
      </trkpt>
      <trkpt lat="47.89714" lon="6.85425">
        <ele>840.2</ele>
        <time>2026-08-15T09:08:58.000Z</time>
      </trkpt>
      <trkpt lat="47.89723" lon="6.8545">
        <ele>839.8</ele>
        <time>2026-08-15T09:09:02.000Z</time>
      </trkpt>
      <trkpt lat="47.89731" lon="6.85473">
        <ele>840.2</ele>
        <time>2026-08-15T09:09:06.000Z</time>
      </trkpt>
      <trkpt lat="47.89744" lon="6.85501">
        <ele>840.4</ele>
        <time>2026-08-15T09:09:11.000Z</time>
      </trkpt>
      <trkpt lat="47.89749" lon="6.85519">
        <ele>840.8</ele>
        <time>2026-08-15T09:09:14.000Z</time>
      </trkpt>
      <trkpt lat="47.89755" lon="6.85546">
        <ele>840.8</ele>
        <time>2026-08-15T09:09:18.000Z</time>
      </trkpt>
      <trkpt lat="47.89759" lon="6.85566">
        <ele>841</ele>
        <time>2026-08-15T09:09:21.000Z</time>
      </trkpt>
      <trkpt lat="47.89763" lon="6.85595">
        <ele>840.8</ele>
        <time>2026-08-15T09:09:25.000Z</time>
      </trkpt>
      <trkpt lat="47.89765" lon="6.85627">
        <ele>840.2</ele>
        <time>2026-08-15T09:09:29.000Z</time>
      </trkpt>
      <trkpt lat="47.89767" lon="6.85643">
        <ele>839.8</ele>
        <time>2026-08-15T09:09:31.000Z</time>
      </trkpt>
      <trkpt lat="47.89771" lon="6.85674">
        <ele>839.4</ele>
        <time>2026-08-15T09:09:35.000Z</time>
      </trkpt>
      <trkpt lat="47.89772" lon="6.85681">
        <ele>839.2</ele>
        <time>2026-08-15T09:09:36.000Z</time>
      </trkpt>
      <trkpt lat="47.89777" lon="6.85711">
        <ele>839.2</ele>
        <time>2026-08-15T09:09:40.000Z</time>
      </trkpt>
      <trkpt lat="47.89782" lon="6.8574">
        <ele>839.2</ele>
        <time>2026-08-15T09:09:44.000Z</time>
      </trkpt>
      <trkpt lat="47.89784" lon="6.85747">
        <ele>839.2</ele>
        <time>2026-08-15T09:09:45.000Z</time>
      </trkpt>
      <trkpt lat="47.89788" lon="6.85762">
        <ele>838.8</ele>
        <time>2026-08-15T09:09:47.000Z</time>
      </trkpt>
      <trkpt lat="47.89794" lon="6.85784">
        <ele>838.6</ele>
        <time>2026-08-15T09:09:50.000Z</time>
      </trkpt>
      <trkpt lat="47.898" lon="6.85812">
        <ele>838.2</ele>
        <time>2026-08-15T09:09:54.000Z</time>
      </trkpt>
      <trkpt lat="47.89801" lon="6.8582">
        <ele>838.2</ele>
        <time>2026-08-15T09:09:55.000Z</time>
      </trkpt>
      <trkpt lat="47.89804" lon="6.8585">
        <ele>838.4</ele>
        <time>2026-08-15T09:09:59.000Z</time>
      </trkpt>
      <trkpt lat="47.89804" lon="6.85857">
        <ele>838.4</ele>
        <time>2026-08-15T09:10:00.000Z</time>
      </trkpt>
      <trkpt lat="47.89805" lon="6.85863">
        <ele>838.6</ele>
        <time>2026-08-15T09:10:01.000Z</time>
      </trkpt>
      <trkpt lat="47.89811" lon="6.85891">
        <ele>838.2</ele>
        <time>2026-08-15T09:10:05.000Z</time>
      </trkpt>
      <trkpt lat="47.89814" lon="6.85898">
        <ele>837.8</ele>
        <time>2026-08-15T09:10:06.000Z</time>
      </trkpt>
      <trkpt lat="47.89816" lon="6.85904">
        <ele>837.6</ele>
        <time>2026-08-15T09:10:07.000Z</time>
      </trkpt>
      <trkpt lat="47.89822" lon="6.85926">
        <ele>837</ele>
        <time>2026-08-15T09:10:10.000Z</time>
      </trkpt>
      <trkpt lat="47.89822" lon="6.8594">
        <ele>837</ele>
        <time>2026-08-15T09:10:12.000Z</time>
      </trkpt>
      <trkpt lat="47.8982" lon="6.85952">
        <ele>837</ele>
        <time>2026-08-15T09:10:14.000Z</time>
      </trkpt>
      <trkpt lat="47.89816" lon="6.85982">
        <ele>836.6</ele>
        <time>2026-08-15T09:10:19.000Z</time>
      </trkpt>
      <trkpt lat="47.89816" lon="6.85989">
        <ele>836.2</ele>
        <time>2026-08-15T09:10:20.000Z</time>
      </trkpt>
      <trkpt lat="47.89816" lon="6.86005">
        <ele>835.4</ele>
        <time>2026-08-15T09:10:22.000Z</time>
      </trkpt>
      <trkpt lat="47.89818" lon="6.86013">
        <ele>835.2</ele>
        <time>2026-08-15T09:10:23.000Z</time>
      </trkpt>
      <trkpt lat="47.89819" lon="6.86028">
        <ele>835</ele>
        <time>2026-08-15T09:10:25.000Z</time>
      </trkpt>
      <trkpt lat="47.89819" lon="6.86057">
        <ele>834.6</ele>
        <time>2026-08-15T09:10:29.000Z</time>
      </trkpt>
      <trkpt lat="47.89819" lon="6.8607">
        <ele>834.4</ele>
        <time>2026-08-15T09:10:31.000Z</time>
      </trkpt>
      <trkpt lat="47.8982" lon="6.86077">
        <ele>834.2</ele>
        <time>2026-08-15T09:10:32.000Z</time>
      </trkpt>
      <trkpt lat="47.89827" lon="6.86103">
        <ele>833.6</ele>
        <time>2026-08-15T09:10:37.000Z</time>
      </trkpt>
      <trkpt lat="47.8983" lon="6.86106">
        <ele>833.2</ele>
        <time>2026-08-15T09:10:38.000Z</time>
      </trkpt>
      <trkpt lat="47.89837" lon="6.86111">
        <ele>832.8</ele>
        <time>2026-08-15T09:10:40.000Z</time>
      </trkpt>
      <trkpt lat="47.89841" lon="6.86111">
        <ele>832.6</ele>
        <time>2026-08-15T09:10:41.000Z</time>
      </trkpt>
      <trkpt lat="47.89846" lon="6.8611">
        <ele>832.2</ele>
        <time>2026-08-15T09:10:42.000Z</time>
      </trkpt>
      <trkpt lat="47.89861" lon="6.86103">
        <ele>831</ele>
        <time>2026-08-15T09:10:45.000Z</time>
      </trkpt>
      <trkpt lat="47.89872" lon="6.86097">
        <ele>830.6</ele>
        <time>2026-08-15T09:10:47.000Z</time>
      </trkpt>
      <trkpt lat="47.89887" lon="6.86093">
        <ele>830</ele>
        <time>2026-08-15T09:10:50.000Z</time>
      </trkpt>
      <trkpt lat="47.89892" lon="6.86092">
        <ele>830</ele>
        <time>2026-08-15T09:10:51.000Z</time>
      </trkpt>
      <trkpt lat="47.89913" lon="6.86084">
        <ele>829.6</ele>
        <time>2026-08-15T09:10:55.000Z</time>
      </trkpt>
      <trkpt lat="47.89923" lon="6.86082">
        <ele>829.4</ele>
        <time>2026-08-15T09:10:57.000Z</time>
      </trkpt>
      <trkpt lat="47.89936" lon="6.86084">
        <ele>829.4</ele>
        <time>2026-08-15T09:11:00.000Z</time>
      </trkpt>
      <trkpt lat="47.89951" lon="6.86086">
        <ele>829</ele>
        <time>2026-08-15T09:11:03.000Z</time>
      </trkpt>
      <trkpt lat="47.89956" lon="6.86087">
        <ele>829</ele>
        <time>2026-08-15T09:11:04.000Z</time>
      </trkpt>
      <trkpt lat="47.89977" lon="6.8609">
        <ele>828.4</ele>
        <time>2026-08-15T09:11:08.000Z</time>
      </trkpt>
      <trkpt lat="47.89994" lon="6.86095">
        <ele>827.8</ele>
        <time>2026-08-15T09:11:11.000Z</time>
      </trkpt>
      <trkpt lat="47.89999" lon="6.86096">
        <ele>827.8</ele>
        <time>2026-08-15T09:11:12.000Z</time>
      </trkpt>
      <trkpt lat="47.90021" lon="6.86099">
        <ele>828.4</ele>
        <time>2026-08-15T09:11:16.000Z</time>
      </trkpt>
      <trkpt lat="47.90037" lon="6.86102">
        <ele>828</ele>
        <time>2026-08-15T09:11:19.000Z</time>
      </trkpt>
      <trkpt lat="47.90054" lon="6.8611">
        <ele>826.4</ele>
        <time>2026-08-15T09:11:22.000Z</time>
      </trkpt>
      <trkpt lat="47.90069" lon="6.86119">
        <ele>826</ele>
        <time>2026-08-15T09:11:25.000Z</time>
      </trkpt>
      <trkpt lat="47.90084" lon="6.86129">
        <ele>825.6</ele>
        <time>2026-08-15T09:11:28.000Z</time>
      </trkpt>
      <trkpt lat="47.9009" lon="6.86132">
        <ele>825.2</ele>
        <time>2026-08-15T09:11:29.000Z</time>
      </trkpt>
      <trkpt lat="47.90095" lon="6.86138">
        <ele>824.8</ele>
        <time>2026-08-15T09:11:30.000Z</time>
      </trkpt>
      <trkpt lat="47.90099" lon="6.86146">
        <ele>824.6</ele>
        <time>2026-08-15T09:11:31.000Z</time>
      </trkpt>
      <trkpt lat="47.90102" lon="6.86155">
        <ele>824.4</ele>
        <time>2026-08-15T09:11:32.000Z</time>
      </trkpt>
      <trkpt lat="47.90103" lon="6.86164">
        <ele>824.2</ele>
        <time>2026-08-15T09:11:33.000Z</time>
      </trkpt>
      <trkpt lat="47.90103" lon="6.86172">
        <ele>824.4</ele>
        <time>2026-08-15T09:11:34.000Z</time>
      </trkpt>
      <trkpt lat="47.90102" lon="6.86187">
        <ele>824.6</ele>
        <time>2026-08-15T09:11:36.000Z</time>
      </trkpt>
      <trkpt lat="47.90099" lon="6.86208">
        <ele>825.2</ele>
        <time>2026-08-15T09:11:39.000Z</time>
      </trkpt>
      <trkpt lat="47.90098" lon="6.86215">
        <ele>825.4</ele>
        <time>2026-08-15T09:11:40.000Z</time>
      </trkpt>
      <trkpt lat="47.90098" lon="6.86235">
        <ele>826.6</ele>
        <time>2026-08-15T09:11:43.000Z</time>
      </trkpt>
      <trkpt lat="47.90099" lon="6.86246">
        <ele>827.6</ele>
        <time>2026-08-15T09:11:45.000Z</time>
      </trkpt>
      <trkpt lat="47.901" lon="6.86252">
        <ele>828.2</ele>
        <time>2026-08-15T09:11:46.000Z</time>
      </trkpt>
      <trkpt lat="47.90101" lon="6.86257">
        <ele>828.6</ele>
        <time>2026-08-15T09:11:47.000Z</time>
      </trkpt>
      <trkpt lat="47.90101" lon="6.86263">
        <ele>828.8</ele>
        <time>2026-08-15T09:11:48.000Z</time>
      </trkpt>
      <trkpt lat="47.901" lon="6.86279">
        <ele>829.6</ele>
        <time>2026-08-15T09:11:51.000Z</time>
      </trkpt>
      <trkpt lat="47.90099" lon="6.86284">
        <ele>829.8</ele>
        <time>2026-08-15T09:11:52.000Z</time>
      </trkpt>
      <trkpt lat="47.90099" lon="6.86289">
        <ele>830</ele>
        <time>2026-08-15T09:11:53.000Z</time>
      </trkpt>
      <trkpt lat="47.90102" lon="6.86308">
        <ele>831</ele>
        <time>2026-08-15T09:11:57.000Z</time>
      </trkpt>
      <trkpt lat="47.90103" lon="6.86313">
        <ele>831.2</ele>
        <time>2026-08-15T09:11:58.000Z</time>
      </trkpt>
      <trkpt lat="47.90104" lon="6.86323">
        <ele>831.6</ele>
        <time>2026-08-15T09:12:00.000Z</time>
      </trkpt>
      <trkpt lat="47.90105" lon="6.86333">
        <ele>832.2</ele>
        <time>2026-08-15T09:12:02.000Z</time>
      </trkpt>
      <trkpt lat="47.90108" lon="6.86348">
        <ele>833.2</ele>
        <time>2026-08-15T09:12:05.000Z</time>
      </trkpt>
      <trkpt lat="47.9011" lon="6.86358">
        <ele>833.6</ele>
        <time>2026-08-15T09:12:07.000Z</time>
      </trkpt>
      <trkpt lat="47.90111" lon="6.86367">
        <ele>834.4</ele>
        <time>2026-08-15T09:12:09.000Z</time>
      </trkpt>
      <trkpt lat="47.90115" lon="6.86382">
        <ele>835.2</ele>
        <time>2026-08-15T09:12:12.000Z</time>
      </trkpt>
      <trkpt lat="47.90117" lon="6.86392">
        <ele>835.4</ele>
        <time>2026-08-15T09:12:14.000Z</time>
      </trkpt>
      <trkpt lat="47.90122" lon="6.8641">
        <ele>836.4</ele>
        <time>2026-08-15T09:12:18.000Z</time>
      </trkpt>
      <trkpt lat="47.90127" lon="6.86428">
        <ele>837.6</ele>
        <time>2026-08-15T09:12:22.000Z</time>
      </trkpt>
      <trkpt lat="47.90133" lon="6.86446">
        <ele>838.8</ele>
        <time>2026-08-15T09:12:26.000Z</time>
      </trkpt>
      <trkpt lat="47.90139" lon="6.86464">
        <ele>839.8</ele>
        <time>2026-08-15T09:12:30.000Z</time>
      </trkpt>
      <trkpt lat="47.90141" lon="6.86469">
        <ele>840.2</ele>
        <time>2026-08-15T09:12:31.000Z</time>
      </trkpt>
      <trkpt lat="47.90145" lon="6.86483">
        <ele>841</ele>
        <time>2026-08-15T09:12:34.000Z</time>
      </trkpt>
      <trkpt lat="47.90152" lon="6.865">
        <ele>842.2</ele>
        <time>2026-08-15T09:12:38.000Z</time>
      </trkpt>
      <trkpt lat="47.90156" lon="6.86508">
        <ele>842.8</ele>
        <time>2026-08-15T09:12:40.000Z</time>
      </trkpt>
      <trkpt lat="47.9016" lon="6.86516">
        <ele>843.2</ele>
        <time>2026-08-15T09:12:42.000Z</time>
      </trkpt>
      <trkpt lat="47.9017" lon="6.86534">
        <ele>844.6</ele>
        <time>2026-08-15T09:12:47.000Z</time>
      </trkpt>
      <trkpt lat="47.90172" lon="6.86537">
        <ele>844.8</ele>
        <time>2026-08-15T09:12:48.000Z</time>
      </trkpt>
      <trkpt lat="47.9018" lon="6.86547">
        <ele>845.8</ele>
        <time>2026-08-15T09:12:51.000Z</time>
      </trkpt>
      <trkpt lat="47.9019" lon="6.86559">
        <ele>846.8</ele>
        <time>2026-08-15T09:12:55.000Z</time>
      </trkpt>
      <trkpt lat="47.902" lon="6.86569">
        <ele>847.8</ele>
        <time>2026-08-15T09:12:59.000Z</time>
      </trkpt>
      <trkpt lat="47.90211" lon="6.8658">
        <ele>848.8</ele>
        <time>2026-08-15T09:13:03.000Z</time>
      </trkpt>
      <trkpt lat="47.90222" lon="6.86588">
        <ele>850</ele>
        <time>2026-08-15T09:13:07.000Z</time>
      </trkpt>
      <trkpt lat="47.90233" lon="6.86596">
        <ele>851</ele>
        <time>2026-08-15T09:13:11.000Z</time>
      </trkpt>
      <trkpt lat="47.90244" lon="6.86603">
        <ele>852.2</ele>
        <time>2026-08-15T09:13:15.000Z</time>
      </trkpt>
      <trkpt lat="47.90247" lon="6.86604">
        <ele>852.4</ele>
        <time>2026-08-15T09:13:16.000Z</time>
      </trkpt>
      <trkpt lat="47.90258" lon="6.8661">
        <ele>853.2</ele>
        <time>2026-08-15T09:13:20.000Z</time>
      </trkpt>
      <trkpt lat="47.9027" lon="6.86613">
        <ele>854.4</ele>
        <time>2026-08-15T09:13:24.000Z</time>
      </trkpt>
      <trkpt lat="47.90273" lon="6.86615">
        <ele>854.6</ele>
        <time>2026-08-15T09:13:25.000Z</time>
      </trkpt>
      <trkpt lat="47.90282" lon="6.86619">
        <ele>855.6</ele>
        <time>2026-08-15T09:13:28.000Z</time>
      </trkpt>
      <trkpt lat="47.90294" lon="6.86623">
        <ele>857</ele>
        <time>2026-08-15T09:13:32.000Z</time>
      </trkpt>
      <trkpt lat="47.90297" lon="6.86623">
        <ele>857.2</ele>
        <time>2026-08-15T09:13:33.000Z</time>
      </trkpt>
      <trkpt lat="47.90303" lon="6.86624">
        <ele>858</ele>
        <time>2026-08-15T09:13:35.000Z</time>
      </trkpt>
      <trkpt lat="47.90308" lon="6.8662">
        <ele>858.8</ele>
        <time>2026-08-15T09:13:37.000Z</time>
      </trkpt>
      <trkpt lat="47.9031" lon="6.86617">
        <ele>859.2</ele>
        <time>2026-08-15T09:13:38.000Z</time>
      </trkpt>
      <trkpt lat="47.9031" lon="6.86613">
        <ele>859.6</ele>
        <time>2026-08-15T09:13:39.000Z</time>
      </trkpt>
      <trkpt lat="47.90311" lon="6.86606">
        <ele>860.6</ele>
        <time>2026-08-15T09:13:41.000Z</time>
      </trkpt>
      <trkpt lat="47.90308" lon="6.86601">
        <ele>861.6</ele>
        <time>2026-08-15T09:13:43.000Z</time>
      </trkpt>
      <trkpt lat="47.90305" lon="6.86599">
        <ele>862</ele>
        <time>2026-08-15T09:13:44.000Z</time>
      </trkpt>
      <trkpt lat="47.90296" lon="6.86594">
        <ele>862.6</ele>
        <time>2026-08-15T09:13:47.000Z</time>
      </trkpt>
      <trkpt lat="47.90284" lon="6.86589">
        <ele>863</ele>
        <time>2026-08-15T09:13:51.000Z</time>
      </trkpt>
      <trkpt lat="47.90277" lon="6.86585">
        <ele>863.6</ele>
        <time>2026-08-15T09:13:54.000Z</time>
      </trkpt>
      <trkpt lat="47.90268" lon="6.86574">
        <ele>864.8</ele>
        <time>2026-08-15T09:13:58.000Z</time>
      </trkpt>
      <trkpt lat="47.90266" lon="6.86571">
        <ele>865</ele>
        <time>2026-08-15T09:13:59.000Z</time>
      </trkpt>
      <trkpt lat="47.90258" lon="6.86555">
        <ele>866</ele>
        <time>2026-08-15T09:14:03.000Z</time>
      </trkpt>
      <trkpt lat="47.90252" lon="6.86539">
        <ele>866.8</ele>
        <time>2026-08-15T09:14:07.000Z</time>
      </trkpt>
      <trkpt lat="47.90249" lon="6.86531">
        <ele>867.2</ele>
        <time>2026-08-15T09:14:09.000Z</time>
      </trkpt>
      <trkpt lat="47.90246" lon="6.86514">
        <ele>868.2</ele>
        <time>2026-08-15T09:14:13.000Z</time>
      </trkpt>
      <trkpt lat="47.90245" lon="6.8651">
        <ele>868.6</ele>
        <time>2026-08-15T09:14:14.000Z</time>
      </trkpt>
      <trkpt lat="47.90243" lon="6.86495">
        <ele>869.4</ele>
        <time>2026-08-15T09:14:18.000Z</time>
      </trkpt>
      <trkpt lat="47.90242" lon="6.86487">
        <ele>869.8</ele>
        <time>2026-08-15T09:14:20.000Z</time>
      </trkpt>
      <trkpt lat="47.90242" lon="6.86474">
        <ele>870.6</ele>
        <time>2026-08-15T09:14:23.000Z</time>
      </trkpt>
      <trkpt lat="47.9024" lon="6.86453">
        <ele>871.8</ele>
        <time>2026-08-15T09:14:28.000Z</time>
      </trkpt>
      <trkpt lat="47.9024" lon="6.86449">
        <ele>872</ele>
        <time>2026-08-15T09:14:29.000Z</time>
      </trkpt>
      <trkpt lat="47.9024" lon="6.86432">
        <ele>873</ele>
        <time>2026-08-15T09:14:33.000Z</time>
      </trkpt>
      <trkpt lat="47.90241" lon="6.86413">
        <ele>873.6</ele>
        <time>2026-08-15T09:14:37.000Z</time>
      </trkpt>
      <trkpt lat="47.90243" lon="6.86404">
        <ele>874</ele>
        <time>2026-08-15T09:14:39.000Z</time>
      </trkpt>
      <trkpt lat="47.90248" lon="6.8639">
        <ele>875</ele>
        <time>2026-08-15T09:14:43.000Z</time>
      </trkpt>
      <trkpt lat="47.9025" lon="6.86387">
        <ele>875.4</ele>
        <time>2026-08-15T09:14:44.000Z</time>
      </trkpt>
      <trkpt lat="47.90257" lon="6.86368">
        <ele>876.4</ele>
        <time>2026-08-15T09:14:49.000Z</time>
      </trkpt>
      <trkpt lat="47.90259" lon="6.86364">
        <ele>876.6</ele>
        <time>2026-08-15T09:14:50.000Z</time>
      </trkpt>
      <trkpt lat="47.90264" lon="6.86354">
        <ele>877.6</ele>
        <time>2026-08-15T09:14:53.000Z</time>
      </trkpt>
      <trkpt lat="47.90272" lon="6.8634">
        <ele>878.6</ele>
        <time>2026-08-15T09:14:57.000Z</time>
      </trkpt>
      <trkpt lat="47.90275" lon="6.86333">
        <ele>879.2</ele>
        <time>2026-08-15T09:14:59.000Z</time>
      </trkpt>
      <trkpt lat="47.90278" lon="6.86326">
        <ele>879.6</ele>
        <time>2026-08-15T09:15:01.000Z</time>
      </trkpt>
      <trkpt lat="47.90287" lon="6.86308">
        <ele>880.6</ele>
        <time>2026-08-15T09:15:06.000Z</time>
      </trkpt>
      <trkpt lat="47.90292" lon="6.86297">
        <ele>881.6</ele>
        <time>2026-08-15T09:15:09.000Z</time>
      </trkpt>
      <trkpt lat="47.90294" lon="6.86293">
        <ele>881.8</ele>
        <time>2026-08-15T09:15:10.000Z</time>
      </trkpt>
      <trkpt lat="47.90303" lon="6.86275">
        <ele>883</ele>
        <time>2026-08-15T09:15:15.000Z</time>
      </trkpt>
      <trkpt lat="47.90311" lon="6.86262">
        <ele>884</ele>
        <time>2026-08-15T09:15:19.000Z</time>
      </trkpt>
      <trkpt lat="47.90318" lon="6.8625">
        <ele>885.4</ele>
        <time>2026-08-15T09:15:23.000Z</time>
      </trkpt>
      <trkpt lat="47.90325" lon="6.86242">
        <ele>886</ele>
        <time>2026-08-15T09:15:26.000Z</time>
      </trkpt>
      <trkpt lat="47.90329" lon="6.86237">
        <ele>886.6</ele>
        <time>2026-08-15T09:15:28.000Z</time>
      </trkpt>
      <trkpt lat="47.90339" lon="6.86223">
        <ele>887.8</ele>
        <time>2026-08-15T09:15:33.000Z</time>
      </trkpt>
      <trkpt lat="47.90341" lon="6.8622">
        <ele>888</ele>
        <time>2026-08-15T09:15:34.000Z</time>
      </trkpt>
      <trkpt lat="47.90347" lon="6.8621">
        <ele>889</ele>
        <time>2026-08-15T09:15:37.000Z</time>
      </trkpt>
      <trkpt lat="47.90356" lon="6.86199">
        <ele>890.2</ele>
        <time>2026-08-15T09:15:41.000Z</time>
      </trkpt>
      <trkpt lat="47.90361" lon="6.86191">
        <ele>891</ele>
        <time>2026-08-15T09:15:44.000Z</time>
      </trkpt>
      <trkpt lat="47.90363" lon="6.86189">
        <ele>891.2</ele>
        <time>2026-08-15T09:15:45.000Z</time>
      </trkpt>
      <trkpt lat="47.90374" lon="6.86171">
        <ele>892.4</ele>
        <time>2026-08-15T09:15:50.000Z</time>
      </trkpt>
      <trkpt lat="47.90383" lon="6.86156">
        <ele>893.8</ele>
        <time>2026-08-15T09:15:55.000Z</time>
      </trkpt>
      <trkpt lat="47.90388" lon="6.86145">
        <ele>894.6</ele>
        <time>2026-08-15T09:15:58.000Z</time>
      </trkpt>
      <trkpt lat="47.9039" lon="6.86141">
        <ele>895</ele>
        <time>2026-08-15T09:15:59.000Z</time>
      </trkpt>
      <trkpt lat="47.90398" lon="6.86123">
        <ele>896</ele>
        <time>2026-08-15T09:16:04.000Z</time>
      </trkpt>
      <trkpt lat="47.90402" lon="6.86113">
        <ele>896.6</ele>
        <time>2026-08-15T09:16:07.000Z</time>
      </trkpt>
      <trkpt lat="47.90405" lon="6.86105">
        <ele>897.2</ele>
        <time>2026-08-15T09:16:09.000Z</time>
      </trkpt>
      <trkpt lat="47.9041" lon="6.86091">
        <ele>898.4</ele>
        <time>2026-08-15T09:16:13.000Z</time>
      </trkpt>
      <trkpt lat="47.90411" lon="6.86087">
        <ele>898.6</ele>
        <time>2026-08-15T09:16:14.000Z</time>
      </trkpt>
      <trkpt lat="47.90417" lon="6.86073">
        <ele>899.6</ele>
        <time>2026-08-15T09:16:18.000Z</time>
      </trkpt>
      <trkpt lat="47.9042" lon="6.86066">
        <ele>900.4</ele>
        <time>2026-08-15T09:16:21.000Z</time>
      </trkpt>
      <trkpt lat="47.90421" lon="6.8606">
        <ele>900.8</ele>
        <time>2026-08-15T09:16:23.000Z</time>
      </trkpt>
      <trkpt lat="47.90423" lon="6.86047">
        <ele>901.8</ele>
        <time>2026-08-15T09:16:27.000Z</time>
      </trkpt>
      <trkpt lat="47.90425" lon="6.86029">
        <ele>903</ele>
        <time>2026-08-15T09:16:32.000Z</time>
      </trkpt>
      <trkpt lat="47.90426" lon="6.86022">
        <ele>903.6</ele>
        <time>2026-08-15T09:16:34.000Z</time>
      </trkpt>
      <trkpt lat="47.90426" lon="6.86018">
        <ele>903.8</ele>
        <time>2026-08-15T09:16:35.000Z</time>
      </trkpt>
      <trkpt lat="47.90427" lon="6.86015">
        <ele>904.2</ele>
        <time>2026-08-15T09:16:36.000Z</time>
      </trkpt>
      <trkpt lat="47.90431" lon="6.86004">
        <ele>905</ele>
        <time>2026-08-15T09:16:39.000Z</time>
      </trkpt>
      <trkpt lat="47.90434" lon="6.85998">
        <ele>905.2</ele>
        <time>2026-08-15T09:16:41.000Z</time>
      </trkpt>
      <trkpt lat="47.90436" lon="6.85995">
        <ele>905.4</ele>
        <time>2026-08-15T09:16:42.000Z</time>
      </trkpt>
      <trkpt lat="47.90439" lon="6.8599">
        <ele>906</ele>
        <time>2026-08-15T09:16:44.000Z</time>
      </trkpt>
      <trkpt lat="47.90442" lon="6.85984">
        <ele>906.6</ele>
        <time>2026-08-15T09:16:46.000Z</time>
      </trkpt>
      <trkpt lat="47.90448" lon="6.85971">
        <ele>907.6</ele>
        <time>2026-08-15T09:16:50.000Z</time>
      </trkpt>
      <trkpt lat="47.9045" lon="6.85968">
        <ele>907.8</ele>
        <time>2026-08-15T09:16:51.000Z</time>
      </trkpt>
      <trkpt lat="47.90455" lon="6.85954">
        <ele>908.6</ele>
        <time>2026-08-15T09:16:55.000Z</time>
      </trkpt>
      <trkpt lat="47.90462" lon="6.85939">
        <ele>910</ele>
        <time>2026-08-15T09:17:00.000Z</time>
      </trkpt>
      <trkpt lat="47.90468" lon="6.85922">
        <ele>911</ele>
        <time>2026-08-15T09:17:05.000Z</time>
      </trkpt>
      <trkpt lat="47.90472" lon="6.85912">
        <ele>911.8</ele>
        <time>2026-08-15T09:17:08.000Z</time>
      </trkpt>
      <trkpt lat="47.90474" lon="6.85905">
        <ele>912.2</ele>
        <time>2026-08-15T09:17:10.000Z</time>
      </trkpt>
      <trkpt lat="47.90476" lon="6.85886">
        <ele>913.4</ele>
        <time>2026-08-15T09:17:15.000Z</time>
      </trkpt>
      <trkpt lat="47.90477" lon="6.85883">
        <ele>913.6</ele>
        <time>2026-08-15T09:17:16.000Z</time>
      </trkpt>
      <trkpt lat="47.90479" lon="6.85876">
        <ele>914.2</ele>
        <time>2026-08-15T09:17:18.000Z</time>
      </trkpt>
      <trkpt lat="47.90482" lon="6.85869">
        <ele>914.6</ele>
        <time>2026-08-15T09:17:20.000Z</time>
      </trkpt>
      <trkpt lat="47.90485" lon="6.8586">
        <ele>915.6</ele>
        <time>2026-08-15T09:17:23.000Z</time>
      </trkpt>
      <trkpt lat="47.90486" lon="6.85856">
        <ele>915.8</ele>
        <time>2026-08-15T09:17:24.000Z</time>
      </trkpt>
      <trkpt lat="47.90488" lon="6.8585">
        <ele>916.2</ele>
        <time>2026-08-15T09:17:26.000Z</time>
      </trkpt>
      <trkpt lat="47.90491" lon="6.85844">
        <ele>916.8</ele>
        <time>2026-08-15T09:17:28.000Z</time>
      </trkpt>
      <trkpt lat="47.90491" lon="6.85841">
        <ele>917</ele>
        <time>2026-08-15T09:17:29.000Z</time>
      </trkpt>
      <trkpt lat="47.90493" lon="6.85834">
        <ele>917.6</ele>
        <time>2026-08-15T09:17:31.000Z</time>
      </trkpt>
      <trkpt lat="47.90496" lon="6.85825">
        <ele>918</ele>
        <time>2026-08-15T09:17:34.000Z</time>
      </trkpt>
      <trkpt lat="47.905" lon="6.85811">
        <ele>919</ele>
        <time>2026-08-15T09:17:38.000Z</time>
      </trkpt>
      <trkpt lat="47.90501" lon="6.85807">
        <ele>919.4</ele>
        <time>2026-08-15T09:17:39.000Z</time>
      </trkpt>
      <trkpt lat="47.90503" lon="6.85792">
        <ele>920.6</ele>
        <time>2026-08-15T09:17:43.000Z</time>
      </trkpt>
      <trkpt lat="47.90503" lon="6.85789">
        <ele>921</ele>
        <time>2026-08-15T09:17:44.000Z</time>
      </trkpt>
      <trkpt lat="47.90506" lon="6.85779">
        <ele>921.8</ele>
        <time>2026-08-15T09:17:47.000Z</time>
      </trkpt>
      <trkpt lat="47.90509" lon="6.85767">
        <ele>922.8</ele>
        <time>2026-08-15T09:17:51.000Z</time>
      </trkpt>
      <trkpt lat="47.9051" lon="6.85764">
        <ele>923</ele>
        <time>2026-08-15T09:17:52.000Z</time>
      </trkpt>
      <trkpt lat="47.90512" lon="6.85753">
        <ele>923.8</ele>
        <time>2026-08-15T09:17:55.000Z</time>
      </trkpt>
      <trkpt lat="47.90514" lon="6.85738">
        <ele>925</ele>
        <time>2026-08-15T09:17:59.000Z</time>
      </trkpt>
      <trkpt lat="47.90514" lon="6.85734">
        <ele>925.4</ele>
        <time>2026-08-15T09:18:00.000Z</time>
      </trkpt>
      <trkpt lat="47.90515" lon="6.85724">
        <ele>926.2</ele>
        <time>2026-08-15T09:18:03.000Z</time>
      </trkpt>
      <trkpt lat="47.90518" lon="6.85712">
        <ele>927.2</ele>
        <time>2026-08-15T09:18:07.000Z</time>
      </trkpt>
      <trkpt lat="47.90518" lon="6.85709">
        <ele>927.2</ele>
        <time>2026-08-15T09:18:08.000Z</time>
      </trkpt>
      <trkpt lat="47.90523" lon="6.85693">
        <ele>928.2</ele>
        <time>2026-08-15T09:18:13.000Z</time>
      </trkpt>
      <trkpt lat="47.90524" lon="6.85691">
        <ele>928.4</ele>
        <time>2026-08-15T09:18:14.000Z</time>
      </trkpt>
      <trkpt lat="47.90528" lon="6.85679">
        <ele>929.2</ele>
        <time>2026-08-15T09:18:18.000Z</time>
      </trkpt>
      <trkpt lat="47.90531" lon="6.85668">
        <ele>930.2</ele>
        <time>2026-08-15T09:18:22.000Z</time>
      </trkpt>
      <trkpt lat="47.90531" lon="6.85665">
        <ele>930.4</ele>
        <time>2026-08-15T09:18:23.000Z</time>
      </trkpt>
      <trkpt lat="47.90534" lon="6.85653">
        <ele>931.4</ele>
        <time>2026-08-15T09:18:28.000Z</time>
      </trkpt>
      <trkpt lat="47.90535" lon="6.85647">
        <ele>932</ele>
        <time>2026-08-15T09:18:31.000Z</time>
      </trkpt>
      <trkpt lat="47.90539" lon="6.85639">
        <ele>932.6</ele>
        <time>2026-08-15T09:18:34.000Z</time>
      </trkpt>
      <trkpt lat="47.90541" lon="6.85629">
        <ele>933</ele>
        <time>2026-08-15T09:18:36.000Z</time>
      </trkpt>
      <trkpt lat="47.90543" lon="6.85619">
        <ele>933.8</ele>
        <time>2026-08-15T09:18:38.000Z</time>
      </trkpt>
      <trkpt lat="47.90547" lon="6.85597">
        <ele>935.2</ele>
        <time>2026-08-15T09:18:42.000Z</time>
      </trkpt>
      <trkpt lat="47.90548" lon="6.85592">
        <ele>935.6</ele>
        <time>2026-08-15T09:18:43.000Z</time>
      </trkpt>
      <trkpt lat="47.90548" lon="6.85581">
        <ele>936.2</ele>
        <time>2026-08-15T09:18:45.000Z</time>
      </trkpt>
      <trkpt lat="47.9055" lon="6.85564">
        <ele>937.6</ele>
        <time>2026-08-15T09:18:48.000Z</time>
      </trkpt>
      <trkpt lat="47.9055" lon="6.85546">
        <ele>938.6</ele>
        <time>2026-08-15T09:18:51.000Z</time>
      </trkpt>
      <trkpt lat="47.90551" lon="6.85529">
        <ele>939.8</ele>
        <time>2026-08-15T09:18:54.000Z</time>
      </trkpt>
      <trkpt lat="47.90553" lon="6.85518">
        <ele>940.6</ele>
        <time>2026-08-15T09:18:56.000Z</time>
      </trkpt>
      <trkpt lat="47.90554" lon="6.85512">
        <ele>941</ele>
        <time>2026-08-15T09:18:57.000Z</time>
      </trkpt>
      <trkpt lat="47.90557" lon="6.85494">
        <ele>942.2</ele>
        <time>2026-08-15T09:19:01.000Z</time>
      </trkpt>
      <trkpt lat="47.90557" lon="6.85489">
        <ele>942.4</ele>
        <time>2026-08-15T09:19:02.000Z</time>
      </trkpt>
      <trkpt lat="47.90559" lon="6.8548">
        <ele>943.2</ele>
        <time>2026-08-15T09:19:04.000Z</time>
      </trkpt>
      <trkpt lat="47.90563" lon="6.85463">
        <ele>944.2</ele>
        <time>2026-08-15T09:19:08.000Z</time>
      </trkpt>
      <trkpt lat="47.90565" lon="6.85459">
        <ele>944.4</ele>
        <time>2026-08-15T09:19:09.000Z</time>
      </trkpt>
      <trkpt lat="47.90572" lon="6.85445">
        <ele>945.2</ele>
        <time>2026-08-15T09:19:13.000Z</time>
      </trkpt>
      <trkpt lat="47.90573" lon="6.85442">
        <ele>945.6</ele>
        <time>2026-08-15T09:19:14.000Z</time>
      </trkpt>
      <trkpt lat="47.90578" lon="6.85434">
        <ele>946.4</ele>
        <time>2026-08-15T09:19:17.000Z</time>
      </trkpt>
      <trkpt lat="47.90584" lon="6.85429">
        <ele>947</ele>
        <time>2026-08-15T09:19:20.000Z</time>
      </trkpt>
      <trkpt lat="47.90592" lon="6.85426">
        <ele>947.4</ele>
        <time>2026-08-15T09:19:24.000Z</time>
      </trkpt>
      <trkpt lat="47.90598" lon="6.85423">
        <ele>947.6</ele>
        <time>2026-08-15T09:19:27.000Z</time>
      </trkpt>
      <trkpt lat="47.90605" lon="6.85423">
        <ele>948</ele>
        <time>2026-08-15T09:19:32.000Z</time>
      </trkpt>
      <trkpt lat="47.90616" lon="6.85432">
        <ele>947.2</ele>
        <time>2026-08-15T09:19:36.000Z</time>
      </trkpt>
      <trkpt lat="47.90619" lon="6.85435">
        <ele>947.2</ele>
        <time>2026-08-15T09:19:37.000Z</time>
      </trkpt>
      <trkpt lat="47.90631" lon="6.85456">
        <ele>947.4</ele>
        <time>2026-08-15T09:19:43.000Z</time>
      </trkpt>
      <trkpt lat="47.90634" lon="6.85475">
        <ele>947.2</ele>
        <time>2026-08-15T09:19:48.000Z</time>
      </trkpt>
      <trkpt lat="47.90636" lon="6.85485">
        <ele>947.2</ele>
        <time>2026-08-15T09:19:51.000Z</time>
      </trkpt>
      <trkpt lat="47.9064" lon="6.85499">
        <ele>947.2</ele>
        <time>2026-08-15T09:19:54.000Z</time>
      </trkpt>
      <trkpt lat="47.90641" lon="6.85505">
        <ele>947</ele>
        <time>2026-08-15T09:19:55.000Z</time>
      </trkpt>
      <trkpt lat="47.90652" lon="6.85531">
        <ele>947</ele>
        <time>2026-08-15T09:20:00.000Z</time>
      </trkpt>
      <trkpt lat="47.90658" lon="6.85541">
        <ele>947</ele>
        <time>2026-08-15T09:20:02.000Z</time>
      </trkpt>
      <trkpt lat="47.90672" lon="6.85549">
        <ele>947.4</ele>
        <time>2026-08-15T09:20:06.000Z</time>
      </trkpt>
      <trkpt lat="47.90693" lon="6.85549">
        <ele>947.2</ele>
        <time>2026-08-15T09:20:12.000Z</time>
      </trkpt>
      <trkpt lat="47.90696" lon="6.85547">
        <ele>947.2</ele>
        <time>2026-08-15T09:20:13.000Z</time>
      </trkpt>
      <trkpt lat="47.90716" lon="6.85542">
        <ele>946.8</ele>
        <time>2026-08-15T09:20:17.000Z</time>
      </trkpt>
      <trkpt lat="47.90735" lon="6.85536">
        <ele>946.8</ele>
        <time>2026-08-15T09:20:21.000Z</time>
      </trkpt>
      <trkpt lat="47.90749" lon="6.85533">
        <ele>946.8</ele>
        <time>2026-08-15T09:20:24.000Z</time>
      </trkpt>
      <trkpt lat="47.90768" lon="6.85528">
        <ele>946.4</ele>
        <time>2026-08-15T09:20:28.000Z</time>
      </trkpt>
      <trkpt lat="47.90773" lon="6.85526">
        <ele>946.4</ele>
        <time>2026-08-15T09:20:29.000Z</time>
      </trkpt>
      <trkpt lat="47.90778" lon="6.85525">
        <ele>946.2</ele>
        <time>2026-08-15T09:20:30.000Z</time>
      </trkpt>
      <trkpt lat="47.90799" lon="6.85519">
        <ele>946</ele>
        <time>2026-08-15T09:20:34.000Z</time>
      </trkpt>
      <trkpt lat="47.90809" lon="6.85517">
        <ele>946</ele>
        <time>2026-08-15T09:20:36.000Z</time>
      </trkpt>
      <trkpt lat="47.90829" lon="6.85513">
        <ele>945.6</ele>
        <time>2026-08-15T09:20:40.000Z</time>
      </trkpt>
      <trkpt lat="47.90839" lon="6.85511">
        <ele>945.6</ele>
        <time>2026-08-15T09:20:42.000Z</time>
      </trkpt>
      <trkpt lat="47.90856" lon="6.85512">
        <ele>945.2</ele>
        <time>2026-08-15T09:20:45.000Z</time>
      </trkpt>
      <trkpt lat="47.90873" lon="6.85516">
        <ele>944.6</ele>
        <time>2026-08-15T09:20:48.000Z</time>
      </trkpt>
      <trkpt lat="47.90884" lon="6.85521">
        <ele>944.2</ele>
        <time>2026-08-15T09:20:50.000Z</time>
      </trkpt>
      <trkpt lat="47.90898" lon="6.85531">
        <ele>943.6</ele>
        <time>2026-08-15T09:20:53.000Z</time>
      </trkpt>
      <trkpt lat="47.90902" lon="6.85535">
        <ele>943.4</ele>
        <time>2026-08-15T09:20:54.000Z</time>
      </trkpt>
      <trkpt lat="47.90918" lon="6.85549">
        <ele>943.4</ele>
        <time>2026-08-15T09:20:58.000Z</time>
      </trkpt>
      <trkpt lat="47.90929" lon="6.85553">
        <ele>943.6</ele>
        <time>2026-08-15T09:21:00.000Z</time>
      </trkpt>
      <trkpt lat="47.90944" lon="6.85558">
        <ele>943.8</ele>
        <time>2026-08-15T09:21:03.000Z</time>
      </trkpt>
      <trkpt lat="47.90965" lon="6.85568">
        <ele>943</ele>
        <time>2026-08-15T09:21:07.000Z</time>
      </trkpt>
      <trkpt lat="47.9097" lon="6.85572">
        <ele>942.6</ele>
        <time>2026-08-15T09:21:08.000Z</time>
      </trkpt>
      <trkpt lat="47.90979" lon="6.85581">
        <ele>942</ele>
        <time>2026-08-15T09:21:10.000Z</time>
      </trkpt>
      <trkpt lat="47.90983" lon="6.85586">
        <ele>941.8</ele>
        <time>2026-08-15T09:21:11.000Z</time>
      </trkpt>
      <trkpt lat="47.90998" lon="6.85608">
        <ele>940.8</ele>
        <time>2026-08-15T09:21:15.000Z</time>
      </trkpt>
      <trkpt lat="47.91002" lon="6.85613">
        <ele>940.6</ele>
        <time>2026-08-15T09:21:16.000Z</time>
      </trkpt>
      <trkpt lat="47.91019" lon="6.85627">
        <ele>940.4</ele>
        <time>2026-08-15T09:21:20.000Z</time>
      </trkpt>
      <trkpt lat="47.91024" lon="6.85629">
        <ele>940</ele>
        <time>2026-08-15T09:21:21.000Z</time>
      </trkpt>
      <trkpt lat="47.91029" lon="6.85632">
        <ele>939.6</ele>
        <time>2026-08-15T09:21:22.000Z</time>
      </trkpt>
      <trkpt lat="47.9104" lon="6.85639">
        <ele>938.4</ele>
        <time>2026-08-15T09:21:24.000Z</time>
      </trkpt>
      <trkpt lat="47.91052" lon="6.85646">
        <ele>937.2</ele>
        <time>2026-08-15T09:21:26.000Z</time>
      </trkpt>
      <trkpt lat="47.91057" lon="6.85649">
        <ele>937</ele>
        <time>2026-08-15T09:21:27.000Z</time>
      </trkpt>
      <trkpt lat="47.91067" lon="6.85653">
        <ele>936.2</ele>
        <time>2026-08-15T09:21:29.000Z</time>
      </trkpt>
      <trkpt lat="47.91072" lon="6.85654">
        <ele>936.2</ele>
        <time>2026-08-15T09:21:30.000Z</time>
      </trkpt>
      <trkpt lat="47.91077" lon="6.85654">
        <ele>936</ele>
        <time>2026-08-15T09:21:31.000Z</time>
      </trkpt>
      <trkpt lat="47.91081" lon="6.85652">
        <ele>935.6</ele>
        <time>2026-08-15T09:21:32.000Z</time>
      </trkpt>
      <trkpt lat="47.91085" lon="6.85649">
        <ele>935.4</ele>
        <time>2026-08-15T09:21:33.000Z</time>
      </trkpt>
      <trkpt lat="47.91088" lon="6.85644">
        <ele>935.2</ele>
        <time>2026-08-15T09:21:34.000Z</time>
      </trkpt>
      <trkpt lat="47.91091" lon="6.85637">
        <ele>935</ele>
        <time>2026-08-15T09:21:35.000Z</time>
      </trkpt>
      <trkpt lat="47.91087" lon="6.85619">
        <ele>935.2</ele>
        <time>2026-08-15T09:21:38.000Z</time>
      </trkpt>
      <trkpt lat="47.9108" lon="6.856">
        <ele>936.4</ele>
        <time>2026-08-15T09:21:42.000Z</time>
      </trkpt>
      <trkpt lat="47.91077" lon="6.85592">
        <ele>936.8</ele>
        <time>2026-08-15T09:21:44.000Z</time>
      </trkpt>
      <trkpt lat="47.91075" lon="6.85581">
        <ele>937.6</ele>
        <time>2026-08-15T09:21:47.000Z</time>
      </trkpt>
      <trkpt lat="47.91074" lon="6.85569">
        <ele>938</ele>
        <time>2026-08-15T09:21:50.000Z</time>
      </trkpt>
      <trkpt lat="47.91074" lon="6.85561">
        <ele>938.6</ele>
        <time>2026-08-15T09:21:52.000Z</time>
      </trkpt>
      <trkpt lat="47.91075" lon="6.85542">
        <ele>939.2</ele>
        <time>2026-08-15T09:21:56.000Z</time>
      </trkpt>
      <trkpt lat="47.9108" lon="6.85529">
        <ele>939.8</ele>
        <time>2026-08-15T09:21:59.000Z</time>
      </trkpt>
      <trkpt lat="47.91086" lon="6.85522">
        <ele>940.4</ele>
        <time>2026-08-15T09:22:01.000Z</time>
      </trkpt>
      <trkpt lat="47.91092" lon="6.85512">
        <ele>941</ele>
        <time>2026-08-15T09:22:04.000Z</time>
      </trkpt>
      <trkpt lat="47.91099" lon="6.85494">
        <ele>941.6</ele>
        <time>2026-08-15T09:22:08.000Z</time>
      </trkpt>
      <trkpt lat="47.91102" lon="6.85486">
        <ele>942</ele>
        <time>2026-08-15T09:22:10.000Z</time>
      </trkpt>
      <trkpt lat="47.91107" lon="6.8547">
        <ele>943</ele>
        <time>2026-08-15T09:22:14.000Z</time>
      </trkpt>
      <trkpt lat="47.91108" lon="6.85466">
        <ele>943.2</ele>
        <time>2026-08-15T09:22:15.000Z</time>
      </trkpt>
      <trkpt lat="47.91114" lon="6.85447">
        <ele>944</ele>
        <time>2026-08-15T09:22:20.000Z</time>
      </trkpt>
      <trkpt lat="47.91115" lon="6.85443">
        <ele>944.2</ele>
        <time>2026-08-15T09:22:21.000Z</time>
      </trkpt>
      <trkpt lat="47.91116" lon="6.85439">
        <ele>944.2</ele>
        <time>2026-08-15T09:22:22.000Z</time>
      </trkpt>
      <trkpt lat="47.91122" lon="6.85416">
        <ele>945.4</ele>
        <time>2026-08-15T09:22:27.000Z</time>
      </trkpt>
      <trkpt lat="47.91125" lon="6.85403">
        <ele>946.2</ele>
        <time>2026-08-15T09:22:30.000Z</time>
      </trkpt>
      <trkpt lat="47.91126" lon="6.85398">
        <ele>946.6</ele>
        <time>2026-08-15T09:22:31.000Z</time>
      </trkpt>
      <trkpt lat="47.91129" lon="6.85379">
        <ele>947.6</ele>
        <time>2026-08-15T09:22:35.000Z</time>
      </trkpt>
      <trkpt lat="47.9113" lon="6.85375">
        <ele>947.8</ele>
        <time>2026-08-15T09:22:36.000Z</time>
      </trkpt>
      <trkpt lat="47.9114" lon="6.85348">
        <ele>948.4</ele>
        <time>2026-08-15T09:22:42.000Z</time>
      </trkpt>
      <trkpt lat="47.91142" lon="6.85343">
        <ele>948.2</ele>
        <time>2026-08-15T09:22:43.000Z</time>
      </trkpt>
      <trkpt lat="47.9114" lon="6.85322">
        <ele>947.6</ele>
        <time>2026-08-15T09:22:47.000Z</time>
      </trkpt>
      <trkpt lat="47.91137" lon="6.85319">
        <ele>947.8</ele>
        <time>2026-08-15T09:22:48.000Z</time>
      </trkpt>
      <trkpt lat="47.91129" lon="6.85314">
        <ele>948.2</ele>
        <time>2026-08-15T09:22:51.000Z</time>
      </trkpt>
      <trkpt lat="47.91118" lon="6.8531">
        <ele>948.6</ele>
        <time>2026-08-15T09:22:57.000Z</time>
      </trkpt>
      <trkpt lat="47.9111" lon="6.8532">
        <ele>947.6</ele>
        <time>2026-08-15T09:23:01.000Z</time>
      </trkpt>
      <trkpt lat="47.91106" lon="6.85319">
        <ele>947</ele>
        <time>2026-08-15T09:23:04.000Z</time>
      </trkpt>
      <trkpt lat="47.91104" lon="6.85318">
        <ele>946.8</ele>
        <time>2026-08-15T09:23:05.000Z</time>
      </trkpt>
      <trkpt lat="47.91103" lon="6.85316">
        <ele>946.6</ele>
        <time>2026-08-15T09:23:06.000Z</time>
      </trkpt>
      <trkpt lat="47.91094" lon="6.85311">
        <ele>945.6</ele>
        <time>2026-08-15T09:23:10.000Z</time>
      </trkpt>
      <trkpt lat="47.91091" lon="6.8531">
        <ele>945.4</ele>
        <time>2026-08-15T09:23:11.000Z</time>
      </trkpt>
      <trkpt lat="47.91082" lon="6.85304">
        <ele>944.2</ele>
        <time>2026-08-15T09:23:14.000Z</time>
      </trkpt>
      <trkpt lat="47.91078" lon="6.85301">
        <ele>943.6</ele>
        <time>2026-08-15T09:23:15.000Z</time>
      </trkpt>
      <trkpt lat="47.91074" lon="6.85298">
        <ele>943.2</ele>
        <time>2026-08-15T09:23:16.000Z</time>
      </trkpt>
      <trkpt lat="47.91061" lon="6.85289">
        <ele>941.6</ele>
        <time>2026-08-15T09:23:19.000Z</time>
      </trkpt>
      <trkpt lat="47.91052" lon="6.85282">
        <ele>940.8</ele>
        <time>2026-08-15T09:23:21.000Z</time>
      </trkpt>
      <trkpt lat="47.91047" lon="6.85278">
        <ele>940</ele>
        <time>2026-08-15T09:23:22.000Z</time>
      </trkpt>
      <trkpt lat="47.91034" lon="6.85266">
        <ele>938.8</ele>
        <time>2026-08-15T09:23:25.000Z</time>
      </trkpt>
      <trkpt lat="47.91021" lon="6.85252">
        <ele>937.8</ele>
        <time>2026-08-15T09:23:28.000Z</time>
      </trkpt>
      <trkpt lat="47.91018" lon="6.85247">
        <ele>937.2</ele>
        <time>2026-08-15T09:23:29.000Z</time>
      </trkpt>
      <trkpt lat="47.9101" lon="6.85239">
        <ele>936.8</ele>
        <time>2026-08-15T09:23:31.000Z</time>
      </trkpt>
      <trkpt lat="47.91002" lon="6.85231">
        <ele>936.2</ele>
        <time>2026-08-15T09:23:33.000Z</time>
      </trkpt>
      <trkpt lat="47.90994" lon="6.85223">
        <ele>935.4</ele>
        <time>2026-08-15T09:23:35.000Z</time>
      </trkpt>
      <trkpt lat="47.90981" lon="6.85206">
        <ele>934.4</ele>
        <time>2026-08-15T09:23:39.000Z</time>
      </trkpt>
      <trkpt lat="47.90971" lon="6.85191">
        <ele>933.2</ele>
        <time>2026-08-15T09:23:42.000Z</time>
      </trkpt>
      <trkpt lat="47.90963" lon="6.85175">
        <ele>932</ele>
        <time>2026-08-15T09:23:45.000Z</time>
      </trkpt>
      <trkpt lat="47.9096" lon="6.8517">
        <ele>931.6</ele>
        <time>2026-08-15T09:23:46.000Z</time>
      </trkpt>
      <trkpt lat="47.90955" lon="6.85157">
        <ele>930.6</ele>
        <time>2026-08-15T09:23:48.000Z</time>
      </trkpt>
      <trkpt lat="47.90948" lon="6.85138">
        <ele>929.4</ele>
        <time>2026-08-15T09:23:51.000Z</time>
      </trkpt>
      <trkpt lat="47.90943" lon="6.85126">
        <ele>928.8</ele>
        <time>2026-08-15T09:23:53.000Z</time>
      </trkpt>
      <trkpt lat="47.90941" lon="6.85119">
        <ele>928.2</ele>
        <time>2026-08-15T09:23:54.000Z</time>
      </trkpt>
      <trkpt lat="47.90936" lon="6.85101">
        <ele>927</ele>
        <time>2026-08-15T09:23:57.000Z</time>
      </trkpt>
      <trkpt lat="47.90933" lon="6.85088">
        <ele>926.2</ele>
        <time>2026-08-15T09:23:59.000Z</time>
      </trkpt>
      <trkpt lat="47.90931" lon="6.85082">
        <ele>925.8</ele>
        <time>2026-08-15T09:24:00.000Z</time>
      </trkpt>
      <trkpt lat="47.90928" lon="6.85067">
        <ele>924.6</ele>
        <time>2026-08-15T09:24:02.000Z</time>
      </trkpt>
      <trkpt lat="47.90923" lon="6.85045">
        <ele>923.2</ele>
        <time>2026-08-15T09:24:05.000Z</time>
      </trkpt>
      <trkpt lat="47.90917" lon="6.85023">
        <ele>921.8</ele>
        <time>2026-08-15T09:24:08.000Z</time>
      </trkpt>
      <trkpt lat="47.9091" lon="6.85002">
        <ele>920.6</ele>
        <time>2026-08-15T09:24:11.000Z</time>
      </trkpt>
      <trkpt lat="47.90906" lon="6.84989">
        <ele>919.8</ele>
        <time>2026-08-15T09:24:13.000Z</time>
      </trkpt>
      <trkpt lat="47.90905" lon="6.84982">
        <ele>919.4</ele>
        <time>2026-08-15T09:24:14.000Z</time>
      </trkpt>
      <trkpt lat="47.90901" lon="6.84959">
        <ele>918</ele>
        <time>2026-08-15T09:24:17.000Z</time>
      </trkpt>
      <trkpt lat="47.90899" lon="6.84934">
        <ele>917</ele>
        <time>2026-08-15T09:24:20.000Z</time>
      </trkpt>
      <trkpt lat="47.90898" lon="6.84927">
        <ele>916.8</ele>
        <time>2026-08-15T09:24:21.000Z</time>
      </trkpt>
      <trkpt lat="47.90898" lon="6.84903">
        <ele>916.2</ele>
        <time>2026-08-15T09:24:24.000Z</time>
      </trkpt>
      <trkpt lat="47.90898" lon="6.84881">
        <ele>915.8</ele>
        <time>2026-08-15T09:24:27.000Z</time>
      </trkpt>
      <trkpt lat="47.90898" lon="6.84874">
        <ele>915.6</ele>
        <time>2026-08-15T09:24:28.000Z</time>
      </trkpt>
      <trkpt lat="47.90899" lon="6.84843">
        <ele>915</ele>
        <time>2026-08-15T09:24:32.000Z</time>
      </trkpt>
      <trkpt lat="47.90901" lon="6.84826">
        <ele>914.4</ele>
        <time>2026-08-15T09:24:34.000Z</time>
      </trkpt>
      <trkpt lat="47.90902" lon="6.84818">
        <ele>914</ele>
        <time>2026-08-15T09:24:35.000Z</time>
      </trkpt>
      <trkpt lat="47.90904" lon="6.84803">
        <ele>913.4</ele>
        <time>2026-08-15T09:24:37.000Z</time>
      </trkpt>
      <trkpt lat="47.90907" lon="6.8477">
        <ele>912.4</ele>
        <time>2026-08-15T09:24:41.000Z</time>
      </trkpt>
      <trkpt lat="47.90908" lon="6.84761">
        <ele>912</ele>
        <time>2026-08-15T09:24:42.000Z</time>
      </trkpt>
      <trkpt lat="47.90911" lon="6.84734">
        <ele>911</ele>
        <time>2026-08-15T09:24:45.000Z</time>
      </trkpt>
      <trkpt lat="47.90915" lon="6.84707">
        <ele>909.8</ele>
        <time>2026-08-15T09:24:48.000Z</time>
      </trkpt>
      <trkpt lat="47.90919" lon="6.8468">
        <ele>909</ele>
        <time>2026-08-15T09:24:51.000Z</time>
      </trkpt>
      <trkpt lat="47.90921" lon="6.84672">
        <ele>909</ele>
        <time>2026-08-15T09:24:52.000Z</time>
      </trkpt>
      <trkpt lat="47.90924" lon="6.84663">
        <ele>908.8</ele>
        <time>2026-08-15T09:24:53.000Z</time>
      </trkpt>
      <trkpt lat="47.90932" lon="6.84633">
        <ele>908.8</ele>
        <time>2026-08-15T09:24:57.000Z</time>
      </trkpt>
      <trkpt lat="47.90936" lon="6.84619">
        <ele>908.8</ele>
        <time>2026-08-15T09:24:59.000Z</time>
      </trkpt>
      <trkpt lat="47.90944" lon="6.8459">
        <ele>908.8</ele>
        <time>2026-08-15T09:25:03.000Z</time>
      </trkpt>
      <trkpt lat="47.90951" lon="6.84562">
        <ele>909</ele>
        <time>2026-08-15T09:25:07.000Z</time>
      </trkpt>
      <trkpt lat="47.90957" lon="6.84533">
        <ele>910</ele>
        <time>2026-08-15T09:25:11.000Z</time>
      </trkpt>
      <trkpt lat="47.90959" lon="6.8452">
        <ele>910.4</ele>
        <time>2026-08-15T09:25:13.000Z</time>
      </trkpt>
      <trkpt lat="47.90963" lon="6.84494">
        <ele>911</ele>
        <time>2026-08-15T09:25:17.000Z</time>
      </trkpt>
      <trkpt lat="47.90967" lon="6.84463">
        <ele>911.6</ele>
        <time>2026-08-15T09:25:22.000Z</time>
      </trkpt>
      <trkpt lat="47.90972" lon="6.84433">
        <ele>912.2</ele>
        <time>2026-08-15T09:25:27.000Z</time>
      </trkpt>
      <trkpt lat="47.90977" lon="6.84412">
        <ele>912.6</ele>
        <time>2026-08-15T09:25:31.000Z</time>
      </trkpt>
      <trkpt lat="47.90983" lon="6.84398">
        <ele>913.2</ele>
        <time>2026-08-15T09:25:34.000Z</time>
      </trkpt>
      <trkpt lat="47.90985" lon="6.84395">
        <ele>913.6</ele>
        <time>2026-08-15T09:25:35.000Z</time>
      </trkpt>
      <trkpt lat="47.90987" lon="6.8439">
        <ele>913.8</ele>
        <time>2026-08-15T09:25:36.000Z</time>
      </trkpt>
      <trkpt lat="47.90989" lon="6.84387">
        <ele>914</ele>
        <time>2026-08-15T09:25:37.000Z</time>
      </trkpt>
      <trkpt lat="47.90991" lon="6.84383">
        <ele>914.2</ele>
        <time>2026-08-15T09:25:38.000Z</time>
      </trkpt>
      <trkpt lat="47.90993" lon="6.84379">
        <ele>914.4</ele>
        <time>2026-08-15T09:25:39.000Z</time>
      </trkpt>
      <trkpt lat="47.90997" lon="6.84371">
        <ele>914.6</ele>
        <time>2026-08-15T09:25:41.000Z</time>
      </trkpt>
      <trkpt lat="47.91003" lon="6.84358">
        <ele>915.4</ele>
        <time>2026-08-15T09:25:44.000Z</time>
      </trkpt>
      <trkpt lat="47.91005" lon="6.84353">
        <ele>915.6</ele>
        <time>2026-08-15T09:25:45.000Z</time>
      </trkpt>
      <trkpt lat="47.9101" lon="6.84326">
        <ele>916.2</ele>
        <time>2026-08-15T09:25:50.000Z</time>
      </trkpt>
      <trkpt lat="47.91011" lon="6.84315">
        <ele>916.4</ele>
        <time>2026-08-15T09:25:52.000Z</time>
      </trkpt>
      <trkpt lat="47.91011" lon="6.8431">
        <ele>916.6</ele>
        <time>2026-08-15T09:25:53.000Z</time>
      </trkpt>
      <trkpt lat="47.91011" lon="6.84304">
        <ele>916.8</ele>
        <time>2026-08-15T09:25:54.000Z</time>
      </trkpt>
      <trkpt lat="47.91012" lon="6.84293">
        <ele>917.4</ele>
        <time>2026-08-15T09:25:56.000Z</time>
      </trkpt>
      <trkpt lat="47.91011" lon="6.84287">
        <ele>917.4</ele>
        <time>2026-08-15T09:25:57.000Z</time>
      </trkpt>
      <trkpt lat="47.91011" lon="6.84282">
        <ele>917.6</ele>
        <time>2026-08-15T09:25:58.000Z</time>
      </trkpt>
      <trkpt lat="47.91007" lon="6.84265">
        <ele>917.8</ele>
        <time>2026-08-15T09:26:01.000Z</time>
      </trkpt>
      <trkpt lat="47.91001" lon="6.84247">
        <ele>917.6</ele>
        <time>2026-08-15T09:26:04.000Z</time>
      </trkpt>
      <trkpt lat="47.90998" lon="6.84235">
        <ele>917.6</ele>
        <time>2026-08-15T09:26:06.000Z</time>
      </trkpt>
      <trkpt lat="47.90994" lon="6.84206">
        <ele>917</ele>
        <time>2026-08-15T09:26:10.000Z</time>
      </trkpt>
      <trkpt lat="47.90993" lon="6.84199">
        <ele>916.6</ele>
        <time>2026-08-15T09:26:11.000Z</time>
      </trkpt>
      <trkpt lat="47.90993" lon="6.84191">
        <ele>916.4</ele>
        <time>2026-08-15T09:26:12.000Z</time>
      </trkpt>
      <trkpt lat="47.90991" lon="6.8416">
        <ele>915.8</ele>
        <time>2026-08-15T09:26:16.000Z</time>
      </trkpt>
      <trkpt lat="47.9099" lon="6.84137">
        <ele>915.4</ele>
        <time>2026-08-15T09:26:19.000Z</time>
      </trkpt>
      <trkpt lat="47.9099" lon="6.84129">
        <ele>915.2</ele>
        <time>2026-08-15T09:26:20.000Z</time>
      </trkpt>
      <trkpt lat="47.90991" lon="6.84122">
        <ele>915</ele>
        <time>2026-08-15T09:26:21.000Z</time>
      </trkpt>
      <trkpt lat="47.90992" lon="6.84092">
        <ele>914.4</ele>
        <time>2026-08-15T09:26:25.000Z</time>
      </trkpt>
      <trkpt lat="47.90992" lon="6.84084">
        <ele>914.2</ele>
        <time>2026-08-15T09:26:26.000Z</time>
      </trkpt>
      <trkpt lat="47.90993" lon="6.84069">
        <ele>913.8</ele>
        <time>2026-08-15T09:26:28.000Z</time>
      </trkpt>
      <trkpt lat="47.90992" lon="6.84038">
        <ele>913.2</ele>
        <time>2026-08-15T09:26:32.000Z</time>
      </trkpt>
      <trkpt lat="47.90991" lon="6.84017">
        <ele>912.8</ele>
        <time>2026-08-15T09:26:35.000Z</time>
      </trkpt>
      <trkpt lat="47.90989" lon="6.83993">
        <ele>912.6</ele>
        <time>2026-08-15T09:26:38.000Z</time>
      </trkpt>
      <trkpt lat="47.90988" lon="6.83961">
        <ele>912.4</ele>
        <time>2026-08-15T09:26:42.000Z</time>
      </trkpt>
      <trkpt lat="47.90989" lon="6.8393">
        <ele>912.8</ele>
        <time>2026-08-15T09:26:46.000Z</time>
      </trkpt>
      <trkpt lat="47.90992" lon="6.83902">
        <ele>912.4</ele>
        <time>2026-08-15T09:26:50.000Z</time>
      </trkpt>
      <trkpt lat="47.90994" lon="6.83873">
        <ele>912.4</ele>
        <time>2026-08-15T09:26:54.000Z</time>
      </trkpt>
      <trkpt lat="47.90994" lon="6.83852">
        <ele>912.4</ele>
        <time>2026-08-15T09:26:57.000Z</time>
      </trkpt>
      <trkpt lat="47.90994" lon="6.8383">
        <ele>912</ele>
        <time>2026-08-15T09:27:00.000Z</time>
      </trkpt>
      <trkpt lat="47.90994" lon="6.83815">
        <ele>911.6</ele>
        <time>2026-08-15T09:27:02.000Z</time>
      </trkpt>
      <trkpt lat="47.90995" lon="6.83784">
        <ele>911</ele>
        <time>2026-08-15T09:27:06.000Z</time>
      </trkpt>
      <trkpt lat="47.90997" lon="6.83759">
        <ele>910.2</ele>
        <time>2026-08-15T09:27:09.000Z</time>
      </trkpt>
      <trkpt lat="47.90999" lon="6.83743">
        <ele>909.8</ele>
        <time>2026-08-15T09:27:11.000Z</time>
      </trkpt>
      <trkpt lat="47.91003" lon="6.83709">
        <ele>909</ele>
        <time>2026-08-15T09:27:15.000Z</time>
      </trkpt>
      <trkpt lat="47.91004" lon="6.83702">
        <ele>908.6</ele>
        <time>2026-08-15T09:27:16.000Z</time>
      </trkpt>
      <trkpt lat="47.91004" lon="6.83695">
        <ele>908.2</ele>
        <time>2026-08-15T09:27:17.000Z</time>
      </trkpt>
      <trkpt lat="47.91007" lon="6.83667">
        <ele>907.4</ele>
        <time>2026-08-15T09:27:21.000Z</time>
      </trkpt>
      <trkpt lat="47.91008" lon="6.83639">
        <ele>906.6</ele>
        <time>2026-08-15T09:27:25.000Z</time>
      </trkpt>
      <trkpt lat="47.91008" lon="6.83623">
        <ele>906.4</ele>
        <time>2026-08-15T09:27:27.000Z</time>
      </trkpt>
      <trkpt lat="47.91009" lon="6.83588">
        <ele>905.4</ele>
        <time>2026-08-15T09:27:31.000Z</time>
      </trkpt>
      <trkpt lat="47.9101" lon="6.8358">
        <ele>905.2</ele>
        <time>2026-08-15T09:27:32.000Z</time>
      </trkpt>
      <trkpt lat="47.91011" lon="6.83572">
        <ele>904.8</ele>
        <time>2026-08-15T09:27:33.000Z</time>
      </trkpt>
      <trkpt lat="47.91014" lon="6.83546">
        <ele>904</ele>
        <time>2026-08-15T09:27:36.000Z</time>
      </trkpt>
      <trkpt lat="47.91015" lon="6.83517">
        <ele>903</ele>
        <time>2026-08-15T09:27:39.000Z</time>
      </trkpt>
      <trkpt lat="47.91017" lon="6.83491">
        <ele>902</ele>
        <time>2026-08-15T09:27:42.000Z</time>
      </trkpt>
      <trkpt lat="47.91018" lon="6.83464">
        <ele>901</ele>
        <time>2026-08-15T09:27:45.000Z</time>
      </trkpt>
      <trkpt lat="47.91019" lon="6.83455">
        <ele>900.6</ele>
        <time>2026-08-15T09:27:46.000Z</time>
      </trkpt>
      <trkpt lat="47.9102" lon="6.83447">
        <ele>900.2</ele>
        <time>2026-08-15T09:27:47.000Z</time>
      </trkpt>
      <trkpt lat="47.91022" lon="6.83424">
        <ele>899.4</ele>
        <time>2026-08-15T09:27:50.000Z</time>
      </trkpt>
      <trkpt lat="47.91028" lon="6.83393">
        <ele>897.8</ele>
        <time>2026-08-15T09:27:54.000Z</time>
      </trkpt>
      <trkpt lat="47.9103" lon="6.83386">
        <ele>896.8</ele>
        <time>2026-08-15T09:27:55.000Z</time>
      </trkpt>
      <trkpt lat="47.91031" lon="6.83379">
        <ele>896.2</ele>
        <time>2026-08-15T09:27:56.000Z</time>
      </trkpt>
      <trkpt lat="47.9104" lon="6.83353">
        <ele>894.8</ele>
        <time>2026-08-15T09:28:00.000Z</time>
      </trkpt>
      <trkpt lat="47.91042" lon="6.83346">
        <ele>894</ele>
        <time>2026-08-15T09:28:01.000Z</time>
      </trkpt>
      <trkpt lat="47.91045" lon="6.83339">
        <ele>893.4</ele>
        <time>2026-08-15T09:28:02.000Z</time>
      </trkpt>
      <trkpt lat="47.9105" lon="6.83326">
        <ele>891.8</ele>
        <time>2026-08-15T09:28:04.000Z</time>
      </trkpt>
      <trkpt lat="47.91061" lon="6.83308">
        <ele>890.2</ele>
        <time>2026-08-15T09:28:07.000Z</time>
      </trkpt>
      <trkpt lat="47.91071" lon="6.83293">
        <ele>888.6</ele>
        <time>2026-08-15T09:28:10.000Z</time>
      </trkpt>
      <trkpt lat="47.91078" lon="6.83282">
        <ele>887.4</ele>
        <time>2026-08-15T09:28:12.000Z</time>
      </trkpt>
      <trkpt lat="47.91085" lon="6.83272">
        <ele>886.2</ele>
        <time>2026-08-15T09:28:14.000Z</time>
      </trkpt>
      <trkpt lat="47.91094" lon="6.83262">
        <ele>885</ele>
        <time>2026-08-15T09:28:16.000Z</time>
      </trkpt>
      <trkpt lat="47.91103" lon="6.83253">
        <ele>883.4</ele>
        <time>2026-08-15T09:28:18.000Z</time>
      </trkpt>
      <trkpt lat="47.91113" lon="6.83246">
        <ele>881.6</ele>
        <time>2026-08-15T09:28:20.000Z</time>
      </trkpt>
      <trkpt lat="47.91123" lon="6.83242">
        <ele>880.6</ele>
        <time>2026-08-15T09:28:22.000Z</time>
      </trkpt>
      <trkpt lat="47.91129" lon="6.83243">
        <ele>880.4</ele>
        <time>2026-08-15T09:28:24.000Z</time>
      </trkpt>
      <trkpt lat="47.91131" lon="6.83244">
        <ele>880.4</ele>
        <time>2026-08-15T09:28:25.000Z</time>
      </trkpt>
      <trkpt lat="47.91131" lon="6.83245">
        <ele>880.6</ele>
        <time>2026-08-15T09:28:28.000Z</time>
      </trkpt>
      <trkpt lat="47.91131" lon="6.83245">
        <ele>880.6</ele>
        <time>2026-08-15T09:28:31.000Z</time>
      </trkpt>
      <trkpt lat="47.91137" lon="6.83254">
        <ele>881</ele>
        <time>2026-08-15T09:29:01.000Z</time>
      </trkpt>
      <trkpt lat="47.9114" lon="6.83258">
        <ele>881.2</ele>
        <time>2026-08-15T09:29:03.000Z</time>
      </trkpt>
      <trkpt lat="47.91141" lon="6.8326">
        <ele>881.6</ele>
        <time>2026-08-15T09:29:04.000Z</time>
      </trkpt>
      <trkpt lat="47.91149" lon="6.83267">
        <ele>882.6</ele>
        <time>2026-08-15T09:29:08.000Z</time>
      </trkpt>
      <trkpt lat="47.91157" lon="6.83269">
        <ele>883</ele>
        <time>2026-08-15T09:29:10.000Z</time>
      </trkpt>
      <trkpt lat="47.9117" lon="6.83272">
        <ele>883.4</ele>
        <time>2026-08-15T09:29:13.000Z</time>
      </trkpt>
      <trkpt lat="47.91178" lon="6.83274">
        <ele>883.8</ele>
        <time>2026-08-15T09:29:15.000Z</time>
      </trkpt>
      <trkpt lat="47.91182" lon="6.83274">
        <ele>883.8</ele>
        <time>2026-08-15T09:29:16.000Z</time>
      </trkpt>
      <trkpt lat="47.91196" lon="6.83276">
        <ele>884.8</ele>
        <time>2026-08-15T09:29:20.000Z</time>
      </trkpt>
      <trkpt lat="47.91203" lon="6.83279">
        <ele>885.4</ele>
        <time>2026-08-15T09:29:22.000Z</time>
      </trkpt>
      <trkpt lat="47.91207" lon="6.83281">
        <ele>886</ele>
        <time>2026-08-15T09:29:23.000Z</time>
      </trkpt>
      <trkpt lat="47.91217" lon="6.83285">
        <ele>887.4</ele>
        <time>2026-08-15T09:29:26.000Z</time>
      </trkpt>
      <trkpt lat="47.91221" lon="6.83286">
        <ele>887.8</ele>
        <time>2026-08-15T09:29:27.000Z</time>
      </trkpt>
      <trkpt lat="47.91226" lon="6.83288">
        <ele>888.6</ele>
        <time>2026-08-15T09:29:29.000Z</time>
      </trkpt>
      <trkpt lat="47.91235" lon="6.83289">
        <ele>890</ele>
        <time>2026-08-15T09:29:32.000Z</time>
      </trkpt>
      <trkpt lat="47.91243" lon="6.83286">
        <ele>891</ele>
        <time>2026-08-15T09:29:35.000Z</time>
      </trkpt>
      <trkpt lat="47.91253" lon="6.83281">
        <ele>892.2</ele>
        <time>2026-08-15T09:29:39.000Z</time>
      </trkpt>
      <trkpt lat="47.91271" lon="6.83269">
        <ele>893</ele>
        <time>2026-08-15T09:29:46.000Z</time>
      </trkpt>
      <trkpt lat="47.91284" lon="6.83266">
        <ele>893.4</ele>
        <time>2026-08-15T09:29:50.000Z</time>
      </trkpt>
      <trkpt lat="47.91287" lon="6.83265">
        <ele>893.4</ele>
        <time>2026-08-15T09:29:51.000Z</time>
      </trkpt>
      <trkpt lat="47.91307" lon="6.83256">
        <ele>894.4</ele>
        <time>2026-08-15T09:29:57.000Z</time>
      </trkpt>
      <trkpt lat="47.9131" lon="6.83255">
        <ele>894.6</ele>
        <time>2026-08-15T09:29:58.000Z</time>
      </trkpt>
      <trkpt lat="47.91322" lon="6.8325">
        <ele>895.4</ele>
        <time>2026-08-15T09:30:02.000Z</time>
      </trkpt>
      <trkpt lat="47.91335" lon="6.83248">
        <ele>896</ele>
        <time>2026-08-15T09:30:06.000Z</time>
      </trkpt>
      <trkpt lat="47.91355" lon="6.83249">
        <ele>896.6</ele>
        <time>2026-08-15T09:30:12.000Z</time>
      </trkpt>
      <trkpt lat="47.91363" lon="6.83249">
        <ele>897</ele>
        <time>2026-08-15T09:30:14.000Z</time>
      </trkpt>
      <trkpt lat="47.91376" lon="6.83248">
        <ele>897.6</ele>
        <time>2026-08-15T09:30:18.000Z</time>
      </trkpt>
      <trkpt lat="47.9138" lon="6.83246">
        <ele>897.8</ele>
        <time>2026-08-15T09:30:19.000Z</time>
      </trkpt>
      <trkpt lat="47.91389" lon="6.83243">
        <ele>898</ele>
        <time>2026-08-15T09:30:22.000Z</time>
      </trkpt>
      <trkpt lat="47.91399" lon="6.83238">
        <ele>898.6</ele>
        <time>2026-08-15T09:30:25.000Z</time>
      </trkpt>
      <trkpt lat="47.91402" lon="6.83236">
        <ele>898.8</ele>
        <time>2026-08-15T09:30:26.000Z</time>
      </trkpt>
      <trkpt lat="47.91417" lon="6.83232">
        <ele>899.6</ele>
        <time>2026-08-15T09:30:31.000Z</time>
      </trkpt>
      <trkpt lat="47.91421" lon="6.83231">
        <ele>899.8</ele>
        <time>2026-08-15T09:30:32.000Z</time>
      </trkpt>
      <trkpt lat="47.91438" lon="6.83227">
        <ele>900.6</ele>
        <time>2026-08-15T09:30:37.000Z</time>
      </trkpt>
      <trkpt lat="47.91445" lon="6.83225">
        <ele>901</ele>
        <time>2026-08-15T09:30:39.000Z</time>
      </trkpt>
      <trkpt lat="47.91463" lon="6.8322">
        <ele>902</ele>
        <time>2026-08-15T09:30:44.000Z</time>
      </trkpt>
      <trkpt lat="47.91473" lon="6.83218">
        <ele>902.6</ele>
        <time>2026-08-15T09:30:47.000Z</time>
      </trkpt>
      <trkpt lat="47.91483" lon="6.83216">
        <ele>903.2</ele>
        <time>2026-08-15T09:30:50.000Z</time>
      </trkpt>
      <trkpt lat="47.91493" lon="6.8321">
        <ele>903.8</ele>
        <time>2026-08-15T09:30:53.000Z</time>
      </trkpt>
      <trkpt lat="47.91505" lon="6.83207">
        <ele>904.4</ele>
        <time>2026-08-15T09:30:56.000Z</time>
      </trkpt>
      <trkpt lat="47.91516" lon="6.83207">
        <ele>905.8</ele>
        <time>2026-08-15T09:30:59.000Z</time>
      </trkpt>
      <trkpt lat="47.91527" lon="6.83206">
        <ele>907.2</ele>
        <time>2026-08-15T09:31:02.000Z</time>
      </trkpt>
      <trkpt lat="47.91534" lon="6.83205">
        <ele>908</ele>
        <time>2026-08-15T09:31:04.000Z</time>
      </trkpt>
      <trkpt lat="47.91538" lon="6.83205">
        <ele>908.4</ele>
        <time>2026-08-15T09:31:05.000Z</time>
      </trkpt>
      <trkpt lat="47.91541" lon="6.83205">
        <ele>908.8</ele>
        <time>2026-08-15T09:31:06.000Z</time>
      </trkpt>
      <trkpt lat="47.91549" lon="6.83205">
        <ele>909.6</ele>
        <time>2026-08-15T09:31:08.000Z</time>
      </trkpt>
      <trkpt lat="47.9156" lon="6.83206">
        <ele>910.8</ele>
        <time>2026-08-15T09:31:11.000Z</time>
      </trkpt>
      <trkpt lat="47.91572" lon="6.83209">
        <ele>911.2</ele>
        <time>2026-08-15T09:31:14.000Z</time>
      </trkpt>
      <trkpt lat="47.91583" lon="6.83212">
        <ele>911.8</ele>
        <time>2026-08-15T09:31:17.000Z</time>
      </trkpt>
      <trkpt lat="47.916" lon="6.83216">
        <ele>913</ele>
        <time>2026-08-15T09:31:22.000Z</time>
      </trkpt>
      <trkpt lat="47.91607" lon="6.83218">
        <ele>913.4</ele>
        <time>2026-08-15T09:31:24.000Z</time>
      </trkpt>
      <trkpt lat="47.9162" lon="6.83223">
        <ele>914.2</ele>
        <time>2026-08-15T09:31:28.000Z</time>
      </trkpt>
      <trkpt lat="47.91632" lon="6.83233">
        <ele>914.8</ele>
        <time>2026-08-15T09:31:32.000Z</time>
      </trkpt>
      <trkpt lat="47.91637" lon="6.8324">
        <ele>915.4</ele>
        <time>2026-08-15T09:31:34.000Z</time>
      </trkpt>
      <trkpt lat="47.9165" lon="6.83258">
        <ele>915.8</ele>
        <time>2026-08-15T09:31:39.000Z</time>
      </trkpt>
      <trkpt lat="47.91661" lon="6.83275">
        <ele>916.4</ele>
        <time>2026-08-15T09:31:43.000Z</time>
      </trkpt>
      <trkpt lat="47.91672" lon="6.83282">
        <ele>917.4</ele>
        <time>2026-08-15T09:31:47.000Z</time>
      </trkpt>
      <trkpt lat="47.91674" lon="6.83281">
        <ele>917.4</ele>
        <time>2026-08-15T09:31:48.000Z</time>
      </trkpt>
      <trkpt lat="47.91683" lon="6.83274">
        <ele>917.4</ele>
        <time>2026-08-15T09:31:52.000Z</time>
      </trkpt>
      <trkpt lat="47.91692" lon="6.8326">
        <ele>916.8</ele>
        <time>2026-08-15T09:31:58.000Z</time>
      </trkpt>
      <trkpt lat="47.91694" lon="6.83251">
        <ele>916.4</ele>
        <time>2026-08-15T09:32:02.000Z</time>
      </trkpt>
      <trkpt lat="47.91694" lon="6.83248">
        <ele>916.4</ele>
        <time>2026-08-15T09:32:03.000Z</time>
      </trkpt>
      <trkpt lat="47.91697" lon="6.83235">
        <ele>916.6</ele>
        <time>2026-08-15T09:32:06.000Z</time>
      </trkpt>
      <trkpt lat="47.91699" lon="6.83223">
        <ele>917</ele>
        <time>2026-08-15T09:32:09.000Z</time>
      </trkpt>
      <trkpt lat="47.91701" lon="6.83211">
        <ele>917.6</ele>
        <time>2026-08-15T09:32:12.000Z</time>
      </trkpt>
      <trkpt lat="47.91703" lon="6.83205">
        <ele>917.8</ele>
        <time>2026-08-15T09:32:16.000Z</time>
      </trkpt>
      <trkpt lat="47.91703" lon="6.83205">
        <ele>917.8</ele>
        <time>2026-08-15T09:32:18.000Z</time>
      </trkpt>
      <trkpt lat="47.91703" lon="6.83205">
        <ele>917.8</ele>
        <time>2026-08-15T09:32:19.000Z</time>
      </trkpt>
      <trkpt lat="47.91703" lon="6.83205">
        <ele>917.8</ele>
        <time>2026-08-15T09:32:20.000Z</time>
      </trkpt>
      <trkpt lat="47.91706" lon="6.832">
        <ele>917.8</ele>
        <time>2026-08-15T09:33:17.000Z</time>
      </trkpt>
      <trkpt lat="47.91706" lon="6.832">
        <ele>917.8</ele>
        <time>2026-08-15T09:33:18.000Z</time>
      </trkpt>
      <trkpt lat="47.91706" lon="6.832">
        <ele>917.6</ele>
        <time>2026-08-15T09:33:23.000Z</time>
      </trkpt>
      <trkpt lat="47.91701" lon="6.832">
        <ele>917.8</ele>
        <time>2026-08-15T09:33:53.000Z</time>
      </trkpt>
      <trkpt lat="47.917" lon="6.832">
        <ele>918</ele>
        <time>2026-08-15T09:33:56.000Z</time>
      </trkpt>
      <trkpt lat="47.91704" lon="6.83181">
        <ele>918.6</ele>
        <time>2026-08-15T09:34:47.000Z</time>
      </trkpt>
      <trkpt lat="47.91706" lon="6.83174">
        <ele>919</ele>
        <time>2026-08-15T09:34:49.000Z</time>
      </trkpt>
      <trkpt lat="47.91707" lon="6.83165">
        <ele>919.8</ele>
        <time>2026-08-15T09:34:52.000Z</time>
      </trkpt>
      <trkpt lat="47.91708" lon="6.83153">
        <ele>920.8</ele>
        <time>2026-08-15T09:34:56.000Z</time>
      </trkpt>
      <trkpt lat="47.91708" lon="6.83149">
        <ele>921</ele>
        <time>2026-08-15T09:34:57.000Z</time>
      </trkpt>
      <trkpt lat="47.91709" lon="6.83139">
        <ele>922</ele>
        <time>2026-08-15T09:35:00.000Z</time>
      </trkpt>
      <trkpt lat="47.91711" lon="6.83125">
        <ele>923</ele>
        <time>2026-08-15T09:35:04.000Z</time>
      </trkpt>
      <trkpt lat="47.91712" lon="6.83121">
        <ele>923.2</ele>
        <time>2026-08-15T09:35:05.000Z</time>
      </trkpt>
      <trkpt lat="47.91713" lon="6.83111">
        <ele>924.2</ele>
        <time>2026-08-15T09:35:08.000Z</time>
      </trkpt>
      <trkpt lat="47.91716" lon="6.83101">
        <ele>925.4</ele>
        <time>2026-08-15T09:35:11.000Z</time>
      </trkpt>
      <trkpt lat="47.91717" lon="6.83095">
        <ele>926</ele>
        <time>2026-08-15T09:35:13.000Z</time>
      </trkpt>
      <trkpt lat="47.91718" lon="6.83088">
        <ele>926.6</ele>
        <time>2026-08-15T09:35:15.000Z</time>
      </trkpt>
      <trkpt lat="47.91719" lon="6.83082">
        <ele>927.4</ele>
        <time>2026-08-15T09:35:17.000Z</time>
      </trkpt>
      <trkpt lat="47.9172" lon="6.83079">
        <ele>927.8</ele>
        <time>2026-08-15T09:35:18.000Z</time>
      </trkpt>
      <trkpt lat="47.91721" lon="6.83069">
        <ele>928.8</ele>
        <time>2026-08-15T09:35:21.000Z</time>
      </trkpt>
      <trkpt lat="47.91722" lon="6.83061">
        <ele>929.6</ele>
        <time>2026-08-15T09:35:23.000Z</time>
      </trkpt>
      <trkpt lat="47.91723" lon="6.83057">
        <ele>930</ele>
        <time>2026-08-15T09:35:24.000Z</time>
      </trkpt>
      <trkpt lat="47.91724" lon="6.83045">
        <ele>931.4</ele>
        <time>2026-08-15T09:35:27.000Z</time>
      </trkpt>
      <trkpt lat="47.91726" lon="6.8303">
        <ele>932.6</ele>
        <time>2026-08-15T09:35:31.000Z</time>
      </trkpt>
      <trkpt lat="47.91726" lon="6.83027">
        <ele>932.8</ele>
        <time>2026-08-15T09:35:32.000Z</time>
      </trkpt>
      <trkpt lat="47.91728" lon="6.83011">
        <ele>933.6</ele>
        <time>2026-08-15T09:35:36.000Z</time>
      </trkpt>
      <trkpt lat="47.91729" lon="6.82999">
        <ele>934.8</ele>
        <time>2026-08-15T09:35:39.000Z</time>
      </trkpt>
      <trkpt lat="47.9173" lon="6.82988">
        <ele>936</ele>
        <time>2026-08-15T09:35:42.000Z</time>
      </trkpt>
      <trkpt lat="47.9173" lon="6.82977">
        <ele>937.4</ele>
        <time>2026-08-15T09:35:45.000Z</time>
      </trkpt>
      <trkpt lat="47.9173" lon="6.82973">
        <ele>937.8</ele>
        <time>2026-08-15T09:35:46.000Z</time>
      </trkpt>
      <trkpt lat="47.91731" lon="6.8297">
        <ele>938.4</ele>
        <time>2026-08-15T09:35:47.000Z</time>
      </trkpt>
      <trkpt lat="47.91731" lon="6.8296">
        <ele>939.8</ele>
        <time>2026-08-15T09:35:50.000Z</time>
      </trkpt>
      <trkpt lat="47.91732" lon="6.82952">
        <ele>940.8</ele>
        <time>2026-08-15T09:35:53.000Z</time>
      </trkpt>
      <trkpt lat="47.91733" lon="6.8295">
        <ele>941.2</ele>
        <time>2026-08-15T09:35:54.000Z</time>
      </trkpt>
      <trkpt lat="47.91734" lon="6.82946">
        <ele>941.8</ele>
        <time>2026-08-15T09:35:56.000Z</time>
      </trkpt>
      <trkpt lat="47.91732" lon="6.82934">
        <ele>943</ele>
        <time>2026-08-15T09:36:00.000Z</time>
      </trkpt>
      <trkpt lat="47.91731" lon="6.82933">
        <ele>943.4</ele>
        <time>2026-08-15T09:36:01.000Z</time>
      </trkpt>
      <trkpt lat="47.91726" lon="6.82935">
        <ele>944</ele>
        <time>2026-08-15T09:36:03.000Z</time>
      </trkpt>
      <trkpt lat="47.91725" lon="6.82937">
        <ele>944.2</ele>
        <time>2026-08-15T09:36:04.000Z</time>
      </trkpt>
      <trkpt lat="47.91724" lon="6.82939">
        <ele>944.6</ele>
        <time>2026-08-15T09:36:05.000Z</time>
      </trkpt>
      <trkpt lat="47.91721" lon="6.82946">
        <ele>945.4</ele>
        <time>2026-08-15T09:36:07.000Z</time>
      </trkpt>
      <trkpt lat="47.91715" lon="6.82952">
        <ele>946.8</ele>
        <time>2026-08-15T09:36:10.000Z</time>
      </trkpt>
      <trkpt lat="47.91709" lon="6.82957">
        <ele>948</ele>
        <time>2026-08-15T09:36:13.000Z</time>
      </trkpt>
      <trkpt lat="47.91704" lon="6.82962">
        <ele>949.2</ele>
        <time>2026-08-15T09:36:16.000Z</time>
      </trkpt>
      <trkpt lat="47.91702" lon="6.82964">
        <ele>949.6</ele>
        <time>2026-08-15T09:36:17.000Z</time>
      </trkpt>
      <trkpt lat="47.91698" lon="6.82967">
        <ele>950.4</ele>
        <time>2026-08-15T09:36:19.000Z</time>
      </trkpt>
      <trkpt lat="47.91692" lon="6.82973">
        <ele>951.6</ele>
        <time>2026-08-15T09:36:22.000Z</time>
      </trkpt>
      <trkpt lat="47.91687" lon="6.82976">
        <ele>952.4</ele>
        <time>2026-08-15T09:36:24.000Z</time>
      </trkpt>
      <trkpt lat="47.91685" lon="6.82976">
        <ele>952.8</ele>
        <time>2026-08-15T09:36:25.000Z</time>
      </trkpt>
      <trkpt lat="47.91679" lon="6.8298">
        <ele>954</ele>
        <time>2026-08-15T09:36:28.000Z</time>
      </trkpt>
      <trkpt lat="47.91672" lon="6.82982">
        <ele>955.2</ele>
        <time>2026-08-15T09:36:31.000Z</time>
      </trkpt>
      <trkpt lat="47.91669" lon="6.82983">
        <ele>955.6</ele>
        <time>2026-08-15T09:36:32.000Z</time>
      </trkpt>
      <trkpt lat="47.91665" lon="6.82984">
        <ele>956.6</ele>
        <time>2026-08-15T09:36:34.000Z</time>
      </trkpt>
      <trkpt lat="47.91657" lon="6.82985">
        <ele>957.8</ele>
        <time>2026-08-15T09:36:37.000Z</time>
      </trkpt>
      <trkpt lat="47.91653" lon="6.82985">
        <ele>958.8</ele>
        <time>2026-08-15T09:36:39.000Z</time>
      </trkpt>
      <trkpt lat="47.9165" lon="6.82986">
        <ele>959.2</ele>
        <time>2026-08-15T09:36:40.000Z</time>
      </trkpt>
      <trkpt lat="47.91643" lon="6.82985">
        <ele>960.6</ele>
        <time>2026-08-15T09:36:43.000Z</time>
      </trkpt>
      <trkpt lat="47.91636" lon="6.82983">
        <ele>961.6</ele>
        <time>2026-08-15T09:36:46.000Z</time>
      </trkpt>
      <trkpt lat="47.91629" lon="6.82978">
        <ele>962.8</ele>
        <time>2026-08-15T09:36:49.000Z</time>
      </trkpt>
      <trkpt lat="47.91624" lon="6.82974">
        <ele>964</ele>
        <time>2026-08-15T09:36:52.000Z</time>
      </trkpt>
      <trkpt lat="47.91621" lon="6.82971">
        <ele>964.6</ele>
        <time>2026-08-15T09:36:54.000Z</time>
      </trkpt>
      <trkpt lat="47.9162" lon="6.82969">
        <ele>965</ele>
        <time>2026-08-15T09:36:55.000Z</time>
      </trkpt>
      <trkpt lat="47.91621" lon="6.82969">
        <ele>965.4</ele>
        <time>2026-08-15T09:36:58.000Z</time>
      </trkpt>
      <trkpt lat="47.9162" lon="6.82968">
        <ele>965.4</ele>
        <time>2026-08-15T09:37:00.000Z</time>
      </trkpt>
      <trkpt lat="47.91608" lon="6.82963">
        <ele>967.8</ele>
        <time>2026-08-15T09:38:12.000Z</time>
      </trkpt>
      <trkpt lat="47.91606" lon="6.82962">
        <ele>968</ele>
        <time>2026-08-15T09:38:13.000Z</time>
      </trkpt>
      <trkpt lat="47.91601" lon="6.82957">
        <ele>969</ele>
        <time>2026-08-15T09:38:16.000Z</time>
      </trkpt>
      <trkpt lat="47.91596" lon="6.82951">
        <ele>970</ele>
        <time>2026-08-15T09:38:19.000Z</time>
      </trkpt>
      <trkpt lat="47.91594" lon="6.82949">
        <ele>970.4</ele>
        <time>2026-08-15T09:38:20.000Z</time>
      </trkpt>
      <trkpt lat="47.91589" lon="6.82944">
        <ele>971.2</ele>
        <time>2026-08-15T09:38:23.000Z</time>
      </trkpt>
      <trkpt lat="47.91582" lon="6.82936">
        <ele>972.6</ele>
        <time>2026-08-15T09:38:27.000Z</time>
      </trkpt>
      <trkpt lat="47.91578" lon="6.82931">
        <ele>973.8</ele>
        <time>2026-08-15T09:38:30.000Z</time>
      </trkpt>
      <trkpt lat="47.91572" lon="6.82922">
        <ele>975.2</ele>
        <time>2026-08-15T09:38:34.000Z</time>
      </trkpt>
      <trkpt lat="47.91568" lon="6.82917">
        <ele>975.4</ele>
        <time>2026-08-15T09:38:36.000Z</time>
      </trkpt>
      <trkpt lat="47.91563" lon="6.82906">
        <ele>976.2</ele>
        <time>2026-08-15T09:38:40.000Z</time>
      </trkpt>
      <trkpt lat="47.9156" lon="6.82897">
        <ele>976.4</ele>
        <time>2026-08-15T09:38:43.000Z</time>
      </trkpt>
      <trkpt lat="47.9155" lon="6.82871">
        <ele>977.4</ele>
        <time>2026-08-15T09:38:51.000Z</time>
      </trkpt>
      <trkpt lat="47.91548" lon="6.82869">
        <ele>977.4</ele>
        <time>2026-08-15T09:38:52.000Z</time>
      </trkpt>
      <trkpt lat="47.91542" lon="6.82856">
        <ele>978.4</ele>
        <time>2026-08-15T09:38:57.000Z</time>
      </trkpt>
      <trkpt lat="47.91538" lon="6.82848">
        <ele>978.8</ele>
        <time>2026-08-15T09:39:00.000Z</time>
      </trkpt>
      <trkpt lat="47.91535" lon="6.82842">
        <ele>979</ele>
        <time>2026-08-15T09:39:02.000Z</time>
      </trkpt>
      <trkpt lat="47.91534" lon="6.82839">
        <ele>979</ele>
        <time>2026-08-15T09:39:03.000Z</time>
      </trkpt>
      <trkpt lat="47.91533" lon="6.82837">
        <ele>979.2</ele>
        <time>2026-08-15T09:39:04.000Z</time>
      </trkpt>
      <trkpt lat="47.91532" lon="6.82835">
        <ele>979.4</ele>
        <time>2026-08-15T09:39:05.000Z</time>
      </trkpt>
      <trkpt lat="47.91531" lon="6.82832">
        <ele>979.4</ele>
        <time>2026-08-15T09:39:06.000Z</time>
      </trkpt>
      <trkpt lat="47.91531" lon="6.8283">
        <ele>979.6</ele>
        <time>2026-08-15T09:39:07.000Z</time>
      </trkpt>
      <trkpt lat="47.91531" lon="6.8283">
        <ele>979.6</ele>
        <time>2026-08-15T09:39:09.000Z</time>
      </trkpt>
      <trkpt lat="47.91531" lon="6.8283">
        <ele>979.6</ele>
        <time>2026-08-15T09:39:10.000Z</time>
      </trkpt>
      <trkpt lat="47.91531" lon="6.8283">
        <ele>979.6</ele>
        <time>2026-08-15T09:39:11.000Z</time>
      </trkpt>
      <trkpt lat="47.91531" lon="6.8283">
        <ele>979.6</ele>
        <time>2026-08-15T09:39:12.000Z</time>
      </trkpt>
      <trkpt lat="47.91525" lon="6.828">
        <ele>981.2</ele>
        <time>2026-08-15T09:42:33.000Z</time>
      </trkpt>
      <trkpt lat="47.91525" lon="6.82796">
        <ele>981.2</ele>
        <time>2026-08-15T09:42:34.000Z</time>
      </trkpt>
      <trkpt lat="47.91529" lon="6.82769">
        <ele>982.2</ele>
        <time>2026-08-15T09:42:41.000Z</time>
      </trkpt>
      <trkpt lat="47.91529" lon="6.82766">
        <ele>982.4</ele>
        <time>2026-08-15T09:42:42.000Z</time>
      </trkpt>
      <trkpt lat="47.91533" lon="6.82753">
        <ele>983.2</ele>
        <time>2026-08-15T09:42:46.000Z</time>
      </trkpt>
      <trkpt lat="47.91534" lon="6.8275">
        <ele>983.6</ele>
        <time>2026-08-15T09:42:47.000Z</time>
      </trkpt>
      <trkpt lat="47.91537" lon="6.8274">
        <ele>984.2</ele>
        <time>2026-08-15T09:42:50.000Z</time>
      </trkpt>
      <trkpt lat="47.91539" lon="6.82733">
        <ele>984.6</ele>
        <time>2026-08-15T09:42:52.000Z</time>
      </trkpt>
      <trkpt lat="47.91544" lon="6.82722">
        <ele>985</ele>
        <time>2026-08-15T09:42:56.000Z</time>
      </trkpt>
      <trkpt lat="47.91549" lon="6.82721">
        <ele>985.2</ele>
        <time>2026-08-15T09:42:58.000Z</time>
      </trkpt>
      <trkpt lat="47.91553" lon="6.82724">
        <ele>985.8</ele>
        <time>2026-08-15T09:43:00.000Z</time>
      </trkpt>
      <trkpt lat="47.91557" lon="6.82729">
        <ele>986.6</ele>
        <time>2026-08-15T09:43:02.000Z</time>
      </trkpt>
      <trkpt lat="47.91559" lon="6.82732">
        <ele>987</ele>
        <time>2026-08-15T09:43:03.000Z</time>
      </trkpt>
      <trkpt lat="47.91562" lon="6.82738">
        <ele>988.4</ele>
        <time>2026-08-15T09:43:05.000Z</time>
      </trkpt>
      <trkpt lat="47.91566" lon="6.82745">
        <ele>989.6</ele>
        <time>2026-08-15T09:43:07.000Z</time>
      </trkpt>
      <trkpt lat="47.91569" lon="6.82751">
        <ele>991</ele>
        <time>2026-08-15T09:43:09.000Z</time>
      </trkpt>
      <trkpt lat="47.91574" lon="6.82752">
        <ele>992.2</ele>
        <time>2026-08-15T09:43:11.000Z</time>
      </trkpt>
      <trkpt lat="47.91579" lon="6.82751">
        <ele>993.2</ele>
        <time>2026-08-15T09:43:13.000Z</time>
      </trkpt>
      <trkpt lat="47.91586" lon="6.82754">
        <ele>994.8</ele>
        <time>2026-08-15T09:43:16.000Z</time>
      </trkpt>
      <trkpt lat="47.91587" lon="6.82757">
        <ele>995.8</ele>
        <time>2026-08-15T09:43:20.000Z</time>
      </trkpt>
      <trkpt lat="47.91587" lon="6.82757">
        <ele>995.8</ele>
        <time>2026-08-15T09:43:22.000Z</time>
      </trkpt>
      <trkpt lat="47.9159" lon="6.82746">
        <ele>996.4</ele>
        <time>2026-08-15T09:52:01.000Z</time>
      </trkpt>
      <trkpt lat="47.9159" lon="6.82741">
        <ele>996.2</ele>
        <time>2026-08-15T09:52:03.000Z</time>
      </trkpt>
      <trkpt lat="47.91588" lon="6.82734">
        <ele>995.6</ele>
        <time>2026-08-15T09:52:06.000Z</time>
      </trkpt>
      <trkpt lat="47.91585" lon="6.8273">
        <ele>994.8</ele>
        <time>2026-08-15T09:52:08.000Z</time>
      </trkpt>
      <trkpt lat="47.91581" lon="6.82725">
        <ele>993.6</ele>
        <time>2026-08-15T09:52:10.000Z</time>
      </trkpt>
      <trkpt lat="47.91578" lon="6.8272">
        <ele>992.4</ele>
        <time>2026-08-15T09:52:11.000Z</time>
      </trkpt>
      <trkpt lat="47.91575" lon="6.82714">
        <ele>991</ele>
        <time>2026-08-15T09:52:12.000Z</time>
      </trkpt>
      <trkpt lat="47.91572" lon="6.82707">
        <ele>989.6</ele>
        <time>2026-08-15T09:52:13.000Z</time>
      </trkpt>
      <trkpt lat="47.91569" lon="6.827">
        <ele>988</ele>
        <time>2026-08-15T09:52:14.000Z</time>
      </trkpt>
      <trkpt lat="47.91565" lon="6.82684">
        <ele>986.4</ele>
        <time>2026-08-15T09:52:16.000Z</time>
      </trkpt>
      <trkpt lat="47.91563" lon="6.82677">
        <ele>985.8</ele>
        <time>2026-08-15T09:52:17.000Z</time>
      </trkpt>
      <trkpt lat="47.91561" lon="6.82669">
        <ele>985.2</ele>
        <time>2026-08-15T09:52:18.000Z</time>
      </trkpt>
      <trkpt lat="47.9156" lon="6.82662">
        <ele>984.8</ele>
        <time>2026-08-15T09:52:19.000Z</time>
      </trkpt>
      <trkpt lat="47.91558" lon="6.82649">
        <ele>984</ele>
        <time>2026-08-15T09:52:21.000Z</time>
      </trkpt>
      <trkpt lat="47.91557" lon="6.82644">
        <ele>983.6</ele>
        <time>2026-08-15T09:52:22.000Z</time>
      </trkpt>
      <trkpt lat="47.91556" lon="6.82638">
        <ele>983.4</ele>
        <time>2026-08-15T09:52:23.000Z</time>
      </trkpt>
      <trkpt lat="47.91556" lon="6.82634">
        <ele>983.2</ele>
        <time>2026-08-15T09:52:24.000Z</time>
      </trkpt>
      <trkpt lat="47.91556" lon="6.82629">
        <ele>982.8</ele>
        <time>2026-08-15T09:52:25.000Z</time>
      </trkpt>
      <trkpt lat="47.91556" lon="6.82623">
        <ele>982.6</ele>
        <time>2026-08-15T09:52:27.000Z</time>
      </trkpt>
      <trkpt lat="47.91557" lon="6.82622">
        <ele>982.4</ele>
        <time>2026-08-15T09:52:31.000Z</time>
      </trkpt>
      <trkpt lat="47.91556" lon="6.82622">
        <ele>982.4</ele>
        <time>2026-08-15T09:52:32.000Z</time>
      </trkpt>
      <trkpt lat="47.91555" lon="6.82604">
        <ele>981.6</ele>
        <time>2026-08-15T09:53:15.000Z</time>
      </trkpt>
      <trkpt lat="47.91554" lon="6.826">
        <ele>981.2</ele>
        <time>2026-08-15T09:53:16.000Z</time>
      </trkpt>
      <trkpt lat="47.91553" lon="6.82595">
        <ele>981.2</ele>
        <time>2026-08-15T09:53:17.000Z</time>
      </trkpt>
      <trkpt lat="47.9155" lon="6.82585">
        <ele>980.4</ele>
        <time>2026-08-15T09:53:19.000Z</time>
      </trkpt>
      <trkpt lat="47.91548" lon="6.82567">
        <ele>979</ele>
        <time>2026-08-15T09:53:22.000Z</time>
      </trkpt>
      <trkpt lat="47.91548" lon="6.82561">
        <ele>978.6</ele>
        <time>2026-08-15T09:53:23.000Z</time>
      </trkpt>
      <trkpt lat="47.91548" lon="6.82555">
        <ele>978</ele>
        <time>2026-08-15T09:53:24.000Z</time>
      </trkpt>
      <trkpt lat="47.91548" lon="6.82549">
        <ele>977.6</ele>
        <time>2026-08-15T09:53:25.000Z</time>
      </trkpt>
      <trkpt lat="47.91549" lon="6.82531">
        <ele>976.2</ele>
        <time>2026-08-15T09:53:28.000Z</time>
      </trkpt>
      <trkpt lat="47.91549" lon="6.82515">
        <ele>975</ele>
        <time>2026-08-15T09:53:31.000Z</time>
      </trkpt>
      <trkpt lat="47.91548" lon="6.82503">
        <ele>973.8</ele>
        <time>2026-08-15T09:53:33.000Z</time>
      </trkpt>
      <trkpt lat="47.91546" lon="6.8249">
        <ele>972.2</ele>
        <time>2026-08-15T09:53:35.000Z</time>
      </trkpt>
      <trkpt lat="47.91545" lon="6.82475">
        <ele>970.4</ele>
        <time>2026-08-15T09:53:37.000Z</time>
      </trkpt>
      <trkpt lat="47.91545" lon="6.82467">
        <ele>969.8</ele>
        <time>2026-08-15T09:53:38.000Z</time>
      </trkpt>
      <trkpt lat="47.91545" lon="6.82459">
        <ele>968.8</ele>
        <time>2026-08-15T09:53:39.000Z</time>
      </trkpt>
      <trkpt lat="47.91545" lon="6.8244">
        <ele>967.6</ele>
        <time>2026-08-15T09:53:41.000Z</time>
      </trkpt>
      <trkpt lat="47.91544" lon="6.8243">
        <ele>966.2</ele>
        <time>2026-08-15T09:53:42.000Z</time>
      </trkpt>
      <trkpt lat="47.91543" lon="6.82408">
        <ele>965</ele>
        <time>2026-08-15T09:53:44.000Z</time>
      </trkpt>
      <trkpt lat="47.91541" lon="6.82398">
        <ele>963.6</ele>
        <time>2026-08-15T09:53:45.000Z</time>
      </trkpt>
      <trkpt lat="47.91536" lon="6.82369">
        <ele>962.8</ele>
        <time>2026-08-15T09:53:48.000Z</time>
      </trkpt>
      <trkpt lat="47.91533" lon="6.82359">
        <ele>962.2</ele>
        <time>2026-08-15T09:53:49.000Z</time>
      </trkpt>
      <trkpt lat="47.91523" lon="6.82332">
        <ele>960.8</ele>
        <time>2026-08-15T09:53:52.000Z</time>
      </trkpt>
      <trkpt lat="47.91519" lon="6.82323">
        <ele>960.2</ele>
        <time>2026-08-15T09:53:53.000Z</time>
      </trkpt>
      <trkpt lat="47.91515" lon="6.82315">
        <ele>959.4</ele>
        <time>2026-08-15T09:53:54.000Z</time>
      </trkpt>
      <trkpt lat="47.91511" lon="6.82309">
        <ele>958.8</ele>
        <time>2026-08-15T09:53:55.000Z</time>
      </trkpt>
      <trkpt lat="47.91503" lon="6.82298">
        <ele>958.2</ele>
        <time>2026-08-15T09:53:57.000Z</time>
      </trkpt>
      <trkpt lat="47.91495" lon="6.82287">
        <ele>956.6</ele>
        <time>2026-08-15T09:53:59.000Z</time>
      </trkpt>
      <trkpt lat="47.91487" lon="6.82277">
        <ele>955.4</ele>
        <time>2026-08-15T09:54:01.000Z</time>
      </trkpt>
      <trkpt lat="47.9148" lon="6.82267">
        <ele>954.6</ele>
        <time>2026-08-15T09:54:03.000Z</time>
      </trkpt>
      <trkpt lat="47.91476" lon="6.82263">
        <ele>953.8</ele>
        <time>2026-08-15T09:54:04.000Z</time>
      </trkpt>
      <trkpt lat="47.91468" lon="6.82255">
        <ele>952.4</ele>
        <time>2026-08-15T09:54:06.000Z</time>
      </trkpt>
      <trkpt lat="47.91458" lon="6.82248">
        <ele>950.4</ele>
        <time>2026-08-15T09:54:08.000Z</time>
      </trkpt>
      <trkpt lat="47.91453" lon="6.82244">
        <ele>949.6</ele>
        <time>2026-08-15T09:54:09.000Z</time>
      </trkpt>
      <trkpt lat="47.91448" lon="6.82241">
        <ele>949</ele>
        <time>2026-08-15T09:54:10.000Z</time>
      </trkpt>
      <trkpt lat="47.91439" lon="6.82232">
        <ele>947</ele>
        <time>2026-08-15T09:54:12.000Z</time>
      </trkpt>
      <trkpt lat="47.91431" lon="6.8222">
        <ele>945.2</ele>
        <time>2026-08-15T09:54:14.000Z</time>
      </trkpt>
      <trkpt lat="47.91427" lon="6.82214">
        <ele>944.8</ele>
        <time>2026-08-15T09:54:15.000Z</time>
      </trkpt>
      <trkpt lat="47.91424" lon="6.82208">
        <ele>944.2</ele>
        <time>2026-08-15T09:54:16.000Z</time>
      </trkpt>
      <trkpt lat="47.91418" lon="6.82194">
        <ele>943</ele>
        <time>2026-08-15T09:54:18.000Z</time>
      </trkpt>
      <trkpt lat="47.91413" lon="6.82181">
        <ele>941.8</ele>
        <time>2026-08-15T09:54:20.000Z</time>
      </trkpt>
      <trkpt lat="47.91406" lon="6.8217">
        <ele>940.6</ele>
        <time>2026-08-15T09:54:22.000Z</time>
      </trkpt>
      <trkpt lat="47.914" lon="6.82164">
        <ele>939.2</ele>
        <time>2026-08-15T09:54:24.000Z</time>
      </trkpt>
      <trkpt lat="47.91393" lon="6.82164">
        <ele>938.2</ele>
        <time>2026-08-15T09:54:26.000Z</time>
      </trkpt>
      <trkpt lat="47.91388" lon="6.82164">
        <ele>937.6</ele>
        <time>2026-08-15T09:54:28.000Z</time>
      </trkpt>
      <trkpt lat="47.91386" lon="6.82164">
        <ele>937.2</ele>
        <time>2026-08-15T09:54:29.000Z</time>
      </trkpt>
      <trkpt lat="47.91386" lon="6.82163">
        <ele>936.6</ele>
        <time>2026-08-15T09:54:31.000Z</time>
      </trkpt>
      <trkpt lat="47.91385" lon="6.82163">
        <ele>936.4</ele>
        <time>2026-08-15T09:54:34.000Z</time>
      </trkpt>
      <trkpt lat="47.91375" lon="6.82165">
        <ele>933.2</ele>
        <time>2026-08-15T09:54:47.000Z</time>
      </trkpt>
      <trkpt lat="47.91374" lon="6.82167">
        <ele>932.6</ele>
        <time>2026-08-15T09:54:49.000Z</time>
      </trkpt>
      <trkpt lat="47.91372" lon="6.82168">
        <ele>932.2</ele>
        <time>2026-08-15T09:54:50.000Z</time>
      </trkpt>
      <trkpt lat="47.91372" lon="6.82167">
        <ele>931.8</ele>
        <time>2026-08-15T09:54:51.000Z</time>
      </trkpt>
      <trkpt lat="47.91371" lon="6.82166">
        <ele>931.2</ele>
        <time>2026-08-15T09:54:53.000Z</time>
      </trkpt>
      <trkpt lat="47.9137" lon="6.82165">
        <ele>931</ele>
        <time>2026-08-15T09:54:54.000Z</time>
      </trkpt>
      <trkpt lat="47.9137" lon="6.82165">
        <ele>930.8</ele>
        <time>2026-08-15T09:54:57.000Z</time>
      </trkpt>
      <trkpt lat="47.91363" lon="6.82153">
        <ele>929.6</ele>
        <time>2026-08-15T09:55:03.000Z</time>
      </trkpt>
      <trkpt lat="47.91364" lon="6.82143">
        <ele>928.4</ele>
        <time>2026-08-15T09:55:06.000Z</time>
      </trkpt>
      <trkpt lat="47.91365" lon="6.8214">
        <ele>928.2</ele>
        <time>2026-08-15T09:55:07.000Z</time>
      </trkpt>
      <trkpt lat="47.91366" lon="6.8213">
        <ele>927.4</ele>
        <time>2026-08-15T09:55:10.000Z</time>
      </trkpt>
      <trkpt lat="47.91367" lon="6.82119">
        <ele>926.6</ele>
        <time>2026-08-15T09:55:13.000Z</time>
      </trkpt>
      <trkpt lat="47.91367" lon="6.82116">
        <ele>926.4</ele>
        <time>2026-08-15T09:55:14.000Z</time>
      </trkpt>
      <trkpt lat="47.91369" lon="6.82108">
        <ele>925.4</ele>
        <time>2026-08-15T09:55:16.000Z</time>
      </trkpt>
      <trkpt lat="47.9137" lon="6.82098">
        <ele>923.8</ele>
        <time>2026-08-15T09:55:18.000Z</time>
      </trkpt>
      <trkpt lat="47.91371" lon="6.82093">
        <ele>923</ele>
        <time>2026-08-15T09:55:19.000Z</time>
      </trkpt>
      <trkpt lat="47.91372" lon="6.82087">
        <ele>922.4</ele>
        <time>2026-08-15T09:55:20.000Z</time>
      </trkpt>
      <trkpt lat="47.91374" lon="6.82075">
        <ele>920.6</ele>
        <time>2026-08-15T09:55:22.000Z</time>
      </trkpt>
      <trkpt lat="47.91377" lon="6.82062">
        <ele>918.8</ele>
        <time>2026-08-15T09:55:24.000Z</time>
      </trkpt>
      <trkpt lat="47.91378" lon="6.82055">
        <ele>917.6</ele>
        <time>2026-08-15T09:55:25.000Z</time>
      </trkpt>
      <trkpt lat="47.91379" lon="6.82048">
        <ele>916.4</ele>
        <time>2026-08-15T09:55:26.000Z</time>
      </trkpt>
      <trkpt lat="47.91379" lon="6.8204">
        <ele>915.4</ele>
        <time>2026-08-15T09:55:27.000Z</time>
      </trkpt>
      <trkpt lat="47.91381" lon="6.82026">
        <ele>913.6</ele>
        <time>2026-08-15T09:55:29.000Z</time>
      </trkpt>
      <trkpt lat="47.91385" lon="6.82012">
        <ele>911.8</ele>
        <time>2026-08-15T09:55:31.000Z</time>
      </trkpt>
      <trkpt lat="47.91388" lon="6.81997">
        <ele>910</ele>
        <time>2026-08-15T09:55:33.000Z</time>
      </trkpt>
      <trkpt lat="47.91392" lon="6.81983">
        <ele>908.2</ele>
        <time>2026-08-15T09:55:35.000Z</time>
      </trkpt>
      <trkpt lat="47.91394" lon="6.81978">
        <ele>907.6</ele>
        <time>2026-08-15T09:55:36.000Z</time>
      </trkpt>
      <trkpt lat="47.91395" lon="6.81972">
        <ele>907.2</ele>
        <time>2026-08-15T09:55:37.000Z</time>
      </trkpt>
      <trkpt lat="47.91397" lon="6.81967">
        <ele>906.8</ele>
        <time>2026-08-15T09:55:38.000Z</time>
      </trkpt>
      <trkpt lat="47.91398" lon="6.81961">
        <ele>906.6</ele>
        <time>2026-08-15T09:55:39.000Z</time>
      </trkpt>
      <trkpt lat="47.91402" lon="6.8195">
        <ele>905.6</ele>
        <time>2026-08-15T09:55:41.000Z</time>
      </trkpt>
      <trkpt lat="47.91407" lon="6.81938">
        <ele>904.6</ele>
        <time>2026-08-15T09:55:43.000Z</time>
      </trkpt>
      <trkpt lat="47.91413" lon="6.81926">
        <ele>903.4</ele>
        <time>2026-08-15T09:55:45.000Z</time>
      </trkpt>
      <trkpt lat="47.9142" lon="6.81914">
        <ele>902.4</ele>
        <time>2026-08-15T09:55:47.000Z</time>
      </trkpt>
      <trkpt lat="47.91423" lon="6.81908">
        <ele>902</ele>
        <time>2026-08-15T09:55:48.000Z</time>
      </trkpt>
      <trkpt lat="47.91425" lon="6.81901">
        <ele>901.4</ele>
        <time>2026-08-15T09:55:49.000Z</time>
      </trkpt>
      <trkpt lat="47.91427" lon="6.81894">
        <ele>900.6</ele>
        <time>2026-08-15T09:55:50.000Z</time>
      </trkpt>
      <trkpt lat="47.91433" lon="6.8188">
        <ele>899.2</ele>
        <time>2026-08-15T09:55:52.000Z</time>
      </trkpt>
      <trkpt lat="47.91438" lon="6.81866">
        <ele>897.6</ele>
        <time>2026-08-15T09:55:54.000Z</time>
      </trkpt>
      <trkpt lat="47.91443" lon="6.81852">
        <ele>896.2</ele>
        <time>2026-08-15T09:55:56.000Z</time>
      </trkpt>
      <trkpt lat="47.91449" lon="6.81839">
        <ele>895</ele>
        <time>2026-08-15T09:55:58.000Z</time>
      </trkpt>
      <trkpt lat="47.91454" lon="6.81825">
        <ele>893.6</ele>
        <time>2026-08-15T09:56:00.000Z</time>
      </trkpt>
      <trkpt lat="47.91459" lon="6.81814">
        <ele>892</ele>
        <time>2026-08-15T09:56:02.000Z</time>
      </trkpt>
      <trkpt lat="47.91462" lon="6.8181">
        <ele>891.6</ele>
        <time>2026-08-15T09:56:03.000Z</time>
      </trkpt>
      <trkpt lat="47.91466" lon="6.81807">
        <ele>891.4</ele>
        <time>2026-08-15T09:56:04.000Z</time>
      </trkpt>
      <trkpt lat="47.91469" lon="6.81804">
        <ele>891</ele>
        <time>2026-08-15T09:56:05.000Z</time>
      </trkpt>
      <trkpt lat="47.91477" lon="6.81797">
        <ele>890.2</ele>
        <time>2026-08-15T09:56:07.000Z</time>
      </trkpt>
      <trkpt lat="47.91481" lon="6.81794">
        <ele>889.8</ele>
        <time>2026-08-15T09:56:08.000Z</time>
      </trkpt>
      <trkpt lat="47.91485" lon="6.81791">
        <ele>889.4</ele>
        <time>2026-08-15T09:56:09.000Z</time>
      </trkpt>
      <trkpt lat="47.91489" lon="6.81789">
        <ele>889</ele>
        <time>2026-08-15T09:56:10.000Z</time>
      </trkpt>
      <trkpt lat="47.91493" lon="6.81787">
        <ele>888.6</ele>
        <time>2026-08-15T09:56:11.000Z</time>
      </trkpt>
      <trkpt lat="47.91501" lon="6.81783">
        <ele>887.6</ele>
        <time>2026-08-15T09:56:13.000Z</time>
      </trkpt>
      <trkpt lat="47.91509" lon="6.81778">
        <ele>886.6</ele>
        <time>2026-08-15T09:56:15.000Z</time>
      </trkpt>
      <trkpt lat="47.91516" lon="6.81775">
        <ele>885.6</ele>
        <time>2026-08-15T09:56:17.000Z</time>
      </trkpt>
      <trkpt lat="47.91519" lon="6.81777">
        <ele>885.4</ele>
        <time>2026-08-15T09:56:18.000Z</time>
      </trkpt>
      <trkpt lat="47.91525" lon="6.81782">
        <ele>885.6</ele>
        <time>2026-08-15T09:56:20.000Z</time>
      </trkpt>
      <trkpt lat="47.91533" lon="6.81786">
        <ele>886.4</ele>
        <time>2026-08-15T09:56:24.000Z</time>
      </trkpt>
      <trkpt lat="47.91538" lon="6.81787">
        <ele>886.2</ele>
        <time>2026-08-15T09:56:26.000Z</time>
      </trkpt>
      <trkpt lat="47.91544" lon="6.81794">
        <ele>884.8</ele>
        <time>2026-08-15T09:56:31.000Z</time>
      </trkpt>
      <trkpt lat="47.91544" lon="6.81794">
        <ele>884.6</ele>
        <time>2026-08-15T09:56:35.000Z</time>
      </trkpt>
      <trkpt lat="47.91544" lon="6.81794">
        <ele>884.6</ele>
        <time>2026-08-15T09:56:36.000Z</time>
      </trkpt>
      <trkpt lat="47.91553" lon="6.81795">
        <ele>883.2</ele>
        <time>2026-08-15T09:57:12.000Z</time>
      </trkpt>
      <trkpt lat="47.91557" lon="6.81798">
        <ele>882.8</ele>
        <time>2026-08-15T09:57:14.000Z</time>
      </trkpt>
      <trkpt lat="47.91566" lon="6.81804">
        <ele>882</ele>
        <time>2026-08-15T09:57:17.000Z</time>
      </trkpt>
      <trkpt lat="47.91571" lon="6.81809">
        <ele>881.2</ele>
        <time>2026-08-15T09:57:19.000Z</time>
      </trkpt>
      <trkpt lat="47.91574" lon="6.81812">
        <ele>881</ele>
        <time>2026-08-15T09:57:20.000Z</time>
      </trkpt>
      <trkpt lat="47.91585" lon="6.81823">
        <ele>879.6</ele>
        <time>2026-08-15T09:57:23.000Z</time>
      </trkpt>
      <trkpt lat="47.91593" lon="6.81831">
        <ele>878.6</ele>
        <time>2026-08-15T09:57:25.000Z</time>
      </trkpt>
      <trkpt lat="47.91596" lon="6.81834">
        <ele>878.2</ele>
        <time>2026-08-15T09:57:26.000Z</time>
      </trkpt>
      <trkpt lat="47.9161" lon="6.81845">
        <ele>876.8</ele>
        <time>2026-08-15T09:57:29.000Z</time>
      </trkpt>
      <trkpt lat="47.91615" lon="6.81849">
        <ele>876.4</ele>
        <time>2026-08-15T09:57:30.000Z</time>
      </trkpt>
      <trkpt lat="47.91624" lon="6.81855">
        <ele>875.6</ele>
        <time>2026-08-15T09:57:32.000Z</time>
      </trkpt>
      <trkpt lat="47.91636" lon="6.81866">
        <ele>874.2</ele>
        <time>2026-08-15T09:57:35.000Z</time>
      </trkpt>
      <trkpt lat="47.91644" lon="6.81873">
        <ele>873</ele>
        <time>2026-08-15T09:57:37.000Z</time>
      </trkpt>
      <trkpt lat="47.91655" lon="6.81884">
        <ele>871.6</ele>
        <time>2026-08-15T09:57:40.000Z</time>
      </trkpt>
      <trkpt lat="47.91664" lon="6.81894">
        <ele>870.2</ele>
        <time>2026-08-15T09:57:43.000Z</time>
      </trkpt>
      <trkpt lat="47.91667" lon="6.81898">
        <ele>869.8</ele>
        <time>2026-08-15T09:57:44.000Z</time>
      </trkpt>
      <trkpt lat="47.91673" lon="6.81906">
        <ele>869</ele>
        <time>2026-08-15T09:57:46.000Z</time>
      </trkpt>
      <trkpt lat="47.91681" lon="6.81919">
        <ele>868</ele>
        <time>2026-08-15T09:57:49.000Z</time>
      </trkpt>
      <trkpt lat="47.91686" lon="6.81929">
        <ele>867.2</ele>
        <time>2026-08-15T09:57:51.000Z</time>
      </trkpt>
      <trkpt lat="47.91689" lon="6.81934">
        <ele>866.8</ele>
        <time>2026-08-15T09:57:52.000Z</time>
      </trkpt>
      <trkpt lat="47.91697" lon="6.81948">
        <ele>865.8</ele>
        <time>2026-08-15T09:57:55.000Z</time>
      </trkpt>
      <trkpt lat="47.917" lon="6.81952">
        <ele>865.6</ele>
        <time>2026-08-15T09:57:56.000Z</time>
      </trkpt>
      <trkpt lat="47.91708" lon="6.81966">
        <ele>864.4</ele>
        <time>2026-08-15T09:57:59.000Z</time>
      </trkpt>
      <trkpt lat="47.91713" lon="6.81975">
        <ele>863.6</ele>
        <time>2026-08-15T09:58:01.000Z</time>
      </trkpt>
      <trkpt lat="47.91716" lon="6.81979">
        <ele>863</ele>
        <time>2026-08-15T09:58:02.000Z</time>
      </trkpt>
      <trkpt lat="47.91721" lon="6.81988">
        <ele>862</ele>
        <time>2026-08-15T09:58:04.000Z</time>
      </trkpt>
      <trkpt lat="47.91728" lon="6.81998">
        <ele>860.8</ele>
        <time>2026-08-15T09:58:06.000Z</time>
      </trkpt>
      <trkpt lat="47.91737" lon="6.82008">
        <ele>859.8</ele>
        <time>2026-08-15T09:58:08.000Z</time>
      </trkpt>
      <trkpt lat="47.91745" lon="6.82019">
        <ele>858</ele>
        <time>2026-08-15T09:58:10.000Z</time>
      </trkpt>
      <trkpt lat="47.91752" lon="6.82029">
        <ele>856.6</ele>
        <time>2026-08-15T09:58:12.000Z</time>
      </trkpt>
      <trkpt lat="47.91762" lon="6.82043">
        <ele>855.4</ele>
        <time>2026-08-15T09:58:15.000Z</time>
      </trkpt>
      <trkpt lat="47.91771" lon="6.82056">
        <ele>854.2</ele>
        <time>2026-08-15T09:58:18.000Z</time>
      </trkpt>
      <trkpt lat="47.91778" lon="6.82063">
        <ele>853.2</ele>
        <time>2026-08-15T09:58:20.000Z</time>
      </trkpt>
      <trkpt lat="47.91782" lon="6.82067">
        <ele>852.8</ele>
        <time>2026-08-15T09:58:21.000Z</time>
      </trkpt>
      <trkpt lat="47.91789" lon="6.82076">
        <ele>851.4</ele>
        <time>2026-08-15T09:58:23.000Z</time>
      </trkpt>
      <trkpt lat="47.91797" lon="6.82086">
        <ele>850.2</ele>
        <time>2026-08-15T09:58:25.000Z</time>
      </trkpt>
      <trkpt lat="47.91801" lon="6.82091">
        <ele>849.6</ele>
        <time>2026-08-15T09:58:26.000Z</time>
      </trkpt>
      <trkpt lat="47.91806" lon="6.82095">
        <ele>849</ele>
        <time>2026-08-15T09:58:27.000Z</time>
      </trkpt>
      <trkpt lat="47.91814" lon="6.82102">
        <ele>847.8</ele>
        <time>2026-08-15T09:58:29.000Z</time>
      </trkpt>
      <trkpt lat="47.91822" lon="6.8211">
        <ele>846.8</ele>
        <time>2026-08-15T09:58:31.000Z</time>
      </trkpt>
      <trkpt lat="47.91826" lon="6.82115">
        <ele>846.2</ele>
        <time>2026-08-15T09:58:32.000Z</time>
      </trkpt>
      <trkpt lat="47.9183" lon="6.8212">
        <ele>845.8</ele>
        <time>2026-08-15T09:58:33.000Z</time>
      </trkpt>
      <trkpt lat="47.91838" lon="6.82137">
        <ele>844.6</ele>
        <time>2026-08-15T09:58:36.000Z</time>
      </trkpt>
      <trkpt lat="47.9184" lon="6.82141">
        <ele>844.4</ele>
        <time>2026-08-15T09:58:37.000Z</time>
      </trkpt>
      <trkpt lat="47.91842" lon="6.82144">
        <ele>844</ele>
        <time>2026-08-15T09:58:38.000Z</time>
      </trkpt>
      <trkpt lat="47.91846" lon="6.8215">
        <ele>843.6</ele>
        <time>2026-08-15T09:58:40.000Z</time>
      </trkpt>
      <trkpt lat="47.91848" lon="6.82152">
        <ele>843.4</ele>
        <time>2026-08-15T09:58:41.000Z</time>
      </trkpt>
      <trkpt lat="47.91851" lon="6.82152">
        <ele>843.2</ele>
        <time>2026-08-15T09:58:43.000Z</time>
      </trkpt>
      <trkpt lat="47.91852" lon="6.8215">
        <ele>843</ele>
        <time>2026-08-15T09:58:44.000Z</time>
      </trkpt>
      <trkpt lat="47.91849" lon="6.82141">
        <ele>842.6</ele>
        <time>2026-08-15T09:58:47.000Z</time>
      </trkpt>
      <trkpt lat="47.91848" lon="6.82138">
        <ele>842.2</ele>
        <time>2026-08-15T09:58:48.000Z</time>
      </trkpt>
      <trkpt lat="47.91845" lon="6.82127">
        <ele>841.2</ele>
        <time>2026-08-15T09:58:50.000Z</time>
      </trkpt>
      <trkpt lat="47.91844" lon="6.8212">
        <ele>840.8</ele>
        <time>2026-08-15T09:58:51.000Z</time>
      </trkpt>
      <trkpt lat="47.91841" lon="6.82105">
        <ele>839.4</ele>
        <time>2026-08-15T09:58:53.000Z</time>
      </trkpt>
      <trkpt lat="47.91837" lon="6.82088">
        <ele>838</ele>
        <time>2026-08-15T09:58:55.000Z</time>
      </trkpt>
      <trkpt lat="47.91835" lon="6.82078">
        <ele>837.2</ele>
        <time>2026-08-15T09:58:56.000Z</time>
      </trkpt>
      <trkpt lat="47.91833" lon="6.82069">
        <ele>836.4</ele>
        <time>2026-08-15T09:58:57.000Z</time>
      </trkpt>
      <trkpt lat="47.91828" lon="6.82048">
        <ele>834.8</ele>
        <time>2026-08-15T09:58:59.000Z</time>
      </trkpt>
      <trkpt lat="47.91826" lon="6.82037">
        <ele>834</ele>
        <time>2026-08-15T09:59:00.000Z</time>
      </trkpt>
      <trkpt lat="47.91824" lon="6.82027">
        <ele>833</ele>
        <time>2026-08-15T09:59:01.000Z</time>
      </trkpt>
      <trkpt lat="47.91821" lon="6.82016">
        <ele>832.2</ele>
        <time>2026-08-15T09:59:02.000Z</time>
      </trkpt>
      <trkpt lat="47.91819" lon="6.82005">
        <ele>831.6</ele>
        <time>2026-08-15T09:59:03.000Z</time>
      </trkpt>
      <trkpt lat="47.91813" lon="6.81984">
        <ele>829.6</ele>
        <time>2026-08-15T09:59:05.000Z</time>
      </trkpt>
      <trkpt lat="47.91811" lon="6.81973">
        <ele>829</ele>
        <time>2026-08-15T09:59:06.000Z</time>
      </trkpt>
      <trkpt lat="47.91808" lon="6.81961">
        <ele>828.4</ele>
        <time>2026-08-15T09:59:07.000Z</time>
      </trkpt>
      <trkpt lat="47.91804" lon="6.81937">
        <ele>827.2</ele>
        <time>2026-08-15T09:59:09.000Z</time>
      </trkpt>
      <trkpt lat="47.91801" lon="6.81913">
        <ele>826.2</ele>
        <time>2026-08-15T09:59:11.000Z</time>
      </trkpt>
      <trkpt lat="47.91798" lon="6.8189">
        <ele>824.8</ele>
        <time>2026-08-15T09:59:13.000Z</time>
      </trkpt>
      <trkpt lat="47.91795" lon="6.81868">
        <ele>823.6</ele>
        <time>2026-08-15T09:59:15.000Z</time>
      </trkpt>
      <trkpt lat="47.91793" lon="6.81857">
        <ele>823.2</ele>
        <time>2026-08-15T09:59:16.000Z</time>
      </trkpt>
      <trkpt lat="47.91791" lon="6.81846">
        <ele>822.6</ele>
        <time>2026-08-15T09:59:17.000Z</time>
      </trkpt>
      <trkpt lat="47.91783" lon="6.81815">
        <ele>821.2</ele>
        <time>2026-08-15T09:59:20.000Z</time>
      </trkpt>
      <trkpt lat="47.91779" lon="6.81806">
        <ele>820.6</ele>
        <time>2026-08-15T09:59:21.000Z</time>
      </trkpt>
      <trkpt lat="47.91776" lon="6.81796">
        <ele>820</ele>
        <time>2026-08-15T09:59:22.000Z</time>
      </trkpt>
      <trkpt lat="47.91771" lon="6.81775">
        <ele>818.8</ele>
        <time>2026-08-15T09:59:24.000Z</time>
      </trkpt>
      <trkpt lat="47.91767" lon="6.81754">
        <ele>817.6</ele>
        <time>2026-08-15T09:59:26.000Z</time>
      </trkpt>
      <trkpt lat="47.91766" lon="6.81744">
        <ele>817</ele>
        <time>2026-08-15T09:59:27.000Z</time>
      </trkpt>
      <trkpt lat="47.91764" lon="6.81734">
        <ele>816</ele>
        <time>2026-08-15T09:59:28.000Z</time>
      </trkpt>
      <trkpt lat="47.91759" lon="6.81713">
        <ele>814</ele>
        <time>2026-08-15T09:59:30.000Z</time>
      </trkpt>
      <trkpt lat="47.91757" lon="6.81702">
        <ele>813</ele>
        <time>2026-08-15T09:59:31.000Z</time>
      </trkpt>
      <trkpt lat="47.91755" lon="6.81692">
        <ele>812</ele>
        <time>2026-08-15T09:59:32.000Z</time>
      </trkpt>
      <trkpt lat="47.9175" lon="6.81671">
        <ele>810.2</ele>
        <time>2026-08-15T09:59:34.000Z</time>
      </trkpt>
      <trkpt lat="47.91744" lon="6.8165">
        <ele>808.2</ele>
        <time>2026-08-15T09:59:36.000Z</time>
      </trkpt>
      <trkpt lat="47.9174" lon="6.81628">
        <ele>806.4</ele>
        <time>2026-08-15T09:59:38.000Z</time>
      </trkpt>
      <trkpt lat="47.91738" lon="6.81607">
        <ele>804.8</ele>
        <time>2026-08-15T09:59:40.000Z</time>
      </trkpt>
      <trkpt lat="47.91735" lon="6.81586">
        <ele>803.2</ele>
        <time>2026-08-15T09:59:42.000Z</time>
      </trkpt>
      <trkpt lat="47.91732" lon="6.81565">
        <ele>801.4</ele>
        <time>2026-08-15T09:59:44.000Z</time>
      </trkpt>
      <trkpt lat="47.91728" lon="6.81543">
        <ele>799.6</ele>
        <time>2026-08-15T09:59:46.000Z</time>
      </trkpt>
      <trkpt lat="47.91725" lon="6.81533">
        <ele>798.8</ele>
        <time>2026-08-15T09:59:47.000Z</time>
      </trkpt>
      <trkpt lat="47.91722" lon="6.81523">
        <ele>798.2</ele>
        <time>2026-08-15T09:59:48.000Z</time>
      </trkpt>
      <trkpt lat="47.91716" lon="6.81503">
        <ele>796.6</ele>
        <time>2026-08-15T09:59:50.000Z</time>
      </trkpt>
      <trkpt lat="47.91712" lon="6.81484">
        <ele>795</ele>
        <time>2026-08-15T09:59:52.000Z</time>
      </trkpt>
      <trkpt lat="47.9171" lon="6.81474">
        <ele>794.2</ele>
        <time>2026-08-15T09:59:53.000Z</time>
      </trkpt>
      <trkpt lat="47.91709" lon="6.81463">
        <ele>793.2</ele>
        <time>2026-08-15T09:59:54.000Z</time>
      </trkpt>
      <trkpt lat="47.91709" lon="6.81452">
        <ele>792.2</ele>
        <time>2026-08-15T09:59:55.000Z</time>
      </trkpt>
      <trkpt lat="47.91709" lon="6.81441">
        <ele>791</ele>
        <time>2026-08-15T09:59:56.000Z</time>
      </trkpt>
      <trkpt lat="47.91708" lon="6.81429">
        <ele>789.8</ele>
        <time>2026-08-15T09:59:57.000Z</time>
      </trkpt>
      <trkpt lat="47.91708" lon="6.81417">
        <ele>788.4</ele>
        <time>2026-08-15T09:59:58.000Z</time>
      </trkpt>
      <trkpt lat="47.91708" lon="6.81406">
        <ele>787.4</ele>
        <time>2026-08-15T09:59:59.000Z</time>
      </trkpt>
      <trkpt lat="47.91709" lon="6.81395">
        <ele>786.4</ele>
        <time>2026-08-15T10:00:00.000Z</time>
      </trkpt>
      <trkpt lat="47.91712" lon="6.81374">
        <ele>784.8</ele>
        <time>2026-08-15T10:00:02.000Z</time>
      </trkpt>
      <trkpt lat="47.91714" lon="6.81364">
        <ele>784</ele>
        <time>2026-08-15T10:00:03.000Z</time>
      </trkpt>
      <trkpt lat="47.91715" lon="6.81353">
        <ele>783</ele>
        <time>2026-08-15T10:00:04.000Z</time>
      </trkpt>
      <trkpt lat="47.91717" lon="6.81331">
        <ele>781.2</ele>
        <time>2026-08-15T10:00:06.000Z</time>
      </trkpt>
      <trkpt lat="47.91718" lon="6.81311">
        <ele>779.6</ele>
        <time>2026-08-15T10:00:08.000Z</time>
      </trkpt>
      <trkpt lat="47.91718" lon="6.81293">
        <ele>778.4</ele>
        <time>2026-08-15T10:00:10.000Z</time>
      </trkpt>
      <trkpt lat="47.91719" lon="6.81277">
        <ele>777.2</ele>
        <time>2026-08-15T10:00:12.000Z</time>
      </trkpt>
      <trkpt lat="47.9172" lon="6.81263">
        <ele>775.8</ele>
        <time>2026-08-15T10:00:14.000Z</time>
      </trkpt>
      <trkpt lat="47.91722" lon="6.81256">
        <ele>775.4</ele>
        <time>2026-08-15T10:00:15.000Z</time>
      </trkpt>
      <trkpt lat="47.91725" lon="6.8125">
        <ele>774.6</ele>
        <time>2026-08-15T10:00:16.000Z</time>
      </trkpt>
      <trkpt lat="47.91728" lon="6.81246">
        <ele>774</ele>
        <time>2026-08-15T10:00:17.000Z</time>
      </trkpt>
      <trkpt lat="47.91733" lon="6.81244">
        <ele>773.4</ele>
        <time>2026-08-15T10:00:18.000Z</time>
      </trkpt>
      <trkpt lat="47.91739" lon="6.81244">
        <ele>772.8</ele>
        <time>2026-08-15T10:00:19.000Z</time>
      </trkpt>
      <trkpt lat="47.91744" lon="6.81247">
        <ele>772</ele>
        <time>2026-08-15T10:00:20.000Z</time>
      </trkpt>
      <trkpt lat="47.91748" lon="6.81253">
        <ele>771.4</ele>
        <time>2026-08-15T10:00:21.000Z</time>
      </trkpt>
      <trkpt lat="47.91752" lon="6.81259">
        <ele>770.8</ele>
        <time>2026-08-15T10:00:22.000Z</time>
      </trkpt>
      <trkpt lat="47.91755" lon="6.81265">
        <ele>770.2</ele>
        <time>2026-08-15T10:00:23.000Z</time>
      </trkpt>
      <trkpt lat="47.91759" lon="6.81272">
        <ele>769.6</ele>
        <time>2026-08-15T10:00:24.000Z</time>
      </trkpt>
      <trkpt lat="47.91765" lon="6.81285">
        <ele>768.4</ele>
        <time>2026-08-15T10:00:26.000Z</time>
      </trkpt>
      <trkpt lat="47.91772" lon="6.81298">
        <ele>767.2</ele>
        <time>2026-08-15T10:00:28.000Z</time>
      </trkpt>
      <trkpt lat="47.91778" lon="6.8131">
        <ele>766.2</ele>
        <time>2026-08-15T10:00:30.000Z</time>
      </trkpt>
      <trkpt lat="47.91781" lon="6.81316">
        <ele>765.8</ele>
        <time>2026-08-15T10:00:31.000Z</time>
      </trkpt>
      <trkpt lat="47.91792" lon="6.81331">
        <ele>764.4</ele>
        <time>2026-08-15T10:00:34.000Z</time>
      </trkpt>
      <trkpt lat="47.91796" lon="6.81336">
        <ele>764</ele>
        <time>2026-08-15T10:00:35.000Z</time>
      </trkpt>
      <trkpt lat="47.91804" lon="6.81343">
        <ele>763</ele>
        <time>2026-08-15T10:00:37.000Z</time>
      </trkpt>
      <trkpt lat="47.91813" lon="6.81352">
        <ele>762</ele>
        <time>2026-08-15T10:00:39.000Z</time>
      </trkpt>
      <trkpt lat="47.91824" lon="6.81363">
        <ele>760.4</ele>
        <time>2026-08-15T10:00:41.000Z</time>
      </trkpt>
      <trkpt lat="47.91829" lon="6.81369">
        <ele>759.6</ele>
        <time>2026-08-15T10:00:42.000Z</time>
      </trkpt>
      <trkpt lat="47.91834" lon="6.81375">
        <ele>758.8</ele>
        <time>2026-08-15T10:00:43.000Z</time>
      </trkpt>
      <trkpt lat="47.91843" lon="6.8139">
        <ele>757.4</ele>
        <time>2026-08-15T10:00:45.000Z</time>
      </trkpt>
      <trkpt lat="47.91852" lon="6.81405">
        <ele>756</ele>
        <time>2026-08-15T10:00:47.000Z</time>
      </trkpt>
      <trkpt lat="47.91856" lon="6.81413">
        <ele>755.4</ele>
        <time>2026-08-15T10:00:48.000Z</time>
      </trkpt>
      <trkpt lat="47.9186" lon="6.81421">
        <ele>754.6</ele>
        <time>2026-08-15T10:00:49.000Z</time>
      </trkpt>
      <trkpt lat="47.91868" lon="6.81435">
        <ele>753.2</ele>
        <time>2026-08-15T10:00:51.000Z</time>
      </trkpt>
      <trkpt lat="47.91876" lon="6.81448">
        <ele>751.8</ele>
        <time>2026-08-15T10:00:53.000Z</time>
      </trkpt>
      <trkpt lat="47.91883" lon="6.81461">
        <ele>751</ele>
        <time>2026-08-15T10:00:55.000Z</time>
      </trkpt>
      <trkpt lat="47.91886" lon="6.81466">
        <ele>750.6</ele>
        <time>2026-08-15T10:00:56.000Z</time>
      </trkpt>
      <trkpt lat="47.91894" lon="6.81478">
        <ele>749.8</ele>
        <time>2026-08-15T10:00:59.000Z</time>
      </trkpt>
      <trkpt lat="47.91896" lon="6.81477">
        <ele>749.4</ele>
        <time>2026-08-15T10:01:00.000Z</time>
      </trkpt>
      <trkpt lat="47.91898" lon="6.81475">
        <ele>749.2</ele>
        <time>2026-08-15T10:01:01.000Z</time>
      </trkpt>
      <trkpt lat="47.91898" lon="6.81469">
        <ele>749</ele>
        <time>2026-08-15T10:01:03.000Z</time>
      </trkpt>
      <trkpt lat="47.91895" lon="6.81463">
        <ele>748.8</ele>
        <time>2026-08-15T10:01:05.000Z</time>
      </trkpt>
      <trkpt lat="47.91891" lon="6.81448">
        <ele>748.4</ele>
        <time>2026-08-15T10:01:09.000Z</time>
      </trkpt>
      <trkpt lat="47.91886" lon="6.81421">
        <ele>748.2</ele>
        <time>2026-08-15T10:01:14.000Z</time>
      </trkpt>
      <trkpt lat="47.91882" lon="6.81406">
        <ele>748.2</ele>
        <time>2026-08-15T10:01:17.000Z</time>
      </trkpt>
      <trkpt lat="47.91877" lon="6.8139">
        <ele>748.2</ele>
        <time>2026-08-15T10:01:20.000Z</time>
      </trkpt>
      <trkpt lat="47.91869" lon="6.81367">
        <ele>747.6</ele>
        <time>2026-08-15T10:01:24.000Z</time>
      </trkpt>
      <trkpt lat="47.91867" lon="6.81361">
        <ele>747.4</ele>
        <time>2026-08-15T10:01:25.000Z</time>
      </trkpt>
      <trkpt lat="47.91863" lon="6.81347">
        <ele>746.8</ele>
        <time>2026-08-15T10:01:27.000Z</time>
      </trkpt>
      <trkpt lat="47.91861" lon="6.81332">
        <ele>746.2</ele>
        <time>2026-08-15T10:01:29.000Z</time>
      </trkpt>
      <trkpt lat="47.91859" lon="6.81323">
        <ele>745.8</ele>
        <time>2026-08-15T10:01:30.000Z</time>
      </trkpt>
      <trkpt lat="47.91859" lon="6.81315">
        <ele>745.4</ele>
        <time>2026-08-15T10:01:31.000Z</time>
      </trkpt>
      <trkpt lat="47.91859" lon="6.81306">
        <ele>745</ele>
        <time>2026-08-15T10:01:32.000Z</time>
      </trkpt>
      <trkpt lat="47.91857" lon="6.81279">
        <ele>743.6</ele>
        <time>2026-08-15T10:01:35.000Z</time>
      </trkpt>
      <trkpt lat="47.91854" lon="6.81251">
        <ele>742.4</ele>
        <time>2026-08-15T10:01:38.000Z</time>
      </trkpt>
      <trkpt lat="47.91851" lon="6.81221">
        <ele>741.2</ele>
        <time>2026-08-15T10:01:41.000Z</time>
      </trkpt>
      <trkpt lat="47.91847" lon="6.81192">
        <ele>740.4</ele>
        <time>2026-08-15T10:01:44.000Z</time>
      </trkpt>
      <trkpt lat="47.91846" lon="6.81183">
        <ele>740.2</ele>
        <time>2026-08-15T10:01:45.000Z</time>
      </trkpt>
      <trkpt lat="47.91839" lon="6.81154">
        <ele>739.6</ele>
        <time>2026-08-15T10:01:48.000Z</time>
      </trkpt>
      <trkpt lat="47.91831" lon="6.81125">
        <ele>739.2</ele>
        <time>2026-08-15T10:01:51.000Z</time>
      </trkpt>
      <trkpt lat="47.91829" lon="6.81115">
        <ele>739.2</ele>
        <time>2026-08-15T10:01:52.000Z</time>
      </trkpt>
      <trkpt lat="47.9182" lon="6.81085">
        <ele>738.8</ele>
        <time>2026-08-15T10:01:55.000Z</time>
      </trkpt>
      <trkpt lat="47.91809" lon="6.81057">
        <ele>738.8</ele>
        <time>2026-08-15T10:01:58.000Z</time>
      </trkpt>
      <trkpt lat="47.91797" lon="6.81032">
        <ele>738.6</ele>
        <time>2026-08-15T10:02:01.000Z</time>
      </trkpt>
      <trkpt lat="47.91782" lon="6.81009">
        <ele>738.2</ele>
        <time>2026-08-15T10:02:04.000Z</time>
      </trkpt>
      <trkpt lat="47.91773" lon="6.80994">
        <ele>738</ele>
        <time>2026-08-15T10:02:06.000Z</time>
      </trkpt>
      <trkpt lat="47.91764" lon="6.8098">
        <ele>737.8</ele>
        <time>2026-08-15T10:02:08.000Z</time>
      </trkpt>
      <trkpt lat="47.91758" lon="6.80964">
        <ele>737.6</ele>
        <time>2026-08-15T10:02:10.000Z</time>
      </trkpt>
      <trkpt lat="47.91748" lon="6.8094">
        <ele>737</ele>
        <time>2026-08-15T10:02:13.000Z</time>
      </trkpt>
      <trkpt lat="47.91739" lon="6.80926">
        <ele>735.8</ele>
        <time>2026-08-15T10:02:15.000Z</time>
      </trkpt>
      <trkpt lat="47.91729" lon="6.80912">
        <ele>734.4</ele>
        <time>2026-08-15T10:02:17.000Z</time>
      </trkpt>
      <trkpt lat="47.91724" lon="6.80906">
        <ele>733.6</ele>
        <time>2026-08-15T10:02:18.000Z</time>
      </trkpt>
      <trkpt lat="47.91719" lon="6.80901">
        <ele>733.2</ele>
        <time>2026-08-15T10:02:19.000Z</time>
      </trkpt>
      <trkpt lat="47.91704" lon="6.80889">
        <ele>731.8</ele>
        <time>2026-08-15T10:02:22.000Z</time>
      </trkpt>
      <trkpt lat="47.917" lon="6.80886">
        <ele>731.6</ele>
        <time>2026-08-15T10:02:23.000Z</time>
      </trkpt>
      <trkpt lat="47.91693" lon="6.80878">
        <ele>730.8</ele>
        <time>2026-08-15T10:02:25.000Z</time>
      </trkpt>
      <trkpt lat="47.91685" lon="6.80866">
        <ele>729.6</ele>
        <time>2026-08-15T10:02:27.000Z</time>
      </trkpt>
      <trkpt lat="47.91678" lon="6.8085">
        <ele>728.6</ele>
        <time>2026-08-15T10:02:29.000Z</time>
      </trkpt>
      <trkpt lat="47.91667" lon="6.8083">
        <ele>728</ele>
        <time>2026-08-15T10:02:32.000Z</time>
      </trkpt>
      <trkpt lat="47.9166" lon="6.80816">
        <ele>727.4</ele>
        <time>2026-08-15T10:02:34.000Z</time>
      </trkpt>
      <trkpt lat="47.91649" lon="6.80794">
        <ele>726.4</ele>
        <time>2026-08-15T10:02:37.000Z</time>
      </trkpt>
      <trkpt lat="47.91643" lon="6.80779">
        <ele>725.6</ele>
        <time>2026-08-15T10:02:39.000Z</time>
      </trkpt>
      <trkpt lat="47.91639" lon="6.80772">
        <ele>725.2</ele>
        <time>2026-08-15T10:02:40.000Z</time>
      </trkpt>
      <trkpt lat="47.91626" lon="6.80742">
        <ele>723.4</ele>
        <time>2026-08-15T10:02:44.000Z</time>
      </trkpt>
      <trkpt lat="47.91617" lon="6.80722">
        <ele>722.4</ele>
        <time>2026-08-15T10:02:47.000Z</time>
      </trkpt>
      <trkpt lat="47.91608" lon="6.80705">
        <ele>722</ele>
        <time>2026-08-15T10:02:51.000Z</time>
      </trkpt>
      <trkpt lat="47.91607" lon="6.80702">
        <ele>721.8</ele>
        <time>2026-08-15T10:02:53.000Z</time>
      </trkpt>
      <trkpt lat="47.91607" lon="6.80702">
        <ele>722</ele>
        <time>2026-08-15T10:02:54.000Z</time>
      </trkpt>
      <trkpt lat="47.91607" lon="6.80702">
        <ele>722</ele>
        <time>2026-08-15T10:02:56.000Z</time>
      </trkpt>
      <trkpt lat="47.91607" lon="6.80702">
        <ele>721.8</ele>
        <time>2026-08-15T10:02:57.000Z</time>
      </trkpt>
      <trkpt lat="47.91601" lon="6.80693">
        <ele>720.8</ele>
        <time>2026-08-15T10:03:07.000Z</time>
      </trkpt>
      <trkpt lat="47.91598" lon="6.8069">
        <ele>720.4</ele>
        <time>2026-08-15T10:03:08.000Z</time>
      </trkpt>
      <trkpt lat="47.91596" lon="6.80687">
        <ele>720</ele>
        <time>2026-08-15T10:03:09.000Z</time>
      </trkpt>
      <trkpt lat="47.91593" lon="6.80683">
        <ele>719.6</ele>
        <time>2026-08-15T10:03:10.000Z</time>
      </trkpt>
      <trkpt lat="47.91587" lon="6.80675">
        <ele>718.2</ele>
        <time>2026-08-15T10:03:12.000Z</time>
      </trkpt>
      <trkpt lat="47.9158" lon="6.80666">
        <ele>717.2</ele>
        <time>2026-08-15T10:03:14.000Z</time>
      </trkpt>
      <trkpt lat="47.91574" lon="6.80658">
        <ele>715.8</ele>
        <time>2026-08-15T10:03:16.000Z</time>
      </trkpt>
      <trkpt lat="47.91567" lon="6.80649">
        <ele>714.4</ele>
        <time>2026-08-15T10:03:18.000Z</time>
      </trkpt>
      <trkpt lat="47.91559" lon="6.8064">
        <ele>713.2</ele>
        <time>2026-08-15T10:03:20.000Z</time>
      </trkpt>
      <trkpt lat="47.91551" lon="6.8063">
        <ele>711.6</ele>
        <time>2026-08-15T10:03:22.000Z</time>
      </trkpt>
      <trkpt lat="47.91543" lon="6.80617">
        <ele>710</ele>
        <time>2026-08-15T10:03:24.000Z</time>
      </trkpt>
      <trkpt lat="47.91532" lon="6.80591">
        <ele>708.6</ele>
        <time>2026-08-15T10:03:27.000Z</time>
      </trkpt>
      <trkpt lat="47.91521" lon="6.80565">
        <ele>707.8</ele>
        <time>2026-08-15T10:03:30.000Z</time>
      </trkpt>
      <trkpt lat="47.91509" lon="6.80542">
        <ele>707.6</ele>
        <time>2026-08-15T10:03:33.000Z</time>
      </trkpt>
      <trkpt lat="47.91505" lon="6.80535">
        <ele>707.8</ele>
        <time>2026-08-15T10:03:34.000Z</time>
      </trkpt>
      <trkpt lat="47.91491" lon="6.8051">
        <ele>708.4</ele>
        <time>2026-08-15T10:03:38.000Z</time>
      </trkpt>
      <trkpt lat="47.91485" lon="6.80497">
        <ele>708</ele>
        <time>2026-08-15T10:03:40.000Z</time>
      </trkpt>
      <trkpt lat="47.9148" lon="6.80483">
        <ele>707.6</ele>
        <time>2026-08-15T10:03:42.000Z</time>
      </trkpt>
      <trkpt lat="47.91469" lon="6.80456">
        <ele>706.4</ele>
        <time>2026-08-15T10:03:46.000Z</time>
      </trkpt>
      <trkpt lat="47.91465" lon="6.80443">
        <ele>705.8</ele>
        <time>2026-08-15T10:03:48.000Z</time>
      </trkpt>
      <trkpt lat="47.91462" lon="6.80433">
        <ele>705.4</ele>
        <time>2026-08-15T10:03:50.000Z</time>
      </trkpt>
      <trkpt lat="47.91454" lon="6.80414">
        <ele>705.4</ele>
        <time>2026-08-15T10:03:54.000Z</time>
      </trkpt>
      <trkpt lat="47.91445" lon="6.80397">
        <ele>706.4</ele>
        <time>2026-08-15T10:03:59.000Z</time>
      </trkpt>
      <trkpt lat="47.91444" lon="6.80394">
        <ele>706.6</ele>
        <time>2026-08-15T10:04:00.000Z</time>
      </trkpt>
      <trkpt lat="47.91444" lon="6.80386">
        <ele>707</ele>
        <time>2026-08-15T10:04:03.000Z</time>
      </trkpt>
      <trkpt lat="47.91444" lon="6.80382">
        <ele>707.2</ele>
        <time>2026-08-15T10:04:05.000Z</time>
      </trkpt>
      <trkpt lat="47.91445" lon="6.80382">
        <ele>707</ele>
        <time>2026-08-15T10:04:09.000Z</time>
      </trkpt>
      <trkpt lat="47.91445" lon="6.80382">
        <ele>706.8</ele>
        <time>2026-08-15T10:04:10.000Z</time>
      </trkpt>
      <trkpt lat="47.91443" lon="6.80374">
        <ele>706.8</ele>
        <time>2026-08-15T10:04:19.000Z</time>
      </trkpt>
      <trkpt lat="47.91443" lon="6.80374">
        <ele>706.6</ele>
        <time>2026-08-15T10:04:22.000Z</time>
      </trkpt>
      <trkpt lat="47.91449" lon="6.80372">
        <ele>705.6</ele>
        <time>2026-08-15T10:05:10.000Z</time>
      </trkpt>
      <trkpt lat="47.9145" lon="6.80374">
        <ele>705.4</ele>
        <time>2026-08-15T10:05:11.000Z</time>
      </trkpt>
      <trkpt lat="47.9145" lon="6.80376">
        <ele>705.4</ele>
        <time>2026-08-15T10:05:12.000Z</time>
      </trkpt>
      <trkpt lat="47.91453" lon="6.80392">
        <ele>705</ele>
        <time>2026-08-15T10:05:18.000Z</time>
      </trkpt>
      <trkpt lat="47.91454" lon="6.80401">
        <ele>705.4</ele>
        <time>2026-08-15T10:05:22.000Z</time>
      </trkpt>
      <trkpt lat="47.91453" lon="6.80401">
        <ele>705.4</ele>
        <time>2026-08-15T10:05:23.000Z</time>
      </trkpt>
      <trkpt lat="47.91448" lon="6.80398">
        <ele>705</ele>
        <time>2026-08-15T10:05:27.000Z</time>
      </trkpt>
      <trkpt lat="47.91446" lon="6.80403">
        <ele>704.6</ele>
        <time>2026-08-15T10:05:29.000Z</time>
      </trkpt>
      <trkpt lat="47.91448" lon="6.80408">
        <ele>704.2</ele>
        <time>2026-08-15T10:05:31.000Z</time>
      </trkpt>
      <trkpt lat="47.91453" lon="6.8041">
        <ele>704.2</ele>
        <time>2026-08-15T10:05:33.000Z</time>
      </trkpt>
      <trkpt lat="47.91455" lon="6.80408">
        <ele>704.2</ele>
        <time>2026-08-15T10:05:34.000Z</time>
      </trkpt>
      <trkpt lat="47.91465" lon="6.80403">
        <ele>703.8</ele>
        <time>2026-08-15T10:05:39.000Z</time>
      </trkpt>
      <trkpt lat="47.91469" lon="6.80398">
        <ele>703</ele>
        <time>2026-08-15T10:05:41.000Z</time>
      </trkpt>
      <trkpt lat="47.91475" lon="6.80389">
        <ele>701.8</ele>
        <time>2026-08-15T10:05:44.000Z</time>
      </trkpt>
      <trkpt lat="47.91479" lon="6.80382">
        <ele>701.2</ele>
        <time>2026-08-15T10:05:46.000Z</time>
      </trkpt>
      <trkpt lat="47.91482" lon="6.8038">
        <ele>700.8</ele>
        <time>2026-08-15T10:05:47.000Z</time>
      </trkpt>
      <trkpt lat="47.91485" lon="6.8038">
        <ele>700.2</ele>
        <time>2026-08-15T10:05:48.000Z</time>
      </trkpt>
      <trkpt lat="47.91488" lon="6.80382">
        <ele>699.6</ele>
        <time>2026-08-15T10:05:49.000Z</time>
      </trkpt>
      <trkpt lat="47.91498" lon="6.80389">
        <ele>698.2</ele>
        <time>2026-08-15T10:05:52.000Z</time>
      </trkpt>
      <trkpt lat="47.91503" lon="6.80391">
        <ele>697.8</ele>
        <time>2026-08-15T10:05:54.000Z</time>
      </trkpt>
      <trkpt lat="47.91518" lon="6.8039">
        <ele>697</ele>
        <time>2026-08-15T10:06:00.000Z</time>
      </trkpt>
      <trkpt lat="47.91535" lon="6.8039">
        <ele>695.8</ele>
        <time>2026-08-15T10:06:06.000Z</time>
      </trkpt>
      <trkpt lat="47.91538" lon="6.8039">
        <ele>695.4</ele>
        <time>2026-08-15T10:06:07.000Z</time>
      </trkpt>
      <trkpt lat="47.91541" lon="6.8039">
        <ele>695</ele>
        <time>2026-08-15T10:06:08.000Z</time>
      </trkpt>
      <trkpt lat="47.91543" lon="6.80387">
        <ele>694.4</ele>
        <time>2026-08-15T10:06:09.000Z</time>
      </trkpt>
      <trkpt lat="47.91543" lon="6.80384">
        <ele>694</ele>
        <time>2026-08-15T10:06:10.000Z</time>
      </trkpt>
      <trkpt lat="47.91542" lon="6.80383">
        <ele>693.6</ele>
        <time>2026-08-15T10:06:11.000Z</time>
      </trkpt>
      <trkpt lat="47.9154" lon="6.80381">
        <ele>693.2</ele>
        <time>2026-08-15T10:06:12.000Z</time>
      </trkpt>
      <trkpt lat="47.91532" lon="6.80374">
        <ele>691.6</ele>
        <time>2026-08-15T10:06:15.000Z</time>
      </trkpt>
      <trkpt lat="47.91528" lon="6.80368">
        <ele>690.4</ele>
        <time>2026-08-15T10:06:17.000Z</time>
      </trkpt>
      <trkpt lat="47.91525" lon="6.80359">
        <ele>688.8</ele>
        <time>2026-08-15T10:06:19.000Z</time>
      </trkpt>
      <trkpt lat="47.91522" lon="6.80349">
        <ele>687.2</ele>
        <time>2026-08-15T10:06:21.000Z</time>
      </trkpt>
      <trkpt lat="47.91516" lon="6.80342">
        <ele>685.8</ele>
        <time>2026-08-15T10:06:23.000Z</time>
      </trkpt>
      <trkpt lat="47.91511" lon="6.80336">
        <ele>684.4</ele>
        <time>2026-08-15T10:06:25.000Z</time>
      </trkpt>
      <trkpt lat="47.91504" lon="6.80325">
        <ele>682.2</ele>
        <time>2026-08-15T10:06:28.000Z</time>
      </trkpt>
      <trkpt lat="47.91501" lon="6.8032">
        <ele>681</ele>
        <time>2026-08-15T10:06:29.000Z</time>
      </trkpt>
      <trkpt lat="47.91499" lon="6.80314">
        <ele>680</ele>
        <time>2026-08-15T10:06:30.000Z</time>
      </trkpt>
      <trkpt lat="47.91496" lon="6.8031">
        <ele>678.8</ele>
        <time>2026-08-15T10:06:31.000Z</time>
      </trkpt>
      <trkpt lat="47.9149" lon="6.80302">
        <ele>677.2</ele>
        <time>2026-08-15T10:06:33.000Z</time>
      </trkpt>
      <trkpt lat="47.91484" lon="6.80294">
        <ele>675.6</ele>
        <time>2026-08-15T10:06:35.000Z</time>
      </trkpt>
      <trkpt lat="47.91475" lon="6.80288">
        <ele>673.8</ele>
        <time>2026-08-15T10:06:37.000Z</time>
      </trkpt>
      <trkpt lat="47.91467" lon="6.80285">
        <ele>672</ele>
        <time>2026-08-15T10:06:39.000Z</time>
      </trkpt>
      <trkpt lat="47.91457" lon="6.80282">
        <ele>670.6</ele>
        <time>2026-08-15T10:06:42.000Z</time>
      </trkpt>
      <trkpt lat="47.91455" lon="6.8028">
        <ele>670</ele>
        <time>2026-08-15T10:06:43.000Z</time>
      </trkpt>
      <trkpt lat="47.91454" lon="6.80277">
        <ele>669.4</ele>
        <time>2026-08-15T10:06:44.000Z</time>
      </trkpt>
      <trkpt lat="47.91455" lon="6.80269">
        <ele>668</ele>
        <time>2026-08-15T10:06:46.000Z</time>
      </trkpt>
      <trkpt lat="47.9146" lon="6.80262">
        <ele>666.4</ele>
        <time>2026-08-15T10:06:48.000Z</time>
      </trkpt>
      <trkpt lat="47.91464" lon="6.80259">
        <ele>665.4</ele>
        <time>2026-08-15T10:06:49.000Z</time>
      </trkpt>
      <trkpt lat="47.91467" lon="6.80258">
        <ele>664.4</ele>
        <time>2026-08-15T10:06:50.000Z</time>
      </trkpt>
      <trkpt lat="47.91471" lon="6.80256">
        <ele>663.8</ele>
        <time>2026-08-15T10:06:51.000Z</time>
      </trkpt>
      <trkpt lat="47.91484" lon="6.80253">
        <ele>662.6</ele>
        <time>2026-08-15T10:06:54.000Z</time>
      </trkpt>
      <trkpt lat="47.9149" lon="6.80251">
        <ele>661.8</ele>
        <time>2026-08-15T10:06:55.000Z</time>
      </trkpt>
      <trkpt lat="47.91495" lon="6.8025">
        <ele>661</ele>
        <time>2026-08-15T10:06:56.000Z</time>
      </trkpt>
      <trkpt lat="47.91505" lon="6.80249">
        <ele>659.6</ele>
        <time>2026-08-15T10:06:58.000Z</time>
      </trkpt>
      <trkpt lat="47.91514" lon="6.80249">
        <ele>658.4</ele>
        <time>2026-08-15T10:07:00.000Z</time>
      </trkpt>
      <trkpt lat="47.91523" lon="6.80247">
        <ele>657.4</ele>
        <time>2026-08-15T10:07:02.000Z</time>
      </trkpt>
      <trkpt lat="47.91527" lon="6.80244">
        <ele>656.8</ele>
        <time>2026-08-15T10:07:03.000Z</time>
      </trkpt>
      <trkpt lat="47.91528" lon="6.8024">
        <ele>656.2</ele>
        <time>2026-08-15T10:07:04.000Z</time>
      </trkpt>
      <trkpt lat="47.91526" lon="6.80237">
        <ele>655.6</ele>
        <time>2026-08-15T10:07:05.000Z</time>
      </trkpt>
      <trkpt lat="47.91524" lon="6.80234">
        <ele>655</ele>
        <time>2026-08-15T10:07:06.000Z</time>
      </trkpt>
      <trkpt lat="47.91519" lon="6.80228">
        <ele>653.8</ele>
        <time>2026-08-15T10:07:08.000Z</time>
      </trkpt>
      <trkpt lat="47.91518" lon="6.80226">
        <ele>653.2</ele>
        <time>2026-08-15T10:07:09.000Z</time>
      </trkpt>
      <trkpt lat="47.91515" lon="6.80223">
        <ele>652.6</ele>
        <time>2026-08-15T10:07:10.000Z</time>
      </trkpt>
      <trkpt lat="47.9151" lon="6.80215">
        <ele>651.4</ele>
        <time>2026-08-15T10:07:12.000Z</time>
      </trkpt>
      <trkpt lat="47.91506" lon="6.80205">
        <ele>650.2</ele>
        <time>2026-08-15T10:07:14.000Z</time>
      </trkpt>
      <trkpt lat="47.91499" lon="6.80196">
        <ele>648.6</ele>
        <time>2026-08-15T10:07:16.000Z</time>
      </trkpt>
      <trkpt lat="47.9149" lon="6.80188">
        <ele>647</ele>
        <time>2026-08-15T10:07:18.000Z</time>
      </trkpt>
      <trkpt lat="47.91483" lon="6.80181">
        <ele>645.6</ele>
        <time>2026-08-15T10:07:20.000Z</time>
      </trkpt>
      <trkpt lat="47.91476" lon="6.80173">
        <ele>644.2</ele>
        <time>2026-08-15T10:07:22.000Z</time>
      </trkpt>
      <trkpt lat="47.91468" lon="6.80164">
        <ele>642.4</ele>
        <time>2026-08-15T10:07:24.000Z</time>
      </trkpt>
      <trkpt lat="47.91459" lon="6.80156">
        <ele>640.8</ele>
        <time>2026-08-15T10:07:26.000Z</time>
      </trkpt>
      <trkpt lat="47.91455" lon="6.80152">
        <ele>639.8</ele>
        <time>2026-08-15T10:07:27.000Z</time>
      </trkpt>
      <trkpt lat="47.9145" lon="6.8015">
        <ele>639</ele>
        <time>2026-08-15T10:07:28.000Z</time>
      </trkpt>
      <trkpt lat="47.91446" lon="6.80149">
        <ele>638.2</ele>
        <time>2026-08-15T10:07:29.000Z</time>
      </trkpt>
      <trkpt lat="47.91437" lon="6.80146">
        <ele>637.2</ele>
        <time>2026-08-15T10:07:31.000Z</time>
      </trkpt>
      <trkpt lat="47.9143" lon="6.80143">
        <ele>635.8</ele>
        <time>2026-08-15T10:07:33.000Z</time>
      </trkpt>
      <trkpt lat="47.91427" lon="6.80141">
        <ele>635.2</ele>
        <time>2026-08-15T10:07:34.000Z</time>
      </trkpt>
      <trkpt lat="47.91425" lon="6.8014">
        <ele>634.4</ele>
        <time>2026-08-15T10:07:35.000Z</time>
      </trkpt>
      <trkpt lat="47.9142" lon="6.80136">
        <ele>632.8</ele>
        <time>2026-08-15T10:07:37.000Z</time>
      </trkpt>
      <trkpt lat="47.91417" lon="6.80134">
        <ele>631.8</ele>
        <time>2026-08-15T10:07:38.000Z</time>
      </trkpt>
      <trkpt lat="47.91414" lon="6.80132">
        <ele>630.6</ele>
        <time>2026-08-15T10:07:39.000Z</time>
      </trkpt>
      <trkpt lat="47.91411" lon="6.8013">
        <ele>629.6</ele>
        <time>2026-08-15T10:07:40.000Z</time>
      </trkpt>
      <trkpt lat="47.91403" lon="6.80128">
        <ele>627.8</ele>
        <time>2026-08-15T10:07:42.000Z</time>
      </trkpt>
      <trkpt lat="47.91399" lon="6.80129">
        <ele>627</ele>
        <time>2026-08-15T10:07:43.000Z</time>
      </trkpt>
      <trkpt lat="47.91395" lon="6.8013">
        <ele>626.4</ele>
        <time>2026-08-15T10:07:44.000Z</time>
      </trkpt>
      <trkpt lat="47.91387" lon="6.80131">
        <ele>625.4</ele>
        <time>2026-08-15T10:07:46.000Z</time>
      </trkpt>
      <trkpt lat="47.91376" lon="6.80132">
        <ele>623.8</ele>
        <time>2026-08-15T10:07:49.000Z</time>
      </trkpt>
      <trkpt lat="47.91372" lon="6.80132">
        <ele>623.4</ele>
        <time>2026-08-15T10:07:50.000Z</time>
      </trkpt>
      <trkpt lat="47.91369" lon="6.80133">
        <ele>622.8</ele>
        <time>2026-08-15T10:07:51.000Z</time>
      </trkpt>
      <trkpt lat="47.91362" lon="6.80133">
        <ele>621.4</ele>
        <time>2026-08-15T10:07:53.000Z</time>
      </trkpt>
      <trkpt lat="47.91353" lon="6.80135">
        <ele>620</ele>
        <time>2026-08-15T10:07:55.000Z</time>
      </trkpt>
      <trkpt lat="47.91349" lon="6.80138">
        <ele>619.2</ele>
        <time>2026-08-15T10:07:56.000Z</time>
      </trkpt>
      <trkpt lat="47.91345" lon="6.80144">
        <ele>618.6</ele>
        <time>2026-08-15T10:07:57.000Z</time>
      </trkpt>
      <trkpt lat="47.91337" lon="6.80156">
        <ele>617.4</ele>
        <time>2026-08-15T10:07:59.000Z</time>
      </trkpt>
      <trkpt lat="47.91333" lon="6.80161">
        <ele>616.8</ele>
        <time>2026-08-15T10:08:00.000Z</time>
      </trkpt>
      <trkpt lat="47.91323" lon="6.80171">
        <ele>616</ele>
        <time>2026-08-15T10:08:02.000Z</time>
      </trkpt>
      <trkpt lat="47.91313" lon="6.80179">
        <ele>614.8</ele>
        <time>2026-08-15T10:08:04.000Z</time>
      </trkpt>
      <trkpt lat="47.91301" lon="6.80182">
        <ele>613.6</ele>
        <time>2026-08-15T10:08:06.000Z</time>
      </trkpt>
      <trkpt lat="47.9129" lon="6.80182">
        <ele>612.2</ele>
        <time>2026-08-15T10:08:08.000Z</time>
      </trkpt>
      <trkpt lat="47.91278" lon="6.80182">
        <ele>610.8</ele>
        <time>2026-08-15T10:08:10.000Z</time>
      </trkpt>
      <trkpt lat="47.91266" lon="6.80185">
        <ele>609.2</ele>
        <time>2026-08-15T10:08:12.000Z</time>
      </trkpt>
      <trkpt lat="47.91255" lon="6.80187">
        <ele>607.6</ele>
        <time>2026-08-15T10:08:14.000Z</time>
      </trkpt>
      <trkpt lat="47.91245" lon="6.8019">
        <ele>606.6</ele>
        <time>2026-08-15T10:08:16.000Z</time>
      </trkpt>
      <trkpt lat="47.91241" lon="6.80193">
        <ele>606.2</ele>
        <time>2026-08-15T10:08:17.000Z</time>
      </trkpt>
      <trkpt lat="47.91237" lon="6.80197">
        <ele>606</ele>
        <time>2026-08-15T10:08:18.000Z</time>
      </trkpt>
      <trkpt lat="47.91229" lon="6.80208">
        <ele>605.4</ele>
        <time>2026-08-15T10:08:20.000Z</time>
      </trkpt>
      <trkpt lat="47.91226" lon="6.80214">
        <ele>605.2</ele>
        <time>2026-08-15T10:08:21.000Z</time>
      </trkpt>
      <trkpt lat="47.91215" lon="6.80232">
        <ele>604.8</ele>
        <time>2026-08-15T10:08:25.000Z</time>
      </trkpt>
      <trkpt lat="47.91211" lon="6.80235">
        <ele>604.4</ele>
        <time>2026-08-15T10:08:26.000Z</time>
      </trkpt>
      <trkpt lat="47.91208" lon="6.80237">
        <ele>604.2</ele>
        <time>2026-08-15T10:08:27.000Z</time>
      </trkpt>
      <trkpt lat="47.912" lon="6.80236">
        <ele>603.2</ele>
        <time>2026-08-15T10:08:29.000Z</time>
      </trkpt>
      <trkpt lat="47.91197" lon="6.80234">
        <ele>602.6</ele>
        <time>2026-08-15T10:08:30.000Z</time>
      </trkpt>
      <trkpt lat="47.91195" lon="6.80231">
        <ele>602</ele>
        <time>2026-08-15T10:08:31.000Z</time>
      </trkpt>
      <trkpt lat="47.91193" lon="6.80219">
        <ele>600.6</ele>
        <time>2026-08-15T10:08:33.000Z</time>
      </trkpt>
      <trkpt lat="47.91193" lon="6.80204">
        <ele>599.2</ele>
        <time>2026-08-15T10:08:35.000Z</time>
      </trkpt>
      <trkpt lat="47.91194" lon="6.80187">
        <ele>598.2</ele>
        <time>2026-08-15T10:08:37.000Z</time>
      </trkpt>
      <trkpt lat="47.91194" lon="6.80173">
        <ele>597.8</ele>
        <time>2026-08-15T10:08:40.000Z</time>
      </trkpt>
      <trkpt lat="47.91194" lon="6.80173">
        <ele>597.8</ele>
        <time>2026-08-15T10:08:41.000Z</time>
      </trkpt>
      <trkpt lat="47.91193" lon="6.80174">
        <ele>597.6</ele>
        <time>2026-08-15T10:08:44.000Z</time>
      </trkpt>
      <trkpt lat="47.91192" lon="6.80176">
        <ele>597.6</ele>
        <time>2026-08-15T10:08:46.000Z</time>
      </trkpt>
      <trkpt lat="47.9119" lon="6.8019">
        <ele>598.2</ele>
        <time>2026-08-15T10:08:53.000Z</time>
      </trkpt>
      <trkpt lat="47.9119" lon="6.80192">
        <ele>598.2</ele>
        <time>2026-08-15T10:08:56.000Z</time>
      </trkpt>
      <trkpt lat="47.9119" lon="6.80192">
        <ele>598.2</ele>
        <time>2026-08-15T10:08:59.000Z</time>
      </trkpt>
      <trkpt lat="47.91181" lon="6.80202">
        <ele>596.4</ele>
        <time>2026-08-15T10:09:08.000Z</time>
      </trkpt>
      <trkpt lat="47.9118" lon="6.80203">
        <ele>596.2</ele>
        <time>2026-08-15T10:09:09.000Z</time>
      </trkpt>
      <trkpt lat="47.91175" lon="6.80211">
        <ele>595.4</ele>
        <time>2026-08-15T10:09:13.000Z</time>
      </trkpt>
      <trkpt lat="47.91172" lon="6.80215">
        <ele>594.6</ele>
        <time>2026-08-15T10:09:15.000Z</time>
      </trkpt>
      <trkpt lat="47.91171" lon="6.80217">
        <ele>594.2</ele>
        <time>2026-08-15T10:09:16.000Z</time>
      </trkpt>
      <trkpt lat="47.91167" lon="6.80222">
        <ele>593.2</ele>
        <time>2026-08-15T10:09:18.000Z</time>
      </trkpt>
      <trkpt lat="47.91163" lon="6.80226">
        <ele>592.2</ele>
        <time>2026-08-15T10:09:20.000Z</time>
      </trkpt>
      <trkpt lat="47.91158" lon="6.8023">
        <ele>591</ele>
        <time>2026-08-15T10:09:22.000Z</time>
      </trkpt>
      <trkpt lat="47.91151" lon="6.80231">
        <ele>590</ele>
        <time>2026-08-15T10:09:25.000Z</time>
      </trkpt>
      <trkpt lat="47.91149" lon="6.80231">
        <ele>589.6</ele>
        <time>2026-08-15T10:09:27.000Z</time>
      </trkpt>
      <trkpt lat="47.91149" lon="6.80231">
        <ele>589.6</ele>
        <time>2026-08-15T10:09:29.000Z</time>
      </trkpt>
      <trkpt lat="47.9115" lon="6.80231">
        <ele>589.4</ele>
        <time>2026-08-15T10:09:32.000Z</time>
      </trkpt>
      <trkpt lat="47.91142" lon="6.80216">
        <ele>588.6</ele>
        <time>2026-08-15T10:09:50.000Z</time>
      </trkpt>
      <trkpt lat="47.91143" lon="6.80206">
        <ele>588.2</ele>
        <time>2026-08-15T10:09:52.000Z</time>
      </trkpt>
      <trkpt lat="47.91152" lon="6.80186">
        <ele>589.4</ele>
        <time>2026-08-15T10:09:57.000Z</time>
      </trkpt>
      <trkpt lat="47.91147" lon="6.80167">
        <ele>589.6</ele>
        <time>2026-08-15T10:10:02.000Z</time>
      </trkpt>
      <trkpt lat="47.91145" lon="6.80165">
        <ele>589.6</ele>
        <time>2026-08-15T10:10:03.000Z</time>
      </trkpt>
      <trkpt lat="47.91138" lon="6.80143">
        <ele>591</ele>
        <time>2026-08-15T10:10:09.000Z</time>
      </trkpt>
      <trkpt lat="47.91136" lon="6.80123">
        <ele>592.2</ele>
        <time>2026-08-15T10:10:15.000Z</time>
      </trkpt>
      <trkpt lat="47.91136" lon="6.80119">
        <ele>592.4</ele>
        <time>2026-08-15T10:10:16.000Z</time>
      </trkpt>
      <trkpt lat="47.91135" lon="6.80112">
        <ele>593.2</ele>
        <time>2026-08-15T10:10:18.000Z</time>
      </trkpt>
      <trkpt lat="47.9113" lon="6.801">
        <ele>594.4</ele>
        <time>2026-08-15T10:10:21.000Z</time>
      </trkpt>
      <trkpt lat="47.91129" lon="6.80098">
        <ele>594.8</ele>
        <time>2026-08-15T10:10:22.000Z</time>
      </trkpt>
      <trkpt lat="47.91128" lon="6.80094">
        <ele>595.4</ele>
        <time>2026-08-15T10:10:24.000Z</time>
      </trkpt>
      <trkpt lat="47.91125" lon="6.8009">
        <ele>596.2</ele>
        <time>2026-08-15T10:10:28.000Z</time>
      </trkpt>
      <trkpt lat="47.91123" lon="6.80086">
        <ele>596.6</ele>
        <time>2026-08-15T10:10:31.000Z</time>
      </trkpt>
      <trkpt lat="47.9112" lon="6.80083">
        <ele>597</ele>
        <time>2026-08-15T10:10:35.000Z</time>
      </trkpt>
      <trkpt lat="47.91117" lon="6.8008">
        <ele>597.6</ele>
        <time>2026-08-15T10:10:39.000Z</time>
      </trkpt>
      <trkpt lat="47.91117" lon="6.80079">
        <ele>597.6</ele>
        <time>2026-08-15T10:10:40.000Z</time>
      </trkpt>
      <trkpt lat="47.91114" lon="6.80077">
        <ele>598</ele>
        <time>2026-08-15T10:10:44.000Z</time>
      </trkpt>
      <trkpt lat="47.91112" lon="6.80077">
        <ele>598</ele>
        <time>2026-08-15T10:10:45.000Z</time>
      </trkpt>
      <trkpt lat="47.91111" lon="6.80077">
        <ele>598.2</ele>
        <time>2026-08-15T10:10:50.000Z</time>
      </trkpt>
      <trkpt lat="47.91108" lon="6.80077">
        <ele>598.2</ele>
        <time>2026-08-15T10:10:52.000Z</time>
      </trkpt>
      <trkpt lat="47.91106" lon="6.80077">
        <ele>598.6</ele>
        <time>2026-08-15T10:10:55.000Z</time>
      </trkpt>
      <trkpt lat="47.91106" lon="6.80077">
        <ele>598.8</ele>
        <time>2026-08-15T10:10:56.000Z</time>
      </trkpt>
      <trkpt lat="47.91104" lon="6.80076">
        <ele>599</ele>
        <time>2026-08-15T10:10:58.000Z</time>
      </trkpt>
      <trkpt lat="47.91101" lon="6.80075">
        <ele>598.8</ele>
        <time>2026-08-15T10:11:50.000Z</time>
      </trkpt>
      <trkpt lat="47.91101" lon="6.80076">
        <ele>598.8</ele>
        <time>2026-08-15T10:11:53.000Z</time>
      </trkpt>
      <trkpt lat="47.9109" lon="6.8008">
        <ele>600</ele>
        <time>2026-08-15T10:12:07.000Z</time>
      </trkpt>
      <trkpt lat="47.91087" lon="6.80081">
        <ele>600.2</ele>
        <time>2026-08-15T10:12:09.000Z</time>
      </trkpt>
      <trkpt lat="47.91085" lon="6.80081">
        <ele>600.4</ele>
        <time>2026-08-15T10:12:10.000Z</time>
      </trkpt>
      <trkpt lat="47.91083" lon="6.8008">
        <ele>600.4</ele>
        <time>2026-08-15T10:12:11.000Z</time>
      </trkpt>
      <trkpt lat="47.91077" lon="6.80079">
        <ele>601</ele>
        <time>2026-08-15T10:12:14.000Z</time>
      </trkpt>
      <trkpt lat="47.91075" lon="6.80079">
        <ele>601.2</ele>
        <time>2026-08-15T10:12:15.000Z</time>
      </trkpt>
      <trkpt lat="47.91069" lon="6.80075">
        <ele>602</ele>
        <time>2026-08-15T10:12:19.000Z</time>
      </trkpt>
      <trkpt lat="47.91066" lon="6.80073">
        <ele>602.4</ele>
        <time>2026-08-15T10:12:21.000Z</time>
      </trkpt>
      <trkpt lat="47.91059" lon="6.80067">
        <ele>603.2</ele>
        <time>2026-08-15T10:12:25.000Z</time>
      </trkpt>
      <trkpt lat="47.91059" lon="6.80065">
        <ele>603.6</ele>
        <time>2026-08-15T10:12:26.000Z</time>
      </trkpt>
      <trkpt lat="47.91059" lon="6.80063">
        <ele>603.8</ele>
        <time>2026-08-15T10:12:27.000Z</time>
      </trkpt>
      <trkpt lat="47.91061" lon="6.80052">
        <ele>604</ele>
        <time>2026-08-15T10:12:30.000Z</time>
      </trkpt>
      <trkpt lat="47.91064" lon="6.80028">
        <ele>603.6</ele>
        <time>2026-08-15T10:12:36.000Z</time>
      </trkpt>
      <trkpt lat="47.91067" lon="6.80001">
        <ele>603</ele>
        <time>2026-08-15T10:12:42.000Z</time>
      </trkpt>
      <trkpt lat="47.91065" lon="6.79975">
        <ele>602.4</ele>
        <time>2026-08-15T10:12:47.000Z</time>
      </trkpt>
      <trkpt lat="47.91064" lon="6.79966">
        <ele>602</ele>
        <time>2026-08-15T10:12:49.000Z</time>
      </trkpt>
      <trkpt lat="47.91064" lon="6.79952">
        <ele>601.4</ele>
        <time>2026-08-15T10:12:52.000Z</time>
      </trkpt>
      <trkpt lat="47.91061" lon="6.79945">
        <ele>601.2</ele>
        <time>2026-08-15T10:12:55.000Z</time>
      </trkpt>
      <trkpt lat="47.9106" lon="6.79948">
        <ele>601.4</ele>
        <time>2026-08-15T10:12:59.000Z</time>
      </trkpt>
      <trkpt lat="47.9106" lon="6.79949">
        <ele>601.6</ele>
        <time>2026-08-15T10:13:02.000Z</time>
      </trkpt>
      <trkpt lat="47.91059" lon="6.79949">
        <ele>601.8</ele>
        <time>2026-08-15T10:13:04.000Z</time>
      </trkpt>
      <trkpt lat="47.9105" lon="6.79964">
        <ele>603.8</ele>
        <time>2026-08-15T10:13:14.000Z</time>
      </trkpt>
      <trkpt lat="47.91045" lon="6.79972">
        <ele>605</ele>
        <time>2026-08-15T10:13:17.000Z</time>
      </trkpt>
      <trkpt lat="47.9104" lon="6.79978">
        <ele>606</ele>
        <time>2026-08-15T10:13:20.000Z</time>
      </trkpt>
      <trkpt lat="47.91035" lon="6.79986">
        <ele>607.2</ele>
        <time>2026-08-15T10:13:23.000Z</time>
      </trkpt>
      <trkpt lat="47.9103" lon="6.79994">
        <ele>608.6</ele>
        <time>2026-08-15T10:13:26.000Z</time>
      </trkpt>
      <trkpt lat="47.91027" lon="6.79999">
        <ele>609.6</ele>
        <time>2026-08-15T10:13:28.000Z</time>
      </trkpt>
      <trkpt lat="47.91025" lon="6.80002">
        <ele>610</ele>
        <time>2026-08-15T10:13:29.000Z</time>
      </trkpt>
      <trkpt lat="47.91022" lon="6.80007">
        <ele>611.2</ele>
        <time>2026-08-15T10:13:31.000Z</time>
      </trkpt>
      <trkpt lat="47.91018" lon="6.80012">
        <ele>612.2</ele>
        <time>2026-08-15T10:13:33.000Z</time>
      </trkpt>
      <trkpt lat="47.91015" lon="6.80015">
        <ele>613</ele>
        <time>2026-08-15T10:13:35.000Z</time>
      </trkpt>
      <trkpt lat="47.91013" lon="6.80017">
        <ele>613.6</ele>
        <time>2026-08-15T10:13:36.000Z</time>
      </trkpt>
      <trkpt lat="47.91009" lon="6.80022">
        <ele>614.4</ele>
        <time>2026-08-15T10:13:38.000Z</time>
      </trkpt>
      <trkpt lat="47.91007" lon="6.80024">
        <ele>614.8</ele>
        <time>2026-08-15T10:13:39.000Z</time>
      </trkpt>
      <trkpt lat="47.91001" lon="6.8003">
        <ele>616.4</ele>
        <time>2026-08-15T10:13:42.000Z</time>
      </trkpt>
      <trkpt lat="47.90996" lon="6.80035">
        <ele>617.8</ele>
        <time>2026-08-15T10:13:45.000Z</time>
      </trkpt>
      <trkpt lat="47.90991" lon="6.80042">
        <ele>619</ele>
        <time>2026-08-15T10:13:48.000Z</time>
      </trkpt>
      <trkpt lat="47.90988" lon="6.80046">
        <ele>619.8</ele>
        <time>2026-08-15T10:13:50.000Z</time>
      </trkpt>
      <trkpt lat="47.90986" lon="6.80049">
        <ele>620.2</ele>
        <time>2026-08-15T10:13:51.000Z</time>
      </trkpt>
      <trkpt lat="47.9098" lon="6.80057">
        <ele>621.4</ele>
        <time>2026-08-15T10:13:54.000Z</time>
      </trkpt>
      <trkpt lat="47.90976" lon="6.80062">
        <ele>622.2</ele>
        <time>2026-08-15T10:13:56.000Z</time>
      </trkpt>
      <trkpt lat="47.90973" lon="6.80064">
        <ele>622.4</ele>
        <time>2026-08-15T10:13:57.000Z</time>
      </trkpt>
      <trkpt lat="47.90967" lon="6.80067">
        <ele>623.8</ele>
        <time>2026-08-15T10:14:00.000Z</time>
      </trkpt>
      <trkpt lat="47.90964" lon="6.80068">
        <ele>624.2</ele>
        <time>2026-08-15T10:14:01.000Z</time>
      </trkpt>
      <trkpt lat="47.9096" lon="6.8007">
        <ele>625.2</ele>
        <time>2026-08-15T10:14:03.000Z</time>
      </trkpt>
      <trkpt lat="47.90954" lon="6.80072">
        <ele>626.6</ele>
        <time>2026-08-15T10:14:06.000Z</time>
      </trkpt>
      <trkpt lat="47.90952" lon="6.80072">
        <ele>627.6</ele>
        <time>2026-08-15T10:14:08.000Z</time>
      </trkpt>
      <trkpt lat="47.90951" lon="6.80072">
        <ele>627.8</ele>
        <time>2026-08-15T10:14:09.000Z</time>
      </trkpt>
      <trkpt lat="47.90951" lon="6.80073">
        <ele>628.2</ele>
        <time>2026-08-15T10:14:13.000Z</time>
      </trkpt>
      <trkpt lat="47.90897" lon="6.80085">
        <ele>641</ele>
        <time>2026-08-15T10:16:39.000Z</time>
      </trkpt>
      <trkpt lat="47.90895" lon="6.80086">
        <ele>641.2</ele>
        <time>2026-08-15T10:16:40.000Z</time>
      </trkpt>
      <trkpt lat="47.90889" lon="6.80088">
        <ele>642.2</ele>
        <time>2026-08-15T10:16:43.000Z</time>
      </trkpt>
      <trkpt lat="47.90882" lon="6.8009">
        <ele>643.4</ele>
        <time>2026-08-15T10:16:47.000Z</time>
      </trkpt>
      <trkpt lat="47.9088" lon="6.80091">
        <ele>643.6</ele>
        <time>2026-08-15T10:16:48.000Z</time>
      </trkpt>
      <trkpt lat="47.90872" lon="6.80096">
        <ele>644.6</ele>
        <time>2026-08-15T10:16:52.000Z</time>
      </trkpt>
      <trkpt lat="47.90862" lon="6.80099">
        <ele>645.4</ele>
        <time>2026-08-15T10:16:56.000Z</time>
      </trkpt>
      <trkpt lat="47.90858" lon="6.801">
        <ele>645.6</ele>
        <time>2026-08-15T10:16:58.000Z</time>
      </trkpt>
      <trkpt lat="47.90853" lon="6.80102">
        <ele>646</ele>
        <time>2026-08-15T10:17:00.000Z</time>
      </trkpt>
      <trkpt lat="47.90849" lon="6.80105">
        <ele>646.2</ele>
        <time>2026-08-15T10:17:02.000Z</time>
      </trkpt>
      <trkpt lat="47.9084" lon="6.8011">
        <ele>646.8</ele>
        <time>2026-08-15T10:17:06.000Z</time>
      </trkpt>
      <trkpt lat="47.90831" lon="6.80116">
        <ele>647.6</ele>
        <time>2026-08-15T10:17:10.000Z</time>
      </trkpt>
      <trkpt lat="47.90828" lon="6.80117">
        <ele>647.8</ele>
        <time>2026-08-15T10:17:11.000Z</time>
      </trkpt>
      <trkpt lat="47.90819" lon="6.80124">
        <ele>648.6</ele>
        <time>2026-08-15T10:17:15.000Z</time>
      </trkpt>
      <trkpt lat="47.90817" lon="6.80125">
        <ele>649</ele>
        <time>2026-08-15T10:17:16.000Z</time>
      </trkpt>
      <trkpt lat="47.90811" lon="6.80131">
        <ele>649.8</ele>
        <time>2026-08-15T10:17:19.000Z</time>
      </trkpt>
      <trkpt lat="47.90809" lon="6.80133">
        <ele>650.2</ele>
        <time>2026-08-15T10:17:20.000Z</time>
      </trkpt>
      <trkpt lat="47.90802" lon="6.80138">
        <ele>651.2</ele>
        <time>2026-08-15T10:17:23.000Z</time>
      </trkpt>
      <trkpt lat="47.90796" lon="6.80144">
        <ele>652.8</ele>
        <time>2026-08-15T10:17:26.000Z</time>
      </trkpt>
      <trkpt lat="47.90792" lon="6.80147">
        <ele>654</ele>
        <time>2026-08-15T10:17:28.000Z</time>
      </trkpt>
      <trkpt lat="47.90788" lon="6.80152">
        <ele>655.2</ele>
        <time>2026-08-15T10:17:30.000Z</time>
      </trkpt>
      <trkpt lat="47.90782" lon="6.80155">
        <ele>656.6</ele>
        <time>2026-08-15T10:17:33.000Z</time>
      </trkpt>
      <trkpt lat="47.9078" lon="6.80154">
        <ele>657</ele>
        <time>2026-08-15T10:17:34.000Z</time>
      </trkpt>
      <trkpt lat="47.90776" lon="6.80148">
        <ele>657.6</ele>
        <time>2026-08-15T10:17:36.000Z</time>
      </trkpt>
      <trkpt lat="47.90775" lon="6.80145">
        <ele>657.8</ele>
        <time>2026-08-15T10:17:37.000Z</time>
      </trkpt>
      <trkpt lat="47.90773" lon="6.80134">
        <ele>658.8</ele>
        <time>2026-08-15T10:17:40.000Z</time>
      </trkpt>
      <trkpt lat="47.90771" lon="6.80123">
        <ele>659.8</ele>
        <time>2026-08-15T10:17:43.000Z</time>
      </trkpt>
      <trkpt lat="47.90769" lon="6.80109">
        <ele>660.8</ele>
        <time>2026-08-15T10:17:47.000Z</time>
      </trkpt>
      <trkpt lat="47.90767" lon="6.80102">
        <ele>661.2</ele>
        <time>2026-08-15T10:17:49.000Z</time>
      </trkpt>
      <trkpt lat="47.90766" lon="6.80092">
        <ele>661.8</ele>
        <time>2026-08-15T10:17:52.000Z</time>
      </trkpt>
      <trkpt lat="47.90764" lon="6.80085">
        <ele>662.2</ele>
        <time>2026-08-15T10:17:55.000Z</time>
      </trkpt>
      <trkpt lat="47.90764" lon="6.80086">
        <ele>662.4</ele>
        <time>2026-08-15T10:17:56.000Z</time>
      </trkpt>
      <trkpt lat="47.90763" lon="6.80086">
        <ele>662.4</ele>
        <time>2026-08-15T10:18:00.000Z</time>
      </trkpt>
      <trkpt lat="47.90763" lon="6.8007">
        <ele>663</ele>
        <time>2026-08-15T10:18:31.000Z</time>
      </trkpt>
      <trkpt lat="47.90763" lon="6.80067">
        <ele>663.2</ele>
        <time>2026-08-15T10:18:32.000Z</time>
      </trkpt>
      <trkpt lat="47.90763" lon="6.80048">
        <ele>664</ele>
        <time>2026-08-15T10:18:38.000Z</time>
      </trkpt>
      <trkpt lat="47.90763" lon="6.80044">
        <ele>664.4</ele>
        <time>2026-08-15T10:18:39.000Z</time>
      </trkpt>
      <trkpt lat="47.90763" lon="6.80038">
        <ele>665</ele>
        <time>2026-08-15T10:18:41.000Z</time>
      </trkpt>
      <trkpt lat="47.90761" lon="6.80021">
        <ele>666.2</ele>
        <time>2026-08-15T10:18:46.000Z</time>
      </trkpt>
      <trkpt lat="47.90758" lon="6.80006">
        <ele>667.2</ele>
        <time>2026-08-15T10:18:50.000Z</time>
      </trkpt>
      <trkpt lat="47.90756" lon="6.8">
        <ele>667.8</ele>
        <time>2026-08-15T10:18:52.000Z</time>
      </trkpt>
      <trkpt lat="47.90753" lon="6.79994">
        <ele>668.2</ele>
        <time>2026-08-15T10:18:54.000Z</time>
      </trkpt>
      <trkpt lat="47.90747" lon="6.7998">
        <ele>669.2</ele>
        <time>2026-08-15T10:18:58.000Z</time>
      </trkpt>
      <trkpt lat="47.90746" lon="6.79977">
        <ele>669.4</ele>
        <time>2026-08-15T10:18:59.000Z</time>
      </trkpt>
      <trkpt lat="47.90741" lon="6.79965">
        <ele>670.6</ele>
        <time>2026-08-15T10:19:03.000Z</time>
      </trkpt>
      <trkpt lat="47.90735" lon="6.79956">
        <ele>671.4</ele>
        <time>2026-08-15T10:19:07.000Z</time>
      </trkpt>
      <trkpt lat="47.90734" lon="6.79955">
        <ele>671.6</ele>
        <time>2026-08-15T10:19:08.000Z</time>
      </trkpt>
      <trkpt lat="47.90729" lon="6.79951">
        <ele>671.8</ele>
        <time>2026-08-15T10:19:13.000Z</time>
      </trkpt>
      <trkpt lat="47.90728" lon="6.79954">
        <ele>671.8</ele>
        <time>2026-08-15T10:19:14.000Z</time>
      </trkpt>
      <trkpt lat="47.90728" lon="6.79967">
        <ele>672.4</ele>
        <time>2026-08-15T10:19:19.000Z</time>
      </trkpt>
      <trkpt lat="47.90726" lon="6.79966">
        <ele>672.6</ele>
        <time>2026-08-15T10:19:20.000Z</time>
      </trkpt>
      <trkpt lat="47.90726" lon="6.7996">
        <ele>672.8</ele>
        <time>2026-08-15T10:19:22.000Z</time>
      </trkpt>
      <trkpt lat="47.90725" lon="6.79948">
        <ele>672.4</ele>
        <time>2026-08-15T10:19:25.000Z</time>
      </trkpt>
      <trkpt lat="47.90722" lon="6.79947">
        <ele>672.2</ele>
        <time>2026-08-15T10:19:26.000Z</time>
      </trkpt>
      <trkpt lat="47.90709" lon="6.79946">
        <ele>672.6</ele>
        <time>2026-08-15T10:19:31.000Z</time>
      </trkpt>
      <trkpt lat="47.90693" lon="6.79939">
        <ele>674</ele>
        <time>2026-08-15T10:19:37.000Z</time>
      </trkpt>
      <trkpt lat="47.90687" lon="6.79931">
        <ele>675</ele>
        <time>2026-08-15T10:19:40.000Z</time>
      </trkpt>
      <trkpt lat="47.9068" lon="6.79918">
        <ele>676</ele>
        <time>2026-08-15T10:19:44.000Z</time>
      </trkpt>
      <trkpt lat="47.90673" lon="6.79908">
        <ele>677</ele>
        <time>2026-08-15T10:19:48.000Z</time>
      </trkpt>
      <trkpt lat="47.9067" lon="6.79906">
        <ele>677.2</ele>
        <time>2026-08-15T10:19:49.000Z</time>
      </trkpt>
      <trkpt lat="47.90666" lon="6.79901">
        <ele>677.6</ele>
        <time>2026-08-15T10:19:51.000Z</time>
      </trkpt>
      <trkpt lat="47.90655" lon="6.79891">
        <ele>678.2</ele>
        <time>2026-08-15T10:19:55.000Z</time>
      </trkpt>
      <trkpt lat="47.90652" lon="6.79889">
        <ele>678.2</ele>
        <time>2026-08-15T10:19:56.000Z</time>
      </trkpt>
      <trkpt lat="47.90649" lon="6.79887">
        <ele>678.4</ele>
        <time>2026-08-15T10:19:57.000Z</time>
      </trkpt>
      <trkpt lat="47.90631" lon="6.79874">
        <ele>678.2</ele>
        <time>2026-08-15T10:20:02.000Z</time>
      </trkpt>
      <trkpt lat="47.90626" lon="6.79872">
        <ele>678.2</ele>
        <time>2026-08-15T10:20:03.000Z</time>
      </trkpt>
      <trkpt lat="47.90607" lon="6.79864">
        <ele>678</ele>
        <time>2026-08-15T10:20:07.000Z</time>
      </trkpt>
      <trkpt lat="47.90598" lon="6.79859">
        <ele>678</ele>
        <time>2026-08-15T10:20:09.000Z</time>
      </trkpt>
      <trkpt lat="47.90579" lon="6.79848">
        <ele>678.4</ele>
        <time>2026-08-15T10:20:14.000Z</time>
      </trkpt>
      <trkpt lat="47.90566" lon="6.79842">
        <ele>678.8</ele>
        <time>2026-08-15T10:20:17.000Z</time>
      </trkpt>
      <trkpt lat="47.90552" lon="6.79836">
        <ele>679.4</ele>
        <time>2026-08-15T10:20:21.000Z</time>
      </trkpt>
      <trkpt lat="47.90544" lon="6.79833">
        <ele>679.8</ele>
        <time>2026-08-15T10:20:24.000Z</time>
      </trkpt>
      <trkpt lat="47.90525" lon="6.79827">
        <ele>680</ele>
        <time>2026-08-15T10:20:29.000Z</time>
      </trkpt>
      <trkpt lat="47.90517" lon="6.79826">
        <ele>680</ele>
        <time>2026-08-15T10:20:31.000Z</time>
      </trkpt>
      <trkpt lat="47.90497" lon="6.79827">
        <ele>680.6</ele>
        <time>2026-08-15T10:20:36.000Z</time>
      </trkpt>
      <trkpt lat="47.90485" lon="6.79831">
        <ele>681</ele>
        <time>2026-08-15T10:20:39.000Z</time>
      </trkpt>
      <trkpt lat="47.90465" lon="6.79838">
        <ele>681.6</ele>
        <time>2026-08-15T10:20:44.000Z</time>
      </trkpt>
      <trkpt lat="47.9045" lon="6.79847">
        <ele>682.6</ele>
        <time>2026-08-15T10:20:48.000Z</time>
      </trkpt>
      <trkpt lat="47.90447" lon="6.79849">
        <ele>683</ele>
        <time>2026-08-15T10:20:49.000Z</time>
      </trkpt>
      <trkpt lat="47.90441" lon="6.79856">
        <ele>684</ele>
        <time>2026-08-15T10:20:51.000Z</time>
      </trkpt>
      <trkpt lat="47.90433" lon="6.79868">
        <ele>685.4</ele>
        <time>2026-08-15T10:20:54.000Z</time>
      </trkpt>
      <trkpt lat="47.90429" lon="6.79876">
        <ele>686.4</ele>
        <time>2026-08-15T10:20:56.000Z</time>
      </trkpt>
      <trkpt lat="47.90427" lon="6.79881">
        <ele>687</ele>
        <time>2026-08-15T10:20:57.000Z</time>
      </trkpt>
      <trkpt lat="47.90424" lon="6.79889">
        <ele>688</ele>
        <time>2026-08-15T10:20:59.000Z</time>
      </trkpt>
      <trkpt lat="47.90418" lon="6.79896">
        <ele>689</ele>
        <time>2026-08-15T10:21:01.000Z</time>
      </trkpt>
      <trkpt lat="47.90414" lon="6.79897">
        <ele>689.4</ele>
        <time>2026-08-15T10:21:02.000Z</time>
      </trkpt>
      <trkpt lat="47.90411" lon="6.79898">
        <ele>689.8</ele>
        <time>2026-08-15T10:21:03.000Z</time>
      </trkpt>
      <trkpt lat="47.90405" lon="6.79897">
        <ele>690.6</ele>
        <time>2026-08-15T10:21:05.000Z</time>
      </trkpt>
      <trkpt lat="47.90399" lon="6.79894">
        <ele>691.8</ele>
        <time>2026-08-15T10:21:07.000Z</time>
      </trkpt>
      <trkpt lat="47.90396" lon="6.79893">
        <ele>692.2</ele>
        <time>2026-08-15T10:21:08.000Z</time>
      </trkpt>
      <trkpt lat="47.90389" lon="6.79892">
        <ele>693</ele>
        <time>2026-08-15T10:21:10.000Z</time>
      </trkpt>
      <trkpt lat="47.9037" lon="6.79892">
        <ele>694</ele>
        <time>2026-08-15T10:21:15.000Z</time>
      </trkpt>
      <trkpt lat="47.90348" lon="6.79892">
        <ele>694.6</ele>
        <time>2026-08-15T10:21:20.000Z</time>
      </trkpt>
      <trkpt lat="47.90339" lon="6.79892">
        <ele>694.6</ele>
        <time>2026-08-15T10:21:22.000Z</time>
      </trkpt>
      <trkpt lat="47.90321" lon="6.79892">
        <ele>695.2</ele>
        <time>2026-08-15T10:21:26.000Z</time>
      </trkpt>
      <trkpt lat="47.90309" lon="6.79892">
        <ele>696.4</ele>
        <time>2026-08-15T10:21:29.000Z</time>
      </trkpt>
      <trkpt lat="47.90305" lon="6.79892">
        <ele>696.8</ele>
        <time>2026-08-15T10:21:30.000Z</time>
      </trkpt>
      <trkpt lat="47.90298" lon="6.7989">
        <ele>697.6</ele>
        <time>2026-08-15T10:21:32.000Z</time>
      </trkpt>
      <trkpt lat="47.90284" lon="6.79883">
        <ele>698.8</ele>
        <time>2026-08-15T10:21:36.000Z</time>
      </trkpt>
      <trkpt lat="47.90281" lon="6.7988">
        <ele>699</ele>
        <time>2026-08-15T10:21:37.000Z</time>
      </trkpt>
      <trkpt lat="47.90264" lon="6.79865">
        <ele>699.8</ele>
        <time>2026-08-15T10:21:42.000Z</time>
      </trkpt>
      <trkpt lat="47.90257" lon="6.79858">
        <ele>700.6</ele>
        <time>2026-08-15T10:21:45.000Z</time>
      </trkpt>
      <trkpt lat="47.90254" lon="6.79856">
        <ele>701</ele>
        <time>2026-08-15T10:21:46.000Z</time>
      </trkpt>
      <trkpt lat="47.90237" lon="6.79848">
        <ele>702</ele>
        <time>2026-08-15T10:21:51.000Z</time>
      </trkpt>
      <trkpt lat="47.90233" lon="6.79846">
        <ele>702</ele>
        <time>2026-08-15T10:21:52.000Z</time>
      </trkpt>
      <trkpt lat="47.90214" lon="6.79834">
        <ele>702.8</ele>
        <time>2026-08-15T10:21:57.000Z</time>
      </trkpt>
      <trkpt lat="47.9021" lon="6.79832">
        <ele>703</ele>
        <time>2026-08-15T10:21:58.000Z</time>
      </trkpt>
      <trkpt lat="47.90207" lon="6.79829">
        <ele>703.4</ele>
        <time>2026-08-15T10:21:59.000Z</time>
      </trkpt>
      <trkpt lat="47.902" lon="6.79824">
        <ele>704.2</ele>
        <time>2026-08-15T10:22:01.000Z</time>
      </trkpt>
      <trkpt lat="47.90187" lon="6.79813">
        <ele>705.4</ele>
        <time>2026-08-15T10:22:05.000Z</time>
      </trkpt>
      <trkpt lat="47.90176" lon="6.79806">
        <ele>706</ele>
        <time>2026-08-15T10:22:08.000Z</time>
      </trkpt>
      <trkpt lat="47.90173" lon="6.79803">
        <ele>706.4</ele>
        <time>2026-08-15T10:22:09.000Z</time>
      </trkpt>
      <trkpt lat="47.90159" lon="6.79794">
        <ele>707.8</ele>
        <time>2026-08-15T10:22:13.000Z</time>
      </trkpt>
      <trkpt lat="47.9015" lon="6.79788">
        <ele>708.6</ele>
        <time>2026-08-15T10:22:16.000Z</time>
      </trkpt>
      <trkpt lat="47.90147" lon="6.79786">
        <ele>709</ele>
        <time>2026-08-15T10:22:17.000Z</time>
      </trkpt>
      <trkpt lat="47.90138" lon="6.79779">
        <ele>710.2</ele>
        <time>2026-08-15T10:22:20.000Z</time>
      </trkpt>
      <trkpt lat="47.9013" lon="6.79772">
        <ele>711.2</ele>
        <time>2026-08-15T10:22:23.000Z</time>
      </trkpt>
      <trkpt lat="47.90125" lon="6.79767">
        <ele>712</ele>
        <time>2026-08-15T10:22:25.000Z</time>
      </trkpt>
      <trkpt lat="47.90122" lon="6.79764">
        <ele>712.4</ele>
        <time>2026-08-15T10:22:26.000Z</time>
      </trkpt>
      <trkpt lat="47.90111" lon="6.79753">
        <ele>713.6</ele>
        <time>2026-08-15T10:22:30.000Z</time>
      </trkpt>
      <trkpt lat="47.90103" lon="6.79742">
        <ele>714.4</ele>
        <time>2026-08-15T10:22:33.000Z</time>
      </trkpt>
      <trkpt lat="47.90101" lon="6.79738">
        <ele>714.6</ele>
        <time>2026-08-15T10:22:34.000Z</time>
      </trkpt>
      <trkpt lat="47.90092" lon="6.79718">
        <ele>715.8</ele>
        <time>2026-08-15T10:22:38.000Z</time>
      </trkpt>
      <trkpt lat="47.90089" lon="6.79712">
        <ele>716</ele>
        <time>2026-08-15T10:22:39.000Z</time>
      </trkpt>
      <trkpt lat="47.90086" lon="6.797">
        <ele>716.8</ele>
        <time>2026-08-15T10:22:41.000Z</time>
      </trkpt>
      <trkpt lat="47.9008" lon="6.79684">
        <ele>717.8</ele>
        <time>2026-08-15T10:22:44.000Z</time>
      </trkpt>
      <trkpt lat="47.90075" lon="6.79674">
        <ele>718.6</ele>
        <time>2026-08-15T10:22:46.000Z</time>
      </trkpt>
      <trkpt lat="47.90069" lon="6.79664">
        <ele>719</ele>
        <time>2026-08-15T10:22:48.000Z</time>
      </trkpt>
      <trkpt lat="47.9006" lon="6.79644">
        <ele>719.4</ele>
        <time>2026-08-15T10:22:52.000Z</time>
      </trkpt>
      <trkpt lat="47.90047" lon="6.79624">
        <ele>720</ele>
        <time>2026-08-15T10:22:57.000Z</time>
      </trkpt>
      <trkpt lat="47.90044" lon="6.79624">
        <ele>720.2</ele>
        <time>2026-08-15T10:22:58.000Z</time>
      </trkpt>
      <trkpt lat="47.90042" lon="6.79625">
        <ele>720.4</ele>
        <time>2026-08-15T10:22:59.000Z</time>
      </trkpt>
      <trkpt lat="47.90037" lon="6.79632">
        <ele>720.8</ele>
        <time>2026-08-15T10:23:02.000Z</time>
      </trkpt>
      <trkpt lat="47.90038" lon="6.7964">
        <ele>721.2</ele>
        <time>2026-08-15T10:23:04.000Z</time>
      </trkpt>
      <trkpt lat="47.90042" lon="6.79647">
        <ele>721.4</ele>
        <time>2026-08-15T10:23:06.000Z</time>
      </trkpt>
      <trkpt lat="47.90048" lon="6.7966">
        <ele>722.4</ele>
        <time>2026-08-15T10:23:09.000Z</time>
      </trkpt>
      <trkpt lat="47.90052" lon="6.79675">
        <ele>723</ele>
        <time>2026-08-15T10:23:12.000Z</time>
      </trkpt>
      <trkpt lat="47.90053" lon="6.79681">
        <ele>723.4</ele>
        <time>2026-08-15T10:23:13.000Z</time>
      </trkpt>
      <trkpt lat="47.90054" lon="6.79703">
        <ele>724.6</ele>
        <time>2026-08-15T10:23:17.000Z</time>
      </trkpt>
      <trkpt lat="47.90054" lon="6.79715">
        <ele>725.2</ele>
        <time>2026-08-15T10:23:19.000Z</time>
      </trkpt>
      <trkpt lat="47.90054" lon="6.79726">
        <ele>725.8</ele>
        <time>2026-08-15T10:23:21.000Z</time>
      </trkpt>
      <trkpt lat="47.90055" lon="6.79756">
        <ele>726.6</ele>
        <time>2026-08-15T10:23:26.000Z</time>
      </trkpt>
      <trkpt lat="47.90057" lon="6.79769">
        <ele>727</ele>
        <time>2026-08-15T10:23:28.000Z</time>
      </trkpt>
      <trkpt lat="47.90061" lon="6.7979">
        <ele>728</ele>
        <time>2026-08-15T10:23:32.000Z</time>
      </trkpt>
      <trkpt lat="47.90065" lon="6.79805">
        <ele>728.6</ele>
        <time>2026-08-15T10:23:35.000Z</time>
      </trkpt>
      <trkpt lat="47.90069" lon="6.79819">
        <ele>729.2</ele>
        <time>2026-08-15T10:23:38.000Z</time>
      </trkpt>
      <trkpt lat="47.90075" lon="6.79837">
        <ele>730.4</ele>
        <time>2026-08-15T10:23:42.000Z</time>
      </trkpt>
      <trkpt lat="47.90077" lon="6.79846">
        <ele>731</ele>
        <time>2026-08-15T10:23:44.000Z</time>
      </trkpt>
      <trkpt lat="47.9008" lon="6.79855">
        <ele>731.4</ele>
        <time>2026-08-15T10:23:46.000Z</time>
      </trkpt>
      <trkpt lat="47.90082" lon="6.79877">
        <ele>732.2</ele>
        <time>2026-08-15T10:23:51.000Z</time>
      </trkpt>
      <trkpt lat="47.90076" lon="6.7988">
        <ele>732.8</ele>
        <time>2026-08-15T10:23:53.000Z</time>
      </trkpt>
      <trkpt lat="47.90073" lon="6.79879">
        <ele>733.2</ele>
        <time>2026-08-15T10:23:54.000Z</time>
      </trkpt>
      <trkpt lat="47.90068" lon="6.79875">
        <ele>734.2</ele>
        <time>2026-08-15T10:23:56.000Z</time>
      </trkpt>
      <trkpt lat="47.90062" lon="6.79871">
        <ele>735.2</ele>
        <time>2026-08-15T10:23:58.000Z</time>
      </trkpt>
      <trkpt lat="47.90058" lon="6.79868">
        <ele>735.6</ele>
        <time>2026-08-15T10:23:59.000Z</time>
      </trkpt>
      <trkpt lat="47.9005" lon="6.7986">
        <ele>736.4</ele>
        <time>2026-08-15T10:24:02.000Z</time>
      </trkpt>
      <trkpt lat="47.90045" lon="6.79852">
        <ele>736.8</ele>
        <time>2026-08-15T10:24:04.000Z</time>
      </trkpt>
      <trkpt lat="47.90043" lon="6.79848">
        <ele>737.2</ele>
        <time>2026-08-15T10:24:05.000Z</time>
      </trkpt>
      <trkpt lat="47.9004" lon="6.79839">
        <ele>737.6</ele>
        <time>2026-08-15T10:24:07.000Z</time>
      </trkpt>
      <trkpt lat="47.90032" lon="6.79813">
        <ele>737.6</ele>
        <time>2026-08-15T10:24:12.000Z</time>
      </trkpt>
      <trkpt lat="47.90024" lon="6.79785">
        <ele>738.6</ele>
        <time>2026-08-15T10:24:17.000Z</time>
      </trkpt>
      <trkpt lat="47.9002" lon="6.79771">
        <ele>739.2</ele>
        <time>2026-08-15T10:24:20.000Z</time>
      </trkpt>
      <trkpt lat="47.90016" lon="6.79756">
        <ele>739.8</ele>
        <time>2026-08-15T10:24:23.000Z</time>
      </trkpt>
      <trkpt lat="47.90006" lon="6.79742">
        <ele>740.6</ele>
        <time>2026-08-15T10:24:27.000Z</time>
      </trkpt>
      <trkpt lat="47.90002" lon="6.79742">
        <ele>740.8</ele>
        <time>2026-08-15T10:24:28.000Z</time>
      </trkpt>
      <trkpt lat="47.89996" lon="6.79748">
        <ele>741.4</ele>
        <time>2026-08-15T10:24:30.000Z</time>
      </trkpt>
      <trkpt lat="47.89992" lon="6.79761">
        <ele>742</ele>
        <time>2026-08-15T10:24:33.000Z</time>
      </trkpt>
      <trkpt lat="47.89992" lon="6.79766">
        <ele>742.4</ele>
        <time>2026-08-15T10:24:34.000Z</time>
      </trkpt>
      <trkpt lat="47.89994" lon="6.79786">
        <ele>743.2</ele>
        <time>2026-08-15T10:24:38.000Z</time>
      </trkpt>
      <trkpt lat="47.89996" lon="6.79795">
        <ele>743.8</ele>
        <time>2026-08-15T10:24:40.000Z</time>
      </trkpt>
      <trkpt lat="47.89997" lon="6.79804">
        <ele>744.4</ele>
        <time>2026-08-15T10:24:42.000Z</time>
      </trkpt>
      <trkpt lat="47.90001" lon="6.79822">
        <ele>745.6</ele>
        <time>2026-08-15T10:24:46.000Z</time>
      </trkpt>
      <trkpt lat="47.90005" lon="6.79841">
        <ele>746.4</ele>
        <time>2026-08-15T10:24:50.000Z</time>
      </trkpt>
      <trkpt lat="47.90012" lon="6.79864">
        <ele>746.6</ele>
        <time>2026-08-15T10:24:54.000Z</time>
      </trkpt>
      <trkpt lat="47.90019" lon="6.79886">
        <ele>747.2</ele>
        <time>2026-08-15T10:24:58.000Z</time>
      </trkpt>
      <trkpt lat="47.90025" lon="6.79901">
        <ele>747.6</ele>
        <time>2026-08-15T10:25:01.000Z</time>
      </trkpt>
      <trkpt lat="47.90032" lon="6.79918">
        <ele>748.8</ele>
        <time>2026-08-15T10:25:05.000Z</time>
      </trkpt>
      <trkpt lat="47.90033" lon="6.79922">
        <ele>749.4</ele>
        <time>2026-08-15T10:25:06.000Z</time>
      </trkpt>
      <trkpt lat="47.90036" lon="6.7993">
        <ele>750</ele>
        <time>2026-08-15T10:25:08.000Z</time>
      </trkpt>
      <trkpt lat="47.90038" lon="6.7994">
        <ele>751.4</ele>
        <time>2026-08-15T10:25:11.000Z</time>
      </trkpt>
      <trkpt lat="47.90039" lon="6.79945">
        <ele>752</ele>
        <time>2026-08-15T10:25:13.000Z</time>
      </trkpt>
      <trkpt lat="47.90039" lon="6.79948">
        <ele>752.4</ele>
        <time>2026-08-15T10:25:14.000Z</time>
      </trkpt>
      <trkpt lat="47.9004" lon="6.79957">
        <ele>753.6</ele>
        <time>2026-08-15T10:25:18.000Z</time>
      </trkpt>
      <trkpt lat="47.9004" lon="6.79957">
        <ele>753.8</ele>
        <time>2026-08-15T10:25:19.000Z</time>
      </trkpt>
      <trkpt lat="47.90042" lon="6.79957">
        <ele>754</ele>
        <time>2026-08-15T10:25:23.000Z</time>
      </trkpt>
      <trkpt lat="47.90042" lon="6.79975">
        <ele>756</ele>
        <time>2026-08-15T10:26:26.000Z</time>
      </trkpt>
      <trkpt lat="47.90042" lon="6.79978">
        <ele>756.2</ele>
        <time>2026-08-15T10:26:27.000Z</time>
      </trkpt>
      <trkpt lat="47.90044" lon="6.79986">
        <ele>757.2</ele>
        <time>2026-08-15T10:26:30.000Z</time>
      </trkpt>
      <trkpt lat="47.90046" lon="6.79999">
        <ele>758.6</ele>
        <time>2026-08-15T10:26:34.000Z</time>
      </trkpt>
      <trkpt lat="47.90046" lon="6.80002">
        <ele>759</ele>
        <time>2026-08-15T10:26:35.000Z</time>
      </trkpt>
      <trkpt lat="47.90047" lon="6.80009">
        <ele>760</ele>
        <time>2026-08-15T10:26:37.000Z</time>
      </trkpt>
      <trkpt lat="47.90048" lon="6.80019">
        <ele>761.4</ele>
        <time>2026-08-15T10:26:40.000Z</time>
      </trkpt>
      <trkpt lat="47.9005" lon="6.80028">
        <ele>762.8</ele>
        <time>2026-08-15T10:26:43.000Z</time>
      </trkpt>
      <trkpt lat="47.90052" lon="6.80034">
        <ele>763.8</ele>
        <time>2026-08-15T10:26:45.000Z</time>
      </trkpt>
      <trkpt lat="47.90053" lon="6.80041">
        <ele>765</ele>
        <time>2026-08-15T10:26:47.000Z</time>
      </trkpt>
      <trkpt lat="47.90054" lon="6.80051">
        <ele>766.4</ele>
        <time>2026-08-15T10:26:50.000Z</time>
      </trkpt>
      <trkpt lat="47.90055" lon="6.80054">
        <ele>766.8</ele>
        <time>2026-08-15T10:26:51.000Z</time>
      </trkpt>
      <trkpt lat="47.90056" lon="6.80061">
        <ele>767.8</ele>
        <time>2026-08-15T10:26:53.000Z</time>
      </trkpt>
      <trkpt lat="47.90057" lon="6.80072">
        <ele>769.2</ele>
        <time>2026-08-15T10:26:56.000Z</time>
      </trkpt>
      <trkpt lat="47.90057" lon="6.80078">
        <ele>770.2</ele>
        <time>2026-08-15T10:26:58.000Z</time>
      </trkpt>
      <trkpt lat="47.90058" lon="6.80084">
        <ele>771.2</ele>
        <time>2026-08-15T10:27:00.000Z</time>
      </trkpt>
      <trkpt lat="47.90059" lon="6.80088">
        <ele>771.8</ele>
        <time>2026-08-15T10:27:01.000Z</time>
      </trkpt>
      <trkpt lat="47.90061" lon="6.80098">
        <ele>772.8</ele>
        <time>2026-08-15T10:27:04.000Z</time>
      </trkpt>
      <trkpt lat="47.90063" lon="6.80105">
        <ele>773.8</ele>
        <time>2026-08-15T10:27:06.000Z</time>
      </trkpt>
      <trkpt lat="47.90064" lon="6.80108">
        <ele>774.2</ele>
        <time>2026-08-15T10:27:07.000Z</time>
      </trkpt>
      <trkpt lat="47.90066" lon="6.80116">
        <ele>775.2</ele>
        <time>2026-08-15T10:27:09.000Z</time>
      </trkpt>
      <trkpt lat="47.90067" lon="6.80122">
        <ele>776.2</ele>
        <time>2026-08-15T10:27:11.000Z</time>
      </trkpt>
      <trkpt lat="47.90068" lon="6.80128">
        <ele>777.4</ele>
        <time>2026-08-15T10:27:13.000Z</time>
      </trkpt>
      <trkpt lat="47.90069" lon="6.80135">
        <ele>778.6</ele>
        <time>2026-08-15T10:27:15.000Z</time>
      </trkpt>
      <trkpt lat="47.9007" lon="6.80144">
        <ele>780</ele>
        <time>2026-08-15T10:27:18.000Z</time>
      </trkpt>
      <trkpt lat="47.90072" lon="6.80152">
        <ele>781.4</ele>
        <time>2026-08-15T10:27:21.000Z</time>
      </trkpt>
      <trkpt lat="47.90074" lon="6.80163">
        <ele>782.6</ele>
        <time>2026-08-15T10:27:24.000Z</time>
      </trkpt>
      <trkpt lat="47.90075" lon="6.80169">
        <ele>783.6</ele>
        <time>2026-08-15T10:27:26.000Z</time>
      </trkpt>
      <trkpt lat="47.90077" lon="6.80175">
        <ele>784.8</ele>
        <time>2026-08-15T10:27:28.000Z</time>
      </trkpt>
      <trkpt lat="47.90079" lon="6.80185">
        <ele>786</ele>
        <time>2026-08-15T10:27:31.000Z</time>
      </trkpt>
      <trkpt lat="47.9008" lon="6.80192">
        <ele>787</ele>
        <time>2026-08-15T10:27:33.000Z</time>
      </trkpt>
      <trkpt lat="47.9008" lon="6.80195">
        <ele>787.6</ele>
        <time>2026-08-15T10:27:34.000Z</time>
      </trkpt>
      <trkpt lat="47.90082" lon="6.80204">
        <ele>789</ele>
        <time>2026-08-15T10:27:37.000Z</time>
      </trkpt>
      <trkpt lat="47.90083" lon="6.8021">
        <ele>790</ele>
        <time>2026-08-15T10:27:39.000Z</time>
      </trkpt>
      <trkpt lat="47.90084" lon="6.80219">
        <ele>791.4</ele>
        <time>2026-08-15T10:27:42.000Z</time>
      </trkpt>
      <trkpt lat="47.90084" lon="6.80227">
        <ele>792.8</ele>
        <time>2026-08-15T10:27:45.000Z</time>
      </trkpt>
      <trkpt lat="47.90084" lon="6.80236">
        <ele>794</ele>
        <time>2026-08-15T10:27:48.000Z</time>
      </trkpt>
      <trkpt lat="47.90085" lon="6.80243">
        <ele>794.8</ele>
        <time>2026-08-15T10:27:50.000Z</time>
      </trkpt>
      <trkpt lat="47.90085" lon="6.80246">
        <ele>795.2</ele>
        <time>2026-08-15T10:27:51.000Z</time>
      </trkpt>
      <trkpt lat="47.90085" lon="6.80256">
        <ele>796.8</ele>
        <time>2026-08-15T10:27:54.000Z</time>
      </trkpt>
      <trkpt lat="47.90086" lon="6.80265">
        <ele>798.2</ele>
        <time>2026-08-15T10:27:57.000Z</time>
      </trkpt>
      <trkpt lat="47.90087" lon="6.80267">
        <ele>798.6</ele>
        <time>2026-08-15T10:27:58.000Z</time>
      </trkpt>
      <trkpt lat="47.90088" lon="6.80273">
        <ele>799.6</ele>
        <time>2026-08-15T10:28:00.000Z</time>
      </trkpt>
      <trkpt lat="47.90089" lon="6.80281">
        <ele>801</ele>
        <time>2026-08-15T10:28:03.000Z</time>
      </trkpt>
      <trkpt lat="47.90089" lon="6.80287">
        <ele>802</ele>
        <time>2026-08-15T10:28:05.000Z</time>
      </trkpt>
      <trkpt lat="47.90089" lon="6.8029">
        <ele>802.4</ele>
        <time>2026-08-15T10:28:06.000Z</time>
      </trkpt>
      <trkpt lat="47.9009" lon="6.80298">
        <ele>803.6</ele>
        <time>2026-08-15T10:28:09.000Z</time>
      </trkpt>
      <trkpt lat="47.9009" lon="6.80306">
        <ele>804.8</ele>
        <time>2026-08-15T10:28:12.000Z</time>
      </trkpt>
      <trkpt lat="47.9009" lon="6.8031">
        <ele>805.4</ele>
        <time>2026-08-15T10:28:14.000Z</time>
      </trkpt>
      <trkpt lat="47.9009" lon="6.80313">
        <ele>806</ele>
        <time>2026-08-15T10:28:16.000Z</time>
      </trkpt>
      <trkpt lat="47.90091" lon="6.80313">
        <ele>806.2</ele>
        <time>2026-08-15T10:28:18.000Z</time>
      </trkpt>
      <trkpt lat="47.90091" lon="6.80313">
        <ele>806.4</ele>
        <time>2026-08-15T10:28:19.000Z</time>
      </trkpt>
      <trkpt lat="47.90092" lon="6.80315">
        <ele>806.8</ele>
        <time>2026-08-15T10:28:24.000Z</time>
      </trkpt>
      <trkpt lat="47.90088" lon="6.80336">
        <ele>809.2</ele>
        <time>2026-08-15T10:29:20.000Z</time>
      </trkpt>
      <trkpt lat="47.90088" lon="6.80339">
        <ele>809.4</ele>
        <time>2026-08-15T10:29:21.000Z</time>
      </trkpt>
      <trkpt lat="47.90088" lon="6.80347">
        <ele>810.4</ele>
        <time>2026-08-15T10:29:24.000Z</time>
      </trkpt>
      <trkpt lat="47.90088" lon="6.80355">
        <ele>811.6</ele>
        <time>2026-08-15T10:29:27.000Z</time>
      </trkpt>
      <trkpt lat="47.9009" lon="6.80365">
        <ele>812.8</ele>
        <time>2026-08-15T10:29:30.000Z</time>
      </trkpt>
      <trkpt lat="47.90091" lon="6.80371">
        <ele>813.4</ele>
        <time>2026-08-15T10:29:32.000Z</time>
      </trkpt>
      <trkpt lat="47.90092" lon="6.80374">
        <ele>813.8</ele>
        <time>2026-08-15T10:29:33.000Z</time>
      </trkpt>
      <trkpt lat="47.90093" lon="6.80381">
        <ele>814.8</ele>
        <time>2026-08-15T10:29:35.000Z</time>
      </trkpt>
      <trkpt lat="47.90094" lon="6.80387">
        <ele>816</ele>
        <time>2026-08-15T10:29:37.000Z</time>
      </trkpt>
      <trkpt lat="47.90096" lon="6.80397">
        <ele>817.2</ele>
        <time>2026-08-15T10:29:40.000Z</time>
      </trkpt>
      <trkpt lat="47.90098" lon="6.80404">
        <ele>818.4</ele>
        <time>2026-08-15T10:29:43.000Z</time>
      </trkpt>
      <trkpt lat="47.90099" lon="6.80406">
        <ele>818.8</ele>
        <time>2026-08-15T10:29:44.000Z</time>
      </trkpt>
      <trkpt lat="47.90101" lon="6.80411">
        <ele>819.6</ele>
        <time>2026-08-15T10:29:46.000Z</time>
      </trkpt>
      <trkpt lat="47.90102" lon="6.80419">
        <ele>820.8</ele>
        <time>2026-08-15T10:29:49.000Z</time>
      </trkpt>
      <trkpt lat="47.90104" lon="6.80421">
        <ele>821.2</ele>
        <time>2026-08-15T10:29:50.000Z</time>
      </trkpt>
      <trkpt lat="47.90106" lon="6.80426">
        <ele>822.2</ele>
        <time>2026-08-15T10:29:52.000Z</time>
      </trkpt>
      <trkpt lat="47.90107" lon="6.80432">
        <ele>823.2</ele>
        <time>2026-08-15T10:29:54.000Z</time>
      </trkpt>
      <trkpt lat="47.90109" lon="6.8044">
        <ele>824.4</ele>
        <time>2026-08-15T10:29:57.000Z</time>
      </trkpt>
      <trkpt lat="47.90111" lon="6.80448">
        <ele>825.6</ele>
        <time>2026-08-15T10:30:00.000Z</time>
      </trkpt>
      <trkpt lat="47.90112" lon="6.80455">
        <ele>826.8</ele>
        <time>2026-08-15T10:30:03.000Z</time>
      </trkpt>
      <trkpt lat="47.90113" lon="6.80459">
        <ele>827.4</ele>
        <time>2026-08-15T10:30:05.000Z</time>
      </trkpt>
      <trkpt lat="47.90114" lon="6.80464">
        <ele>827.8</ele>
        <time>2026-08-15T10:30:07.000Z</time>
      </trkpt>
      <trkpt lat="47.90113" lon="6.80465">
        <ele>828.4</ele>
        <time>2026-08-15T10:30:10.000Z</time>
      </trkpt>
      <trkpt lat="47.90113" lon="6.80465">
        <ele>828.6</ele>
        <time>2026-08-15T10:30:14.000Z</time>
      </trkpt>
      <trkpt lat="47.90118" lon="6.80478">
        <ele>831.4</ele>
        <time>2026-08-15T10:31:58.000Z</time>
      </trkpt>
      <trkpt lat="47.90119" lon="6.80481">
        <ele>831.8</ele>
        <time>2026-08-15T10:31:59.000Z</time>
      </trkpt>
      <trkpt lat="47.90119" lon="6.80483">
        <ele>832.2</ele>
        <time>2026-08-15T10:32:00.000Z</time>
      </trkpt>
      <trkpt lat="47.9012" lon="6.80486">
        <ele>832.6</ele>
        <time>2026-08-15T10:32:01.000Z</time>
      </trkpt>
      <trkpt lat="47.90121" lon="6.80494">
        <ele>833.8</ele>
        <time>2026-08-15T10:32:04.000Z</time>
      </trkpt>
      <trkpt lat="47.90123" lon="6.80503">
        <ele>835.4</ele>
        <time>2026-08-15T10:32:07.000Z</time>
      </trkpt>
      <trkpt lat="47.90124" lon="6.80511">
        <ele>836.6</ele>
        <time>2026-08-15T10:32:10.000Z</time>
      </trkpt>
      <trkpt lat="47.90126" lon="6.80519">
        <ele>837.8</ele>
        <time>2026-08-15T10:32:13.000Z</time>
      </trkpt>
      <trkpt lat="47.90126" lon="6.80522">
        <ele>838.4</ele>
        <time>2026-08-15T10:32:14.000Z</time>
      </trkpt>
      <trkpt lat="47.90127" lon="6.80528">
        <ele>839.2</ele>
        <time>2026-08-15T10:32:16.000Z</time>
      </trkpt>
      <trkpt lat="47.90128" lon="6.80538">
        <ele>840.4</ele>
        <time>2026-08-15T10:32:19.000Z</time>
      </trkpt>
      <trkpt lat="47.90129" lon="6.80546">
        <ele>841.6</ele>
        <time>2026-08-15T10:32:22.000Z</time>
      </trkpt>
      <trkpt lat="47.9013" lon="6.80555">
        <ele>842.8</ele>
        <time>2026-08-15T10:32:25.000Z</time>
      </trkpt>
      <trkpt lat="47.90133" lon="6.80567">
        <ele>843.6</ele>
        <time>2026-08-15T10:32:29.000Z</time>
      </trkpt>
      <trkpt lat="47.90134" lon="6.8057">
        <ele>844</ele>
        <time>2026-08-15T10:32:30.000Z</time>
      </trkpt>
      <trkpt lat="47.90136" lon="6.80582">
        <ele>845</ele>
        <time>2026-08-15T10:32:34.000Z</time>
      </trkpt>
      <trkpt lat="47.90138" lon="6.80588">
        <ele>845.8</ele>
        <time>2026-08-15T10:32:36.000Z</time>
      </trkpt>
      <trkpt lat="47.90141" lon="6.80593">
        <ele>846.4</ele>
        <time>2026-08-15T10:32:38.000Z</time>
      </trkpt>
      <trkpt lat="47.90144" lon="6.806">
        <ele>847.4</ele>
        <time>2026-08-15T10:32:41.000Z</time>
      </trkpt>
      <trkpt lat="47.90147" lon="6.80605">
        <ele>848</ele>
        <time>2026-08-15T10:32:43.000Z</time>
      </trkpt>
      <trkpt lat="47.90151" lon="6.80613">
        <ele>848.6</ele>
        <time>2026-08-15T10:32:46.000Z</time>
      </trkpt>
      <trkpt lat="47.90157" lon="6.80623">
        <ele>849.2</ele>
        <time>2026-08-15T10:32:50.000Z</time>
      </trkpt>
      <trkpt lat="47.90161" lon="6.80631">
        <ele>849.8</ele>
        <time>2026-08-15T10:32:53.000Z</time>
      </trkpt>
      <trkpt lat="47.90163" lon="6.80641">
        <ele>851</ele>
        <time>2026-08-15T10:32:57.000Z</time>
      </trkpt>
      <trkpt lat="47.90165" lon="6.80658">
        <ele>851.8</ele>
        <time>2026-08-15T10:33:03.000Z</time>
      </trkpt>
      <trkpt lat="47.90163" lon="6.80663">
        <ele>851.8</ele>
        <time>2026-08-15T10:33:05.000Z</time>
      </trkpt>
      <trkpt lat="47.90159" lon="6.80667">
        <ele>851.8</ele>
        <time>2026-08-15T10:33:07.000Z</time>
      </trkpt>
      <trkpt lat="47.90149" lon="6.80678">
        <ele>852.2</ele>
        <time>2026-08-15T10:33:12.000Z</time>
      </trkpt>
      <trkpt lat="47.90148" lon="6.80681">
        <ele>852.2</ele>
        <time>2026-08-15T10:33:13.000Z</time>
      </trkpt>
      <trkpt lat="47.90132" lon="6.807">
        <ele>853</ele>
        <time>2026-08-15T10:33:20.000Z</time>
      </trkpt>
      <trkpt lat="47.9013" lon="6.80703">
        <ele>853.2</ele>
        <time>2026-08-15T10:33:21.000Z</time>
      </trkpt>
      <trkpt lat="47.90128" lon="6.80705">
        <ele>853.4</ele>
        <time>2026-08-15T10:33:22.000Z</time>
      </trkpt>
      <trkpt lat="47.90116" lon="6.80717">
        <ele>854.6</ele>
        <time>2026-08-15T10:33:27.000Z</time>
      </trkpt>
      <trkpt lat="47.90112" lon="6.8072">
        <ele>855.2</ele>
        <time>2026-08-15T10:33:29.000Z</time>
      </trkpt>
      <trkpt lat="47.90108" lon="6.80724">
        <ele>855.8</ele>
        <time>2026-08-15T10:33:31.000Z</time>
      </trkpt>
      <trkpt lat="47.90101" lon="6.80731">
        <ele>857.2</ele>
        <time>2026-08-15T10:33:35.000Z</time>
      </trkpt>
      <trkpt lat="47.90098" lon="6.80734">
        <ele>857.8</ele>
        <time>2026-08-15T10:33:37.000Z</time>
      </trkpt>
      <trkpt lat="47.90094" lon="6.80739">
        <ele>858.4</ele>
        <time>2026-08-15T10:33:39.000Z</time>
      </trkpt>
      <trkpt lat="47.90087" lon="6.80755">
        <ele>859.4</ele>
        <time>2026-08-15T10:33:44.000Z</time>
      </trkpt>
      <trkpt lat="47.90085" lon="6.80757">
        <ele>859.6</ele>
        <time>2026-08-15T10:33:45.000Z</time>
      </trkpt>
      <trkpt lat="47.90078" lon="6.80766">
        <ele>860.8</ele>
        <time>2026-08-15T10:33:49.000Z</time>
      </trkpt>
      <trkpt lat="47.90074" lon="6.8077">
        <ele>861.6</ele>
        <time>2026-08-15T10:33:51.000Z</time>
      </trkpt>
      <trkpt lat="47.90072" lon="6.80771">
        <ele>862</ele>
        <time>2026-08-15T10:33:52.000Z</time>
      </trkpt>
      <trkpt lat="47.90067" lon="6.80775">
        <ele>863.2</ele>
        <time>2026-08-15T10:33:55.000Z</time>
      </trkpt>
      <trkpt lat="47.9006" lon="6.80778">
        <ele>864.8</ele>
        <time>2026-08-15T10:33:58.000Z</time>
      </trkpt>
      <trkpt lat="47.90056" lon="6.8078">
        <ele>865.8</ele>
        <time>2026-08-15T10:34:00.000Z</time>
      </trkpt>
      <trkpt lat="47.90051" lon="6.80785">
        <ele>867.2</ele>
        <time>2026-08-15T10:34:03.000Z</time>
      </trkpt>
      <trkpt lat="47.90049" lon="6.80785">
        <ele>868</ele>
        <time>2026-08-15T10:34:06.000Z</time>
      </trkpt>
      <trkpt lat="47.90049" lon="6.80786">
        <ele>868.2</ele>
        <time>2026-08-15T10:34:07.000Z</time>
      </trkpt>
      <trkpt lat="47.90049" lon="6.80786">
        <ele>868.2</ele>
        <time>2026-08-15T10:34:09.000Z</time>
      </trkpt>
      <trkpt lat="47.90036" lon="6.80778">
        <ele>871.8</ele>
        <time>2026-08-15T10:35:19.000Z</time>
      </trkpt>
      <trkpt lat="47.90034" lon="6.80777">
        <ele>872.4</ele>
        <time>2026-08-15T10:35:20.000Z</time>
      </trkpt>
      <trkpt lat="47.90032" lon="6.80777">
        <ele>873</ele>
        <time>2026-08-15T10:35:21.000Z</time>
      </trkpt>
      <trkpt lat="47.90027" lon="6.80778">
        <ele>874.2</ele>
        <time>2026-08-15T10:35:23.000Z</time>
      </trkpt>
      <trkpt lat="47.90022" lon="6.80778">
        <ele>875.4</ele>
        <time>2026-08-15T10:35:25.000Z</time>
      </trkpt>
      <trkpt lat="47.90019" lon="6.80778">
        <ele>876.2</ele>
        <time>2026-08-15T10:35:26.000Z</time>
      </trkpt>
      <trkpt lat="47.90017" lon="6.80778">
        <ele>877.2</ele>
        <time>2026-08-15T10:35:27.000Z</time>
      </trkpt>
      <trkpt lat="47.90013" lon="6.80779">
        <ele>879.2</ele>
        <time>2026-08-15T10:35:29.000Z</time>
      </trkpt>
      <trkpt lat="47.90012" lon="6.80781">
        <ele>879.8</ele>
        <time>2026-08-15T10:35:30.000Z</time>
      </trkpt>
      <trkpt lat="47.9001" lon="6.80784">
        <ele>880.4</ele>
        <time>2026-08-15T10:35:31.000Z</time>
      </trkpt>
      <trkpt lat="47.90009" lon="6.80786">
        <ele>881</ele>
        <time>2026-08-15T10:35:32.000Z</time>
      </trkpt>
      <trkpt lat="47.90008" lon="6.80789">
        <ele>881.6</ele>
        <time>2026-08-15T10:35:33.000Z</time>
      </trkpt>
      <trkpt lat="47.90006" lon="6.80793">
        <ele>882.6</ele>
        <time>2026-08-15T10:35:35.000Z</time>
      </trkpt>
      <trkpt lat="47.90004" lon="6.808">
        <ele>883.8</ele>
        <time>2026-08-15T10:35:38.000Z</time>
      </trkpt>
      <trkpt lat="47.90003" lon="6.80802">
        <ele>884.6</ele>
        <time>2026-08-15T10:35:39.000Z</time>
      </trkpt>
      <trkpt lat="47.90002" lon="6.80803">
        <ele>885.2</ele>
        <time>2026-08-15T10:35:40.000Z</time>
      </trkpt>
      <trkpt lat="47.90002" lon="6.80803">
        <ele>885.8</ele>
        <time>2026-08-15T10:35:41.000Z</time>
      </trkpt>
      <trkpt lat="47.90001" lon="6.80804">
        <ele>886.2</ele>
        <time>2026-08-15T10:35:42.000Z</time>
      </trkpt>
      <trkpt lat="47.90001" lon="6.80803">
        <ele>886.2</ele>
        <time>2026-08-15T10:35:47.000Z</time>
      </trkpt>
      <trkpt lat="47.90002" lon="6.80803">
        <ele>886.2</ele>
        <time>2026-08-15T10:35:49.000Z</time>
      </trkpt>
      <trkpt lat="47.8998" lon="6.80812">
        <ele>893</ele>
        <time>2026-08-15T10:39:06.000Z</time>
      </trkpt>
      <trkpt lat="47.89976" lon="6.8081">
        <ele>893.2</ele>
        <time>2026-08-15T10:39:07.000Z</time>
      </trkpt>
      <trkpt lat="47.89968" lon="6.80806">
        <ele>894.2</ele>
        <time>2026-08-15T10:39:10.000Z</time>
      </trkpt>
      <trkpt lat="47.89965" lon="6.80804">
        <ele>895.4</ele>
        <time>2026-08-15T10:39:12.000Z</time>
      </trkpt>
      <trkpt lat="47.8996" lon="6.80802">
        <ele>896.6</ele>
        <time>2026-08-15T10:39:14.000Z</time>
      </trkpt>
      <trkpt lat="47.89957" lon="6.80803">
        <ele>897.6</ele>
        <time>2026-08-15T10:39:16.000Z</time>
      </trkpt>
      <trkpt lat="47.89955" lon="6.80804">
        <ele>898.2</ele>
        <time>2026-08-15T10:39:17.000Z</time>
      </trkpt>
      <trkpt lat="47.89951" lon="6.80807">
        <ele>899.2</ele>
        <time>2026-08-15T10:39:19.000Z</time>
      </trkpt>
      <trkpt lat="47.89947" lon="6.80808">
        <ele>900.2</ele>
        <time>2026-08-15T10:39:21.000Z</time>
      </trkpt>
      <trkpt lat="47.89945" lon="6.80808">
        <ele>900.6</ele>
        <time>2026-08-15T10:39:22.000Z</time>
      </trkpt>
      <trkpt lat="47.89941" lon="6.80808">
        <ele>901.4</ele>
        <time>2026-08-15T10:39:24.000Z</time>
      </trkpt>
      <trkpt lat="47.89933" lon="6.80808">
        <ele>902.8</ele>
        <time>2026-08-15T10:39:28.000Z</time>
      </trkpt>
      <trkpt lat="47.89931" lon="6.8081">
        <ele>903.2</ele>
        <time>2026-08-15T10:39:29.000Z</time>
      </trkpt>
      <trkpt lat="47.89928" lon="6.80813">
        <ele>904.2</ele>
        <time>2026-08-15T10:39:31.000Z</time>
      </trkpt>
      <trkpt lat="47.89925" lon="6.80818">
        <ele>905.6</ele>
        <time>2026-08-15T10:39:34.000Z</time>
      </trkpt>
      <trkpt lat="47.89923" lon="6.80821">
        <ele>906.2</ele>
        <time>2026-08-15T10:39:36.000Z</time>
      </trkpt>
      <trkpt lat="47.89923" lon="6.80823">
        <ele>906.8</ele>
        <time>2026-08-15T10:39:37.000Z</time>
      </trkpt>
      <trkpt lat="47.89925" lon="6.80827">
        <ele>907.6</ele>
        <time>2026-08-15T10:39:39.000Z</time>
      </trkpt>
      <trkpt lat="47.89925" lon="6.80829">
        <ele>908.2</ele>
        <time>2026-08-15T10:39:40.000Z</time>
      </trkpt>
      <trkpt lat="47.89927" lon="6.80835">
        <ele>909.2</ele>
        <time>2026-08-15T10:39:42.000Z</time>
      </trkpt>
      <trkpt lat="47.89929" lon="6.80839">
        <ele>910.4</ele>
        <time>2026-08-15T10:39:44.000Z</time>
      </trkpt>
      <trkpt lat="47.89931" lon="6.80845">
        <ele>911.6</ele>
        <time>2026-08-15T10:39:47.000Z</time>
      </trkpt>
      <trkpt lat="47.89932" lon="6.8085">
        <ele>912.4</ele>
        <time>2026-08-15T10:39:49.000Z</time>
      </trkpt>
      <trkpt lat="47.89932" lon="6.80852">
        <ele>912.8</ele>
        <time>2026-08-15T10:39:50.000Z</time>
      </trkpt>
      <trkpt lat="47.89935" lon="6.80861">
        <ele>914</ele>
        <time>2026-08-15T10:39:54.000Z</time>
      </trkpt>
      <trkpt lat="47.89935" lon="6.80868">
        <ele>915</ele>
        <time>2026-08-15T10:39:57.000Z</time>
      </trkpt>
      <trkpt lat="47.89936" lon="6.80873">
        <ele>916.2</ele>
        <time>2026-08-15T10:40:00.000Z</time>
      </trkpt>
      <trkpt lat="47.89938" lon="6.80878">
        <ele>916.8</ele>
        <time>2026-08-15T10:40:03.000Z</time>
      </trkpt>
      <trkpt lat="47.89939" lon="6.80883">
        <ele>917.6</ele>
        <time>2026-08-15T10:40:05.000Z</time>
      </trkpt>
      <trkpt lat="47.89938" lon="6.80892">
        <ele>919</ele>
        <time>2026-08-15T10:40:08.000Z</time>
      </trkpt>
      <trkpt lat="47.89938" lon="6.80892">
        <ele>919.4</ele>
        <time>2026-08-15T10:40:09.000Z</time>
      </trkpt>
      <trkpt lat="47.89938" lon="6.80895">
        <ele>919.8</ele>
        <time>2026-08-15T10:40:14.000Z</time>
      </trkpt>
      <trkpt lat="47.89902" lon="6.80936">
        <ele>939.8</ele>
        <time>2026-08-15T10:45:01.000Z</time>
      </trkpt>
      <trkpt lat="47.89898" lon="6.80927">
        <ele>940.8</ele>
        <time>2026-08-15T10:45:06.000Z</time>
      </trkpt>
      <trkpt lat="47.89896" lon="6.80927">
        <ele>941.2</ele>
        <time>2026-08-15T10:45:07.000Z</time>
      </trkpt>
      <trkpt lat="47.89892" lon="6.80923">
        <ele>942.2</ele>
        <time>2026-08-15T10:45:10.000Z</time>
      </trkpt>
      <trkpt lat="47.89887" lon="6.80917">
        <ele>943</ele>
        <time>2026-08-15T10:45:13.000Z</time>
      </trkpt>
      <trkpt lat="47.89886" lon="6.80916">
        <ele>943.4</ele>
        <time>2026-08-15T10:45:14.000Z</time>
      </trkpt>
      <trkpt lat="47.89882" lon="6.80912">
        <ele>944.4</ele>
        <time>2026-08-15T10:45:17.000Z</time>
      </trkpt>
      <trkpt lat="47.89881" lon="6.80911">
        <ele>944.8</ele>
        <time>2026-08-15T10:45:18.000Z</time>
      </trkpt>
      <trkpt lat="47.89875" lon="6.80907">
        <ele>944.8</ele>
        <time>2026-08-15T10:45:23.000Z</time>
      </trkpt>
      <trkpt lat="47.89867" lon="6.80902">
        <ele>944.4</ele>
        <time>2026-08-15T10:45:29.000Z</time>
      </trkpt>
      <trkpt lat="47.89862" lon="6.80896">
        <ele>943.4</ele>
        <time>2026-08-15T10:45:33.000Z</time>
      </trkpt>
      <trkpt lat="47.8986" lon="6.80892">
        <ele>942.8</ele>
        <time>2026-08-15T10:45:35.000Z</time>
      </trkpt>
      <trkpt lat="47.89859" lon="6.80892">
        <ele>942.4</ele>
        <time>2026-08-15T10:45:36.000Z</time>
      </trkpt>
      <trkpt lat="47.89857" lon="6.8089">
        <ele>942.2</ele>
        <time>2026-08-15T10:45:37.000Z</time>
      </trkpt>
      <trkpt lat="47.89856" lon="6.80886">
        <ele>941.6</ele>
        <time>2026-08-15T10:45:39.000Z</time>
      </trkpt>
      <trkpt lat="47.89855" lon="6.80884">
        <ele>941.2</ele>
        <time>2026-08-15T10:45:40.000Z</time>
      </trkpt>
      <trkpt lat="47.89853" lon="6.8088">
        <ele>940.8</ele>
        <time>2026-08-15T10:45:41.000Z</time>
      </trkpt>
      <trkpt lat="47.89852" lon="6.80877">
        <ele>940.4</ele>
        <time>2026-08-15T10:45:42.000Z</time>
      </trkpt>
      <trkpt lat="47.89851" lon="6.80875">
        <ele>940.2</ele>
        <time>2026-08-15T10:45:43.000Z</time>
      </trkpt>
      <trkpt lat="47.8985" lon="6.80873">
        <ele>940</ele>
        <time>2026-08-15T10:45:44.000Z</time>
      </trkpt>
      <trkpt lat="47.8985" lon="6.80873">
        <ele>939.6</ele>
        <time>2026-08-15T10:45:45.000Z</time>
      </trkpt>
      <trkpt lat="47.8985" lon="6.80873">
        <ele>939.6</ele>
        <time>2026-08-15T10:45:51.000Z</time>
      </trkpt>
      <trkpt lat="47.89847" lon="6.80864">
        <ele>938.8</ele>
        <time>2026-08-15T10:45:58.000Z</time>
      </trkpt>
      <trkpt lat="47.89847" lon="6.80862">
        <ele>938.6</ele>
        <time>2026-08-15T10:45:59.000Z</time>
      </trkpt>
      <trkpt lat="47.89847" lon="6.80861">
        <ele>938.4</ele>
        <time>2026-08-15T10:46:00.000Z</time>
      </trkpt>
      <trkpt lat="47.89843" lon="6.80856">
        <ele>937.6</ele>
        <time>2026-08-15T10:46:03.000Z</time>
      </trkpt>
      <trkpt lat="47.8984" lon="6.80854">
        <ele>937</ele>
        <time>2026-08-15T10:46:05.000Z</time>
      </trkpt>
      <trkpt lat="47.89838" lon="6.80849">
        <ele>936.2</ele>
        <time>2026-08-15T10:46:08.000Z</time>
      </trkpt>
      <trkpt lat="47.89838" lon="6.80848">
        <ele>936</ele>
        <time>2026-08-15T10:46:10.000Z</time>
      </trkpt>
      <trkpt lat="47.89838" lon="6.80848">
        <ele>935.8</ele>
        <time>2026-08-15T10:46:15.000Z</time>
      </trkpt>
      <trkpt lat="47.89859" lon="6.8085">
        <ele>937.2</ele>
        <time>2026-08-15T10:47:10.000Z</time>
      </trkpt>
      <trkpt lat="47.89861" lon="6.80849">
        <ele>936.8</ele>
        <time>2026-08-15T10:47:11.000Z</time>
      </trkpt>
      <trkpt lat="47.89864" lon="6.80849">
        <ele>936.4</ele>
        <time>2026-08-15T10:47:13.000Z</time>
      </trkpt>
      <trkpt lat="47.89871" lon="6.80858">
        <ele>935</ele>
        <time>2026-08-15T10:47:18.000Z</time>
      </trkpt>
      <trkpt lat="47.89872" lon="6.80859">
        <ele>934.6</ele>
        <time>2026-08-15T10:47:19.000Z</time>
      </trkpt>
      <trkpt lat="47.89875" lon="6.80861">
        <ele>934</ele>
        <time>2026-08-15T10:47:22.000Z</time>
      </trkpt>
      <trkpt lat="47.89875" lon="6.80861">
        <ele>933.6</ele>
        <time>2026-08-15T10:47:25.000Z</time>
      </trkpt>
      <trkpt lat="47.89876" lon="6.80861">
        <ele>933.4</ele>
        <time>2026-08-15T10:47:26.000Z</time>
      </trkpt>
      <trkpt lat="47.89876" lon="6.80843">
        <ele>930</ele>
        <time>2026-08-15T10:47:47.000Z</time>
      </trkpt>
      <trkpt lat="47.89875" lon="6.80841">
        <ele>929.8</ele>
        <time>2026-08-15T10:47:48.000Z</time>
      </trkpt>
      <trkpt lat="47.89875" lon="6.8084">
        <ele>929.8</ele>
        <time>2026-08-15T10:47:49.000Z</time>
      </trkpt>
      <trkpt lat="47.89856" lon="6.80798">
        <ele>914.2</ele>
        <time>2026-08-15T10:49:39.000Z</time>
      </trkpt>
      <trkpt lat="47.89857" lon="6.80798">
        <ele>914</ele>
        <time>2026-08-15T10:49:40.000Z</time>
      </trkpt>
      <trkpt lat="47.89862" lon="6.80793">
        <ele>913</ele>
        <time>2026-08-15T10:49:43.000Z</time>
      </trkpt>
      <trkpt lat="47.89864" lon="6.80788">
        <ele>911.8</ele>
        <time>2026-08-15T10:49:45.000Z</time>
      </trkpt>
      <trkpt lat="47.89869" lon="6.80784">
        <ele>910.4</ele>
        <time>2026-08-15T10:49:48.000Z</time>
      </trkpt>
      <trkpt lat="47.8987" lon="6.80782">
        <ele>910</ele>
        <time>2026-08-15T10:49:50.000Z</time>
      </trkpt>
      <trkpt lat="47.89869" lon="6.80782">
        <ele>909.8</ele>
        <time>2026-08-15T10:49:51.000Z</time>
      </trkpt>
      <trkpt lat="47.89869" lon="6.80781">
        <ele>909.4</ele>
        <time>2026-08-15T10:49:53.000Z</time>
      </trkpt>
      <trkpt lat="47.8986" lon="6.80779">
        <ele>908.2</ele>
        <time>2026-08-15T10:49:58.000Z</time>
      </trkpt>
      <trkpt lat="47.89858" lon="6.80778">
        <ele>907.6</ele>
        <time>2026-08-15T10:50:00.000Z</time>
      </trkpt>
      <trkpt lat="47.89858" lon="6.80778">
        <ele>907.2</ele>
        <time>2026-08-15T10:50:03.000Z</time>
      </trkpt>
      <trkpt lat="47.89857" lon="6.80777">
        <ele>907</ele>
        <time>2026-08-15T10:50:04.000Z</time>
      </trkpt>
      <trkpt lat="47.89863" lon="6.80773">
        <ele>906.4</ele>
        <time>2026-08-15T10:50:11.000Z</time>
      </trkpt>
      <trkpt lat="47.89863" lon="6.80771">
        <ele>906.2</ele>
        <time>2026-08-15T10:50:12.000Z</time>
      </trkpt>
      <trkpt lat="47.89864" lon="6.8077">
        <ele>906</ele>
        <time>2026-08-15T10:50:13.000Z</time>
      </trkpt>
      <trkpt lat="47.89865" lon="6.8077">
        <ele>905.6</ele>
        <time>2026-08-15T10:50:15.000Z</time>
      </trkpt>
      <trkpt lat="47.89844" lon="6.80762">
        <ele>901.4</ele>
        <time>2026-08-15T10:50:54.000Z</time>
      </trkpt>
      <trkpt lat="47.89844" lon="6.80762">
        <ele>901.4</ele>
        <time>2026-08-15T10:50:55.000Z</time>
      </trkpt>
      <trkpt lat="47.89844" lon="6.80764">
        <ele>902</ele>
        <time>2026-08-15T10:51:00.000Z</time>
      </trkpt>
      <trkpt lat="47.89829" lon="6.80776">
        <ele>902.6</ele>
        <time>2026-08-15T10:51:21.000Z</time>
      </trkpt>
      <trkpt lat="47.89826" lon="6.80777">
        <ele>902.4</ele>
        <time>2026-08-15T10:51:25.000Z</time>
      </trkpt>
      <trkpt lat="47.89819" lon="6.8078">
        <ele>901.6</ele>
        <time>2026-08-15T10:51:31.000Z</time>
      </trkpt>
      <trkpt lat="47.89818" lon="6.8078">
        <ele>901.2</ele>
        <time>2026-08-15T10:51:32.000Z</time>
      </trkpt>
      <trkpt lat="47.89811" lon="6.80782">
        <ele>900.6</ele>
        <time>2026-08-15T10:51:38.000Z</time>
      </trkpt>
      <trkpt lat="47.8981" lon="6.80782">
        <ele>900.2</ele>
        <time>2026-08-15T10:51:40.000Z</time>
      </trkpt>
      <trkpt lat="47.89805" lon="6.80785">
        <ele>899.6</ele>
        <time>2026-08-15T10:51:48.000Z</time>
      </trkpt>
      <trkpt lat="47.89803" lon="6.80787">
        <ele>899.4</ele>
        <time>2026-08-15T10:51:51.000Z</time>
      </trkpt>
      <trkpt lat="47.89794" lon="6.80784">
        <ele>897.8</ele>
        <time>2026-08-15T10:51:58.000Z</time>
      </trkpt>
      <trkpt lat="47.89792" lon="6.80785">
        <ele>897.8</ele>
        <time>2026-08-15T10:52:00.000Z</time>
      </trkpt>
      <trkpt lat="47.89789" lon="6.80787">
        <ele>898.2</ele>
        <time>2026-08-15T10:52:06.000Z</time>
      </trkpt>
      <trkpt lat="47.89788" lon="6.80788">
        <ele>898.2</ele>
        <time>2026-08-15T10:52:07.000Z</time>
      </trkpt>
      <trkpt lat="47.89775" lon="6.80797">
        <ele>895.2</ele>
        <time>2026-08-15T10:52:26.000Z</time>
      </trkpt>
      <trkpt lat="47.89773" lon="6.80799">
        <ele>895.2</ele>
        <time>2026-08-15T10:52:31.000Z</time>
      </trkpt>
      <trkpt lat="47.89772" lon="6.80797">
        <ele>895</ele>
        <time>2026-08-15T10:52:42.000Z</time>
      </trkpt>
      <trkpt lat="47.89765" lon="6.80803">
        <ele>893.8</ele>
        <time>2026-08-15T10:53:02.000Z</time>
      </trkpt>
      <trkpt lat="47.89756" lon="6.80811">
        <ele>893</ele>
        <time>2026-08-15T10:53:07.000Z</time>
      </trkpt>
      <trkpt lat="47.89754" lon="6.80813">
        <ele>892.8</ele>
        <time>2026-08-15T10:53:11.000Z</time>
      </trkpt>
      <trkpt lat="47.89754" lon="6.80813">
        <ele>892.6</ele>
        <time>2026-08-15T10:53:12.000Z</time>
      </trkpt>
      <trkpt lat="47.89742" lon="6.80827">
        <ele>891.8</ele>
        <time>2026-08-15T10:53:32.000Z</time>
      </trkpt>
      <trkpt lat="47.89741" lon="6.8083">
        <ele>892.2</ele>
        <time>2026-08-15T10:53:35.000Z</time>
      </trkpt>
      <trkpt lat="47.8974" lon="6.8083">
        <ele>892.2</ele>
        <time>2026-08-15T10:53:36.000Z</time>
      </trkpt>
      <trkpt lat="47.89737" lon="6.80831">
        <ele>892</ele>
        <time>2026-08-15T10:53:40.000Z</time>
      </trkpt>
      <trkpt lat="47.89731" lon="6.80833">
        <ele>891.4</ele>
        <time>2026-08-15T10:53:43.000Z</time>
      </trkpt>
      <trkpt lat="47.89729" lon="6.80836">
        <ele>891</ele>
        <time>2026-08-15T10:53:45.000Z</time>
      </trkpt>
      <trkpt lat="47.89724" lon="6.80847">
        <ele>890.8</ele>
        <time>2026-08-15T10:53:51.000Z</time>
      </trkpt>
      <trkpt lat="47.8972" lon="6.80856">
        <ele>891</ele>
        <time>2026-08-15T10:53:56.000Z</time>
      </trkpt>
      <trkpt lat="47.89718" lon="6.80866">
        <ele>891</ele>
        <time>2026-08-15T10:54:01.000Z</time>
      </trkpt>
      <trkpt lat="47.89716" lon="6.8088">
        <ele>891</ele>
        <time>2026-08-15T10:54:07.000Z</time>
      </trkpt>
      <trkpt lat="47.89716" lon="6.80895">
        <ele>891.2</ele>
        <time>2026-08-15T10:54:13.000Z</time>
      </trkpt>
      <trkpt lat="47.89712" lon="6.80913">
        <ele>890.6</ele>
        <time>2026-08-15T10:54:19.000Z</time>
      </trkpt>
      <trkpt lat="47.89711" lon="6.80916">
        <ele>890.4</ele>
        <time>2026-08-15T10:54:20.000Z</time>
      </trkpt>
      <trkpt lat="47.8971" lon="6.80921">
        <ele>890.4</ele>
        <time>2026-08-15T10:54:23.000Z</time>
      </trkpt>
      <trkpt lat="47.8971" lon="6.80924">
        <ele>890.4</ele>
        <time>2026-08-15T10:54:24.000Z</time>
      </trkpt>
      <trkpt lat="47.89706" lon="6.80931">
        <ele>890.4</ele>
        <time>2026-08-15T10:54:28.000Z</time>
      </trkpt>
      <trkpt lat="47.89706" lon="6.80936">
        <ele>890.6</ele>
        <time>2026-08-15T10:54:30.000Z</time>
      </trkpt>
      <trkpt lat="47.89706" lon="6.80949">
        <ele>891.6</ele>
        <time>2026-08-15T10:54:36.000Z</time>
      </trkpt>
      <trkpt lat="47.89704" lon="6.8096">
        <ele>891.4</ele>
        <time>2026-08-15T10:54:42.000Z</time>
      </trkpt>
      <trkpt lat="47.89701" lon="6.80975">
        <ele>890.8</ele>
        <time>2026-08-15T10:54:48.000Z</time>
      </trkpt>
      <trkpt lat="47.89698" lon="6.80984">
        <ele>890.6</ele>
        <time>2026-08-15T10:54:53.000Z</time>
      </trkpt>
      <trkpt lat="47.89696" lon="6.80984">
        <ele>890.4</ele>
        <time>2026-08-15T10:54:54.000Z</time>
      </trkpt>
      <trkpt lat="47.89691" lon="6.80989">
        <ele>889.2</ele>
        <time>2026-08-15T10:54:58.000Z</time>
      </trkpt>
      <trkpt lat="47.89688" lon="6.8099">
        <ele>888.4</ele>
        <time>2026-08-15T10:55:00.000Z</time>
      </trkpt>
      <trkpt lat="47.89686" lon="6.80991">
        <ele>888.2</ele>
        <time>2026-08-15T10:55:01.000Z</time>
      </trkpt>
      <trkpt lat="47.89681" lon="6.80994">
        <ele>887</ele>
        <time>2026-08-15T10:55:04.000Z</time>
      </trkpt>
      <trkpt lat="47.89678" lon="6.80997">
        <ele>885.6</ele>
        <time>2026-08-15T10:55:07.000Z</time>
      </trkpt>
      <trkpt lat="47.89674" lon="6.81001">
        <ele>884.2</ele>
        <time>2026-08-15T10:55:10.000Z</time>
      </trkpt>
      <trkpt lat="47.89669" lon="6.81006">
        <ele>882.6</ele>
        <time>2026-08-15T10:55:13.000Z</time>
      </trkpt>
      <trkpt lat="47.89667" lon="6.81007">
        <ele>882</ele>
        <time>2026-08-15T10:55:14.000Z</time>
      </trkpt>
      <trkpt lat="47.89665" lon="6.81007">
        <ele>881.6</ele>
        <time>2026-08-15T10:55:15.000Z</time>
      </trkpt>
      <trkpt lat="47.89662" lon="6.81011">
        <ele>880.6</ele>
        <time>2026-08-15T10:55:17.000Z</time>
      </trkpt>
      <trkpt lat="47.8966" lon="6.81015">
        <ele>879.4</ele>
        <time>2026-08-15T10:55:19.000Z</time>
      </trkpt>
      <trkpt lat="47.89658" lon="6.81021">
        <ele>878</ele>
        <time>2026-08-15T10:55:22.000Z</time>
      </trkpt>
      <trkpt lat="47.89658" lon="6.81023">
        <ele>877.4</ele>
        <time>2026-08-15T10:55:24.000Z</time>
      </trkpt>
      <trkpt lat="47.89658" lon="6.81023">
        <ele>877</ele>
        <time>2026-08-15T10:55:26.000Z</time>
      </trkpt>
      <trkpt lat="47.89658" lon="6.81023">
        <ele>877</ele>
        <time>2026-08-15T10:55:30.000Z</time>
      </trkpt>
      <trkpt lat="47.89639" lon="6.8103">
        <ele>872.8</ele>
        <time>2026-08-15T10:57:30.000Z</time>
      </trkpt>
      <trkpt lat="47.89639" lon="6.81031">
        <ele>872.4</ele>
        <time>2026-08-15T10:57:31.000Z</time>
      </trkpt>
      <trkpt lat="47.89637" lon="6.81032">
        <ele>871.6</ele>
        <time>2026-08-15T10:57:33.000Z</time>
      </trkpt>
      <trkpt lat="47.89629" lon="6.81041">
        <ele>869.6</ele>
        <time>2026-08-15T10:57:39.000Z</time>
      </trkpt>
      <trkpt lat="47.89627" lon="6.81045">
        <ele>869</ele>
        <time>2026-08-15T10:57:41.000Z</time>
      </trkpt>
      <trkpt lat="47.89623" lon="6.81049">
        <ele>868.4</ele>
        <time>2026-08-15T10:57:43.000Z</time>
      </trkpt>
      <trkpt lat="47.8962" lon="6.81058">
        <ele>867.2</ele>
        <time>2026-08-15T10:57:47.000Z</time>
      </trkpt>
      <trkpt lat="47.89619" lon="6.81064">
        <ele>866.4</ele>
        <time>2026-08-15T10:57:49.000Z</time>
      </trkpt>
      <trkpt lat="47.89619" lon="6.81066">
        <ele>866</ele>
        <time>2026-08-15T10:57:50.000Z</time>
      </trkpt>
      <trkpt lat="47.89618" lon="6.81065">
        <ele>865.2</ele>
        <time>2026-08-15T10:57:52.000Z</time>
      </trkpt>
      <trkpt lat="47.89617" lon="6.81065">
        <ele>865</ele>
        <time>2026-08-15T10:57:53.000Z</time>
      </trkpt>
      <trkpt lat="47.89616" lon="6.81065">
        <ele>864.8</ele>
        <time>2026-08-15T10:57:54.000Z</time>
      </trkpt>
      <trkpt lat="47.89614" lon="6.81064">
        <ele>864.2</ele>
        <time>2026-08-15T10:57:56.000Z</time>
      </trkpt>
      <trkpt lat="47.89608" lon="6.81068">
        <ele>861.8</ele>
        <time>2026-08-15T10:58:00.000Z</time>
      </trkpt>
      <trkpt lat="47.89605" lon="6.8107">
        <ele>861.2</ele>
        <time>2026-08-15T10:58:01.000Z</time>
      </trkpt>
      <trkpt lat="47.89603" lon="6.81073">
        <ele>860.8</ele>
        <time>2026-08-15T10:58:02.000Z</time>
      </trkpt>
      <trkpt lat="47.89598" lon="6.81078">
        <ele>860</ele>
        <time>2026-08-15T10:58:06.000Z</time>
      </trkpt>
      <trkpt lat="47.89598" lon="6.81079">
        <ele>859.8</ele>
        <time>2026-08-15T10:58:07.000Z</time>
      </trkpt>
      <trkpt lat="47.89597" lon="6.81081">
        <ele>859.4</ele>
        <time>2026-08-15T10:58:09.000Z</time>
      </trkpt>
      <trkpt lat="47.89597" lon="6.81082">
        <ele>859.2</ele>
        <time>2026-08-15T10:58:10.000Z</time>
      </trkpt>
      <trkpt lat="47.89596" lon="6.81085">
        <ele>858.8</ele>
        <time>2026-08-15T10:58:11.000Z</time>
      </trkpt>
      <trkpt lat="47.89596" lon="6.81087">
        <ele>858.6</ele>
        <time>2026-08-15T10:58:12.000Z</time>
      </trkpt>
      <trkpt lat="47.89582" lon="6.81094">
        <ele>853.4</ele>
        <time>2026-08-15T10:58:33.000Z</time>
      </trkpt>
      <trkpt lat="47.89581" lon="6.81095">
        <ele>852.8</ele>
        <time>2026-08-15T10:58:35.000Z</time>
      </trkpt>
      <trkpt lat="47.8958" lon="6.81096">
        <ele>852.6</ele>
        <time>2026-08-15T10:58:36.000Z</time>
      </trkpt>
      <trkpt lat="47.89579" lon="6.81097">
        <ele>852.4</ele>
        <time>2026-08-15T10:58:37.000Z</time>
      </trkpt>
      <trkpt lat="47.89573" lon="6.81115">
        <ele>848</ele>
        <time>2026-08-15T10:58:51.000Z</time>
      </trkpt>
      <trkpt lat="47.89573" lon="6.81115">
        <ele>847.8</ele>
        <time>2026-08-15T10:58:53.000Z</time>
      </trkpt>
      <trkpt lat="47.89573" lon="6.81118">
        <ele>847.6</ele>
        <time>2026-08-15T10:58:55.000Z</time>
      </trkpt>
      <trkpt lat="47.89568" lon="6.81128">
        <ele>845.8</ele>
        <time>2026-08-15T10:58:59.000Z</time>
      </trkpt>
      <trkpt lat="47.89568" lon="6.81133">
        <ele>845</ele>
        <time>2026-08-15T10:59:00.000Z</time>
      </trkpt>
      <trkpt lat="47.89567" lon="6.81136">
        <ele>844.4</ele>
        <time>2026-08-15T10:59:01.000Z</time>
      </trkpt>
      <trkpt lat="47.89567" lon="6.81138">
        <ele>843.6</ele>
        <time>2026-08-15T10:59:03.000Z</time>
      </trkpt>
      <trkpt lat="47.89567" lon="6.81138">
        <ele>843.4</ele>
        <time>2026-08-15T10:59:04.000Z</time>
      </trkpt>
      <trkpt lat="47.89567" lon="6.81138">
        <ele>843.2</ele>
        <time>2026-08-15T10:59:06.000Z</time>
      </trkpt>
      <trkpt lat="47.89569" lon="6.81152">
        <ele>841.6</ele>
        <time>2026-08-15T10:59:10.000Z</time>
      </trkpt>
      <trkpt lat="47.89571" lon="6.81157">
        <ele>841.2</ele>
        <time>2026-08-15T10:59:11.000Z</time>
      </trkpt>
      <trkpt lat="47.89578" lon="6.81167">
        <ele>840.6</ele>
        <time>2026-08-15T10:59:13.000Z</time>
      </trkpt>
      <trkpt lat="47.89582" lon="6.81173">
        <ele>840.6</ele>
        <time>2026-08-15T10:59:15.000Z</time>
      </trkpt>
      <trkpt lat="47.8959" lon="6.81182">
        <ele>841</ele>
        <time>2026-08-15T10:59:20.000Z</time>
      </trkpt>
      <trkpt lat="47.89592" lon="6.81187">
        <ele>841.4</ele>
        <time>2026-08-15T10:59:22.000Z</time>
      </trkpt>
      <trkpt lat="47.89588" lon="6.8119">
        <ele>841.2</ele>
        <time>2026-08-15T10:59:25.000Z</time>
      </trkpt>
      <trkpt lat="47.89581" lon="6.81181">
        <ele>839.8</ele>
        <time>2026-08-15T10:59:30.000Z</time>
      </trkpt>
      <trkpt lat="47.89577" lon="6.81177">
        <ele>839.4</ele>
        <time>2026-08-15T10:59:32.000Z</time>
      </trkpt>
      <trkpt lat="47.89568" lon="6.81169">
        <ele>838.2</ele>
        <time>2026-08-15T10:59:35.000Z</time>
      </trkpt>
      <trkpt lat="47.89558" lon="6.81159">
        <ele>836.8</ele>
        <time>2026-08-15T10:59:38.000Z</time>
      </trkpt>
      <trkpt lat="47.8955" lon="6.81152">
        <ele>835.6</ele>
        <time>2026-08-15T10:59:40.000Z</time>
      </trkpt>
      <trkpt lat="47.89546" lon="6.81148">
        <ele>835.2</ele>
        <time>2026-08-15T10:59:41.000Z</time>
      </trkpt>
      <trkpt lat="47.89537" lon="6.8114">
        <ele>834.6</ele>
        <time>2026-08-15T10:59:43.000Z</time>
      </trkpt>
      <trkpt lat="47.89519" lon="6.81122">
        <ele>833.2</ele>
        <time>2026-08-15T10:59:47.000Z</time>
      </trkpt>
      <trkpt lat="47.8951" lon="6.81111">
        <ele>832</ele>
        <time>2026-08-15T10:59:49.000Z</time>
      </trkpt>
      <trkpt lat="47.895" lon="6.811">
        <ele>830.8</ele>
        <time>2026-08-15T10:59:51.000Z</time>
      </trkpt>
      <trkpt lat="47.89489" lon="6.81088">
        <ele>829.2</ele>
        <time>2026-08-15T10:59:53.000Z</time>
      </trkpt>
      <trkpt lat="47.89478" lon="6.81076">
        <ele>828.2</ele>
        <time>2026-08-15T10:59:55.000Z</time>
      </trkpt>
      <trkpt lat="47.89469" lon="6.81063">
        <ele>826.8</ele>
        <time>2026-08-15T10:59:57.000Z</time>
      </trkpt>
      <trkpt lat="47.89459" lon="6.81047">
        <ele>825.6</ele>
        <time>2026-08-15T10:59:59.000Z</time>
      </trkpt>
      <trkpt lat="47.89454" lon="6.81038">
        <ele>825</ele>
        <time>2026-08-15T11:00:00.000Z</time>
      </trkpt>
      <trkpt lat="47.89449" lon="6.8103">
        <ele>824.4</ele>
        <time>2026-08-15T11:00:01.000Z</time>
      </trkpt>
      <trkpt lat="47.89439" lon="6.81012">
        <ele>823.2</ele>
        <time>2026-08-15T11:00:03.000Z</time>
      </trkpt>
      <trkpt lat="47.8943" lon="6.80995">
        <ele>821.8</ele>
        <time>2026-08-15T11:00:05.000Z</time>
      </trkpt>
      <trkpt lat="47.8942" lon="6.80976">
        <ele>820.2</ele>
        <time>2026-08-15T11:00:07.000Z</time>
      </trkpt>
      <trkpt lat="47.8941" lon="6.80956">
        <ele>818.2</ele>
        <time>2026-08-15T11:00:09.000Z</time>
      </trkpt>
      <trkpt lat="47.89402" lon="6.80933">
        <ele>816.6</ele>
        <time>2026-08-15T11:00:11.000Z</time>
      </trkpt>
      <trkpt lat="47.89399" lon="6.80922">
        <ele>815.8</ele>
        <time>2026-08-15T11:00:12.000Z</time>
      </trkpt>
      <trkpt lat="47.89396" lon="6.8091">
        <ele>815</ele>
        <time>2026-08-15T11:00:13.000Z</time>
      </trkpt>
      <trkpt lat="47.89389" lon="6.80887">
        <ele>813.4</ele>
        <time>2026-08-15T11:00:15.000Z</time>
      </trkpt>
      <trkpt lat="47.89383" lon="6.80862">
        <ele>811.8</ele>
        <time>2026-08-15T11:00:17.000Z</time>
      </trkpt>
      <trkpt lat="47.89376" lon="6.80838">
        <ele>810</ele>
        <time>2026-08-15T11:00:19.000Z</time>
      </trkpt>
      <trkpt lat="47.89366" lon="6.80801">
        <ele>808.4</ele>
        <time>2026-08-15T11:00:22.000Z</time>
      </trkpt>
      <trkpt lat="47.89365" lon="6.80788">
        <ele>807.4</ele>
        <time>2026-08-15T11:00:23.000Z</time>
      </trkpt>
      <trkpt lat="47.89361" lon="6.80762">
        <ele>805.8</ele>
        <time>2026-08-15T11:00:25.000Z</time>
      </trkpt>
      <trkpt lat="47.89358" lon="6.80736">
        <ele>804.2</ele>
        <time>2026-08-15T11:00:27.000Z</time>
      </trkpt>
      <trkpt lat="47.89354" lon="6.80711">
        <ele>802.6</ele>
        <time>2026-08-15T11:00:29.000Z</time>
      </trkpt>
      <trkpt lat="47.89351" lon="6.80686">
        <ele>800.8</ele>
        <time>2026-08-15T11:00:31.000Z</time>
      </trkpt>
      <trkpt lat="47.89348" lon="6.80661">
        <ele>799.4</ele>
        <time>2026-08-15T11:00:33.000Z</time>
      </trkpt>
      <trkpt lat="47.89347" lon="6.80648">
        <ele>798.6</ele>
        <time>2026-08-15T11:00:34.000Z</time>
      </trkpt>
      <trkpt lat="47.89346" lon="6.80636">
        <ele>797.8</ele>
        <time>2026-08-15T11:00:35.000Z</time>
      </trkpt>
      <trkpt lat="47.89344" lon="6.80613">
        <ele>796.4</ele>
        <time>2026-08-15T11:00:37.000Z</time>
      </trkpt>
      <trkpt lat="47.89341" lon="6.8059">
        <ele>795</ele>
        <time>2026-08-15T11:00:39.000Z</time>
      </trkpt>
      <trkpt lat="47.8934" lon="6.80579">
        <ele>794.6</ele>
        <time>2026-08-15T11:00:40.000Z</time>
      </trkpt>
      <trkpt lat="47.89338" lon="6.80568">
        <ele>794</ele>
        <time>2026-08-15T11:00:41.000Z</time>
      </trkpt>
      <trkpt lat="47.89335" lon="6.80548">
        <ele>792.8</ele>
        <time>2026-08-15T11:00:43.000Z</time>
      </trkpt>
      <trkpt lat="47.89334" lon="6.80528">
        <ele>791.2</ele>
        <time>2026-08-15T11:00:45.000Z</time>
      </trkpt>
      <trkpt lat="47.89334" lon="6.80517">
        <ele>790.4</ele>
        <time>2026-08-15T11:00:46.000Z</time>
      </trkpt>
      <trkpt lat="47.89335" lon="6.80507">
        <ele>789.8</ele>
        <time>2026-08-15T11:00:47.000Z</time>
      </trkpt>
      <trkpt lat="47.89338" lon="6.80488">
        <ele>788.2</ele>
        <time>2026-08-15T11:00:49.000Z</time>
      </trkpt>
      <trkpt lat="47.89339" lon="6.80479">
        <ele>787.6</ele>
        <time>2026-08-15T11:00:50.000Z</time>
      </trkpt>
      <trkpt lat="47.89339" lon="6.80469">
        <ele>787</ele>
        <time>2026-08-15T11:00:51.000Z</time>
      </trkpt>
      <trkpt lat="47.89337" lon="6.80451">
        <ele>785.2</ele>
        <time>2026-08-15T11:00:53.000Z</time>
      </trkpt>
      <trkpt lat="47.89334" lon="6.80443">
        <ele>784.8</ele>
        <time>2026-08-15T11:00:54.000Z</time>
      </trkpt>
      <trkpt lat="47.89329" lon="6.80435">
        <ele>784</ele>
        <time>2026-08-15T11:00:55.000Z</time>
      </trkpt>
      <trkpt lat="47.89324" lon="6.80428">
        <ele>782.6</ele>
        <time>2026-08-15T11:00:56.000Z</time>
      </trkpt>
      <trkpt lat="47.89317" lon="6.80421">
        <ele>782</ele>
        <time>2026-08-15T11:00:57.000Z</time>
      </trkpt>
      <trkpt lat="47.89312" lon="6.80414">
        <ele>781.6</ele>
        <time>2026-08-15T11:00:58.000Z</time>
      </trkpt>
      <trkpt lat="47.89295" lon="6.80393">
        <ele>780.2</ele>
        <time>2026-08-15T11:01:01.000Z</time>
      </trkpt>
      <trkpt lat="47.89289" lon="6.80386">
        <ele>779.6</ele>
        <time>2026-08-15T11:01:02.000Z</time>
      </trkpt>
      <trkpt lat="47.89282" lon="6.80381">
        <ele>778.8</ele>
        <time>2026-08-15T11:01:03.000Z</time>
      </trkpt>
      <trkpt lat="47.89268" lon="6.80371">
        <ele>777.6</ele>
        <time>2026-08-15T11:01:05.000Z</time>
      </trkpt>
      <trkpt lat="47.89253" lon="6.80361">
        <ele>776.6</ele>
        <time>2026-08-15T11:01:07.000Z</time>
      </trkpt>
      <trkpt lat="47.89238" lon="6.80353">
        <ele>775.4</ele>
        <time>2026-08-15T11:01:09.000Z</time>
      </trkpt>
      <trkpt lat="47.89216" lon="6.80342">
        <ele>774.6</ele>
        <time>2026-08-15T11:01:12.000Z</time>
      </trkpt>
      <trkpt lat="47.89209" lon="6.80338">
        <ele>774</ele>
        <time>2026-08-15T11:01:13.000Z</time>
      </trkpt>
      <trkpt lat="47.89189" lon="6.80324">
        <ele>773.4</ele>
        <time>2026-08-15T11:01:16.000Z</time>
      </trkpt>
      <trkpt lat="47.89184" lon="6.80318">
        <ele>772.8</ele>
        <time>2026-08-15T11:01:17.000Z</time>
      </trkpt>
      <trkpt lat="47.89174" lon="6.80304">
        <ele>772.8</ele>
        <time>2026-08-15T11:01:19.000Z</time>
      </trkpt>
      <trkpt lat="47.89161" lon="6.80283">
        <ele>773.2</ele>
        <time>2026-08-15T11:01:22.000Z</time>
      </trkpt>
      <trkpt lat="47.89157" lon="6.80276">
        <ele>773.8</ele>
        <time>2026-08-15T11:01:23.000Z</time>
      </trkpt>
      <trkpt lat="47.8915" lon="6.80263">
        <ele>774.2</ele>
        <time>2026-08-15T11:01:25.000Z</time>
      </trkpt>
      <trkpt lat="47.8914" lon="6.80246">
        <ele>774.4</ele>
        <time>2026-08-15T11:01:29.000Z</time>
      </trkpt>
      <trkpt lat="47.8913" lon="6.80235">
        <ele>775</ele>
        <time>2026-08-15T11:01:33.000Z</time>
      </trkpt>
      <trkpt lat="47.89123" lon="6.80229">
        <ele>776.4</ele>
        <time>2026-08-15T11:01:36.000Z</time>
      </trkpt>
      <trkpt lat="47.89119" lon="6.80224">
        <ele>777.6</ele>
        <time>2026-08-15T11:01:38.000Z</time>
      </trkpt>
      <trkpt lat="47.89115" lon="6.8022">
        <ele>778.6</ele>
        <time>2026-08-15T11:01:40.000Z</time>
      </trkpt>
      <trkpt lat="47.89109" lon="6.80213">
        <ele>780</ele>
        <time>2026-08-15T11:01:43.000Z</time>
      </trkpt>
      <trkpt lat="47.89103" lon="6.80206">
        <ele>781.4</ele>
        <time>2026-08-15T11:01:46.000Z</time>
      </trkpt>
      <trkpt lat="47.891" lon="6.80201">
        <ele>782.4</ele>
        <time>2026-08-15T11:01:48.000Z</time>
      </trkpt>
      <trkpt lat="47.89097" lon="6.80196">
        <ele>783.2</ele>
        <time>2026-08-15T11:01:50.000Z</time>
      </trkpt>
      <trkpt lat="47.89096" lon="6.80194">
        <ele>783.4</ele>
        <time>2026-08-15T11:01:51.000Z</time>
      </trkpt>
      <trkpt lat="47.89092" lon="6.80187">
        <ele>784.8</ele>
        <time>2026-08-15T11:01:54.000Z</time>
      </trkpt>
      <trkpt lat="47.89086" lon="6.80182">
        <ele>786</ele>
        <time>2026-08-15T11:01:57.000Z</time>
      </trkpt>
      <trkpt lat="47.89085" lon="6.80179">
        <ele>786.4</ele>
        <time>2026-08-15T11:01:58.000Z</time>
      </trkpt>
      <trkpt lat="47.89082" lon="6.80175">
        <ele>787.2</ele>
        <time>2026-08-15T11:02:00.000Z</time>
      </trkpt>
      <trkpt lat="47.89077" lon="6.80169">
        <ele>788.4</ele>
        <time>2026-08-15T11:02:03.000Z</time>
      </trkpt>
      <trkpt lat="47.89075" lon="6.80164">
        <ele>789.4</ele>
        <time>2026-08-15T11:02:05.000Z</time>
      </trkpt>
      <trkpt lat="47.89074" lon="6.80162">
        <ele>789.8</ele>
        <time>2026-08-15T11:02:06.000Z</time>
      </trkpt>
      <trkpt lat="47.8907" lon="6.80157">
        <ele>791.2</ele>
        <time>2026-08-15T11:02:09.000Z</time>
      </trkpt>
      <trkpt lat="47.89068" lon="6.80153">
        <ele>792.2</ele>
        <time>2026-08-15T11:02:11.000Z</time>
      </trkpt>
      <trkpt lat="47.89066" lon="6.80151">
        <ele>792.6</ele>
        <time>2026-08-15T11:02:12.000Z</time>
      </trkpt>
      <trkpt lat="47.89062" lon="6.80144">
        <ele>793.6</ele>
        <time>2026-08-15T11:02:15.000Z</time>
      </trkpt>
      <trkpt lat="47.89061" lon="6.80142">
        <ele>794</ele>
        <time>2026-08-15T11:02:16.000Z</time>
      </trkpt>
      <trkpt lat="47.89058" lon="6.80138">
        <ele>794.8</ele>
        <time>2026-08-15T11:02:18.000Z</time>
      </trkpt>
      <trkpt lat="47.89053" lon="6.8013">
        <ele>796</ele>
        <time>2026-08-15T11:02:22.000Z</time>
      </trkpt>
      <trkpt lat="47.89052" lon="6.80128">
        <ele>796.4</ele>
        <time>2026-08-15T11:02:23.000Z</time>
      </trkpt>
      <trkpt lat="47.89047" lon="6.80122">
        <ele>797.2</ele>
        <time>2026-08-15T11:02:26.000Z</time>
      </trkpt>
      <trkpt lat="47.89041" lon="6.80114">
        <ele>798.2</ele>
        <time>2026-08-15T11:02:30.000Z</time>
      </trkpt>
      <trkpt lat="47.89039" lon="6.80111">
        <ele>798.6</ele>
        <time>2026-08-15T11:02:31.000Z</time>
      </trkpt>
      <trkpt lat="47.89034" lon="6.80105">
        <ele>799.6</ele>
        <time>2026-08-15T11:02:34.000Z</time>
      </trkpt>
      <trkpt lat="47.8903" lon="6.801">
        <ele>800.8</ele>
        <time>2026-08-15T11:02:37.000Z</time>
      </trkpt>
      <trkpt lat="47.89028" lon="6.80098">
        <ele>801.2</ele>
        <time>2026-08-15T11:02:38.000Z</time>
      </trkpt>
      <trkpt lat="47.89026" lon="6.80095">
        <ele>801.8</ele>
        <time>2026-08-15T11:02:40.000Z</time>
      </trkpt>
      <trkpt lat="47.89019" lon="6.80089">
        <ele>803.2</ele>
        <time>2026-08-15T11:02:44.000Z</time>
      </trkpt>
      <trkpt lat="47.89015" lon="6.80083">
        <ele>804.2</ele>
        <time>2026-08-15T11:02:47.000Z</time>
      </trkpt>
      <trkpt lat="47.8901" lon="6.80078">
        <ele>805.4</ele>
        <time>2026-08-15T11:02:50.000Z</time>
      </trkpt>
      <trkpt lat="47.89007" lon="6.80075">
        <ele>806.4</ele>
        <time>2026-08-15T11:02:52.000Z</time>
      </trkpt>
      <trkpt lat="47.89006" lon="6.80073">
        <ele>806.8</ele>
        <time>2026-08-15T11:02:53.000Z</time>
      </trkpt>
      <trkpt lat="47.89001" lon="6.80068">
        <ele>808</ele>
        <time>2026-08-15T11:02:56.000Z</time>
      </trkpt>
      <trkpt lat="47.88996" lon="6.80063">
        <ele>809.4</ele>
        <time>2026-08-15T11:02:59.000Z</time>
      </trkpt>
      <trkpt lat="47.88992" lon="6.80061">
        <ele>810.6</ele>
        <time>2026-08-15T11:03:02.000Z</time>
      </trkpt>
      <trkpt lat="47.88986" lon="6.80057">
        <ele>811.8</ele>
        <time>2026-08-15T11:03:06.000Z</time>
      </trkpt>
      <trkpt lat="47.88984" lon="6.80056">
        <ele>812</ele>
        <time>2026-08-15T11:03:07.000Z</time>
      </trkpt>
      <trkpt lat="47.88975" lon="6.80048">
        <ele>813</ele>
        <time>2026-08-15T11:03:12.000Z</time>
      </trkpt>
      <trkpt lat="47.88971" lon="6.80044">
        <ele>814</ele>
        <time>2026-08-15T11:03:15.000Z</time>
      </trkpt>
      <trkpt lat="47.8897" lon="6.80042">
        <ele>814.2</ele>
        <time>2026-08-15T11:03:16.000Z</time>
      </trkpt>
      <trkpt lat="47.88962" lon="6.80035">
        <ele>815.4</ele>
        <time>2026-08-15T11:03:21.000Z</time>
      </trkpt>
      <trkpt lat="47.88956" lon="6.8003">
        <ele>816.6</ele>
        <time>2026-08-15T11:03:24.000Z</time>
      </trkpt>
      <trkpt lat="47.88952" lon="6.80025">
        <ele>817.6</ele>
        <time>2026-08-15T11:03:27.000Z</time>
      </trkpt>
      <trkpt lat="47.8895" lon="6.80022">
        <ele>818.4</ele>
        <time>2026-08-15T11:03:29.000Z</time>
      </trkpt>
      <trkpt lat="47.88948" lon="6.8002">
        <ele>818.8</ele>
        <time>2026-08-15T11:03:30.000Z</time>
      </trkpt>
      <trkpt lat="47.88946" lon="6.80017">
        <ele>819.4</ele>
        <time>2026-08-15T11:03:32.000Z</time>
      </trkpt>
      <trkpt lat="47.88943" lon="6.80013">
        <ele>819.8</ele>
        <time>2026-08-15T11:03:34.000Z</time>
      </trkpt>
      <trkpt lat="47.88938" lon="6.80006">
        <ele>820.6</ele>
        <time>2026-08-15T11:03:37.000Z</time>
      </trkpt>
      <trkpt lat="47.88936" lon="6.79999">
        <ele>821</ele>
        <time>2026-08-15T11:03:39.000Z</time>
      </trkpt>
      <trkpt lat="47.88934" lon="6.79985">
        <ele>821.6</ele>
        <time>2026-08-15T11:03:43.000Z</time>
      </trkpt>
      <trkpt lat="47.88932" lon="6.7997">
        <ele>822.2</ele>
        <time>2026-08-15T11:03:47.000Z</time>
      </trkpt>
      <trkpt lat="47.8893" lon="6.79955">
        <ele>822.8</ele>
        <time>2026-08-15T11:03:51.000Z</time>
      </trkpt>
      <trkpt lat="47.88929" lon="6.79949">
        <ele>823.2</ele>
        <time>2026-08-15T11:03:53.000Z</time>
      </trkpt>
      <trkpt lat="47.88928" lon="6.79929">
        <ele>824.4</ele>
        <time>2026-08-15T11:03:59.000Z</time>
      </trkpt>
      <trkpt lat="47.88928" lon="6.79925">
        <ele>824.8</ele>
        <time>2026-08-15T11:04:00.000Z</time>
      </trkpt>
      <trkpt lat="47.88925" lon="6.79906">
        <ele>825.6</ele>
        <time>2026-08-15T11:04:05.000Z</time>
      </trkpt>
      <trkpt lat="47.88923" lon="6.79898">
        <ele>825.8</ele>
        <time>2026-08-15T11:04:07.000Z</time>
      </trkpt>
      <trkpt lat="47.88921" lon="6.79887">
        <ele>826.6</ele>
        <time>2026-08-15T11:04:10.000Z</time>
      </trkpt>
      <trkpt lat="47.88918" lon="6.79874">
        <ele>827.6</ele>
        <time>2026-08-15T11:04:14.000Z</time>
      </trkpt>
      <trkpt lat="47.88918" lon="6.79872">
        <ele>827.8</ele>
        <time>2026-08-15T11:04:15.000Z</time>
      </trkpt>
      <trkpt lat="47.88914" lon="6.79852">
        <ele>828.8</ele>
        <time>2026-08-15T11:04:21.000Z</time>
      </trkpt>
      <trkpt lat="47.88914" lon="6.79848">
        <ele>829</ele>
        <time>2026-08-15T11:04:22.000Z</time>
      </trkpt>
      <trkpt lat="47.88909" lon="6.79822">
        <ele>829.8</ele>
        <time>2026-08-15T11:04:29.000Z</time>
      </trkpt>
      <trkpt lat="47.88908" lon="6.79818">
        <ele>830</ele>
        <time>2026-08-15T11:04:30.000Z</time>
      </trkpt>
      <trkpt lat="47.88907" lon="6.79814">
        <ele>830</ele>
        <time>2026-08-15T11:04:31.000Z</time>
      </trkpt>
      <trkpt lat="47.88903" lon="6.79793">
        <ele>830.8</ele>
        <time>2026-08-15T11:04:38.000Z</time>
      </trkpt>
      <trkpt lat="47.88902" lon="6.7979">
        <ele>831</ele>
        <time>2026-08-15T11:04:39.000Z</time>
      </trkpt>
      <trkpt lat="47.88898" lon="6.79766">
        <ele>831.4</ele>
        <time>2026-08-15T11:04:46.000Z</time>
      </trkpt>
      <trkpt lat="47.88894" lon="6.7974">
        <ele>831.2</ele>
        <time>2026-08-15T11:04:51.000Z</time>
      </trkpt>
      <trkpt lat="47.88892" lon="6.79734">
        <ele>831.2</ele>
        <time>2026-08-15T11:04:52.000Z</time>
      </trkpt>
      <trkpt lat="47.88888" lon="6.79707">
        <ele>830.8</ele>
        <time>2026-08-15T11:04:56.000Z</time>
      </trkpt>
      <trkpt lat="47.88883" lon="6.7968">
        <ele>830</ele>
        <time>2026-08-15T11:05:00.000Z</time>
      </trkpt>
      <trkpt lat="47.88881" lon="6.79673">
        <ele>830</ele>
        <time>2026-08-15T11:05:01.000Z</time>
      </trkpt>
      <trkpt lat="47.88876" lon="6.79643">
        <ele>828.8</ele>
        <time>2026-08-15T11:05:05.000Z</time>
      </trkpt>
      <trkpt lat="47.88873" lon="6.79628">
        <ele>828</ele>
        <time>2026-08-15T11:05:07.000Z</time>
      </trkpt>
      <trkpt lat="47.88869" lon="6.79614">
        <ele>827.6</ele>
        <time>2026-08-15T11:05:09.000Z</time>
      </trkpt>
      <trkpt lat="47.88863" lon="6.79603">
        <ele>827.2</ele>
        <time>2026-08-15T11:05:11.000Z</time>
      </trkpt>
      <trkpt lat="47.88859" lon="6.79597">
        <ele>827</ele>
        <time>2026-08-15T11:05:12.000Z</time>
      </trkpt>
      <trkpt lat="47.88854" lon="6.79591">
        <ele>826.6</ele>
        <time>2026-08-15T11:05:13.000Z</time>
      </trkpt>
      <trkpt lat="47.88841" lon="6.79576">
        <ele>825.6</ele>
        <time>2026-08-15T11:05:16.000Z</time>
      </trkpt>
      <trkpt lat="47.88837" lon="6.7957">
        <ele>825</ele>
        <time>2026-08-15T11:05:17.000Z</time>
      </trkpt>
      <trkpt lat="47.88833" lon="6.79565">
        <ele>824.4</ele>
        <time>2026-08-15T11:05:18.000Z</time>
      </trkpt>
      <trkpt lat="47.88826" lon="6.79555">
        <ele>823</ele>
        <time>2026-08-15T11:05:20.000Z</time>
      </trkpt>
      <trkpt lat="47.88817" lon="6.79547">
        <ele>821.6</ele>
        <time>2026-08-15T11:05:22.000Z</time>
      </trkpt>
      <trkpt lat="47.88812" lon="6.79542">
        <ele>820.8</ele>
        <time>2026-08-15T11:05:23.000Z</time>
      </trkpt>
      <trkpt lat="47.88806" lon="6.79537">
        <ele>820.2</ele>
        <time>2026-08-15T11:05:24.000Z</time>
      </trkpt>
      <trkpt lat="47.88791" lon="6.79519">
        <ele>819.6</ele>
        <time>2026-08-15T11:05:27.000Z</time>
      </trkpt>
      <trkpt lat="47.88789" lon="6.79514">
        <ele>819.8</ele>
        <time>2026-08-15T11:05:28.000Z</time>
      </trkpt>
      <trkpt lat="47.88787" lon="6.79506">
        <ele>820</ele>
        <time>2026-08-15T11:05:30.000Z</time>
      </trkpt>
      <trkpt lat="47.88785" lon="6.79503">
        <ele>820</ele>
        <time>2026-08-15T11:05:31.000Z</time>
      </trkpt>
      <trkpt lat="47.88775" lon="6.79489">
        <ele>820.2</ele>
        <time>2026-08-15T11:05:36.000Z</time>
      </trkpt>
      <trkpt lat="47.88772" lon="6.79485">
        <ele>820.4</ele>
        <time>2026-08-15T11:05:37.000Z</time>
      </trkpt>
      <trkpt lat="47.88757" lon="6.79466">
        <ele>820.8</ele>
        <time>2026-08-15T11:05:42.000Z</time>
      </trkpt>
      <trkpt lat="47.88752" lon="6.79456">
        <ele>820.8</ele>
        <time>2026-08-15T11:05:44.000Z</time>
      </trkpt>
      <trkpt lat="47.88746" lon="6.79426">
        <ele>820.8</ele>
        <time>2026-08-15T11:05:49.000Z</time>
      </trkpt>
      <trkpt lat="47.88743" lon="6.79401">
        <ele>820.4</ele>
        <time>2026-08-15T11:05:53.000Z</time>
      </trkpt>
      <trkpt lat="47.8874" lon="6.79388">
        <ele>820.2</ele>
        <time>2026-08-15T11:05:55.000Z</time>
      </trkpt>
      <trkpt lat="47.88737" lon="6.79357">
        <ele>820.2</ele>
        <time>2026-08-15T11:06:00.000Z</time>
      </trkpt>
      <trkpt lat="47.88736" lon="6.79351">
        <ele>820.2</ele>
        <time>2026-08-15T11:06:01.000Z</time>
      </trkpt>
      <trkpt lat="47.88734" lon="6.79334">
        <ele>820.4</ele>
        <time>2026-08-15T11:06:04.000Z</time>
      </trkpt>
      <trkpt lat="47.88728" lon="6.79311">
        <ele>820.6</ele>
        <time>2026-08-15T11:06:08.000Z</time>
      </trkpt>
      <trkpt lat="47.88722" lon="6.79286">
        <ele>820.4</ele>
        <time>2026-08-15T11:06:12.000Z</time>
      </trkpt>
      <trkpt lat="47.8872" lon="6.79269">
        <ele>820.6</ele>
        <time>2026-08-15T11:06:15.000Z</time>
      </trkpt>
      <trkpt lat="47.88716" lon="6.79237">
        <ele>820.6</ele>
        <time>2026-08-15T11:06:20.000Z</time>
      </trkpt>
      <trkpt lat="47.88713" lon="6.79207">
        <ele>821.2</ele>
        <time>2026-08-15T11:06:25.000Z</time>
      </trkpt>
      <trkpt lat="47.88712" lon="6.79202">
        <ele>821.4</ele>
        <time>2026-08-15T11:06:26.000Z</time>
      </trkpt>
      <trkpt lat="47.88712" lon="6.79187">
        <ele>821.8</ele>
        <time>2026-08-15T11:06:29.000Z</time>
      </trkpt>
      <trkpt lat="47.88712" lon="6.79172">
        <ele>821.8</ele>
        <time>2026-08-15T11:06:34.000Z</time>
      </trkpt>
      <trkpt lat="47.88714" lon="6.79159">
        <ele>820</ele>
        <time>2026-08-15T11:06:38.000Z</time>
      </trkpt>
      <trkpt lat="47.88714" lon="6.79157">
        <ele>819.6</ele>
        <time>2026-08-15T11:06:39.000Z</time>
      </trkpt>
      <trkpt lat="47.88715" lon="6.79153">
        <ele>818.8</ele>
        <time>2026-08-15T11:06:41.000Z</time>
      </trkpt>
      <trkpt lat="47.88716" lon="6.7915">
        <ele>817.6</ele>
        <time>2026-08-15T11:06:44.000Z</time>
      </trkpt>
      <trkpt lat="47.88716" lon="6.7915">
        <ele>817.4</ele>
        <time>2026-08-15T11:06:45.000Z</time>
      </trkpt>
      <trkpt lat="47.88716" lon="6.7915">
        <ele>817.2</ele>
        <time>2026-08-15T11:06:47.000Z</time>
      </trkpt>
      <trkpt lat="47.88716" lon="6.79148">
        <ele>817</ele>
        <time>2026-08-15T11:06:50.000Z</time>
      </trkpt>
      <trkpt lat="47.88718" lon="6.79126">
        <ele>812.2</ele>
        <time>2026-08-15T11:07:02.000Z</time>
      </trkpt>
      <trkpt lat="47.88718" lon="6.79118">
        <ele>810.8</ele>
        <time>2026-08-15T11:07:04.000Z</time>
      </trkpt>
      <trkpt lat="47.88718" lon="6.79111">
        <ele>809.4</ele>
        <time>2026-08-15T11:07:06.000Z</time>
      </trkpt>
      <trkpt lat="47.88718" lon="6.79106">
        <ele>808.6</ele>
        <time>2026-08-15T11:07:08.000Z</time>
      </trkpt>
      <trkpt lat="47.88717" lon="6.79103">
        <ele>808.2</ele>
        <time>2026-08-15T11:07:09.000Z</time>
      </trkpt>
      <trkpt lat="47.88716" lon="6.79092">
        <ele>807.2</ele>
        <time>2026-08-15T11:07:13.000Z</time>
      </trkpt>
      <trkpt lat="47.88716" lon="6.79089">
        <ele>806.8</ele>
        <time>2026-08-15T11:07:14.000Z</time>
      </trkpt>
      <trkpt lat="47.88714" lon="6.79081">
        <ele>806</ele>
        <time>2026-08-15T11:07:16.000Z</time>
      </trkpt>
      <trkpt lat="47.88712" lon="6.79067">
        <ele>805</ele>
        <time>2026-08-15T11:07:19.000Z</time>
      </trkpt>
      <trkpt lat="47.88711" lon="6.79062">
        <ele>804.6</ele>
        <time>2026-08-15T11:07:20.000Z</time>
      </trkpt>
      <trkpt lat="47.88709" lon="6.79049">
        <ele>803.4</ele>
        <time>2026-08-15T11:07:22.000Z</time>
      </trkpt>
      <trkpt lat="47.88706" lon="6.79035">
        <ele>801.8</ele>
        <time>2026-08-15T11:07:24.000Z</time>
      </trkpt>
      <trkpt lat="47.88703" lon="6.79028">
        <ele>801.4</ele>
        <time>2026-08-15T11:07:25.000Z</time>
      </trkpt>
      <trkpt lat="47.88695" lon="6.79003">
        <ele>801</ele>
        <time>2026-08-15T11:07:29.000Z</time>
      </trkpt>
      <trkpt lat="47.8869" lon="6.78985">
        <ele>800.6</ele>
        <time>2026-08-15T11:07:32.000Z</time>
      </trkpt>
      <trkpt lat="47.88687" lon="6.78969">
        <ele>799.6</ele>
        <time>2026-08-15T11:07:35.000Z</time>
      </trkpt>
      <trkpt lat="47.88685" lon="6.78965">
        <ele>799.2</ele>
        <time>2026-08-15T11:07:36.000Z</time>
      </trkpt>
      <trkpt lat="47.88679" lon="6.7895">
        <ele>798</ele>
        <time>2026-08-15T11:07:39.000Z</time>
      </trkpt>
      <trkpt lat="47.88677" lon="6.78945">
        <ele>797.4</ele>
        <time>2026-08-15T11:07:40.000Z</time>
      </trkpt>
      <trkpt lat="47.88671" lon="6.78933">
        <ele>796.6</ele>
        <time>2026-08-15T11:07:42.000Z</time>
      </trkpt>
      <trkpt lat="47.88656" lon="6.78911">
        <ele>795.4</ele>
        <time>2026-08-15T11:07:46.000Z</time>
      </trkpt>
      <trkpt lat="47.88654" lon="6.78904">
        <ele>795.2</ele>
        <time>2026-08-15T11:07:47.000Z</time>
      </trkpt>
      <trkpt lat="47.88649" lon="6.78889">
        <ele>794</ele>
        <time>2026-08-15T11:07:49.000Z</time>
      </trkpt>
      <trkpt lat="47.8864" lon="6.78866">
        <ele>792.8</ele>
        <time>2026-08-15T11:07:52.000Z</time>
      </trkpt>
      <trkpt lat="47.88632" lon="6.78846">
        <ele>791.6</ele>
        <time>2026-08-15T11:07:55.000Z</time>
      </trkpt>
      <trkpt lat="47.88627" lon="6.78832">
        <ele>790.4</ele>
        <time>2026-08-15T11:07:57.000Z</time>
      </trkpt>
      <trkpt lat="47.88622" lon="6.7882">
        <ele>789.2</ele>
        <time>2026-08-15T11:07:59.000Z</time>
      </trkpt>
      <trkpt lat="47.88618" lon="6.78809">
        <ele>787.8</ele>
        <time>2026-08-15T11:08:01.000Z</time>
      </trkpt>
      <trkpt lat="47.88614" lon="6.78796">
        <ele>786.6</ele>
        <time>2026-08-15T11:08:03.000Z</time>
      </trkpt>
      <trkpt lat="47.88609" lon="6.78782">
        <ele>784.8</ele>
        <time>2026-08-15T11:08:05.000Z</time>
      </trkpt>
      <trkpt lat="47.88607" lon="6.78776">
        <ele>784.2</ele>
        <time>2026-08-15T11:08:06.000Z</time>
      </trkpt>
      <trkpt lat="47.88605" lon="6.7877">
        <ele>783.6</ele>
        <time>2026-08-15T11:08:07.000Z</time>
      </trkpt>
      <trkpt lat="47.88602" lon="6.78758">
        <ele>782.2</ele>
        <time>2026-08-15T11:08:09.000Z</time>
      </trkpt>
      <trkpt lat="47.886" lon="6.78747">
        <ele>781</ele>
        <time>2026-08-15T11:08:11.000Z</time>
      </trkpt>
      <trkpt lat="47.88598" lon="6.78738">
        <ele>779.4</ele>
        <time>2026-08-15T11:08:13.000Z</time>
      </trkpt>
      <trkpt lat="47.88596" lon="6.78732">
        <ele>778.2</ele>
        <time>2026-08-15T11:08:15.000Z</time>
      </trkpt>
      <trkpt lat="47.88596" lon="6.7873">
        <ele>777.8</ele>
        <time>2026-08-15T11:08:16.000Z</time>
      </trkpt>
      <trkpt lat="47.88596" lon="6.78728">
        <ele>777.2</ele>
        <time>2026-08-15T11:08:18.000Z</time>
      </trkpt>
      <trkpt lat="47.88596" lon="6.78728">
        <ele>777</ele>
        <time>2026-08-15T11:08:20.000Z</time>
      </trkpt>
      <trkpt lat="47.88593" lon="6.78721">
        <ele>776.4</ele>
        <time>2026-08-15T11:08:22.000Z</time>
      </trkpt>
      <trkpt lat="47.8859" lon="6.78712">
        <ele>775</ele>
        <time>2026-08-15T11:08:24.000Z</time>
      </trkpt>
      <trkpt lat="47.88588" lon="6.78708">
        <ele>774.2</ele>
        <time>2026-08-15T11:08:25.000Z</time>
      </trkpt>
      <trkpt lat="47.88586" lon="6.78704">
        <ele>773.4</ele>
        <time>2026-08-15T11:08:26.000Z</time>
      </trkpt>
      <trkpt lat="47.88583" lon="6.78695">
        <ele>771.8</ele>
        <time>2026-08-15T11:08:28.000Z</time>
      </trkpt>
      <trkpt lat="47.88579" lon="6.78686">
        <ele>770.2</ele>
        <time>2026-08-15T11:08:30.000Z</time>
      </trkpt>
      <trkpt lat="47.88577" lon="6.78681">
        <ele>769.2</ele>
        <time>2026-08-15T11:08:31.000Z</time>
      </trkpt>
      <trkpt lat="47.88574" lon="6.78675">
        <ele>768.4</ele>
        <time>2026-08-15T11:08:32.000Z</time>
      </trkpt>
      <trkpt lat="47.8857" lon="6.78662">
        <ele>766.4</ele>
        <time>2026-08-15T11:08:34.000Z</time>
      </trkpt>
      <trkpt lat="47.88565" lon="6.78649">
        <ele>764.6</ele>
        <time>2026-08-15T11:08:36.000Z</time>
      </trkpt>
      <trkpt lat="47.88562" lon="6.78643">
        <ele>763.6</ele>
        <time>2026-08-15T11:08:37.000Z</time>
      </trkpt>
      <trkpt lat="47.88559" lon="6.78637">
        <ele>763</ele>
        <time>2026-08-15T11:08:38.000Z</time>
      </trkpt>
      <trkpt lat="47.88559" lon="6.78633">
        <ele>762.4</ele>
        <time>2026-08-15T11:08:39.000Z</time>
      </trkpt>
      <trkpt lat="47.88557" lon="6.78627">
        <ele>761.8</ele>
        <time>2026-08-15T11:08:40.000Z</time>
      </trkpt>
      <trkpt lat="47.88556" lon="6.78621">
        <ele>761</ele>
        <time>2026-08-15T11:08:41.000Z</time>
      </trkpt>
      <trkpt lat="47.88555" lon="6.78616">
        <ele>760.4</ele>
        <time>2026-08-15T11:08:42.000Z</time>
      </trkpt>
      <trkpt lat="47.88553" lon="6.78606">
        <ele>758.8</ele>
        <time>2026-08-15T11:08:44.000Z</time>
      </trkpt>
      <trkpt lat="47.8855" lon="6.78595">
        <ele>757.2</ele>
        <time>2026-08-15T11:08:46.000Z</time>
      </trkpt>
      <trkpt lat="47.88548" lon="6.78589">
        <ele>755.8</ele>
        <time>2026-08-15T11:08:48.000Z</time>
      </trkpt>
      <trkpt lat="47.88547" lon="6.7859">
        <ele>754.8</ele>
        <time>2026-08-15T11:08:51.000Z</time>
      </trkpt>
      <trkpt lat="47.88547" lon="6.7859">
        <ele>754.8</ele>
        <time>2026-08-15T11:08:52.000Z</time>
      </trkpt>
      <trkpt lat="47.88547" lon="6.78591">
        <ele>754.6</ele>
        <time>2026-08-15T11:08:55.000Z</time>
      </trkpt>
      <trkpt lat="47.88536" lon="6.78586">
        <ele>753.2</ele>
        <time>2026-08-15T11:09:12.000Z</time>
      </trkpt>
      <trkpt lat="47.88532" lon="6.78588">
        <ele>752.6</ele>
        <time>2026-08-15T11:09:13.000Z</time>
      </trkpt>
      <trkpt lat="47.88528" lon="6.7859">
        <ele>752</ele>
        <time>2026-08-15T11:09:14.000Z</time>
      </trkpt>
      <trkpt lat="47.88514" lon="6.78597">
        <ele>751.2</ele>
        <time>2026-08-15T11:09:17.000Z</time>
      </trkpt>
      <trkpt lat="47.88505" lon="6.78601">
        <ele>751</ele>
        <time>2026-08-15T11:09:19.000Z</time>
      </trkpt>
      <trkpt lat="47.88501" lon="6.78602">
        <ele>751</ele>
        <time>2026-08-15T11:09:20.000Z</time>
      </trkpt>
      <trkpt lat="47.88494" lon="6.78603">
        <ele>750.4</ele>
        <time>2026-08-15T11:09:22.000Z</time>
      </trkpt>
      <trkpt lat="47.8849" lon="6.78602">
        <ele>750</ele>
        <time>2026-08-15T11:09:23.000Z</time>
      </trkpt>
      <trkpt lat="47.88479" lon="6.786">
        <ele>748.4</ele>
        <time>2026-08-15T11:09:26.000Z</time>
      </trkpt>
      <trkpt lat="47.88475" lon="6.786">
        <ele>747.6</ele>
        <time>2026-08-15T11:09:27.000Z</time>
      </trkpt>
      <trkpt lat="47.88472" lon="6.78601">
        <ele>747</ele>
        <time>2026-08-15T11:09:28.000Z</time>
      </trkpt>
      <trkpt lat="47.88461" lon="6.78604">
        <ele>745.8</ele>
        <time>2026-08-15T11:09:31.000Z</time>
      </trkpt>
      <trkpt lat="47.88458" lon="6.78605">
        <ele>745.2</ele>
        <time>2026-08-15T11:09:32.000Z</time>
      </trkpt>
      <trkpt lat="47.88454" lon="6.78607">
        <ele>744.6</ele>
        <time>2026-08-15T11:09:33.000Z</time>
      </trkpt>
      <trkpt lat="47.88448" lon="6.78615">
        <ele>743.2</ele>
        <time>2026-08-15T11:09:35.000Z</time>
      </trkpt>
      <trkpt lat="47.88445" lon="6.78619">
        <ele>742.6</ele>
        <time>2026-08-15T11:09:36.000Z</time>
      </trkpt>
      <trkpt lat="47.88442" lon="6.78624">
        <ele>742.2</ele>
        <time>2026-08-15T11:09:37.000Z</time>
      </trkpt>
      <trkpt lat="47.88435" lon="6.78636">
        <ele>740.8</ele>
        <time>2026-08-15T11:09:39.000Z</time>
      </trkpt>
      <trkpt lat="47.88428" lon="6.78649">
        <ele>740</ele>
        <time>2026-08-15T11:09:41.000Z</time>
      </trkpt>
      <trkpt lat="47.88424" lon="6.78654">
        <ele>739.6</ele>
        <time>2026-08-15T11:09:42.000Z</time>
      </trkpt>
      <trkpt lat="47.8842" lon="6.78659">
        <ele>739.4</ele>
        <time>2026-08-15T11:09:43.000Z</time>
      </trkpt>
      <trkpt lat="47.88415" lon="6.78668">
        <ele>739.6</ele>
        <time>2026-08-15T11:09:45.000Z</time>
      </trkpt>
      <trkpt lat="47.88405" lon="6.78681">
        <ele>738.4</ele>
        <time>2026-08-15T11:09:48.000Z</time>
      </trkpt>
      <trkpt lat="47.884" lon="6.78685">
        <ele>737.6</ele>
        <time>2026-08-15T11:09:49.000Z</time>
      </trkpt>
      <trkpt lat="47.88395" lon="6.78687">
        <ele>737</ele>
        <time>2026-08-15T11:09:50.000Z</time>
      </trkpt>
      <trkpt lat="47.88382" lon="6.78692">
        <ele>735.8</ele>
        <time>2026-08-15T11:09:52.000Z</time>
      </trkpt>
      <trkpt lat="47.88365" lon="6.78702">
        <ele>734.8</ele>
        <time>2026-08-15T11:09:55.000Z</time>
      </trkpt>
      <trkpt lat="47.8836" lon="6.78705">
        <ele>734.6</ele>
        <time>2026-08-15T11:09:56.000Z</time>
      </trkpt>
      <trkpt lat="47.88343" lon="6.78718">
        <ele>734.4</ele>
        <time>2026-08-15T11:10:00.000Z</time>
      </trkpt>
      <trkpt lat="47.88338" lon="6.78725">
        <ele>734.6</ele>
        <time>2026-08-15T11:10:03.000Z</time>
      </trkpt>
      <trkpt lat="47.88337" lon="6.78726">
        <ele>734.6</ele>
        <time>2026-08-15T11:10:04.000Z</time>
      </trkpt>
      <trkpt lat="47.8833" lon="6.78738">
        <ele>733.2</ele>
        <time>2026-08-15T11:10:07.000Z</time>
      </trkpt>
      <trkpt lat="47.88326" lon="6.78743">
        <ele>732.8</ele>
        <time>2026-08-15T11:10:08.000Z</time>
      </trkpt>
      <trkpt lat="47.8832" lon="6.78749">
        <ele>732</ele>
        <time>2026-08-15T11:10:10.000Z</time>
      </trkpt>
      <trkpt lat="47.88317" lon="6.78748">
        <ele>731.6</ele>
        <time>2026-08-15T11:10:11.000Z</time>
      </trkpt>
      <trkpt lat="47.88307" lon="6.78744">
        <ele>730.6</ele>
        <time>2026-08-15T11:10:14.000Z</time>
      </trkpt>
      <trkpt lat="47.88303" lon="6.78744">
        <ele>730.4</ele>
        <time>2026-08-15T11:10:16.000Z</time>
      </trkpt>
      <trkpt lat="47.88299" lon="6.78745">
        <ele>730.4</ele>
        <time>2026-08-15T11:10:18.000Z</time>
      </trkpt>
      <trkpt lat="47.88293" lon="6.78747">
        <ele>729.6</ele>
        <time>2026-08-15T11:10:20.000Z</time>
      </trkpt>
      <trkpt lat="47.88289" lon="6.78748">
        <ele>729.2</ele>
        <time>2026-08-15T11:10:21.000Z</time>
      </trkpt>
      <trkpt lat="47.88284" lon="6.78748">
        <ele>727.8</ele>
        <time>2026-08-15T11:10:22.000Z</time>
      </trkpt>
      <trkpt lat="47.88279" lon="6.7875">
        <ele>726.8</ele>
        <time>2026-08-15T11:10:23.000Z</time>
      </trkpt>
      <trkpt lat="47.88274" lon="6.78752">
        <ele>725.8</ele>
        <time>2026-08-15T11:10:24.000Z</time>
      </trkpt>
      <trkpt lat="47.8827" lon="6.78755">
        <ele>725.2</ele>
        <time>2026-08-15T11:10:25.000Z</time>
      </trkpt>
      <trkpt lat="47.88262" lon="6.7876">
        <ele>724.4</ele>
        <time>2026-08-15T11:10:27.000Z</time>
      </trkpt>
      <trkpt lat="47.88256" lon="6.78754">
        <ele>723.8</ele>
        <time>2026-08-15T11:10:29.000Z</time>
      </trkpt>
      <trkpt lat="47.88257" lon="6.78745">
        <ele>723</ele>
        <time>2026-08-15T11:10:31.000Z</time>
      </trkpt>
      <trkpt lat="47.88259" lon="6.78739">
        <ele>722.4</ele>
        <time>2026-08-15T11:10:32.000Z</time>
      </trkpt>
      <trkpt lat="47.88264" lon="6.78726">
        <ele>720.6</ele>
        <time>2026-08-15T11:10:34.000Z</time>
      </trkpt>
      <trkpt lat="47.88267" lon="6.78717">
        <ele>719.4</ele>
        <time>2026-08-15T11:10:35.000Z</time>
      </trkpt>
      <trkpt lat="47.88268" lon="6.78707">
        <ele>718.4</ele>
        <time>2026-08-15T11:10:36.000Z</time>
      </trkpt>
      <trkpt lat="47.88271" lon="6.78689">
        <ele>716.8</ele>
        <time>2026-08-15T11:10:38.000Z</time>
      </trkpt>
      <trkpt lat="47.88273" lon="6.78675">
        <ele>716.2</ele>
        <time>2026-08-15T11:10:40.000Z</time>
      </trkpt>
      <trkpt lat="47.88276" lon="6.78661">
        <ele>715.4</ele>
        <time>2026-08-15T11:10:42.000Z</time>
      </trkpt>
      <trkpt lat="47.88278" lon="6.78647">
        <ele>714.2</ele>
        <time>2026-08-15T11:10:44.000Z</time>
      </trkpt>
      <trkpt lat="47.88278" lon="6.78634">
        <ele>713.2</ele>
        <time>2026-08-15T11:10:46.000Z</time>
      </trkpt>
      <trkpt lat="47.88281" lon="6.78621">
        <ele>712.2</ele>
        <time>2026-08-15T11:10:48.000Z</time>
      </trkpt>
      <trkpt lat="47.88288" lon="6.78611">
        <ele>710.8</ele>
        <time>2026-08-15T11:10:50.000Z</time>
      </trkpt>
      <trkpt lat="47.88292" lon="6.78606">
        <ele>709.8</ele>
        <time>2026-08-15T11:10:51.000Z</time>
      </trkpt>
      <trkpt lat="47.88296" lon="6.78601">
        <ele>708.8</ele>
        <time>2026-08-15T11:10:52.000Z</time>
      </trkpt>
      <trkpt lat="47.88304" lon="6.7859">
        <ele>706.8</ele>
        <time>2026-08-15T11:10:54.000Z</time>
      </trkpt>
      <trkpt lat="47.88311" lon="6.7858">
        <ele>705.6</ele>
        <time>2026-08-15T11:10:56.000Z</time>
      </trkpt>
      <trkpt lat="47.88314" lon="6.78576">
        <ele>704.6</ele>
        <time>2026-08-15T11:10:57.000Z</time>
      </trkpt>
      <trkpt lat="47.88318" lon="6.78571">
        <ele>703.6</ele>
        <time>2026-08-15T11:10:58.000Z</time>
      </trkpt>
      <trkpt lat="47.8832" lon="6.78565">
        <ele>702.6</ele>
        <time>2026-08-15T11:10:59.000Z</time>
      </trkpt>
      <trkpt lat="47.88323" lon="6.78552">
        <ele>701.4</ele>
        <time>2026-08-15T11:11:01.000Z</time>
      </trkpt>
      <trkpt lat="47.88327" lon="6.78539">
        <ele>699.8</ele>
        <time>2026-08-15T11:11:03.000Z</time>
      </trkpt>
      <trkpt lat="47.8833" lon="6.78527">
        <ele>698</ele>
        <time>2026-08-15T11:11:05.000Z</time>
      </trkpt>
      <trkpt lat="47.88332" lon="6.78516">
        <ele>696.2</ele>
        <time>2026-08-15T11:11:07.000Z</time>
      </trkpt>
      <trkpt lat="47.88332" lon="6.78511">
        <ele>695.2</ele>
        <time>2026-08-15T11:11:08.000Z</time>
      </trkpt>
      <trkpt lat="47.88331" lon="6.78507">
        <ele>694.2</ele>
        <time>2026-08-15T11:11:09.000Z</time>
      </trkpt>
      <trkpt lat="47.88329" lon="6.78502">
        <ele>693.4</ele>
        <time>2026-08-15T11:11:10.000Z</time>
      </trkpt>
      <trkpt lat="47.88328" lon="6.78498">
        <ele>692.6</ele>
        <time>2026-08-15T11:11:11.000Z</time>
      </trkpt>
      <trkpt lat="47.88324" lon="6.78492">
        <ele>692</ele>
        <time>2026-08-15T11:11:12.000Z</time>
      </trkpt>
      <trkpt lat="47.88322" lon="6.78488">
        <ele>691.2</ele>
        <time>2026-08-15T11:11:13.000Z</time>
      </trkpt>
      <trkpt lat="47.88319" lon="6.78484">
        <ele>690.6</ele>
        <time>2026-08-15T11:11:14.000Z</time>
      </trkpt>
      <trkpt lat="47.88315" lon="6.78477">
        <ele>689.4</ele>
        <time>2026-08-15T11:11:16.000Z</time>
      </trkpt>
      <trkpt lat="47.88313" lon="6.78473">
        <ele>688.8</ele>
        <time>2026-08-15T11:11:17.000Z</time>
      </trkpt>
      <trkpt lat="47.88311" lon="6.78469">
        <ele>688.4</ele>
        <time>2026-08-15T11:11:18.000Z</time>
      </trkpt>
      <trkpt lat="47.88308" lon="6.7846">
        <ele>687.2</ele>
        <time>2026-08-15T11:11:20.000Z</time>
      </trkpt>
      <trkpt lat="47.88305" lon="6.78449">
        <ele>685</ele>
        <time>2026-08-15T11:11:22.000Z</time>
      </trkpt>
      <trkpt lat="47.88303" lon="6.78441">
        <ele>683.8</ele>
        <time>2026-08-15T11:11:23.000Z</time>
      </trkpt>
      <trkpt lat="47.88301" lon="6.78434">
        <ele>682.6</ele>
        <time>2026-08-15T11:11:24.000Z</time>
      </trkpt>
      <trkpt lat="47.88291" lon="6.78404">
        <ele>682</ele>
        <time>2026-08-15T11:11:28.000Z</time>
      </trkpt>
      <trkpt lat="47.8829" lon="6.78397">
        <ele>682.2</ele>
        <time>2026-08-15T11:11:29.000Z</time>
      </trkpt>
      <trkpt lat="47.88285" lon="6.78372">
        <ele>682.4</ele>
        <time>2026-08-15T11:11:33.000Z</time>
      </trkpt>
      <trkpt lat="47.8828" lon="6.78347">
        <ele>681.8</ele>
        <time>2026-08-15T11:11:37.000Z</time>
      </trkpt>
      <trkpt lat="47.88279" lon="6.7834">
        <ele>681.4</ele>
        <time>2026-08-15T11:11:38.000Z</time>
      </trkpt>
      <trkpt lat="47.88272" lon="6.78317">
        <ele>679.8</ele>
        <time>2026-08-15T11:11:42.000Z</time>
      </trkpt>
      <trkpt lat="47.88266" lon="6.78303">
        <ele>678.6</ele>
        <time>2026-08-15T11:11:45.000Z</time>
      </trkpt>
      <trkpt lat="47.88264" lon="6.783">
        <ele>678.4</ele>
        <time>2026-08-15T11:11:46.000Z</time>
      </trkpt>
      <trkpt lat="47.88261" lon="6.78299">
        <ele>678.2</ele>
        <time>2026-08-15T11:11:47.000Z</time>
      </trkpt>
      <trkpt lat="47.88256" lon="6.78294">
        <ele>677.2</ele>
        <time>2026-08-15T11:11:49.000Z</time>
      </trkpt>
      <trkpt lat="47.88251" lon="6.78291">
        <ele>676</ele>
        <time>2026-08-15T11:11:51.000Z</time>
      </trkpt>
      <trkpt lat="47.88248" lon="6.78288">
        <ele>675.4</ele>
        <time>2026-08-15T11:11:52.000Z</time>
      </trkpt>
      <trkpt lat="47.88245" lon="6.78287">
        <ele>675</ele>
        <time>2026-08-15T11:11:53.000Z</time>
      </trkpt>
      <trkpt lat="47.88239" lon="6.78287">
        <ele>674</ele>
        <time>2026-08-15T11:11:55.000Z</time>
      </trkpt>
      <trkpt lat="47.88237" lon="6.7829">
        <ele>673.6</ele>
        <time>2026-08-15T11:11:56.000Z</time>
      </trkpt>
      <trkpt lat="47.88235" lon="6.78293">
        <ele>673</ele>
        <time>2026-08-15T11:11:57.000Z</time>
      </trkpt>
      <trkpt lat="47.88234" lon="6.78297">
        <ele>672.4</ele>
        <time>2026-08-15T11:11:58.000Z</time>
      </trkpt>
      <trkpt lat="47.8823" lon="6.78304">
        <ele>671.4</ele>
        <time>2026-08-15T11:12:00.000Z</time>
      </trkpt>
      <trkpt lat="47.88227" lon="6.78304">
        <ele>671</ele>
        <time>2026-08-15T11:12:01.000Z</time>
      </trkpt>
      <trkpt lat="47.88225" lon="6.78303">
        <ele>670.4</ele>
        <time>2026-08-15T11:12:02.000Z</time>
      </trkpt>
      <trkpt lat="47.8822" lon="6.78294">
        <ele>669.2</ele>
        <time>2026-08-15T11:12:04.000Z</time>
      </trkpt>
      <trkpt lat="47.88218" lon="6.78287">
        <ele>668.6</ele>
        <time>2026-08-15T11:12:05.000Z</time>
      </trkpt>
      <trkpt lat="47.88217" lon="6.78281">
        <ele>667.8</ele>
        <time>2026-08-15T11:12:06.000Z</time>
      </trkpt>
      <trkpt lat="47.88215" lon="6.78269">
        <ele>666.6</ele>
        <time>2026-08-15T11:12:08.000Z</time>
      </trkpt>
      <trkpt lat="47.88216" lon="6.78258">
        <ele>665.4</ele>
        <time>2026-08-15T11:12:10.000Z</time>
      </trkpt>
      <trkpt lat="47.88217" lon="6.78253">
        <ele>664.6</ele>
        <time>2026-08-15T11:12:11.000Z</time>
      </trkpt>
      <trkpt lat="47.88218" lon="6.78247">
        <ele>664</ele>
        <time>2026-08-15T11:12:12.000Z</time>
      </trkpt>
      <trkpt lat="47.8822" lon="6.78237">
        <ele>663</ele>
        <time>2026-08-15T11:12:14.000Z</time>
      </trkpt>
      <trkpt lat="47.88224" lon="6.78227">
        <ele>661.6</ele>
        <time>2026-08-15T11:12:17.000Z</time>
      </trkpt>
      <trkpt lat="47.88223" lon="6.78224">
        <ele>661</ele>
        <time>2026-08-15T11:12:18.000Z</time>
      </trkpt>
      <trkpt lat="47.88222" lon="6.7822">
        <ele>660.4</ele>
        <time>2026-08-15T11:12:19.000Z</time>
      </trkpt>
      <trkpt lat="47.8822" lon="6.7822">
        <ele>660</ele>
        <time>2026-08-15T11:12:20.000Z</time>
      </trkpt>
      <trkpt lat="47.88217" lon="6.78221">
        <ele>659.2</ele>
        <time>2026-08-15T11:12:22.000Z</time>
      </trkpt>
      <trkpt lat="47.88212" lon="6.78225">
        <ele>658</ele>
        <time>2026-08-15T11:12:24.000Z</time>
      </trkpt>
      <trkpt lat="47.88205" lon="6.7823">
        <ele>656.8</ele>
        <time>2026-08-15T11:12:26.000Z</time>
      </trkpt>
      <trkpt lat="47.88198" lon="6.78234">
        <ele>655.6</ele>
        <time>2026-08-15T11:12:28.000Z</time>
      </trkpt>
      <trkpt lat="47.88195" lon="6.78236">
        <ele>655</ele>
        <time>2026-08-15T11:12:29.000Z</time>
      </trkpt>
      <trkpt lat="47.88192" lon="6.78239">
        <ele>654.6</ele>
        <time>2026-08-15T11:12:30.000Z</time>
      </trkpt>
      <trkpt lat="47.88185" lon="6.78244">
        <ele>653.2</ele>
        <time>2026-08-15T11:12:32.000Z</time>
      </trkpt>
      <trkpt lat="47.88177" lon="6.78251">
        <ele>651.6</ele>
        <time>2026-08-15T11:12:34.000Z</time>
      </trkpt>
      <trkpt lat="47.8817" lon="6.78258">
        <ele>649.8</ele>
        <time>2026-08-15T11:12:36.000Z</time>
      </trkpt>
      <trkpt lat="47.88167" lon="6.78262">
        <ele>649.6</ele>
        <time>2026-08-15T11:12:37.000Z</time>
      </trkpt>
      <trkpt lat="47.88164" lon="6.78266">
        <ele>648.4</ele>
        <time>2026-08-15T11:12:38.000Z</time>
      </trkpt>
      <trkpt lat="47.88159" lon="6.78274">
        <ele>647</ele>
        <time>2026-08-15T11:12:40.000Z</time>
      </trkpt>
      <trkpt lat="47.88154" lon="6.78278">
        <ele>646.2</ele>
        <time>2026-08-15T11:12:42.000Z</time>
      </trkpt>
      <trkpt lat="47.88152" lon="6.78276">
        <ele>645.8</ele>
        <time>2026-08-15T11:12:43.000Z</time>
      </trkpt>
      <trkpt lat="47.8815" lon="6.7827">
        <ele>644.6</ele>
        <time>2026-08-15T11:12:45.000Z</time>
      </trkpt>
      <trkpt lat="47.8815" lon="6.78266">
        <ele>644</ele>
        <time>2026-08-15T11:12:46.000Z</time>
      </trkpt>
      <trkpt lat="47.8815" lon="6.78261">
        <ele>643.2</ele>
        <time>2026-08-15T11:12:47.000Z</time>
      </trkpt>
      <trkpt lat="47.88153" lon="6.7824">
        <ele>642</ele>
        <time>2026-08-15T11:12:50.000Z</time>
      </trkpt>
      <trkpt lat="47.88157" lon="6.78221">
        <ele>641.2</ele>
        <time>2026-08-15T11:12:53.000Z</time>
      </trkpt>
      <trkpt lat="47.88159" lon="6.78214">
        <ele>640.8</ele>
        <time>2026-08-15T11:12:54.000Z</time>
      </trkpt>
      <trkpt lat="47.8816" lon="6.78208">
        <ele>640.6</ele>
        <time>2026-08-15T11:12:55.000Z</time>
      </trkpt>
      <trkpt lat="47.88162" lon="6.78202">
        <ele>640.6</ele>
        <time>2026-08-15T11:12:56.000Z</time>
      </trkpt>
      <trkpt lat="47.88167" lon="6.78181">
        <ele>640</ele>
        <time>2026-08-15T11:13:00.000Z</time>
      </trkpt>
      <trkpt lat="47.88168" lon="6.78175">
        <ele>639.2</ele>
        <time>2026-08-15T11:13:01.000Z</time>
      </trkpt>
      <trkpt lat="47.88172" lon="6.78161">
        <ele>637.6</ele>
        <time>2026-08-15T11:13:03.000Z</time>
      </trkpt>
      <trkpt lat="47.88176" lon="6.7815">
        <ele>636.2</ele>
        <time>2026-08-15T11:13:05.000Z</time>
      </trkpt>
      <trkpt lat="47.8818" lon="6.78139">
        <ele>634.8</ele>
        <time>2026-08-15T11:13:07.000Z</time>
      </trkpt>
      <trkpt lat="47.88186" lon="6.78129">
        <ele>633.2</ele>
        <time>2026-08-15T11:13:09.000Z</time>
      </trkpt>
      <trkpt lat="47.88192" lon="6.7812">
        <ele>631.6</ele>
        <time>2026-08-15T11:13:11.000Z</time>
      </trkpt>
      <trkpt lat="47.882" lon="6.78112">
        <ele>630.2</ele>
        <time>2026-08-15T11:13:13.000Z</time>
      </trkpt>
      <trkpt lat="47.88209" lon="6.78109">
        <ele>629</ele>
        <time>2026-08-15T11:13:15.000Z</time>
      </trkpt>
      <trkpt lat="47.8822" lon="6.78107">
        <ele>628</ele>
        <time>2026-08-15T11:13:18.000Z</time>
      </trkpt>
      <trkpt lat="47.88229" lon="6.78105">
        <ele>626.4</ele>
        <time>2026-08-15T11:13:20.000Z</time>
      </trkpt>
      <trkpt lat="47.88237" lon="6.78099">
        <ele>624.8</ele>
        <time>2026-08-15T11:13:22.000Z</time>
      </trkpt>
      <trkpt lat="47.88241" lon="6.78094">
        <ele>624.2</ele>
        <time>2026-08-15T11:13:23.000Z</time>
      </trkpt>
      <trkpt lat="47.88244" lon="6.78089">
        <ele>623.6</ele>
        <time>2026-08-15T11:13:24.000Z</time>
      </trkpt>
      <trkpt lat="47.88253" lon="6.78081">
        <ele>621.8</ele>
        <time>2026-08-15T11:13:26.000Z</time>
      </trkpt>
      <trkpt lat="47.88262" lon="6.78075">
        <ele>620.4</ele>
        <time>2026-08-15T11:13:28.000Z</time>
      </trkpt>
      <trkpt lat="47.88273" lon="6.78071">
        <ele>619.6</ele>
        <time>2026-08-15T11:13:31.000Z</time>
      </trkpt>
      <trkpt lat="47.88277" lon="6.78069">
        <ele>619.4</ele>
        <time>2026-08-15T11:13:32.000Z</time>
      </trkpt>
      <trkpt lat="47.8828" lon="6.78066">
        <ele>619</ele>
        <time>2026-08-15T11:13:33.000Z</time>
      </trkpt>
      <trkpt lat="47.88286" lon="6.78058">
        <ele>618</ele>
        <time>2026-08-15T11:13:35.000Z</time>
      </trkpt>
      <trkpt lat="47.88289" lon="6.78052">
        <ele>617.4</ele>
        <time>2026-08-15T11:13:37.000Z</time>
      </trkpt>
      <trkpt lat="47.88289" lon="6.78051">
        <ele>617.2</ele>
        <time>2026-08-15T11:13:41.000Z</time>
      </trkpt>
      <trkpt lat="47.88289" lon="6.78051">
        <ele>617</ele>
        <time>2026-08-15T11:13:42.000Z</time>
      </trkpt>
      <trkpt lat="47.88289" lon="6.7805">
        <ele>617</ele>
        <time>2026-08-15T11:13:43.000Z</time>
      </trkpt>
      <trkpt lat="47.88285" lon="6.78036">
        <ele>615.4</ele>
        <time>2026-08-15T11:14:18.000Z</time>
      </trkpt>
      <trkpt lat="47.88284" lon="6.78032">
        <ele>615.2</ele>
        <time>2026-08-15T11:14:19.000Z</time>
      </trkpt>
      <trkpt lat="47.8828" lon="6.78023">
        <ele>614.8</ele>
        <time>2026-08-15T11:14:23.000Z</time>
      </trkpt>
      <trkpt lat="47.88279" lon="6.78019">
        <ele>614.6</ele>
        <time>2026-08-15T11:14:24.000Z</time>
      </trkpt>
      <trkpt lat="47.88278" lon="6.7801">
        <ele>614.4</ele>
        <time>2026-08-15T11:14:26.000Z</time>
      </trkpt>
      <trkpt lat="47.88276" lon="6.77993">
        <ele>614.2</ele>
        <time>2026-08-15T11:14:29.000Z</time>
      </trkpt>
      <trkpt lat="47.88277" lon="6.7797">
        <ele>614.6</ele>
        <time>2026-08-15T11:14:33.000Z</time>
      </trkpt>
      <trkpt lat="47.88277" lon="6.77959">
        <ele>614.8</ele>
        <time>2026-08-15T11:14:35.000Z</time>
      </trkpt>
      <trkpt lat="47.88273" lon="6.77934">
        <ele>615</ele>
        <time>2026-08-15T11:14:41.000Z</time>
      </trkpt>
      <trkpt lat="47.88265" lon="6.7792">
        <ele>613.8</ele>
        <time>2026-08-15T11:14:45.000Z</time>
      </trkpt>
      <trkpt lat="47.88261" lon="6.7791">
        <ele>612.8</ele>
        <time>2026-08-15T11:14:47.000Z</time>
      </trkpt>
      <trkpt lat="47.88256" lon="6.77898">
        <ele>611.4</ele>
        <time>2026-08-15T11:14:49.000Z</time>
      </trkpt>
      <trkpt lat="47.88252" lon="6.77884">
        <ele>609.8</ele>
        <time>2026-08-15T11:14:51.000Z</time>
      </trkpt>
      <trkpt lat="47.88249" lon="6.77871">
        <ele>608.8</ele>
        <time>2026-08-15T11:14:53.000Z</time>
      </trkpt>
      <trkpt lat="47.88244" lon="6.77858">
        <ele>607.4</ele>
        <time>2026-08-15T11:14:55.000Z</time>
      </trkpt>
      <trkpt lat="47.88243" lon="6.7785">
        <ele>606.8</ele>
        <time>2026-08-15T11:14:56.000Z</time>
      </trkpt>
      <trkpt lat="47.88242" lon="6.77842">
        <ele>606</ele>
        <time>2026-08-15T11:14:57.000Z</time>
      </trkpt>
      <trkpt lat="47.88239" lon="6.7782">
        <ele>604.6</ele>
        <time>2026-08-15T11:15:00.000Z</time>
      </trkpt>
      <trkpt lat="47.88237" lon="6.77814">
        <ele>604.6</ele>
        <time>2026-08-15T11:15:01.000Z</time>
      </trkpt>
      <trkpt lat="47.88232" lon="6.77802">
        <ele>604.2</ele>
        <time>2026-08-15T11:15:03.000Z</time>
      </trkpt>
      <trkpt lat="47.88226" lon="6.77789">
        <ele>603.4</ele>
        <time>2026-08-15T11:15:05.000Z</time>
      </trkpt>
      <trkpt lat="47.88223" lon="6.77783">
        <ele>603</ele>
        <time>2026-08-15T11:15:06.000Z</time>
      </trkpt>
      <trkpt lat="47.88215" lon="6.7777">
        <ele>601.8</ele>
        <time>2026-08-15T11:15:08.000Z</time>
      </trkpt>
      <trkpt lat="47.88211" lon="6.77765">
        <ele>601.4</ele>
        <time>2026-08-15T11:15:09.000Z</time>
      </trkpt>
      <trkpt lat="47.88205" lon="6.77756">
        <ele>600.4</ele>
        <time>2026-08-15T11:15:11.000Z</time>
      </trkpt>
      <trkpt lat="47.88202" lon="6.77753">
        <ele>600.2</ele>
        <time>2026-08-15T11:15:14.000Z</time>
      </trkpt>
      <trkpt lat="47.88202" lon="6.77753">
        <ele>600</ele>
        <time>2026-08-15T11:15:16.000Z</time>
      </trkpt>
      <trkpt lat="47.88196" lon="6.77746">
        <ele>597.4</ele>
        <time>2026-08-15T11:17:02.000Z</time>
      </trkpt>
      <trkpt lat="47.88193" lon="6.77741">
        <ele>597.2</ele>
        <time>2026-08-15T11:17:03.000Z</time>
      </trkpt>
      <trkpt lat="47.88184" lon="6.77727">
        <ele>596.4</ele>
        <time>2026-08-15T11:17:06.000Z</time>
      </trkpt>
      <trkpt lat="47.88177" lon="6.77711">
        <ele>595.6</ele>
        <time>2026-08-15T11:17:09.000Z</time>
      </trkpt>
      <trkpt lat="47.88175" lon="6.77706">
        <ele>595.2</ele>
        <time>2026-08-15T11:17:10.000Z</time>
      </trkpt>
      <trkpt lat="47.88168" lon="6.77687">
        <ele>594.2</ele>
        <time>2026-08-15T11:17:13.000Z</time>
      </trkpt>
      <trkpt lat="47.8816" lon="6.77665">
        <ele>592.8</ele>
        <time>2026-08-15T11:17:16.000Z</time>
      </trkpt>
      <trkpt lat="47.88158" lon="6.77658">
        <ele>592.4</ele>
        <time>2026-08-15T11:17:17.000Z</time>
      </trkpt>
      <trkpt lat="47.88153" lon="6.77644">
        <ele>591.6</ele>
        <time>2026-08-15T11:17:19.000Z</time>
      </trkpt>
      <trkpt lat="47.8815" lon="6.77637">
        <ele>591.4</ele>
        <time>2026-08-15T11:17:20.000Z</time>
      </trkpt>
      <trkpt lat="47.88146" lon="6.77629">
        <ele>590.8</ele>
        <time>2026-08-15T11:17:21.000Z</time>
      </trkpt>
      <trkpt lat="47.88143" lon="6.77622">
        <ele>590.4</ele>
        <time>2026-08-15T11:17:22.000Z</time>
      </trkpt>
      <trkpt lat="47.88137" lon="6.77604">
        <ele>588.6</ele>
        <time>2026-08-15T11:17:24.000Z</time>
      </trkpt>
      <trkpt lat="47.88132" lon="6.77586">
        <ele>587.2</ele>
        <time>2026-08-15T11:17:26.000Z</time>
      </trkpt>
      <trkpt lat="47.88125" lon="6.77557">
        <ele>586</ele>
        <time>2026-08-15T11:17:29.000Z</time>
      </trkpt>
      <trkpt lat="47.8812" lon="6.77532">
        <ele>586.2</ele>
        <time>2026-08-15T11:17:32.000Z</time>
      </trkpt>
      <trkpt lat="47.88117" lon="6.77517">
        <ele>586.6</ele>
        <time>2026-08-15T11:17:34.000Z</time>
      </trkpt>
      <trkpt lat="47.88113" lon="6.77497">
        <ele>587</ele>
        <time>2026-08-15T11:17:37.000Z</time>
      </trkpt>
      <trkpt lat="47.88112" lon="6.77491">
        <ele>587.2</ele>
        <time>2026-08-15T11:17:38.000Z</time>
      </trkpt>
      <trkpt lat="47.88109" lon="6.77478">
        <ele>587.2</ele>
        <time>2026-08-15T11:17:40.000Z</time>
      </trkpt>
      <trkpt lat="47.88106" lon="6.7747">
        <ele>587.2</ele>
        <time>2026-08-15T11:17:41.000Z</time>
      </trkpt>
      <trkpt lat="47.88102" lon="6.77455">
        <ele>587</ele>
        <time>2026-08-15T11:17:43.000Z</time>
      </trkpt>
      <trkpt lat="47.88098" lon="6.77439">
        <ele>586.2</ele>
        <time>2026-08-15T11:17:45.000Z</time>
      </trkpt>
      <trkpt lat="47.88097" lon="6.77431">
        <ele>586.2</ele>
        <time>2026-08-15T11:17:46.000Z</time>
      </trkpt>
      <trkpt lat="47.88093" lon="6.77399">
        <ele>585.6</ele>
        <time>2026-08-15T11:17:50.000Z</time>
      </trkpt>
      <trkpt lat="47.88093" lon="6.77383">
        <ele>585.6</ele>
        <time>2026-08-15T11:17:52.000Z</time>
      </trkpt>
      <trkpt lat="47.88094" lon="6.77355">
        <ele>586.6</ele>
        <time>2026-08-15T11:17:56.000Z</time>
      </trkpt>
      <trkpt lat="47.88094" lon="6.77343">
        <ele>587.6</ele>
        <time>2026-08-15T11:17:58.000Z</time>
      </trkpt>
      <trkpt lat="47.88094" lon="6.77325">
        <ele>589</ele>
        <time>2026-08-15T11:18:01.000Z</time>
      </trkpt>
      <trkpt lat="47.88094" lon="6.77309">
        <ele>590.2</ele>
        <time>2026-08-15T11:18:04.000Z</time>
      </trkpt>
      <trkpt lat="47.8809" lon="6.77294">
        <ele>589.2</ele>
        <time>2026-08-15T11:18:07.000Z</time>
      </trkpt>
      <trkpt lat="47.88087" lon="6.7729">
        <ele>588.4</ele>
        <time>2026-08-15T11:18:08.000Z</time>
      </trkpt>
      <trkpt lat="47.88084" lon="6.77285">
        <ele>587.8</ele>
        <time>2026-08-15T11:18:09.000Z</time>
      </trkpt>
      <trkpt lat="47.88082" lon="6.77279">
        <ele>586.8</ele>
        <time>2026-08-15T11:18:10.000Z</time>
      </trkpt>
      <trkpt lat="47.88079" lon="6.77274">
        <ele>585.8</ele>
        <time>2026-08-15T11:18:11.000Z</time>
      </trkpt>
      <trkpt lat="47.88077" lon="6.77267">
        <ele>584.6</ele>
        <time>2026-08-15T11:18:12.000Z</time>
      </trkpt>
      <trkpt lat="47.88076" lon="6.77261">
        <ele>583.6</ele>
        <time>2026-08-15T11:18:13.000Z</time>
      </trkpt>
      <trkpt lat="47.88076" lon="6.77256">
        <ele>582.8</ele>
        <time>2026-08-15T11:18:14.000Z</time>
      </trkpt>
      <trkpt lat="47.88076" lon="6.77251">
        <ele>582.2</ele>
        <time>2026-08-15T11:18:15.000Z</time>
      </trkpt>
      <trkpt lat="47.88075" lon="6.77243">
        <ele>581</ele>
        <time>2026-08-15T11:18:17.000Z</time>
      </trkpt>
      <trkpt lat="47.88075" lon="6.77239">
        <ele>580.2</ele>
        <time>2026-08-15T11:18:19.000Z</time>
      </trkpt>
      <trkpt lat="47.88074" lon="6.77238">
        <ele>579.8</ele>
        <time>2026-08-15T11:18:20.000Z</time>
      </trkpt>
      <trkpt lat="47.88074" lon="6.77237">
        <ele>579.4</ele>
        <time>2026-08-15T11:18:21.000Z</time>
      </trkpt>
      <trkpt lat="47.88074" lon="6.77237">
        <ele>579</ele>
        <time>2026-08-15T11:18:23.000Z</time>
      </trkpt>
      <trkpt lat="47.88074" lon="6.77238">
        <ele>578.8</ele>
        <time>2026-08-15T11:18:24.000Z</time>
      </trkpt>
      <trkpt lat="47.88074" lon="6.77237">
        <ele>579</ele>
        <time>2026-08-15T11:18:26.000Z</time>
      </trkpt>
      <trkpt lat="47.88071" lon="6.77246">
        <ele>578.6</ele>
        <time>2026-08-15T11:18:30.000Z</time>
      </trkpt>
      <trkpt lat="47.8807" lon="6.77253">
        <ele>578.2</ele>
        <time>2026-08-15T11:18:32.000Z</time>
      </trkpt>
      <trkpt lat="47.88068" lon="6.77262">
        <ele>577.4</ele>
        <time>2026-08-15T11:18:34.000Z</time>
      </trkpt>
      <trkpt lat="47.88064" lon="6.7727">
        <ele>576.4</ele>
        <time>2026-08-15T11:18:36.000Z</time>
      </trkpt>
      <trkpt lat="47.8806" lon="6.7727">
        <ele>575.2</ele>
        <time>2026-08-15T11:18:38.000Z</time>
      </trkpt>
      <trkpt lat="47.88057" lon="6.77255">
        <ele>573.8</ele>
        <time>2026-08-15T11:18:41.000Z</time>
      </trkpt>
      <trkpt lat="47.88054" lon="6.77242">
        <ele>572.6</ele>
        <time>2026-08-15T11:18:45.000Z</time>
      </trkpt>
      <trkpt lat="47.88053" lon="6.77239">
        <ele>572.2</ele>
        <time>2026-08-15T11:18:46.000Z</time>
      </trkpt>
      <trkpt lat="47.88051" lon="6.77234">
        <ele>571.2</ele>
        <time>2026-08-15T11:18:48.000Z</time>
      </trkpt>
      <trkpt lat="47.88049" lon="6.77231">
        <ele>570.2</ele>
        <time>2026-08-15T11:18:50.000Z</time>
      </trkpt>
      <trkpt lat="47.88048" lon="6.77231">
        <ele>569.4</ele>
        <time>2026-08-15T11:18:52.000Z</time>
      </trkpt>
      <trkpt lat="47.88047" lon="6.7723">
        <ele>569.4</ele>
        <time>2026-08-15T11:18:59.000Z</time>
      </trkpt>
      <trkpt lat="47.88051" lon="6.77212">
        <ele>567.6</ele>
        <time>2026-08-15T11:19:15.000Z</time>
      </trkpt>
      <trkpt lat="47.88052" lon="6.77208">
        <ele>567.4</ele>
        <time>2026-08-15T11:19:16.000Z</time>
      </trkpt>
      <trkpt lat="47.88055" lon="6.772">
        <ele>566.6</ele>
        <time>2026-08-15T11:19:18.000Z</time>
      </trkpt>
      <trkpt lat="47.88058" lon="6.77195">
        <ele>566.2</ele>
        <time>2026-08-15T11:19:20.000Z</time>
      </trkpt>
      <trkpt lat="47.88059" lon="6.77191">
        <ele>566.2</ele>
        <time>2026-08-15T11:19:22.000Z</time>
      </trkpt>
      <trkpt lat="47.88059" lon="6.77189">
        <ele>566</ele>
        <time>2026-08-15T11:19:27.000Z</time>
      </trkpt>
      <trkpt lat="47.88059" lon="6.77189">
        <ele>566</ele>
        <time>2026-08-15T11:19:28.000Z</time>
      </trkpt>
      <trkpt lat="47.88051" lon="6.77214">
        <ele>567</ele>
        <time>2026-08-15T11:20:02.000Z</time>
      </trkpt>
      <trkpt lat="47.8805" lon="6.77217">
        <ele>567.2</ele>
        <time>2026-08-15T11:20:03.000Z</time>
      </trkpt>
      <trkpt lat="47.8805" lon="6.7722">
        <ele>567.6</ele>
        <time>2026-08-15T11:20:04.000Z</time>
      </trkpt>
      <trkpt lat="47.8805" lon="6.77223">
        <ele>567.8</ele>
        <time>2026-08-15T11:20:05.000Z</time>
      </trkpt>
      <trkpt lat="47.88048" lon="6.77234">
        <ele>568.6</ele>
        <time>2026-08-15T11:20:10.000Z</time>
      </trkpt>
      <trkpt lat="47.88047" lon="6.77236">
        <ele>568.4</ele>
        <time>2026-08-15T11:20:11.000Z</time>
      </trkpt>
      <trkpt lat="47.88044" lon="6.77249">
        <ele>566.8</ele>
        <time>2026-08-15T11:20:15.000Z</time>
      </trkpt>
      <trkpt lat="47.88044" lon="6.77254">
        <ele>566.6</ele>
        <time>2026-08-15T11:20:16.000Z</time>
      </trkpt>
      <trkpt lat="47.88044" lon="6.7727">
        <ele>566.2</ele>
        <time>2026-08-15T11:20:21.000Z</time>
      </trkpt>
      <trkpt lat="47.88043" lon="6.7727">
        <ele>566</ele>
        <time>2026-08-15T11:20:23.000Z</time>
      </trkpt>
      <trkpt lat="47.88043" lon="6.7727">
        <ele>566</ele>
        <time>2026-08-15T11:20:24.000Z</time>
      </trkpt>
      <trkpt lat="47.88043" lon="6.7727">
        <ele>566</ele>
        <time>2026-08-15T11:20:25.000Z</time>
      </trkpt>
      <trkpt lat="47.88043" lon="6.77284">
        <ele>564.4</ele>
        <time>2026-08-15T11:21:32.000Z</time>
      </trkpt>
      <trkpt lat="47.88044" lon="6.7729">
        <ele>564.2</ele>
        <time>2026-08-15T11:21:33.000Z</time>
      </trkpt>
      <trkpt lat="47.88044" lon="6.77301">
        <ele>563.4</ele>
        <time>2026-08-15T11:21:35.000Z</time>
      </trkpt>
      <trkpt lat="47.88045" lon="6.77314">
        <ele>563</ele>
        <time>2026-08-15T11:21:37.000Z</time>
      </trkpt>
      <trkpt lat="47.8805" lon="6.77343">
        <ele>563</ele>
        <time>2026-08-15T11:21:42.000Z</time>
      </trkpt>
      <trkpt lat="47.88052" lon="6.7736">
        <ele>563.2</ele>
        <time>2026-08-15T11:21:45.000Z</time>
      </trkpt>
      <trkpt lat="47.88056" lon="6.77389">
        <ele>564.2</ele>
        <time>2026-08-15T11:21:50.000Z</time>
      </trkpt>
      <trkpt lat="47.88057" lon="6.77394">
        <ele>564.4</ele>
        <time>2026-08-15T11:21:51.000Z</time>
      </trkpt>
      <trkpt lat="47.88058" lon="6.77399">
        <ele>564.6</ele>
        <time>2026-08-15T11:21:52.000Z</time>
      </trkpt>
      <trkpt lat="47.88059" lon="6.77419">
        <ele>565.4</ele>
        <time>2026-08-15T11:21:56.000Z</time>
      </trkpt>
      <trkpt lat="47.88059" lon="6.77435">
        <ele>565.6</ele>
        <time>2026-08-15T11:21:59.000Z</time>
      </trkpt>
      <trkpt lat="47.88064" lon="6.7746">
        <ele>564.6</ele>
        <time>2026-08-15T11:22:04.000Z</time>
      </trkpt>
      <trkpt lat="47.88065" lon="6.77465">
        <ele>564.2</ele>
        <time>2026-08-15T11:22:05.000Z</time>
      </trkpt>
      <trkpt lat="47.88066" lon="6.7747">
        <ele>563.8</ele>
        <time>2026-08-15T11:22:06.000Z</time>
      </trkpt>
      <trkpt lat="47.88067" lon="6.77481">
        <ele>562.8</ele>
        <time>2026-08-15T11:22:08.000Z</time>
      </trkpt>
      <trkpt lat="47.88067" lon="6.77499">
        <ele>561.4</ele>
        <time>2026-08-15T11:22:11.000Z</time>
      </trkpt>
      <trkpt lat="47.88067" lon="6.77506">
        <ele>560.8</ele>
        <time>2026-08-15T11:22:12.000Z</time>
      </trkpt>
      <trkpt lat="47.88066" lon="6.77513">
        <ele>560.2</ele>
        <time>2026-08-15T11:22:13.000Z</time>
      </trkpt>
      <trkpt lat="47.88063" lon="6.77528">
        <ele>559</ele>
        <time>2026-08-15T11:22:15.000Z</time>
      </trkpt>
      <trkpt lat="47.88062" lon="6.77535">
        <ele>558.4</ele>
        <time>2026-08-15T11:22:16.000Z</time>
      </trkpt>
      <trkpt lat="47.88062" lon="6.77552">
        <ele>557.6</ele>
        <time>2026-08-15T11:22:18.000Z</time>
      </trkpt>
      <trkpt lat="47.88063" lon="6.77559">
        <ele>557.4</ele>
        <time>2026-08-15T11:22:19.000Z</time>
      </trkpt>
      <trkpt lat="47.88067" lon="6.77573">
        <ele>557.4</ele>
        <time>2026-08-15T11:22:21.000Z</time>
      </trkpt>
      <trkpt lat="47.88075" lon="6.77597">
        <ele>558.4</ele>
        <time>2026-08-15T11:22:25.000Z</time>
      </trkpt>
      <trkpt lat="47.88081" lon="6.77616">
        <ele>558.8</ele>
        <time>2026-08-15T11:22:28.000Z</time>
      </trkpt>
      <trkpt lat="47.88085" lon="6.77628">
        <ele>559</ele>
        <time>2026-08-15T11:22:30.000Z</time>
      </trkpt>
      <trkpt lat="47.88093" lon="6.77652">
        <ele>559.8</ele>
        <time>2026-08-15T11:22:34.000Z</time>
      </trkpt>
      <trkpt lat="47.88102" lon="6.7768">
        <ele>560.6</ele>
        <time>2026-08-15T11:22:39.000Z</time>
      </trkpt>
      <trkpt lat="47.88104" lon="6.7769">
        <ele>560.8</ele>
        <time>2026-08-15T11:22:41.000Z</time>
      </trkpt>
      <trkpt lat="47.88105" lon="6.77696">
        <ele>561</ele>
        <time>2026-08-15T11:22:42.000Z</time>
      </trkpt>
      <trkpt lat="47.88107" lon="6.77726">
        <ele>560.8</ele>
        <time>2026-08-15T11:22:47.000Z</time>
      </trkpt>
      <trkpt lat="47.88107" lon="6.77736">
        <ele>560.2</ele>
        <time>2026-08-15T11:22:49.000Z</time>
      </trkpt>
      <trkpt lat="47.88107" lon="6.77744">
        <ele>559.8</ele>
        <time>2026-08-15T11:22:51.000Z</time>
      </trkpt>
      <trkpt lat="47.88107" lon="6.77747">
        <ele>559.6</ele>
        <time>2026-08-15T11:22:52.000Z</time>
      </trkpt>
      <trkpt lat="47.88106" lon="6.77752">
        <ele>559.2</ele>
        <time>2026-08-15T11:22:54.000Z</time>
      </trkpt>
      <trkpt lat="47.88102" lon="6.7776">
        <ele>558.4</ele>
        <time>2026-08-15T11:22:57.000Z</time>
      </trkpt>
      <trkpt lat="47.881" lon="6.77767">
        <ele>557.4</ele>
        <time>2026-08-15T11:22:59.000Z</time>
      </trkpt>
      <trkpt lat="47.88099" lon="6.7777">
        <ele>556.8</ele>
        <time>2026-08-15T11:23:00.000Z</time>
      </trkpt>
      <trkpt lat="47.88098" lon="6.77774">
        <ele>556.2</ele>
        <time>2026-08-15T11:23:01.000Z</time>
      </trkpt>
      <trkpt lat="47.88097" lon="6.77784">
        <ele>555</ele>
        <time>2026-08-15T11:23:03.000Z</time>
      </trkpt>
      <trkpt lat="47.88096" lon="6.77796">
        <ele>553.8</ele>
        <time>2026-08-15T11:23:05.000Z</time>
      </trkpt>
      <trkpt lat="47.88093" lon="6.77809">
        <ele>552.6</ele>
        <time>2026-08-15T11:23:07.000Z</time>
      </trkpt>
      <trkpt lat="47.88089" lon="6.77827">
        <ele>551.2</ele>
        <time>2026-08-15T11:23:10.000Z</time>
      </trkpt>
      <trkpt lat="47.88087" lon="6.7783">
        <ele>551</ele>
        <time>2026-08-15T11:23:11.000Z</time>
      </trkpt>
      <trkpt lat="47.88081" lon="6.77831">
        <ele>549.6</ele>
        <time>2026-08-15T11:23:14.000Z</time>
      </trkpt>
      <trkpt lat="47.88077" lon="6.7783">
        <ele>549.2</ele>
        <time>2026-08-15T11:23:15.000Z</time>
      </trkpt>
      <trkpt lat="47.88073" lon="6.77829">
        <ele>548</ele>
        <time>2026-08-15T11:23:16.000Z</time>
      </trkpt>
      <trkpt lat="47.8807" lon="6.77826">
        <ele>546.8</ele>
        <time>2026-08-15T11:23:17.000Z</time>
      </trkpt>
      <trkpt lat="47.88063" lon="6.77818">
        <ele>544.8</ele>
        <time>2026-08-15T11:23:19.000Z</time>
      </trkpt>
      <trkpt lat="47.88058" lon="6.77811">
        <ele>543.6</ele>
        <time>2026-08-15T11:23:21.000Z</time>
      </trkpt>
      <trkpt lat="47.88053" lon="6.77806">
        <ele>542.4</ele>
        <time>2026-08-15T11:23:23.000Z</time>
      </trkpt>
      <trkpt lat="47.88046" lon="6.77801">
        <ele>541.2</ele>
        <time>2026-08-15T11:23:25.000Z</time>
      </trkpt>
      <trkpt lat="47.88037" lon="6.77795">
        <ele>540</ele>
        <time>2026-08-15T11:23:28.000Z</time>
      </trkpt>
      <trkpt lat="47.88034" lon="6.77793">
        <ele>539.6</ele>
        <time>2026-08-15T11:23:29.000Z</time>
      </trkpt>
      <trkpt lat="47.88028" lon="6.77792">
        <ele>538.8</ele>
        <time>2026-08-15T11:23:31.000Z</time>
      </trkpt>
      <trkpt lat="47.88018" lon="6.77792">
        <ele>537.8</ele>
        <time>2026-08-15T11:23:34.000Z</time>
      </trkpt>
      <trkpt lat="47.88015" lon="6.77792">
        <ele>537.4</ele>
        <time>2026-08-15T11:23:35.000Z</time>
      </trkpt>
      <trkpt lat="47.88007" lon="6.77792">
        <ele>536</ele>
        <time>2026-08-15T11:23:37.000Z</time>
      </trkpt>
      <trkpt lat="47.88001" lon="6.77793">
        <ele>534.6</ele>
        <time>2026-08-15T11:23:39.000Z</time>
      </trkpt>
      <trkpt lat="47.87995" lon="6.77794">
        <ele>533.2</ele>
        <time>2026-08-15T11:23:41.000Z</time>
      </trkpt>
      <trkpt lat="47.87988" lon="6.77795">
        <ele>531.6</ele>
        <time>2026-08-15T11:23:43.000Z</time>
      </trkpt>
      <trkpt lat="47.87982" lon="6.77798">
        <ele>530</ele>
        <time>2026-08-15T11:23:45.000Z</time>
      </trkpt>
      <trkpt lat="47.87974" lon="6.77801">
        <ele>528.6</ele>
        <time>2026-08-15T11:23:47.000Z</time>
      </trkpt>
      <trkpt lat="47.87963" lon="6.77802">
        <ele>527.4</ele>
        <time>2026-08-15T11:23:49.000Z</time>
      </trkpt>
      <trkpt lat="47.87953" lon="6.77805">
        <ele>525.8</ele>
        <time>2026-08-15T11:23:51.000Z</time>
      </trkpt>
      <trkpt lat="47.87947" lon="6.77807">
        <ele>525.4</ele>
        <time>2026-08-15T11:23:52.000Z</time>
      </trkpt>
      <trkpt lat="47.87943" lon="6.77809">
        <ele>524.8</ele>
        <time>2026-08-15T11:23:53.000Z</time>
      </trkpt>
      <trkpt lat="47.87939" lon="6.77813">
        <ele>524.2</ele>
        <time>2026-08-15T11:23:54.000Z</time>
      </trkpt>
      <trkpt lat="47.87933" lon="6.77822">
        <ele>523.4</ele>
        <time>2026-08-15T11:23:56.000Z</time>
      </trkpt>
      <trkpt lat="47.87929" lon="6.77825">
        <ele>523</ele>
        <time>2026-08-15T11:23:57.000Z</time>
      </trkpt>
      <trkpt lat="47.87922" lon="6.77826">
        <ele>522.2</ele>
        <time>2026-08-15T11:23:59.000Z</time>
      </trkpt>
      <trkpt lat="47.87918" lon="6.77824">
        <ele>521.4</ele>
        <time>2026-08-15T11:24:00.000Z</time>
      </trkpt>
      <trkpt lat="47.87914" lon="6.7782">
        <ele>520.8</ele>
        <time>2026-08-15T11:24:01.000Z</time>
      </trkpt>
      <trkpt lat="47.87906" lon="6.77811">
        <ele>519.4</ele>
        <time>2026-08-15T11:24:03.000Z</time>
      </trkpt>
      <trkpt lat="47.87903" lon="6.77806">
        <ele>518.8</ele>
        <time>2026-08-15T11:24:04.000Z</time>
      </trkpt>
      <trkpt lat="47.879" lon="6.77799">
        <ele>518</ele>
        <time>2026-08-15T11:24:05.000Z</time>
      </trkpt>
      <trkpt lat="47.87899" lon="6.77783">
        <ele>516.6</ele>
        <time>2026-08-15T11:24:07.000Z</time>
      </trkpt>
      <trkpt lat="47.87901" lon="6.77775">
        <ele>516.2</ele>
        <time>2026-08-15T11:24:08.000Z</time>
      </trkpt>
      <trkpt lat="47.87905" lon="6.77768">
        <ele>515.6</ele>
        <time>2026-08-15T11:24:09.000Z</time>
      </trkpt>
      <trkpt lat="47.87907" lon="6.7776">
        <ele>515.2</ele>
        <time>2026-08-15T11:24:10.000Z</time>
      </trkpt>
      <trkpt lat="47.87912" lon="6.77746">
        <ele>515</ele>
        <time>2026-08-15T11:24:12.000Z</time>
      </trkpt>
      <trkpt lat="47.87914" lon="6.77737">
        <ele>515</ele>
        <time>2026-08-15T11:24:14.000Z</time>
      </trkpt>
      <trkpt lat="47.87915" lon="6.7773">
        <ele>515</ele>
        <time>2026-08-15T11:24:16.000Z</time>
      </trkpt>
      <trkpt lat="47.87918" lon="6.77717">
        <ele>514.6</ele>
        <time>2026-08-15T11:24:20.000Z</time>
      </trkpt>
      <trkpt lat="47.87917" lon="6.77711">
        <ele>514.2</ele>
        <time>2026-08-15T11:24:23.000Z</time>
      </trkpt>
      <trkpt lat="47.87916" lon="6.77707">
        <ele>514.2</ele>
        <time>2026-08-15T11:24:25.000Z</time>
      </trkpt>
      <trkpt lat="47.87908" lon="6.77694">
        <ele>514</ele>
        <time>2026-08-15T11:24:29.000Z</time>
      </trkpt>
      <trkpt lat="47.87888" lon="6.77677">
        <ele>513.2</ele>
        <time>2026-08-15T11:24:34.000Z</time>
      </trkpt>
      <trkpt lat="47.87871" lon="6.77666">
        <ele>511.8</ele>
        <time>2026-08-15T11:24:37.000Z</time>
      </trkpt>
      <trkpt lat="47.87865" lon="6.77661">
        <ele>510.8</ele>
        <time>2026-08-15T11:24:38.000Z</time>
      </trkpt>
      <trkpt lat="47.8786" lon="6.77658">
        <ele>509.8</ele>
        <time>2026-08-15T11:24:39.000Z</time>
      </trkpt>
      <trkpt lat="47.87847" lon="6.77653">
        <ele>508.6</ele>
        <time>2026-08-15T11:24:41.000Z</time>
      </trkpt>
      <trkpt lat="47.8784" lon="6.77653">
        <ele>508.6</ele>
        <time>2026-08-15T11:24:42.000Z</time>
      </trkpt>
      <trkpt lat="47.87833" lon="6.77654">
        <ele>508.4</ele>
        <time>2026-08-15T11:24:43.000Z</time>
      </trkpt>
      <trkpt lat="47.87812" lon="6.77654">
        <ele>507.6</ele>
        <time>2026-08-15T11:24:46.000Z</time>
      </trkpt>
      <trkpt lat="47.87798" lon="6.77651">
        <ele>506.8</ele>
        <time>2026-08-15T11:24:48.000Z</time>
      </trkpt>
      <trkpt lat="47.87791" lon="6.77648">
        <ele>506.4</ele>
        <time>2026-08-15T11:24:49.000Z</time>
      </trkpt>
      <trkpt lat="47.87772" lon="6.7764">
        <ele>505.6</ele>
        <time>2026-08-15T11:24:52.000Z</time>
      </trkpt>
      <trkpt lat="47.87766" lon="6.77637">
        <ele>505.4</ele>
        <time>2026-08-15T11:24:53.000Z</time>
      </trkpt>
      <trkpt lat="47.87761" lon="6.77635">
        <ele>505.2</ele>
        <time>2026-08-15T11:24:54.000Z</time>
      </trkpt>
      <trkpt lat="47.87756" lon="6.77632">
        <ele>505</ele>
        <time>2026-08-15T11:24:55.000Z</time>
      </trkpt>
      <trkpt lat="47.87751" lon="6.77629">
        <ele>505</ele>
        <time>2026-08-15T11:24:56.000Z</time>
      </trkpt>
      <trkpt lat="47.87745" lon="6.77627">
        <ele>504.8</ele>
        <time>2026-08-15T11:24:58.000Z</time>
      </trkpt>
      <trkpt lat="47.87737" lon="6.77623">
        <ele>504.4</ele>
        <time>2026-08-15T11:25:02.000Z</time>
      </trkpt>
      <trkpt lat="47.87732" lon="6.77622">
        <ele>504.6</ele>
        <time>2026-08-15T11:25:05.000Z</time>
      </trkpt>
      <trkpt lat="47.87724" lon="6.77622">
        <ele>505</ele>
        <time>2026-08-15T11:25:09.000Z</time>
      </trkpt>
      <trkpt lat="47.87722" lon="6.77622">
        <ele>505</ele>
        <time>2026-08-15T11:25:10.000Z</time>
      </trkpt>
      <trkpt lat="47.87717" lon="6.77623">
        <ele>504.6</ele>
        <time>2026-08-15T11:25:12.000Z</time>
      </trkpt>
      <trkpt lat="47.87709" lon="6.77623">
        <ele>504.2</ele>
        <time>2026-08-15T11:25:14.000Z</time>
      </trkpt>
      <trkpt lat="47.87697" lon="6.77622">
        <ele>504.4</ele>
        <time>2026-08-15T11:25:17.000Z</time>
      </trkpt>
      <trkpt lat="47.87678" lon="6.77622">
        <ele>504.4</ele>
        <time>2026-08-15T11:25:21.000Z</time>
      </trkpt>
      <trkpt lat="47.87659" lon="6.77621">
        <ele>504.8</ele>
        <time>2026-08-15T11:25:25.000Z</time>
      </trkpt>
      <trkpt lat="47.87654" lon="6.77621">
        <ele>504.8</ele>
        <time>2026-08-15T11:25:26.000Z</time>
      </trkpt>
      <trkpt lat="47.87635" lon="6.77621">
        <ele>505.4</ele>
        <time>2026-08-15T11:25:30.000Z</time>
      </trkpt>
      <trkpt lat="47.87616" lon="6.77619">
        <ele>506</ele>
        <time>2026-08-15T11:25:34.000Z</time>
      </trkpt>
      <trkpt lat="47.87612" lon="6.77617">
        <ele>506.2</ele>
        <time>2026-08-15T11:25:35.000Z</time>
      </trkpt>
      <trkpt lat="47.87608" lon="6.77615">
        <ele>506.4</ele>
        <time>2026-08-15T11:25:36.000Z</time>
      </trkpt>
      <trkpt lat="47.87604" lon="6.77612">
        <ele>506.6</ele>
        <time>2026-08-15T11:25:37.000Z</time>
      </trkpt>
      <trkpt lat="47.87592" lon="6.77602">
        <ele>507.4</ele>
        <time>2026-08-15T11:25:40.000Z</time>
      </trkpt>
      <trkpt lat="47.87582" lon="6.77588">
        <ele>507.8</ele>
        <time>2026-08-15T11:25:43.000Z</time>
      </trkpt>
      <trkpt lat="47.87576" lon="6.77577">
        <ele>508</ele>
        <time>2026-08-15T11:25:45.000Z</time>
      </trkpt>
      <trkpt lat="47.87572" lon="6.77565">
        <ele>508.8</ele>
        <time>2026-08-15T11:25:47.000Z</time>
      </trkpt>
      <trkpt lat="47.87571" lon="6.77557">
        <ele>509.4</ele>
        <time>2026-08-15T11:25:48.000Z</time>
      </trkpt>
      <trkpt lat="47.8757" lon="6.7755">
        <ele>510</ele>
        <time>2026-08-15T11:25:49.000Z</time>
      </trkpt>
      <trkpt lat="47.87569" lon="6.77542">
        <ele>510</ele>
        <time>2026-08-15T11:25:50.000Z</time>
      </trkpt>
      <trkpt lat="47.87565" lon="6.77513">
        <ele>510.4</ele>
        <time>2026-08-15T11:25:54.000Z</time>
      </trkpt>
      <trkpt lat="47.87563" lon="6.77492">
        <ele>510.4</ele>
        <time>2026-08-15T11:25:57.000Z</time>
      </trkpt>
      <trkpt lat="47.87561" lon="6.77481">
        <ele>510.4</ele>
        <time>2026-08-15T11:25:59.000Z</time>
      </trkpt>
      <trkpt lat="47.87559" lon="6.77466">
        <ele>510</ele>
        <time>2026-08-15T11:26:02.000Z</time>
      </trkpt>
      <trkpt lat="47.87557" lon="6.77461">
        <ele>510</ele>
        <time>2026-08-15T11:26:03.000Z</time>
      </trkpt>
      <trkpt lat="47.87553" lon="6.77452">
        <ele>510</ele>
        <time>2026-08-15T11:26:05.000Z</time>
      </trkpt>
      <trkpt lat="47.87551" lon="6.77445">
        <ele>510</ele>
        <time>2026-08-15T11:26:06.000Z</time>
      </trkpt>
      <trkpt lat="47.87551" lon="6.77439">
        <ele>510</ele>
        <time>2026-08-15T11:26:07.000Z</time>
      </trkpt>
      <trkpt lat="47.87551" lon="6.77432">
        <ele>509.8</ele>
        <time>2026-08-15T11:26:08.000Z</time>
      </trkpt>
      <trkpt lat="47.8755" lon="6.77402">
        <ele>508.8</ele>
        <time>2026-08-15T11:26:12.000Z</time>
      </trkpt>
      <trkpt lat="47.87547" lon="6.77369">
        <ele>507.8</ele>
        <time>2026-08-15T11:26:16.000Z</time>
      </trkpt>
      <trkpt lat="47.87547" lon="6.77352">
        <ele>508.2</ele>
        <time>2026-08-15T11:26:18.000Z</time>
      </trkpt>
      <trkpt lat="47.87546" lon="6.77343">
        <ele>508</ele>
        <time>2026-08-15T11:26:19.000Z</time>
      </trkpt>
      <trkpt lat="47.87545" lon="6.77316">
        <ele>508.2</ele>
        <time>2026-08-15T11:26:22.000Z</time>
      </trkpt>
      <trkpt lat="47.87543" lon="6.77297">
        <ele>508</ele>
        <time>2026-08-15T11:26:24.000Z</time>
      </trkpt>
      <trkpt lat="47.87542" lon="6.77269">
        <ele>507.8</ele>
        <time>2026-08-15T11:26:27.000Z</time>
      </trkpt>
      <trkpt lat="47.87542" lon="6.77259">
        <ele>507.6</ele>
        <time>2026-08-15T11:26:28.000Z</time>
      </trkpt>
      <trkpt lat="47.8754" lon="6.77231">
        <ele>507.4</ele>
        <time>2026-08-15T11:26:31.000Z</time>
      </trkpt>
      <trkpt lat="47.87538" lon="6.77201">
        <ele>507</ele>
        <time>2026-08-15T11:26:34.000Z</time>
      </trkpt>
      <trkpt lat="47.87536" lon="6.77172">
        <ele>506.6</ele>
        <time>2026-08-15T11:26:37.000Z</time>
      </trkpt>
      <trkpt lat="47.87536" lon="6.77162">
        <ele>506.4</ele>
        <time>2026-08-15T11:26:38.000Z</time>
      </trkpt>
      <trkpt lat="47.87535" lon="6.77151">
        <ele>506.4</ele>
        <time>2026-08-15T11:26:39.000Z</time>
      </trkpt>
      <trkpt lat="47.87533" lon="6.77122">
        <ele>505.8</ele>
        <time>2026-08-15T11:26:42.000Z</time>
      </trkpt>
      <trkpt lat="47.87531" lon="6.77092">
        <ele>505.6</ele>
        <time>2026-08-15T11:26:45.000Z</time>
      </trkpt>
      <trkpt lat="47.8753" lon="6.77072">
        <ele>505.4</ele>
        <time>2026-08-15T11:26:47.000Z</time>
      </trkpt>
      <trkpt lat="47.87529" lon="6.77052">
        <ele>505.4</ele>
        <time>2026-08-15T11:26:49.000Z</time>
      </trkpt>
      <trkpt lat="47.87527" lon="6.77021">
        <ele>505</ele>
        <time>2026-08-15T11:26:52.000Z</time>
      </trkpt>
      <trkpt lat="47.87525" lon="6.76991">
        <ele>504.6</ele>
        <time>2026-08-15T11:26:55.000Z</time>
      </trkpt>
      <trkpt lat="47.87525" lon="6.76972">
        <ele>504.4</ele>
        <time>2026-08-15T11:26:57.000Z</time>
      </trkpt>
      <trkpt lat="47.87525" lon="6.76963">
        <ele>504.2</ele>
        <time>2026-08-15T11:26:58.000Z</time>
      </trkpt>
      <trkpt lat="47.87524" lon="6.76947">
        <ele>504.2</ele>
        <time>2026-08-15T11:27:00.000Z</time>
      </trkpt>
      <trkpt lat="47.8752" lon="6.76932">
        <ele>504.2</ele>
        <time>2026-08-15T11:27:02.000Z</time>
      </trkpt>
      <trkpt lat="47.8752" lon="6.76924">
        <ele>504</ele>
        <time>2026-08-15T11:27:03.000Z</time>
      </trkpt>
      <trkpt lat="47.87521" lon="6.76907">
        <ele>503.8</ele>
        <time>2026-08-15T11:27:05.000Z</time>
      </trkpt>
      <trkpt lat="47.8752" lon="6.76898">
        <ele>503.6</ele>
        <time>2026-08-15T11:27:06.000Z</time>
      </trkpt>
      <trkpt lat="47.87518" lon="6.7687">
        <ele>503.6</ele>
        <time>2026-08-15T11:27:09.000Z</time>
      </trkpt>
      <trkpt lat="47.87517" lon="6.7686">
        <ele>503.2</ele>
        <time>2026-08-15T11:27:10.000Z</time>
      </trkpt>
      <trkpt lat="47.87516" lon="6.7683">
        <ele>503</ele>
        <time>2026-08-15T11:27:13.000Z</time>
      </trkpt>
      <trkpt lat="47.87515" lon="6.7682">
        <ele>503</ele>
        <time>2026-08-15T11:27:14.000Z</time>
      </trkpt>
      <trkpt lat="47.87514" lon="6.7679">
        <ele>502.6</ele>
        <time>2026-08-15T11:27:17.000Z</time>
      </trkpt>
      <trkpt lat="47.87512" lon="6.76761">
        <ele>502.2</ele>
        <time>2026-08-15T11:27:20.000Z</time>
      </trkpt>
      <trkpt lat="47.8751" lon="6.76732">
        <ele>502.2</ele>
        <time>2026-08-15T11:27:23.000Z</time>
      </trkpt>
      <trkpt lat="47.8751" lon="6.76722">
        <ele>502.2</ele>
        <time>2026-08-15T11:27:24.000Z</time>
      </trkpt>
      <trkpt lat="47.87508" lon="6.76692">
        <ele>502.2</ele>
        <time>2026-08-15T11:27:27.000Z</time>
      </trkpt>
      <trkpt lat="47.87506" lon="6.76663">
        <ele>502</ele>
        <time>2026-08-15T11:27:30.000Z</time>
      </trkpt>
      <trkpt lat="47.87504" lon="6.76635">
        <ele>502</ele>
        <time>2026-08-15T11:27:33.000Z</time>
      </trkpt>
      <trkpt lat="47.87502" lon="6.76607">
        <ele>502.4</ele>
        <time>2026-08-15T11:27:36.000Z</time>
      </trkpt>
      <trkpt lat="47.87499" lon="6.7658">
        <ele>502.4</ele>
        <time>2026-08-15T11:27:39.000Z</time>
      </trkpt>
      <trkpt lat="47.87499" lon="6.76571">
        <ele>502.2</ele>
        <time>2026-08-15T11:27:40.000Z</time>
      </trkpt>
      <trkpt lat="47.875" lon="6.76565">
        <ele>502.4</ele>
        <time>2026-08-15T11:27:41.000Z</time>
      </trkpt>
      <trkpt lat="47.875" lon="6.76558">
        <ele>502.4</ele>
        <time>2026-08-15T11:27:42.000Z</time>
      </trkpt>
      <trkpt lat="47.87497" lon="6.76535">
        <ele>502.6</ele>
        <time>2026-08-15T11:27:45.000Z</time>
      </trkpt>
      <trkpt lat="47.87497" lon="6.76527">
        <ele>502.4</ele>
        <time>2026-08-15T11:27:46.000Z</time>
      </trkpt>
      <trkpt lat="47.87498" lon="6.76511">
        <ele>502.4</ele>
        <time>2026-08-15T11:27:48.000Z</time>
      </trkpt>
      <trkpt lat="47.87497" lon="6.76503">
        <ele>502.2</ele>
        <time>2026-08-15T11:27:49.000Z</time>
      </trkpt>
      <trkpt lat="47.87495" lon="6.76468">
        <ele>502.4</ele>
        <time>2026-08-15T11:27:53.000Z</time>
      </trkpt>
      <trkpt lat="47.87495" lon="6.7646">
        <ele>502.4</ele>
        <time>2026-08-15T11:27:54.000Z</time>
      </trkpt>
      <trkpt lat="47.87494" lon="6.76437">
        <ele>501.6</ele>
        <time>2026-08-15T11:27:57.000Z</time>
      </trkpt>
      <trkpt lat="47.87495" lon="6.76429">
        <ele>501.2</ele>
        <time>2026-08-15T11:27:58.000Z</time>
      </trkpt>
      <trkpt lat="47.87495" lon="6.76412">
        <ele>500.6</ele>
        <time>2026-08-15T11:28:00.000Z</time>
      </trkpt>
      <trkpt lat="47.87495" lon="6.76378">
        <ele>501.2</ele>
        <time>2026-08-15T11:28:04.000Z</time>
      </trkpt>
      <trkpt lat="47.87496" lon="6.7637">
        <ele>501</ele>
        <time>2026-08-15T11:28:05.000Z</time>
      </trkpt>
      <trkpt lat="47.87501" lon="6.76356">
        <ele>501</ele>
        <time>2026-08-15T11:28:07.000Z</time>
      </trkpt>
      <trkpt lat="47.87513" lon="6.7634">
        <ele>501.8</ele>
        <time>2026-08-15T11:28:11.000Z</time>
      </trkpt>
      <trkpt lat="47.87526" lon="6.76316">
        <ele>501.8</ele>
        <time>2026-08-15T11:28:15.000Z</time>
      </trkpt>
      <trkpt lat="47.87527" lon="6.76308">
        <ele>502</ele>
        <time>2026-08-15T11:28:16.000Z</time>
      </trkpt>
      <trkpt lat="47.87528" lon="6.76299">
        <ele>502</ele>
        <time>2026-08-15T11:28:17.000Z</time>
      </trkpt>
      <trkpt lat="47.87531" lon="6.76269">
        <ele>501.6</ele>
        <time>2026-08-15T11:28:21.000Z</time>
      </trkpt>
      <trkpt lat="47.87531" lon="6.76262">
        <ele>501.6</ele>
        <time>2026-08-15T11:28:22.000Z</time>
      </trkpt>
      <trkpt lat="47.87529" lon="6.76248">
        <ele>501.6</ele>
        <time>2026-08-15T11:28:24.000Z</time>
      </trkpt>
      <trkpt lat="47.87525" lon="6.7624">
        <ele>501.8</ele>
        <time>2026-08-15T11:28:26.000Z</time>
      </trkpt>
      <trkpt lat="47.87524" lon="6.7624">
        <ele>502</ele>
        <time>2026-08-15T11:28:29.000Z</time>
      </trkpt>
      <trkpt lat="47.87524" lon="6.76239">
        <ele>502</ele>
        <time>2026-08-15T11:28:30.000Z</time>
      </trkpt>
      <trkpt lat="47.87524" lon="6.76239">
        <ele>501.8</ele>
        <time>2026-08-15T11:28:34.000Z</time>
      </trkpt>
    </trkseg>
  </trk>
</gpx>